<?xml version='1.0' encoding='UTF-8'?><gpx version="1.1" creator="JPX - https://github.com/jenetics/jpx" xmlns="http://www.topografix.com/GPX/1/1"><trk><trkseg><trkpt lat="41.899716819428235" lon="12.678876397407718"><ele>66.0</ele><time>2026-04-03T08:43:13Z</time></trkpt><trkpt lat="41.899601446652206" lon="12.678945046352759"><ele>66.0</ele><time>2026-04-03T08:43:15Z</time></trkpt><trkpt lat="41.8994936661339" lon="12.679000324440901"><ele>66.0</ele><time>2026-04-03T08:43:16Z</time></trkpt><trkpt lat="41.899356088227705" lon="12.679077877829421"><ele>66.0</ele><time>2026-04-03T08:43:17Z</time></trkpt><trkpt lat="41.899228123356735" lon="12.679162641329526"><ele>67.25</ele><time>2026-04-03T08:43:18Z</time></trkpt><trkpt lat="41.89910766793988" lon="12.679243468563135"><ele>68.5</ele><time>2026-04-03T08:43:19Z</time></trkpt><trkpt lat="41.89896762201477" lon="12.679306059391136"><ele>69.75</ele><time>2026-04-03T08:43:20Z</time></trkpt><trkpt lat="41.89882595878992" lon="12.679392920789255"><ele>71.0</ele><time>2026-04-03T08:43:21Z</time></trkpt><trkpt lat="41.8986894591468" lon="12.679476608691697"><ele>71.2</ele><time>2026-04-03T08:43:22Z</time></trkpt><trkpt lat="41.89856699263616" lon="12.679550632465943"><ele>71.39999999999999</ele><time>2026-04-03T08:43:23Z</time></trkpt><trkpt lat="41.8984777971862" lon="12.679604335209941"><ele>71.6</ele><time>2026-04-03T08:43:24Z</time></trkpt><trkpt lat="41.898393275750365" lon="12.679655489073102"><ele>71.8</ele><time>2026-04-03T08:43:25Z</time></trkpt><trkpt lat="41.89831353492988" lon="12.679703861736463"><ele>72.0</ele><time>2026-04-03T08:43:26Z</time></trkpt><trkpt lat="41.898232428940545" lon="12.679753062544187"><ele>72.5</ele><time>2026-04-03T08:43:27Z</time></trkpt><trkpt lat="41.898169903596475" lon="12.679791225367808"><ele>73.0</ele><time>2026-04-03T08:43:28Z</time></trkpt><trkpt lat="41.89807864912638" lon="12.679863579003776"><ele>73.5</ele><time>2026-04-03T08:43:29Z</time></trkpt><trkpt lat="41.89795379096687" lon="12.679923804548789"><ele>74.0</ele><time>2026-04-03T08:43:30Z</time></trkpt><trkpt lat="41.897800439257075" lon="12.680017881611896"><ele>74.0</ele><time>2026-04-03T08:43:31Z</time></trkpt><trkpt lat="41.89763409112846" lon="12.680123049288268"><ele>74.0</ele><time>2026-04-03T08:43:32Z</time></trkpt><trkpt lat="41.8974403201751" lon="12.680224797894704"><ele>74.0</ele><time>2026-04-03T08:43:33Z</time></trkpt><trkpt lat="41.89724799322419" lon="12.680347833591258"><ele>73.66666666666667</ele><time>2026-04-03T08:43:34Z</time></trkpt><trkpt lat="41.897054736108764" lon="12.680479622869857"><ele>73.33333333333333</ele><time>2026-04-03T08:43:35Z</time></trkpt><trkpt lat="41.896866419472" lon="12.680600692055695"><ele>73.0</ele><time>2026-04-03T08:43:36Z</time></trkpt><trkpt lat="41.896684349192185" lon="12.680700959703788"><ele>71.66666666666666</ele><time>2026-04-03T08:43:37Z</time></trkpt><trkpt lat="41.896506160018106" lon="12.680808403664209"><ele>70.33333333333333</ele><time>2026-04-03T08:43:38Z</time></trkpt><trkpt lat="41.89633746576621" lon="12.680909292066021"><ele>69.0</ele><time>2026-04-03T08:43:39Z</time></trkpt><trkpt lat="41.89620555323286" lon="12.680989703927793"><ele>69.0</ele><time>2026-04-03T08:43:40Z</time></trkpt><trkpt lat="41.89609591383461" lon="12.68105873692964"><ele>69.0</ele><time>2026-04-03T08:43:41Z</time></trkpt><trkpt lat="41.89600766600631" lon="12.681110860535945"><ele>69.0</ele><time>2026-04-03T08:43:42Z</time></trkpt><trkpt lat="41.8959262367559" lon="12.68115947172443"><ele>69.0</ele><time>2026-04-03T08:43:43Z</time></trkpt><trkpt lat="41.895836129823614" lon="12.681218506694577"><ele>69.0</ele><time>2026-04-03T08:43:44Z</time></trkpt><trkpt lat="41.895737518613295" lon="12.681279009157826"><ele>69.0</ele><time>2026-04-03T08:43:45Z</time></trkpt><trkpt lat="41.8956451460711" lon="12.681326744091825"><ele>69.0</ele><time>2026-04-03T08:43:46Z</time></trkpt><trkpt lat="41.89557345910458" lon="12.681327874046262"><ele>69.0</ele><time>2026-04-03T08:43:47Z</time></trkpt><trkpt lat="41.89551951094651" lon="12.681255778958702"><ele>69.0</ele><time>2026-04-03T08:43:48Z</time></trkpt><trkpt lat="41.89546485343227" lon="12.681033308980584"><ele>69.0</ele><time>2026-04-03T08:43:50Z</time></trkpt><trkpt lat="41.89543254348513" lon="12.680916234710372"><ele>69.5</ele><time>2026-04-03T08:43:51Z</time></trkpt><trkpt lat="41.89538475241199" lon="12.680799608314436"><ele>70.0</ele><time>2026-04-03T08:43:52Z</time></trkpt><trkpt lat="41.89534287449906" lon="12.680631721059386"><ele>70.5</ele><time>2026-04-03T08:43:53Z</time></trkpt><trkpt lat="41.89527380040585" lon="12.680426345672608"><ele>71.0</ele><time>2026-04-03T08:43:54Z</time></trkpt><trkpt lat="41.895187718052966" lon="12.680224667918088"><ele>71.66666666666667</ele><time>2026-04-03T08:43:55Z</time></trkpt><trkpt lat="41.89512114652557" lon="12.680006937329939"><ele>72.33333333333333</ele><time>2026-04-03T08:43:56.001Z</time></trkpt><trkpt lat="41.89506446152444" lon="12.679831158021509"><ele>73.0</ele><time>2026-04-03T08:43:57.001Z</time></trkpt><trkpt lat="41.895002096158976" lon="12.67966831268817"><ele>73.5</ele><time>2026-04-03T08:43:58.001Z</time></trkpt><trkpt lat="41.89494165766968" lon="12.67949263764916"><ele>74.0</ele><time>2026-04-03T08:43:59.001Z</time></trkpt><trkpt lat="41.89488678035089" lon="12.67932422467255"><ele>74.5</ele><time>2026-04-03T08:44:00.001Z</time></trkpt><trkpt lat="41.89482982064077" lon="12.679162933112897"><ele>75.0</ele><time>2026-04-03T08:44:01.001Z</time></trkpt><trkpt lat="41.894779818573916" lon="12.679001489698802"><ele>75.0</ele><time>2026-04-03T08:44:02.001Z</time></trkpt><trkpt lat="41.894728050302426" lon="12.678865646248893"><ele>75.0</ele><time>2026-04-03T08:44:03.001Z</time></trkpt><trkpt lat="41.89467099450352" lon="12.678698047286067"><ele>75.0</ele><time>2026-04-03T08:44:04.001Z</time></trkpt><trkpt lat="41.894611967112525" lon="12.678527551706223"><ele>75.0</ele><time>2026-04-03T08:44:05.001Z</time></trkpt><trkpt lat="41.89456580649655" lon="12.678396406740264"><ele>74.8</ele><time>2026-04-03T08:44:06.001Z</time></trkpt><trkpt lat="41.8945167991825" lon="12.678291815821087"><ele>74.6</ele><time>2026-04-03T08:44:07.001Z</time></trkpt><trkpt lat="41.89445131941624" lon="12.678218999439824"><ele>74.4</ele><time>2026-04-03T08:44:08.001Z</time></trkpt><trkpt lat="41.89436889195225" lon="12.678199830617094"><ele>74.2</ele><time>2026-04-03T08:44:09.001Z</time></trkpt><trkpt lat="41.89424819148725" lon="12.67821516009833"><ele>74.0</ele><time>2026-04-03T08:44:10.001Z</time></trkpt><trkpt lat="41.89412722339822" lon="12.678292578373348"><ele>74.0</ele><time>2026-04-03T08:44:11.001Z</time></trkpt><trkpt lat="41.89398363856319" lon="12.67840062446241"><ele>74.0</ele><time>2026-04-03T08:44:12.001Z</time></trkpt><trkpt lat="41.89381916486233" lon="12.678506257623086"><ele>74.0</ele><time>2026-04-03T08:44:13.001Z</time></trkpt><trkpt lat="41.89365360658478" lon="12.678599664939052"><ele>74.0</ele><time>2026-04-03T08:44:14.001Z</time></trkpt><trkpt lat="41.893486334488614" lon="12.67870290940075"><ele>74.0</ele><time>2026-04-03T08:44:15.001Z</time></trkpt><trkpt lat="41.89331538540613" lon="12.6788034163482"><ele>74.0</ele><time>2026-04-03T08:44:16.001Z</time></trkpt><trkpt lat="41.893135081959144" lon="12.678901589341924"><ele>73.66666666666667</ele><time>2026-04-03T08:44:17.001Z</time></trkpt><trkpt lat="41.89295427734463" lon="12.679010857888963"><ele>73.33333333333333</ele><time>2026-04-03T08:44:18.001Z</time></trkpt><trkpt lat="41.89279882607475" lon="12.67910716779246"><ele>73.0</ele><time>2026-04-03T08:44:19.001Z</time></trkpt><trkpt lat="41.89263105132458" lon="12.67920723525703"><ele>73.66666666666666</ele><time>2026-04-03T08:44:20.001Z</time></trkpt><trkpt lat="41.89245423747629" lon="12.679313736095768"><ele>74.33333333333333</ele><time>2026-04-03T08:44:21.001Z</time></trkpt><trkpt lat="41.89227732831535" lon="12.679420493716707"><ele>75.0</ele><time>2026-04-03T08:44:22.001Z</time></trkpt><trkpt lat="41.892107423348726" lon="12.679522021231833"><ele>75.33333333333333</ele><time>2026-04-03T08:44:23.001Z</time></trkpt><trkpt lat="41.891946646664124" lon="12.67962470507331"><ele>75.66666666666666</ele><time>2026-04-03T08:44:24.001Z</time></trkpt><trkpt lat="41.89178821706803" lon="12.67972575646694"><ele>76.0</ele><time>2026-04-03T08:44:25.001Z</time></trkpt><trkpt lat="41.891648167643844" lon="12.679814296879421"><ele>76.0</ele><time>2026-04-03T08:44:26.001Z</time></trkpt><trkpt lat="41.891486384090896" lon="12.679910931041867"><ele>76.0</ele><time>2026-04-03T08:44:27.001Z</time></trkpt><trkpt lat="41.8912953862655" lon="12.680014262919837"><ele>76.0</ele><time>2026-04-03T08:44:28.001Z</time></trkpt><trkpt lat="41.89106490335556" lon="12.680146253845365"><ele>75.66666666666666</ele><time>2026-04-03T08:44:29.001Z</time></trkpt><trkpt lat="41.89087360687525" lon="12.680260432359697"><ele>75.33333333333333</ele><time>2026-04-03T08:44:30.001Z</time></trkpt><trkpt lat="41.890725545381436" lon="12.680352462292158"><ele>75.0</ele><time>2026-04-03T08:44:31.001Z</time></trkpt><trkpt lat="41.89061829375568" lon="12.68041921448452"><ele>75.0</ele><time>2026-04-03T08:44:32.001Z</time></trkpt><trkpt lat="41.89054009935255" lon="12.680478599416476"><ele>75.0</ele><time>2026-04-03T08:44:33.001Z</time></trkpt><trkpt lat="41.89046434183096" lon="12.680524693603871"><ele>75.0</ele><time>2026-04-03T08:44:34.001Z</time></trkpt><trkpt lat="41.890456451611676" lon="12.680680550264034"><ele>75.0</ele><time>2026-04-03T08:44:35.001Z</time></trkpt><trkpt lat="41.89044887799958" lon="12.680861453783404"><ele>75.0</ele><time>2026-04-03T08:44:36.001Z</time></trkpt><trkpt lat="41.89044987201058" lon="12.681088927035367"><ele>75.0</ele><time>2026-04-03T08:44:37.001Z</time></trkpt><trkpt lat="41.890446709593036" lon="12.681335759634807"><ele>75.0</ele><time>2026-04-03T08:44:38.001Z</time></trkpt><trkpt lat="41.89043271938041" lon="12.681595626552182"><ele>75.0</ele><time>2026-04-03T08:44:39.001Z</time></trkpt><trkpt lat="41.89041159641853" lon="12.68188066946241"><ele>74.0</ele><time>2026-04-03T08:44:40.001Z</time></trkpt><trkpt lat="41.89038155145463" lon="12.682183314289608"><ele>73.0</ele><time>2026-04-03T08:44:41.001Z</time></trkpt><trkpt lat="41.89035075857611" lon="12.682505199035814"><ele>73.0</ele><time>2026-04-03T08:44:42.001Z</time></trkpt><trkpt lat="41.890318826146064" lon="12.682860803159045"><ele>73.0</ele><time>2026-04-03T08:44:43.001Z</time></trkpt><trkpt lat="41.89028982385159" lon="12.683208230982357"><ele>73.0</ele><time>2026-04-03T08:44:44.001Z</time></trkpt><trkpt lat="41.89027997058723" lon="12.683520903622586"><ele>73.0</ele><time>2026-04-03T08:44:45.001Z</time></trkpt><trkpt lat="41.890276240378086" lon="12.683823769492433"><ele>73.0</ele><time>2026-04-03T08:44:46.001Z</time></trkpt><trkpt lat="41.890275983403875" lon="12.684146355412404"><ele>73.0</ele><time>2026-04-03T08:44:47.001Z</time></trkpt><trkpt lat="41.89027351320116" lon="12.684475657232822"><ele>69.0</ele><time>2026-04-03T08:44:48.001Z</time></trkpt><trkpt lat="41.89027640207016" lon="12.684795823366652"><ele>65.0</ele><time>2026-04-03T08:44:49.001Z</time></trkpt><trkpt lat="41.890274276704886" lon="12.685096862275604"><ele>63.66666666666667</ele><time>2026-04-03T08:44:50.001Z</time></trkpt><trkpt lat="41.890264530499955" lon="12.6853632804717"><ele>62.33333333333333</ele><time>2026-04-03T08:44:51.001Z</time></trkpt><trkpt lat="41.89025951819419" lon="12.685604277942701"><ele>61.0</ele><time>2026-04-03T08:44:52.001Z</time></trkpt><trkpt lat="41.89025679785696" lon="12.685828594196009"><ele>61.0</ele><time>2026-04-03T08:44:53.001Z</time></trkpt><trkpt lat="41.89025402563439" lon="12.686058591920583"><ele>61.0</ele><time>2026-04-03T08:44:54.001Z</time></trkpt><trkpt lat="41.89024968609128" lon="12.686276129727272"><ele>61.0</ele><time>2026-04-03T08:44:55.001Z</time></trkpt><trkpt lat="41.89024594551524" lon="12.686466983132402"><ele>61.0</ele><time>2026-04-03T08:44:56.001Z</time></trkpt><trkpt lat="41.890239188007875" lon="12.686663982626127"><ele>61.0</ele><time>2026-04-03T08:44:57.001Z</time></trkpt><trkpt lat="41.89022281489901" lon="12.686873648185463"><ele>61.0</ele><time>2026-04-03T08:44:58.001Z</time></trkpt><trkpt lat="41.890202553398126" lon="12.687110803913185"><ele>61.666666666666664</ele><time>2026-04-03T08:44:59.001Z</time></trkpt><trkpt lat="41.89018373976935" lon="12.687365743457779"><ele>62.33333333333333</ele><time>2026-04-03T08:45:00.001Z</time></trkpt><trkpt lat="41.89015869577365" lon="12.687620377290678"><ele>63.0</ele><time>2026-04-03T08:45:01.001Z</time></trkpt><trkpt lat="41.890125455764036" lon="12.687862485376172"><ele>64.33333333333333</ele><time>2026-04-03T08:45:02.001Z</time></trkpt><trkpt lat="41.890092714356925" lon="12.688096028082386"><ele>65.66666666666666</ele><time>2026-04-03T08:45:03.001Z</time></trkpt><trkpt lat="41.890062188803974" lon="12.688323741558388"><ele>67.0</ele><time>2026-04-03T08:45:04.001Z</time></trkpt><trkpt lat="41.89003238668742" lon="12.688548072251058"><ele>67.33333333333333</ele><time>2026-04-03T08:45:05.001Z</time></trkpt><trkpt lat="41.889997169891394" lon="12.688799201156261"><ele>67.66666666666667</ele><time>2026-04-03T08:45:06.001Z</time></trkpt><trkpt lat="41.88995632066564" lon="12.689077303527613"><ele>68.0</ele><time>2026-04-03T08:45:07.001Z</time></trkpt><trkpt lat="41.88991883337728" lon="12.689333192566446"><ele>68.0</ele><time>2026-04-03T08:45:08Z</time></trkpt><trkpt lat="41.88988200806887" lon="12.689548933713935"><ele>68.0</ele><time>2026-04-03T08:45:09Z</time></trkpt><trkpt lat="41.889846281671616" lon="12.689726395871388"><ele>68.0</ele><time>2026-04-03T08:45:10Z</time></trkpt><trkpt lat="41.8898135587878" lon="12.689894739258774"><ele>68.0</ele><time>2026-04-03T08:45:11Z</time></trkpt><trkpt lat="41.88976822691614" lon="12.6900845599671"><ele>67.33333333333334</ele><time>2026-04-03T08:45:12Z</time></trkpt><trkpt lat="41.88971096323302" lon="12.690287848895068"><ele>66.66666666666667</ele><time>2026-04-03T08:45:13Z</time></trkpt><trkpt lat="41.8896547578281" lon="12.690495016619996"><ele>66.0</ele><time>2026-04-03T08:45:14Z</time></trkpt><trkpt lat="41.88959582518255" lon="12.690686416577448"><ele>66.0</ele><time>2026-04-03T08:45:15Z</time></trkpt><trkpt lat="41.889543931083296" lon="12.690861958735805"><ele>66.0</ele><time>2026-04-03T08:45:16Z</time></trkpt><trkpt lat="41.889502294082945" lon="12.691007098010541"><ele>66.0</ele><time>2026-04-03T08:45:17Z</time></trkpt><trkpt lat="41.88947396462373" lon="12.691111542520183"><ele>66.0</ele><time>2026-04-03T08:45:18Z</time></trkpt><trkpt lat="41.88941797961086" lon="12.691222307566276"><ele>66.0</ele><time>2026-04-03T08:45:20Z</time></trkpt><trkpt lat="41.88939601383759" lon="12.691331846215734"><ele>64.66666666666667</ele><time>2026-04-03T08:45:21Z</time></trkpt><trkpt lat="41.8894691705362" lon="12.69150649318559"><ele>63.333333333333336</ele><time>2026-04-03T08:45:22Z</time></trkpt><trkpt lat="41.889500134454515" lon="12.69172485069833"><ele>62.0</ele><time>2026-04-03T08:45:23Z</time></trkpt><trkpt lat="41.88951216030076" lon="12.691991724280586"><ele>60.5</ele><time>2026-04-03T08:45:24Z</time></trkpt><trkpt lat="41.88955515886677" lon="12.692324784787203"><ele>59.0</ele><time>2026-04-03T08:45:25Z</time></trkpt><trkpt lat="41.88957702698092" lon="12.692646813665238"><ele>58.5</ele><time>2026-04-03T08:45:26Z</time></trkpt><trkpt lat="41.889600525346346" lon="12.692885420200815"><ele>58.0</ele><time>2026-04-03T08:45:27Z</time></trkpt><trkpt lat="41.88962074232125" lon="12.693051151570623"><ele>57.5</ele><time>2026-04-03T08:45:28Z</time></trkpt><trkpt lat="41.88964448845364" lon="12.693194717772046"><ele>57.0</ele><time>2026-04-03T08:45:29Z</time></trkpt><trkpt lat="41.8896799405384" lon="12.69334802629352"><ele>57.0</ele><time>2026-04-03T08:45:30Z</time></trkpt><trkpt lat="41.88972609599987" lon="12.693525755316147"><ele>57.0</ele><time>2026-04-03T08:45:31Z</time></trkpt><trkpt lat="41.889773186212146" lon="12.69371392077354"><ele>57.0</ele><time>2026-04-03T08:45:32Z</time></trkpt><trkpt lat="41.88982882079414" lon="12.693898788517986"><ele>57.0</ele><time>2026-04-03T08:45:33Z</time></trkpt><trkpt lat="41.889873887840864" lon="12.69404053409327"><ele>57.0</ele><time>2026-04-03T08:45:34Z</time></trkpt><trkpt lat="41.889912768686045" lon="12.694174315054214"><ele>57.0</ele><time>2026-04-03T08:45:35Z</time></trkpt><trkpt lat="41.88995906252911" lon="12.694320394876742"><ele>57.0</ele><time>2026-04-03T08:45:36Z</time></trkpt><trkpt lat="41.89000558216835" lon="12.694469367743928"><ele>57.0</ele><time>2026-04-03T08:45:37Z</time></trkpt><trkpt lat="41.89004629867196" lon="12.694599922684036"><ele>57.0</ele><time>2026-04-03T08:45:38Z</time></trkpt><trkpt lat="41.89008133248294" lon="12.694705978001632"><ele>57.0</ele><time>2026-04-03T08:45:39Z</time></trkpt><trkpt lat="41.89010967348323" lon="12.694792524570481"><ele>57.0</ele><time>2026-04-03T08:45:40Z</time></trkpt><trkpt lat="41.890136157116544" lon="12.694877174086324"><ele>57.0</ele><time>2026-04-03T08:45:41Z</time></trkpt><trkpt lat="41.8901626737606" lon="12.694970861320986"><ele>57.0</ele><time>2026-04-03T08:45:42Z</time></trkpt><trkpt lat="41.89019450292305" lon="12.69509291810613"><ele>57.0</ele><time>2026-04-03T08:45:43Z</time></trkpt><trkpt lat="41.89023896444608" lon="12.695272121424978"><ele>55.0</ele><time>2026-04-03T08:45:44Z</time></trkpt><trkpt lat="41.89029427603726" lon="12.695479764982922"><ele>53.0</ele><time>2026-04-03T08:45:45Z</time></trkpt><trkpt lat="41.89034711920315" lon="12.695709169918079"><ele>51.0</ele><time>2026-04-03T08:45:46Z</time></trkpt><trkpt lat="41.89038666715451" lon="12.695937118675909"><ele>50.5</ele><time>2026-04-03T08:45:47Z</time></trkpt><trkpt lat="41.89041277675973" lon="12.696153920396837"><ele>50.0</ele><time>2026-04-03T08:45:48Z</time></trkpt><trkpt lat="41.89042774904154" lon="12.696350504797486"><ele>49.5</ele><time>2026-04-03T08:45:49Z</time></trkpt><trkpt lat="41.89043712014572" lon="12.696517397459585"><ele>49.0</ele><time>2026-04-03T08:45:50Z</time></trkpt><trkpt lat="41.890448542755955" lon="12.696656535435334"><ele>49.0</ele><time>2026-04-03T08:45:51Z</time></trkpt><trkpt lat="41.890459427391335" lon="12.696779322227748"><ele>49.0</ele><time>2026-04-03T08:45:52Z</time></trkpt><trkpt lat="41.89047642178636" lon="12.696912193838957"><ele>49.0</ele><time>2026-04-03T08:45:53Z</time></trkpt><trkpt lat="41.89050377946187" lon="12.697055448620429"><ele>49.0</ele><time>2026-04-03T08:45:54Z</time></trkpt><trkpt lat="41.890546083674245" lon="12.697187191509501"><ele>49.0</ele><time>2026-04-03T08:45:55Z</time></trkpt><trkpt lat="41.89061832136065" lon="12.697331886483418"><ele>49.33333333333333</ele><time>2026-04-03T08:45:56Z</time></trkpt><trkpt lat="41.89068056154178" lon="12.697500237366079"><ele>49.66666666666667</ele><time>2026-04-03T08:45:57Z</time></trkpt><trkpt lat="41.89078143520413" lon="12.69775425122744"><ele>50.0</ele><time>2026-04-03T08:45:58Z</time></trkpt><trkpt lat="41.890905257878664" lon="12.698063003302346"><ele>53.5</ele><time>2026-04-03T08:45:59Z</time></trkpt><trkpt lat="41.891016324687065" lon="12.698402003838092"><ele>57.0</ele><time>2026-04-03T08:46:00Z</time></trkpt><trkpt lat="41.89114114175844" lon="12.698702850817625"><ele>57.33333333333333</ele><time>2026-04-03T08:46:01Z</time></trkpt><trkpt lat="41.89122463962505" lon="12.698951056792225"><ele>57.666666666666664</ele><time>2026-04-03T08:46:02Z</time></trkpt><trkpt lat="41.89127291468003" lon="12.699108450328035"><ele>58.0</ele><time>2026-04-03T08:46:03Z</time></trkpt><trkpt lat="41.89132522145456" lon="12.69935409151937"><ele>58.666666666666664</ele><time>2026-04-03T08:46:04Z</time></trkpt><trkpt lat="41.89141385554749" lon="12.699625883935523"><ele>59.33333333333333</ele><time>2026-04-03T08:46:05Z</time></trkpt><trkpt lat="41.89149246439834" lon="12.699866934420301"><ele>60.0</ele><time>2026-04-03T08:46:06Z</time></trkpt><trkpt lat="41.89158583546512" lon="12.70015574515498"><ele>60.0</ele><time>2026-04-03T08:46:07Z</time></trkpt><trkpt lat="41.89169898251117" lon="12.700418099453847"><ele>60.0</ele><time>2026-04-03T08:46:08.001Z</time></trkpt><trkpt lat="41.89175814912519" lon="12.700581454818852"><ele>60.0</ele><time>2026-04-03T08:46:09.001Z</time></trkpt><trkpt lat="41.89188700017047" lon="12.70071377651738"><ele>61.0</ele><time>2026-04-03T08:46:10.001Z</time></trkpt><trkpt lat="41.892056579784644" lon="12.700786495002829"><ele>62.0</ele><time>2026-04-03T08:46:11.001Z</time></trkpt><trkpt lat="41.892264569084084" lon="12.700875701124572"><ele>63.0</ele><time>2026-04-03T08:46:12.001Z</time></trkpt><trkpt lat="41.89255884871646" lon="12.700979002751387"><ele>63.5</ele><time>2026-04-03T08:46:13.001Z</time></trkpt><trkpt lat="41.89282053407485" lon="12.701098979321813"><ele>64.0</ele><time>2026-04-03T08:46:14.001Z</time></trkpt><trkpt lat="41.8930800756679" lon="12.701254733512886"><ele>64.0</ele><time>2026-04-03T08:46:15.001Z</time></trkpt><trkpt lat="41.893336267802106" lon="12.701422757033694"><ele>64.0</ele><time>2026-04-03T08:46:16.001Z</time></trkpt><trkpt lat="41.893527009988595" lon="12.701565252863421"><ele>64.0</ele><time>2026-04-03T08:46:17.001Z</time></trkpt><trkpt lat="41.89372314141524" lon="12.701713668421757"><ele>64.0</ele><time>2026-04-03T08:46:18.001Z</time></trkpt><trkpt lat="41.89388052938654" lon="12.701828699701332"><ele>64.0</ele><time>2026-04-03T08:46:19.001Z</time></trkpt><trkpt lat="41.894023095436914" lon="12.701934874816066"><ele>64.0</ele><time>2026-04-03T08:46:20.001Z</time></trkpt><trkpt lat="41.89418159228356" lon="12.702069923745505"><ele>64.0</ele><time>2026-04-03T08:46:21.001Z</time></trkpt><trkpt lat="41.89432745479504" lon="12.702198296052314"><ele>64.0</ele><time>2026-04-03T08:46:22.001Z</time></trkpt><trkpt lat="41.89448000333551" lon="12.702319432607126"><ele>64.0</ele><time>2026-04-03T08:46:23.001Z</time></trkpt><trkpt lat="41.89460922093542" lon="12.70241669190847"><ele>64.0</ele><time>2026-04-03T08:46:24.001Z</time></trkpt><trkpt lat="41.89470062093568" lon="12.702500327996695"><ele>64.0</ele><time>2026-04-03T08:46:25.001Z</time></trkpt><trkpt lat="41.89477120983081" lon="12.702580879884264"><ele>64.0</ele><time>2026-04-03T08:46:26.001Z</time></trkpt><trkpt lat="41.894839204317876" lon="12.702648478673158"><ele>64.0</ele><time>2026-04-03T08:46:27.001Z</time></trkpt><trkpt lat="41.894905295764644" lon="12.70269946359412"><ele>63.25</ele><time>2026-04-03T08:46:28.001Z</time></trkpt><trkpt lat="41.894975297910314" lon="12.7027485760185"><ele>62.5</ele><time>2026-04-03T08:46:29.001Z</time></trkpt><trkpt lat="41.89507764272024" lon="12.702824703239557"><ele>61.75</ele><time>2026-04-03T08:46:30.001Z</time></trkpt><trkpt lat="41.89520305569084" lon="12.702909892173446"><ele>61.0</ele><time>2026-04-03T08:46:31.001Z</time></trkpt><trkpt lat="41.89534325110268" lon="12.703009501317785"><ele>61.0</ele><time>2026-04-03T08:46:32.001Z</time></trkpt><trkpt lat="41.895497937392484" lon="12.703129046162614"><ele>61.0</ele><time>2026-04-03T08:46:33.001Z</time></trkpt><trkpt lat="41.89563546969797" lon="12.703233318963242"><ele>61.0</ele><time>2026-04-03T08:46:34.001Z</time></trkpt><trkpt lat="41.89575604456454" lon="12.703322807798097"><ele>61.0</ele><time>2026-04-03T08:46:35.001Z</time></trkpt><trkpt lat="41.89588493721764" lon="12.703416716824"><ele>61.0</ele><time>2026-04-03T08:46:36.001Z</time></trkpt><trkpt lat="41.89604870207592" lon="12.703535393327089"><ele>61.0</ele><time>2026-04-03T08:46:37.001Z</time></trkpt><trkpt lat="41.89627289574215" lon="12.703717526865105"><ele>61.0</ele><time>2026-04-03T08:46:38.001Z</time></trkpt><trkpt lat="41.896549239509824" lon="12.70393126583209"><ele>61.0</ele><time>2026-04-03T08:46:39.001Z</time></trkpt><trkpt lat="41.896868134618416" lon="12.704161900733137"><ele>63.0</ele><time>2026-04-03T08:46:40.001Z</time></trkpt><trkpt lat="41.89720602228165" lon="12.704424508502305"><ele>65.0</ele><time>2026-04-03T08:46:41.001Z</time></trkpt><trkpt lat="41.89754890401601" lon="12.704698885516423"><ele>64.5</ele><time>2026-04-03T08:46:42.001Z</time></trkpt><trkpt lat="41.89791606763826" lon="12.704968666270434"><ele>64.0</ele><time>2026-04-03T08:46:43.001Z</time></trkpt><trkpt lat="41.89823957760258" lon="12.705202087935328"><ele>67.0</ele><time>2026-04-03T08:46:44.001Z</time></trkpt><trkpt lat="41.898507846552675" lon="12.705399566904578"><ele>70.0</ele><time>2026-04-03T08:46:45.001Z</time></trkpt><trkpt lat="41.89874793526382" lon="12.70557874146888"><ele>70.0</ele><time>2026-04-03T08:46:46.001Z</time></trkpt><trkpt lat="41.898974063853636" lon="12.70575054211274"><ele>70.0</ele><time>2026-04-03T08:46:47.001Z</time></trkpt><trkpt lat="41.89920088683295" lon="12.705926884650948"><ele>72.5</ele><time>2026-04-03T08:46:48.001Z</time></trkpt><trkpt lat="41.89947009142806" lon="12.706129312326926"><ele>75.0</ele><time>2026-04-03T08:46:49.001Z</time></trkpt><trkpt lat="41.89975641604884" lon="12.70634925529745"><ele>75.0</ele><time>2026-04-03T08:46:50.001Z</time></trkpt><trkpt lat="41.90003238239969" lon="12.706588682862979"><ele>75.0</ele><time>2026-04-03T08:46:51.001Z</time></trkpt><trkpt lat="41.900343385156354" lon="12.706826098072767"><ele>74.5</ele><time>2026-04-03T08:46:52.001Z</time></trkpt><trkpt lat="41.90063215398697" lon="12.70701301815517"><ele>74.0</ele><time>2026-04-03T08:46:53.001Z</time></trkpt><trkpt lat="41.90088260405543" lon="12.707180089044638"><ele>72.5</ele><time>2026-04-03T08:46:54.001Z</time></trkpt><trkpt lat="41.90112058218832" lon="12.707336769842367"><ele>71.0</ele><time>2026-04-03T08:46:55.001Z</time></trkpt><trkpt lat="41.90136792036362" lon="12.707504027907582"><ele>71.0</ele><time>2026-04-03T08:46:56.001Z</time></trkpt><trkpt lat="41.90162983967832" lon="12.707665713068327"><ele>71.0</ele><time>2026-04-03T08:46:57.001Z</time></trkpt><trkpt lat="41.90186528847828" lon="12.707813086522721"><ele>69.5</ele><time>2026-04-03T08:46:58.001Z</time></trkpt><trkpt lat="41.9021097795183" lon="12.707973112416127"><ele>68.0</ele><time>2026-04-03T08:46:59.001Z</time></trkpt><trkpt lat="41.902361791424184" lon="12.708169908437384"><ele>68.5</ele><time>2026-04-03T08:47:00.001Z</time></trkpt><trkpt lat="41.902620836271076" lon="12.708330346634092"><ele>69.0</ele><time>2026-04-03T08:47:01.001Z</time></trkpt><trkpt lat="41.90288187430351" lon="12.70851825449124"><ele>69.0</ele><time>2026-04-03T08:47:02.001Z</time></trkpt><trkpt lat="41.903127186371464" lon="12.708690743279796"><ele>69.0</ele><time>2026-04-03T08:47:03.001Z</time></trkpt><trkpt lat="41.90334180020486" lon="12.708840452312513"><ele>69.0</ele><time>2026-04-03T08:47:04.001Z</time></trkpt><trkpt lat="41.90354368985597" lon="12.708979612545471"><ele>69.0</ele><time>2026-04-03T08:47:05.001Z</time></trkpt><trkpt lat="41.90372773674292" lon="12.709111363998748"><ele>69.0</ele><time>2026-04-03T08:47:06.001Z</time></trkpt><trkpt lat="41.90392129842645" lon="12.70924419600276"><ele>69.0</ele><time>2026-04-03T08:47:07.001Z</time></trkpt><trkpt lat="41.90410896455073" lon="12.709374006371801"><ele>69.0</ele><time>2026-04-03T08:47:08.001Z</time></trkpt><trkpt lat="41.9043165416257" lon="12.709517236755657"><ele>69.0</ele><time>2026-04-03T08:47:09.001Z</time></trkpt><trkpt lat="41.90455137370015" lon="12.709697313607498"><ele>67.5</ele><time>2026-04-03T08:47:10.001Z</time></trkpt><trkpt lat="41.90479588190043" lon="12.709904270568087"><ele>66.0</ele><time>2026-04-03T08:47:11.001Z</time></trkpt><trkpt lat="41.90499591889927" lon="12.710086761986444"><ele>64.66666666666667</ele><time>2026-04-03T08:47:12.001Z</time></trkpt><trkpt lat="41.90516950952119" lon="12.71025588830321"><ele>63.333333333333336</ele><time>2026-04-03T08:47:13.001Z</time></trkpt><trkpt lat="41.905307654421414" lon="12.710445505908439"><ele>62.0</ele><time>2026-04-03T08:47:14Z</time></trkpt><trkpt lat="41.90541525652826" lon="12.710684118033802"><ele>62.0</ele><time>2026-04-03T08:47:15Z</time></trkpt><trkpt lat="41.90549235758549" lon="12.710972095381145"><ele>62.0</ele><time>2026-04-03T08:47:16Z</time></trkpt><trkpt lat="41.90556531648653" lon="12.71131887525665"><ele>63.5</ele><time>2026-04-03T08:47:17Z</time></trkpt><trkpt lat="41.905639767512525" lon="12.711729536955104"><ele>65.0</ele><time>2026-04-03T08:47:18Z</time></trkpt><trkpt lat="41.90572360404547" lon="12.71216350514756"><ele>65.0</ele><time>2026-04-03T08:47:19Z</time></trkpt><trkpt lat="41.90582109696564" lon="12.712643556562554"><ele>65.0</ele><time>2026-04-03T08:47:20Z</time></trkpt><trkpt lat="41.90590770604749" lon="12.713123521923391"><ele>65.5</ele><time>2026-04-03T08:47:21Z</time></trkpt><trkpt lat="41.90599566351978" lon="12.713616342019712"><ele>66.0</ele><time>2026-04-03T08:47:22Z</time></trkpt><trkpt lat="41.906089981512366" lon="12.714117575253638"><ele>64.0</ele><time>2026-04-03T08:47:23Z</time></trkpt><trkpt lat="41.90619335328033" lon="12.714649055097132"><ele>62.0</ele><time>2026-04-03T08:47:24Z</time></trkpt><trkpt lat="41.90630382842834" lon="12.715204570898926"><ele>60.0</ele><time>2026-04-03T08:47:25Z</time></trkpt><trkpt lat="41.90640172393156" lon="12.71572137357637"><ele>58.0</ele><time>2026-04-03T08:47:26Z</time></trkpt><trkpt lat="41.90649184424298" lon="12.71618980205217"><ele>58.0</ele><time>2026-04-03T08:47:27Z</time></trkpt><trkpt lat="41.90657710279836" lon="12.716636440603196"><ele>58.0</ele><time>2026-04-03T08:47:28Z</time></trkpt><trkpt lat="41.90666824730505" lon="12.717067889729629"><ele>59.0</ele><time>2026-04-03T08:47:29Z</time></trkpt><trkpt lat="41.90675717854414" lon="12.717474520784574"><ele>60.0</ele><time>2026-04-03T08:47:30Z</time></trkpt><trkpt lat="41.906830810985774" lon="12.71782831243876"><ele>64.5</ele><time>2026-04-03T08:47:31Z</time></trkpt><trkpt lat="41.90690126092817" lon="12.718163616643196"><ele>69.0</ele><time>2026-04-03T08:47:32Z</time></trkpt><trkpt lat="41.906970523837074" lon="12.71850098338074"><ele>70.0</ele><time>2026-04-03T08:47:33Z</time></trkpt><trkpt lat="41.90703340966973" lon="12.718833630426305"><ele>71.0</ele><time>2026-04-03T08:47:34Z</time></trkpt><trkpt lat="41.90709994723871" lon="12.719164584518703"><ele>69.5</ele><time>2026-04-03T08:47:35Z</time></trkpt><trkpt lat="41.90716688734734" lon="12.719522990621128"><ele>68.0</ele><time>2026-04-03T08:47:36Z</time></trkpt><trkpt lat="41.907238225068745" lon="12.719905286850896"><ele>66.5</ele><time>2026-04-03T08:47:37Z</time></trkpt><trkpt lat="41.90731978459824" lon="12.720318047486497"><ele>65.0</ele><time>2026-04-03T08:47:38Z</time></trkpt><trkpt lat="41.90740546522745" lon="12.720748837264559"><ele>63.5</ele><time>2026-04-03T08:47:39Z</time></trkpt><trkpt lat="41.90748131395166" lon="12.721153608192974"><ele>62.0</ele><time>2026-04-03T08:47:40Z</time></trkpt><trkpt lat="41.90755292719784" lon="12.721529993905571"><ele>61.5</ele><time>2026-04-03T08:47:41Z</time></trkpt><trkpt lat="41.90762500614098" lon="12.721895579093651"><ele>61.0</ele><time>2026-04-03T08:47:42Z</time></trkpt><trkpt lat="41.9077016987962" lon="12.722242231901964"><ele>60.5</ele><time>2026-04-03T08:47:43Z</time></trkpt><trkpt lat="41.90777872028202" lon="12.72253848462069"><ele>60.0</ele><time>2026-04-03T08:47:44Z</time></trkpt><trkpt lat="41.907871792524276" lon="12.722805389187087"><ele>60.0</ele><time>2026-04-03T08:47:45Z</time></trkpt><trkpt lat="41.90801658348314" lon="12.723061743157281"><ele>60.0</ele><time>2026-04-03T08:47:46Z</time></trkpt><trkpt lat="41.90820543650307" lon="12.723312395979537"><ele>60.0</ele><time>2026-04-03T08:47:47Z</time></trkpt><trkpt lat="41.90840312804762" lon="12.72353431115711"><ele>60.0</ele><time>2026-04-03T08:47:48Z</time></trkpt><trkpt lat="41.90861176940341" lon="12.723776206442047"><ele>58.0</ele><time>2026-04-03T08:47:49Z</time></trkpt><trkpt lat="41.90883233101789" lon="12.724041990828447"><ele>56.0</ele><time>2026-04-03T08:47:50Z</time></trkpt><trkpt lat="41.90905245560087" lon="12.7243377515309"><ele>53.0</ele><time>2026-04-03T08:47:51Z</time></trkpt><trkpt lat="41.90928314587183" lon="12.724642676931158"><ele>50.0</ele><time>2026-04-03T08:47:52Z</time></trkpt><trkpt lat="41.90953551778044" lon="12.724952865166685"><ele>49.0</ele><time>2026-04-03T08:47:53Z</time></trkpt><trkpt lat="41.90979383251813" lon="12.725269106213922"><ele>48.0</ele><time>2026-04-03T08:47:54Z</time></trkpt><trkpt lat="41.910033178306485" lon="12.725575938495979"><ele>48.0</ele><time>2026-04-03T08:47:55Z</time></trkpt><trkpt lat="41.910245799926344" lon="12.72586472234015"><ele>48.0</ele><time>2026-04-03T08:47:56Z</time></trkpt><trkpt lat="41.9104371400466" lon="12.726148306551451"><ele>47.0</ele><time>2026-04-03T08:47:57Z</time></trkpt><trkpt lat="41.91062729736748" lon="12.726422074486743"><ele>46.0</ele><time>2026-04-03T08:47:58Z</time></trkpt><trkpt lat="41.910810861692845" lon="12.726695316864362"><ele>46.0</ele><time>2026-04-03T08:47:59Z</time></trkpt><trkpt lat="41.910975035969386" lon="12.726942324015388"><ele>46.0</ele><time>2026-04-03T08:48:00Z</time></trkpt><trkpt lat="41.91112447398464" lon="12.727178618998284"><ele>46.0</ele><time>2026-04-03T08:48:01Z</time></trkpt><trkpt lat="41.91127345860887" lon="12.727407898599289"><ele>46.0</ele><time>2026-04-03T08:48:02Z</time></trkpt><trkpt lat="41.91141370073556" lon="12.727628867448825"><ele>46.0</ele><time>2026-04-03T08:48:03Z</time></trkpt><trkpt lat="41.9115511185462" lon="12.727862235037456"><ele>45.5</ele><time>2026-04-03T08:48:04Z</time></trkpt><trkpt lat="41.911694703122556" lon="12.72811539057407"><ele>45.0</ele><time>2026-04-03T08:48:05Z</time></trkpt><trkpt lat="41.91183539975746" lon="12.728380485442427"><ele>45.5</ele><time>2026-04-03T08:48:06Z</time></trkpt><trkpt lat="41.911970976700495" lon="12.728638426577412"><ele>46.0</ele><time>2026-04-03T08:48:07Z</time></trkpt><trkpt lat="41.91210497632837" lon="12.728918361483137"><ele>46.0</ele><time>2026-04-03T08:48:08Z</time></trkpt><trkpt lat="41.912234212389215" lon="12.729158780424665"><ele>46.0</ele><time>2026-04-03T08:48:09Z</time></trkpt><trkpt lat="41.91234894199419" lon="12.729383561098613"><ele>46.0</ele><time>2026-04-03T08:48:10Z</time></trkpt><trkpt lat="41.91244711895156" lon="12.72957605167831"><ele>46.333333333333336</ele><time>2026-04-03T08:48:11Z</time></trkpt><trkpt lat="41.91254606401248" lon="12.729772409238223"><ele>46.666666666666664</ele><time>2026-04-03T08:48:12Z</time></trkpt><trkpt lat="41.91265400870585" lon="12.729983561989858"><ele>47.0</ele><time>2026-04-03T08:48:13Z</time></trkpt><trkpt lat="41.91276317373646" lon="12.730203278809695"><ele>46.75</ele><time>2026-04-03T08:48:14Z</time></trkpt><trkpt lat="41.91285887425159" lon="12.730399052314231"><ele>46.5</ele><time>2026-04-03T08:48:15Z</time></trkpt><trkpt lat="41.912942052035994" lon="12.730568176710037"><ele>46.25</ele><time>2026-04-03T08:48:16Z</time></trkpt><trkpt lat="41.91300916779831" lon="12.73070193864067"><ele>46.0</ele><time>2026-04-03T08:48:17Z</time></trkpt><trkpt lat="41.91306390776083" lon="12.730818005977632"><ele>46.0</ele><time>2026-04-03T08:48:18Z</time></trkpt><trkpt lat="41.913109289652525" lon="12.730916568302568"><ele>46.0</ele><time>2026-04-03T08:48:19.001Z</time></trkpt><trkpt lat="41.91315525617621" lon="12.731011270734632"><ele>46.0</ele><time>2026-04-03T08:48:20.001Z</time></trkpt><trkpt lat="41.91319028045081" lon="12.731099280275906"><ele>46.0</ele><time>2026-04-03T08:48:21.001Z</time></trkpt><trkpt lat="41.91322608025535" lon="12.731180291647323"><ele>46.0</ele><time>2026-04-03T08:48:22.001Z</time></trkpt><trkpt lat="41.91326882964887" lon="12.731271970023199"><ele>46.0</ele><time>2026-04-03T08:48:23.001Z</time></trkpt><trkpt lat="41.91331755704734" lon="12.731370138731515"><ele>46.25</ele><time>2026-04-03T08:48:24.001Z</time></trkpt><trkpt lat="41.913385428392715" lon="12.7314930331657"><ele>46.5</ele><time>2026-04-03T08:48:25.001Z</time></trkpt><trkpt lat="41.91347232256609" lon="12.731638420668798"><ele>46.75</ele><time>2026-04-03T08:48:26.001Z</time></trkpt><trkpt lat="41.9135748023113" lon="12.731860284364677"><ele>47.0</ele><time>2026-04-03T08:48:27.001Z</time></trkpt><trkpt lat="41.913687959363344" lon="12.732111183559146"><ele>46.25</ele><time>2026-04-03T08:48:28.001Z</time></trkpt><trkpt lat="41.91378952925447" lon="12.732320670798739"><ele>45.5</ele><time>2026-04-03T08:48:29.001Z</time></trkpt><trkpt lat="41.91387037412096" lon="12.732482006456992"><ele>44.75</ele><time>2026-04-03T08:48:30.001Z</time></trkpt><trkpt lat="41.91392861392168" lon="12.732601751371904"><ele>44.0</ele><time>2026-04-03T08:48:31.001Z</time></trkpt><trkpt lat="41.913977953027405" lon="12.732706445032573"><ele>44.33333333333333</ele><time>2026-04-03T08:48:32.001Z</time></trkpt><trkpt lat="41.9140417934356" lon="12.732841716429386"><ele>44.666666666666664</ele><time>2026-04-03T08:48:33.001Z</time></trkpt><trkpt lat="41.91415189182414" lon="12.733048750840526"><ele>45.0</ele><time>2026-04-03T08:48:34.001Z</time></trkpt><trkpt lat="41.91429771917812" lon="12.733347789853593"><ele>44.0</ele><time>2026-04-03T08:48:35.001Z</time></trkpt><trkpt lat="41.91443405646648" lon="12.73364680765187"><ele>43.0</ele><time>2026-04-03T08:48:36.001Z</time></trkpt><trkpt lat="41.91455194630387" lon="12.733886077248318"><ele>43.0</ele><time>2026-04-03T08:48:37.001Z</time></trkpt><trkpt lat="41.91469928451128" lon="12.734170452031373"><ele>43.0</ele><time>2026-04-03T08:48:38.001Z</time></trkpt><trkpt lat="41.91486080037017" lon="12.734495106633828"><ele>43.0</ele><time>2026-04-03T08:48:39.001Z</time></trkpt><trkpt lat="41.91502266355033" lon="12.734837972572516"><ele>43.0</ele><time>2026-04-03T08:48:40.001Z</time></trkpt><trkpt lat="41.91518895766582" lon="12.735159565932294"><ele>42.0</ele><time>2026-04-03T08:48:41.001Z</time></trkpt><trkpt lat="41.915385322331694" lon="12.735505005454092"><ele>41.0</ele><time>2026-04-03T08:48:42.001Z</time></trkpt><trkpt lat="41.915565817581424" lon="12.735820283790684"><ele>42.5</ele><time>2026-04-03T08:48:43.001Z</time></trkpt><trkpt lat="41.91576327891378" lon="12.736139520485573"><ele>44.0</ele><time>2026-04-03T08:48:44.001Z</time></trkpt><trkpt lat="41.915963236290246" lon="12.736451344674348"><ele>44.0</ele><time>2026-04-03T08:48:45.001Z</time></trkpt><trkpt lat="41.9161655466244" lon="12.736757268305263"><ele>44.0</ele><time>2026-04-03T08:48:46.001Z</time></trkpt><trkpt lat="41.916369040103206" lon="12.737069152048553"><ele>46.0</ele><time>2026-04-03T08:48:47.001Z</time></trkpt><trkpt lat="41.916535323819865" lon="12.73739600878533"><ele>48.0</ele><time>2026-04-03T08:48:48.001Z</time></trkpt><trkpt lat="41.916713583269136" lon="12.737742407165298"><ele>49.5</ele><time>2026-04-03T08:48:49.001Z</time></trkpt><trkpt lat="41.91688381964411" lon="12.738056581765091"><ele>51.0</ele><time>2026-04-03T08:48:50.001Z</time></trkpt><trkpt lat="41.91704506642168" lon="12.738355808948555"><ele>52.0</ele><time>2026-04-03T08:48:51.001Z</time></trkpt><trkpt lat="41.91719646856876" lon="12.738638930250671"><ele>53.0</ele><time>2026-04-03T08:48:52.001Z</time></trkpt><trkpt lat="41.91734157355188" lon="12.738888301570803"><ele>53.0</ele><time>2026-04-03T08:48:53.001Z</time></trkpt><trkpt lat="41.91750525776972" lon="12.739178307260971"><ele>53.0</ele><time>2026-04-03T08:48:54.001Z</time></trkpt><trkpt lat="41.917668171131304" lon="12.739503824672617"><ele>55.0</ele><time>2026-04-03T08:48:55.001Z</time></trkpt><trkpt lat="41.9178374399334" lon="12.739806760954282"><ele>57.0</ele><time>2026-04-03T08:48:56.001Z</time></trkpt><trkpt lat="41.91797270441538" lon="12.740041640677324"><ele>57.5</ele><time>2026-04-03T08:48:57.001Z</time></trkpt><trkpt lat="41.91807897065892" lon="12.740265510226287"><ele>58.0</ele><time>2026-04-03T08:48:58.001Z</time></trkpt><trkpt lat="41.918213562322464" lon="12.740571536780157"><ele>58.0</ele><time>2026-04-03T08:48:59.001Z</time></trkpt><trkpt lat="41.9183432733047" lon="12.740946210620136"><ele>58.0</ele><time>2026-04-03T08:49:00.001Z</time></trkpt><trkpt lat="41.91845171474187" lon="12.741312731462944"><ele>59.0</ele><time>2026-04-03T08:49:01.001Z</time></trkpt><trkpt lat="41.91855237256781" lon="12.741682380128635"><ele>60.0</ele><time>2026-04-03T08:49:02.001Z</time></trkpt><trkpt lat="41.91863528277797" lon="12.742099932822557"><ele>61.0</ele><time>2026-04-03T08:49:03.001Z</time></trkpt><trkpt lat="41.918745445967254" lon="12.742493174547532"><ele>62.0</ele><time>2026-04-03T08:49:04.001Z</time></trkpt><trkpt lat="41.918830899586716" lon="12.742868783936823"><ele>63.0</ele><time>2026-04-03T08:49:05.001Z</time></trkpt><trkpt lat="41.9189264583403" lon="12.743217671890715"><ele>64.0</ele><time>2026-04-03T08:49:06.001Z</time></trkpt><trkpt lat="41.919047396341014" lon="12.743640919680903"><ele>65.0</ele><time>2026-04-03T08:49:07.001Z</time></trkpt><trkpt lat="41.91918230614701" lon="12.744110403873671"><ele>66.0</ele><time>2026-04-03T08:49:08.001Z</time></trkpt><trkpt lat="41.919334667437795" lon="12.744653543184635"><ele>66.0</ele><time>2026-04-03T08:49:09.001Z</time></trkpt><trkpt lat="41.91948642389232" lon="12.745175591493373"><ele>66.0</ele><time>2026-04-03T08:49:10.001Z</time></trkpt><trkpt lat="41.919623660935095" lon="12.74563417672173"><ele>68.5</ele><time>2026-04-03T08:49:11.001Z</time></trkpt><trkpt lat="41.919753703798705" lon="12.746061123424935"><ele>71.0</ele><time>2026-04-03T08:49:12.001Z</time></trkpt><trkpt lat="41.91989177391808" lon="12.746514448817322"><ele>70.5</ele><time>2026-04-03T08:49:13.001Z</time></trkpt><trkpt lat="41.92003277617709" lon="12.746945483320356"><ele>70.0</ele><time>2026-04-03T08:49:14.001Z</time></trkpt><trkpt lat="41.92019048852597" lon="12.747338579552364"><ele>70.0</ele><time>2026-04-03T08:49:15.001Z</time></trkpt><trkpt lat="41.920374867012285" lon="12.747713464069776"><ele>70.0</ele><time>2026-04-03T08:49:16.001Z</time></trkpt><trkpt lat="41.92056645773543" lon="12.74806130204522"><ele>70.0</ele><time>2026-04-03T08:49:17.001Z</time></trkpt><trkpt lat="41.92073150619785" lon="12.748388201483737"><ele>70.0</ele><time>2026-04-03T08:49:18.001Z</time></trkpt><trkpt lat="41.920863184987525" lon="12.748752294938217"><ele>66.5</ele><time>2026-04-03T08:49:19.001Z</time></trkpt><trkpt lat="41.92094625629645" lon="12.749128793026623"><ele>63.0</ele><time>2026-04-03T08:49:20Z</time></trkpt><trkpt lat="41.92099668273292" lon="12.749516249826074"><ele>60.0</ele><time>2026-04-03T08:49:21Z</time></trkpt><trkpt lat="41.921061111392554" lon="12.749892388490892"><ele>57.0</ele><time>2026-04-03T08:49:22Z</time></trkpt><trkpt lat="41.92112868884278" lon="12.750241932546452"><ele>55.5</ele><time>2026-04-03T08:49:23Z</time></trkpt><trkpt lat="41.92119421445273" lon="12.750589687418953"><ele>54.0</ele><time>2026-04-03T08:49:24Z</time></trkpt><trkpt lat="41.92125932866563" lon="12.750930208923597"><ele>52.33333333333333</ele><time>2026-04-03T08:49:25Z</time></trkpt><trkpt lat="41.921312669918116" lon="12.75124540362627"><ele>50.666666666666664</ele><time>2026-04-03T08:49:26Z</time></trkpt><trkpt lat="41.92135205990484" lon="12.75150705122549"><ele>49.0</ele><time>2026-04-03T08:49:27Z</time></trkpt><trkpt lat="41.921384270451284" lon="12.751733009345388"><ele>48.666666666666664</ele><time>2026-04-03T08:49:28Z</time></trkpt><trkpt lat="41.92142750282745" lon="12.751954308738002"><ele>48.33333333333333</ele><time>2026-04-03T08:49:29Z</time></trkpt><trkpt lat="41.92146546504828" lon="12.752196339348954"><ele>48.0</ele><time>2026-04-03T08:49:30Z</time></trkpt><trkpt lat="41.92148387515895" lon="12.752428615327307"><ele>48.0</ele><time>2026-04-03T08:49:31Z</time></trkpt><trkpt lat="41.921498524791964" lon="12.752619871059531"><ele>48.0</ele><time>2026-04-03T08:49:32Z</time></trkpt><trkpt lat="41.92151558253371" lon="12.75277951531964"><ele>48.0</ele><time>2026-04-03T08:49:33Z</time></trkpt><trkpt lat="41.921533569298994" lon="12.752896634310371"><ele>48.0</ele><time>2026-04-03T08:49:34Z</time></trkpt><trkpt lat="41.921569785973965" lon="12.753028665117084"><ele>49.33333333333333</ele><time>2026-04-03T08:49:36Z</time></trkpt><trkpt lat="41.921651532205296" lon="12.753175365385932"><ele>50.666666666666664</ele><time>2026-04-03T08:49:38Z</time></trkpt><trkpt lat="41.921771176265324" lon="12.753315091354514"><ele>52.0</ele><time>2026-04-03T08:49:39Z</time></trkpt><trkpt lat="41.92191782528752" lon="12.753477632082145"><ele>53.5</ele><time>2026-04-03T08:49:40Z</time></trkpt><trkpt lat="41.92203866021164" lon="12.753586264074874"><ele>55.0</ele><time>2026-04-03T08:49:41Z</time></trkpt><trkpt lat="41.922123606972335" lon="12.753668873306314"><ele>56.5</ele><time>2026-04-03T08:49:42Z</time></trkpt><trkpt lat="41.922196151917525" lon="12.753737337194034"><ele>58.0</ele><time>2026-04-03T08:49:43Z</time></trkpt><trkpt lat="41.9223142518688" lon="12.753836371622503"><ele>58.0</ele><time>2026-04-03T08:49:44Z</time></trkpt><trkpt lat="41.92247221512906" lon="12.753978673856441"><ele>58.0</ele><time>2026-04-03T08:49:45Z</time></trkpt><trkpt lat="41.922647022133376" lon="12.75416798199188"><ele>58.0</ele><time>2026-04-03T08:49:46Z</time></trkpt><trkpt lat="41.9228564583533" lon="12.754411390036934"><ele>63.5</ele><time>2026-04-03T08:49:47Z</time></trkpt><trkpt lat="41.923102162159815" lon="12.754646107156091"><ele>69.0</ele><time>2026-04-03T08:49:48Z</time></trkpt><trkpt lat="41.92332681425226" lon="12.754845275812285"><ele>75.0</ele><time>2026-04-03T08:49:49Z</time></trkpt><trkpt lat="41.923535589192525" lon="12.755032963280156"><ele>81.0</ele><time>2026-04-03T08:49:50Z</time></trkpt><trkpt lat="41.92374537316538" lon="12.755236639347839"><ele>81.0</ele><time>2026-04-03T08:49:51Z</time></trkpt><trkpt lat="41.92398007766917" lon="12.755472534642973"><ele>81.0</ele><time>2026-04-03T08:49:52Z</time></trkpt><trkpt lat="41.92418169875789" lon="12.755675415766376"><ele>83.0</ele><time>2026-04-03T08:49:53Z</time></trkpt><trkpt lat="41.92436423842807" lon="12.755818188988453"><ele>85.0</ele><time>2026-04-03T08:49:54Z</time></trkpt><trkpt lat="41.924543142389396" lon="12.755904212621282"><ele>87.0</ele><time>2026-04-03T08:49:55Z</time></trkpt><trkpt lat="41.924739180296996" lon="12.755921375408228"><ele>87.0</ele><time>2026-04-03T08:49:56Z</time></trkpt><trkpt lat="41.924938088088496" lon="12.755865753043716"><ele>87.0</ele><time>2026-04-03T08:49:57Z</time></trkpt><trkpt lat="41.92512932711674" lon="12.755731184137392"><ele>87.0</ele><time>2026-04-03T08:49:58Z</time></trkpt><trkpt lat="41.925322343803266" lon="12.755555862100634"><ele>85.66666666666667</ele><time>2026-04-03T08:49:59Z</time></trkpt><trkpt lat="41.92549307288232" lon="12.755413763712777"><ele>84.33333333333334</ele><time>2026-04-03T08:50:00Z</time></trkpt><trkpt lat="41.92567979191552" lon="12.755292407741132"><ele>83.0</ele><time>2026-04-03T08:50:01Z</time></trkpt><trkpt lat="41.92590819861334" lon="12.755162824169538"><ele>79.5</ele><time>2026-04-03T08:50:02Z</time></trkpt><trkpt lat="41.926157149214525" lon="12.755038057731394"><ele>76.0</ele><time>2026-04-03T08:50:03Z</time></trkpt><trkpt lat="41.92639114925661" lon="12.754914462811948"><ele>76.0</ele><time>2026-04-03T08:50:04Z</time></trkpt><trkpt lat="41.926567780995136" lon="12.754821908346146"><ele>76.0</ele><time>2026-04-03T08:50:05Z</time></trkpt><trkpt lat="41.92673316261483" lon="12.754735624320672"><ele>76.0</ele><time>2026-04-03T08:50:06Z</time></trkpt><trkpt lat="41.9269069602137" lon="12.754635352463245"><ele>75.5</ele><time>2026-04-03T08:50:07Z</time></trkpt><trkpt lat="41.92714524102316" lon="12.754501176967858"><ele>75.0</ele><time>2026-04-03T08:50:08Z</time></trkpt><trkpt lat="41.9274179602548" lon="12.754363898384955"><ele>71.66666666666667</ele><time>2026-04-03T08:50:09Z</time></trkpt><trkpt lat="41.92762446820776" lon="12.754275460933204"><ele>68.33333333333334</ele><time>2026-04-03T08:50:10Z</time></trkpt><trkpt lat="41.92777763632996" lon="12.754206106652939"><ele>65.0</ele><time>2026-04-03T08:50:11Z</time></trkpt><trkpt lat="41.92792722025225" lon="12.754168019850743"><ele>65.0</ele><time>2026-04-03T08:50:12Z</time></trkpt><trkpt lat="41.92805244285562" lon="12.754141866145254"><ele>65.0</ele><time>2026-04-03T08:50:13Z</time></trkpt><trkpt lat="41.928165887430545" lon="12.754141641371481"><ele>65.0</ele><time>2026-04-03T08:50:14Z</time></trkpt><trkpt lat="41.928326288664366" lon="12.754197426713308"><ele>65.0</ele><time>2026-04-03T08:50:15Z</time></trkpt><trkpt lat="41.92849531282751" lon="12.754277144852905"><ele>62.0</ele><time>2026-04-03T08:50:16Z</time></trkpt><trkpt lat="41.92868832524074" lon="12.754390786942215"><ele>59.0</ele><time>2026-04-03T08:50:17Z</time></trkpt><trkpt lat="41.92893217365545" lon="12.754537732576575"><ele>59.0</ele><time>2026-04-03T08:50:18Z</time></trkpt><trkpt lat="41.92921276923313" lon="12.754710882930597"><ele>59.0</ele><time>2026-04-03T08:50:19Z</time></trkpt><trkpt lat="41.9294479991745" lon="12.754849281467964"><ele>59.333333333333336</ele><time>2026-04-03T08:50:20Z</time></trkpt><trkpt lat="41.92962655213856" lon="12.754970351019404"><ele>59.66666666666667</ele><time>2026-04-03T08:50:21Z</time></trkpt><trkpt lat="41.92978919382546" lon="12.755050494805538"><ele>60.0</ele><time>2026-04-03T08:50:22Z</time></trkpt><trkpt lat="41.92994639053392" lon="12.755079216760796"><ele>59.75</ele><time>2026-04-03T08:50:23Z</time></trkpt><trkpt lat="41.930092970167884" lon="12.755060503014613"><ele>59.5</ele><time>2026-04-03T08:50:24Z</time></trkpt><trkpt lat="41.93023636297021" lon="12.75501996806545"><ele>59.25</ele><time>2026-04-03T08:50:25Z</time></trkpt><trkpt lat="41.93035468304947" lon="12.754966498680208"><ele>59.0</ele><time>2026-04-03T08:50:26Z</time></trkpt><trkpt lat="41.930483932535964" lon="12.754896601223008"><ele>59.0</ele><time>2026-04-03T08:50:27Z</time></trkpt><trkpt lat="41.930656233295814" lon="12.754804382909295"><ele>59.0</ele><time>2026-04-03T08:50:28Z</time></trkpt><trkpt lat="41.930839223871814" lon="12.754708730992183"><ele>59.0</ele><time>2026-04-03T08:50:29Z</time></trkpt><trkpt lat="41.931009046743775" lon="12.754580585621254"><ele>58.66666666666667</ele><time>2026-04-03T08:50:30Z</time></trkpt><trkpt lat="41.93115388386428" lon="12.754473477081463"><ele>58.33333333333333</ele><time>2026-04-03T08:50:31Z</time></trkpt><trkpt lat="41.931286738043454" lon="12.754391409170148"><ele>58.0</ele><time>2026-04-03T08:50:32Z</time></trkpt><trkpt lat="41.931437480355264" lon="12.754338241793329"><ele>57.33333333333333</ele><time>2026-04-03T08:50:33Z</time></trkpt><trkpt lat="41.931604113259816" lon="12.754328898218008"><ele>56.66666666666667</ele><time>2026-04-03T08:50:34.001Z</time></trkpt><trkpt lat="41.93178827598424" lon="12.754377918619456"><ele>56.0</ele><time>2026-04-03T08:50:35.001Z</time></trkpt><trkpt lat="41.931976400148834" lon="12.75447152749051"><ele>56.0</ele><time>2026-04-03T08:50:36.001Z</time></trkpt><trkpt lat="41.93212801600518" lon="12.754583935378436"><ele>56.0</ele><time>2026-04-03T08:50:37.001Z</time></trkpt><trkpt lat="41.93227895212631" lon="12.754696683095847"><ele>56.0</ele><time>2026-04-03T08:50:38.001Z</time></trkpt><trkpt lat="41.93245848871635" lon="12.754806707216755"><ele>55.66666666666667</ele><time>2026-04-03T08:50:39.001Z</time></trkpt><trkpt lat="41.93265313200682" lon="12.754928172429512"><ele>55.33333333333333</ele><time>2026-04-03T08:50:40.001Z</time></trkpt><trkpt lat="41.93286200532965" lon="12.755029901233058"><ele>55.0</ele><time>2026-04-03T08:50:41.001Z</time></trkpt><trkpt lat="41.9330863604081" lon="12.75511697723328"><ele>55.0</ele><time>2026-04-03T08:50:42.001Z</time></trkpt><trkpt lat="41.93332250788677" lon="12.75515389176245"><ele>55.0</ele><time>2026-04-03T08:50:43.001Z</time></trkpt><trkpt lat="41.93357784804611" lon="12.755125352259729"><ele>57.0</ele><time>2026-04-03T08:50:44.001Z</time></trkpt><trkpt lat="41.93384833158958" lon="12.75506464937117"><ele>59.0</ele><time>2026-04-03T08:50:45.001Z</time></trkpt><trkpt lat="41.934117458496615" lon="12.755002628786182"><ele>61.0</ele><time>2026-04-03T08:50:46.001Z</time></trkpt><trkpt lat="41.93438782120247" lon="12.754951020716343"><ele>63.0</ele><time>2026-04-03T08:50:47.001Z</time></trkpt><trkpt lat="41.93465635316008" lon="12.75488105444089"><ele>63.0</ele><time>2026-04-03T08:50:48.001Z</time></trkpt><trkpt lat="41.93490966255326" lon="12.754813711731089"><ele>63.0</ele><time>2026-04-03T08:50:49.001Z</time></trkpt><trkpt lat="41.93513146067605" lon="12.754756949271433"><ele>61.66666666666667</ele><time>2026-04-03T08:50:50.001Z</time></trkpt><trkpt lat="41.935334536635835" lon="12.754703307557453"><ele>60.333333333333336</ele><time>2026-04-03T08:50:51.001Z</time></trkpt><trkpt lat="41.9355223896939" lon="12.754663713771432"><ele>59.0</ele><time>2026-04-03T08:50:52.001Z</time></trkpt><trkpt lat="41.935686165676806" lon="12.754623698222037"><ele>59.0</ele><time>2026-04-03T08:50:53.001Z</time></trkpt><trkpt lat="41.93584340818704" lon="12.754634001042318"><ele>59.0</ele><time>2026-04-03T08:50:54.001Z</time></trkpt><trkpt lat="41.93601059297038" lon="12.754632222372676"><ele>59.0</ele><time>2026-04-03T08:50:55.001Z</time></trkpt><trkpt lat="41.93620639930314" lon="12.754647262297103"><ele>56.0</ele><time>2026-04-03T08:50:56.001Z</time></trkpt><trkpt lat="41.93640650676797" lon="12.754701305775216"><ele>53.0</ele><time>2026-04-03T08:50:57.001Z</time></trkpt><trkpt lat="41.93661378122622" lon="12.75477853963703"><ele>50.0</ele><time>2026-04-03T08:50:58.001Z</time></trkpt><trkpt lat="41.93682616291452" lon="12.754850908438373"><ele>49.66666666666667</ele><time>2026-04-03T08:50:59.001Z</time></trkpt><trkpt lat="41.93704013554966" lon="12.75495931041471"><ele>49.33333333333333</ele><time>2026-04-03T08:51:00.001Z</time></trkpt><trkpt lat="41.93724897397702" lon="12.755047929899108"><ele>49.0</ele><time>2026-04-03T08:51:01.001Z</time></trkpt><trkpt lat="41.937421501152116" lon="12.755115959842096"><ele>49.25</ele><time>2026-04-03T08:51:02.001Z</time></trkpt><trkpt lat="41.93757279763712" lon="12.755162723677335"><ele>49.5</ele><time>2026-04-03T08:51:03.001Z</time></trkpt><trkpt lat="41.93770859891471" lon="12.755204815124355"><ele>49.75</ele><time>2026-04-03T08:51:04.001Z</time></trkpt><trkpt lat="41.937832667423386" lon="12.755243799904413"><ele>50.0</ele><time>2026-04-03T08:51:05.001Z</time></trkpt><trkpt lat="41.937940515298685" lon="12.755273256731277"><ele>50.4</ele><time>2026-04-03T08:51:06.001Z</time></trkpt><trkpt lat="41.9380374154488" lon="12.755296940073649"><ele>50.8</ele><time>2026-04-03T08:51:07.001Z</time></trkpt><trkpt lat="41.93813016103417" lon="12.755310877295"><ele>51.2</ele><time>2026-04-03T08:51:08.001Z</time></trkpt><trkpt lat="41.93824230411216" lon="12.755317984725563"><ele>51.6</ele><time>2026-04-03T08:51:09.001Z</time></trkpt><trkpt lat="41.93836256784627" lon="12.75530290356068"><ele>52.0</ele><time>2026-04-03T08:51:10.001Z</time></trkpt><trkpt lat="41.93846813089095" lon="12.755282730406062"><ele>52.0</ele><time>2026-04-03T08:51:11.001Z</time></trkpt><trkpt lat="41.93858312275069" lon="12.755284287267791"><ele>52.0</ele><time>2026-04-03T08:51:12.001Z</time></trkpt><trkpt lat="41.93871174579595" lon="12.755316552700451"><ele>52.0</ele><time>2026-04-03T08:51:13.001Z</time></trkpt><trkpt lat="41.938828097706605" lon="12.755321592621092"><ele>52.0</ele><time>2026-04-03T08:51:14.001Z</time></trkpt><trkpt lat="41.93897346663085" lon="12.755304243167036"><ele>52.0</ele><time>2026-04-03T08:51:15.001Z</time></trkpt><trkpt lat="41.93914283300042" lon="12.75531332032942"><ele>52.0</ele><time>2026-04-03T08:51:16.001Z</time></trkpt><trkpt lat="41.93933681558721" lon="12.755337311260238"><ele>52.0</ele><time>2026-04-03T08:51:17.001Z</time></trkpt><trkpt lat="41.93955174773201" lon="12.755359967273044"><ele>51.33333333333333</ele><time>2026-04-03T08:51:18.001Z</time></trkpt><trkpt lat="41.93977004409745" lon="12.75538022470017"><ele>50.66666666666667</ele><time>2026-04-03T08:51:19.001Z</time></trkpt><trkpt lat="41.93999226070186" lon="12.755388298524334"><ele>50.0</ele><time>2026-04-03T08:51:20.001Z</time></trkpt><trkpt lat="41.94022263626743" lon="12.755392293541986"><ele>50.0</ele><time>2026-04-03T08:51:21.001Z</time></trkpt><trkpt lat="41.940469280286294" lon="12.755402859216852"><ele>50.0</ele><time>2026-04-03T08:51:22.001Z</time></trkpt><trkpt lat="41.94073496994968" lon="12.755431154110028"><ele>53.5</ele><time>2026-04-03T08:51:23.001Z</time></trkpt><trkpt lat="41.94101081128086" lon="12.755463369404223"><ele>57.0</ele><time>2026-04-03T08:51:24.001Z</time></trkpt><trkpt lat="41.9413080893991" lon="12.755476452035056"><ele>57.0</ele><time>2026-04-03T08:51:25.001Z</time></trkpt><trkpt lat="41.941600502611706" lon="12.755492251264524"><ele>57.0</ele><time>2026-04-03T08:51:26Z</time></trkpt><trkpt lat="41.94188225940802" lon="12.755516263061567"><ele>54.5</ele><time>2026-04-03T08:51:27Z</time></trkpt><trkpt lat="41.94214818928199" lon="12.755555247177764"><ele>52.0</ele><time>2026-04-03T08:51:28Z</time></trkpt><trkpt lat="41.942382113936304" lon="12.7556630360392"><ele>50.33333333333333</ele><time>2026-04-03T08:51:29Z</time></trkpt><trkpt lat="41.942566399800754" lon="12.755835588464352"><ele>48.666666666666664</ele><time>2026-04-03T08:51:30Z</time></trkpt><trkpt lat="41.94271073254795" lon="12.756066349969233"><ele>47.0</ele><time>2026-04-03T08:51:31Z</time></trkpt><trkpt lat="41.94282346126671" lon="12.756357260310917"><ele>47.0</ele><time>2026-04-03T08:51:32Z</time></trkpt><trkpt lat="41.942900305382786" lon="12.756686474145248"><ele>47.0</ele><time>2026-04-03T08:51:33Z</time></trkpt><trkpt lat="41.942940941624606" lon="12.756997801081125"><ele>47.33333333333333</ele><time>2026-04-03T08:51:34Z</time></trkpt><trkpt lat="41.94298062384411" lon="12.757275951512938"><ele>47.666666666666664</ele><time>2026-04-03T08:51:35Z</time></trkpt><trkpt lat="41.94303459459309" lon="12.757567423623266"><ele>48.0</ele><time>2026-04-03T08:51:36Z</time></trkpt><trkpt lat="41.94309064861897" lon="12.757876718170246"><ele>48.0</ele><time>2026-04-03T08:51:37Z</time></trkpt><trkpt lat="41.943153031287125" lon="12.758208593951842"><ele>48.0</ele><time>2026-04-03T08:51:38Z</time></trkpt><trkpt lat="41.94323687005304" lon="12.758505206147065"><ele>48.0</ele><time>2026-04-03T08:51:39Z</time></trkpt><trkpt lat="41.943363853568805" lon="12.75878565711555"><ele>48.0</ele><time>2026-04-03T08:51:40Z</time></trkpt><trkpt lat="41.94351993300586" lon="12.759015606216893"><ele>48.0</ele><time>2026-04-03T08:51:41Z</time></trkpt><trkpt lat="41.943710154388924" lon="12.759199645712963"><ele>48.0</ele><time>2026-04-03T08:51:42Z</time></trkpt><trkpt lat="41.943927880478924" lon="12.759312385934638"><ele>50.5</ele><time>2026-04-03T08:51:43Z</time></trkpt><trkpt lat="41.94416943250538" lon="12.759374298163495"><ele>53.0</ele><time>2026-04-03T08:51:44Z</time></trkpt><trkpt lat="41.94440188929829" lon="12.75942963599734"><ele>53.333333333333336</ele><time>2026-04-03T08:51:45Z</time></trkpt><trkpt lat="41.94460277895186" lon="12.759491579531739"><ele>53.66666666666667</ele><time>2026-04-03T08:51:46Z</time></trkpt><trkpt lat="41.94477150208796" lon="12.759541659797362"><ele>54.0</ele><time>2026-04-03T08:51:47Z</time></trkpt><trkpt lat="41.94490629020803" lon="12.759586019999741"><ele>54.0</ele><time>2026-04-03T08:51:48Z</time></trkpt><trkpt lat="41.94500553962964" lon="12.75961664784376"><ele>54.00000000000001</ele><time>2026-04-03T08:51:49Z</time></trkpt><trkpt lat="41.94507138632598" lon="12.75962694509061"><ele>54.00000000000001</ele><time>2026-04-03T08:51:50Z</time></trkpt><trkpt lat="41.94517937741885" lon="12.759663508141646"><ele>54.0</ele><time>2026-04-03T08:51:52Z</time></trkpt><trkpt lat="41.94525790939775" lon="12.759710558616327"><ele>54.0</ele><time>2026-04-03T08:51:53Z</time></trkpt><trkpt lat="41.94535870321925" lon="12.759764831614733"><ele>53.2</ele><time>2026-04-03T08:51:54Z</time></trkpt><trkpt lat="41.94545270865297" lon="12.759806946145297"><ele>52.400000000000006</ele><time>2026-04-03T08:51:55Z</time></trkpt><trkpt lat="41.94552303761465" lon="12.759824666284592"><ele>51.6</ele><time>2026-04-03T08:51:56Z</time></trkpt><trkpt lat="41.94560879157033" lon="12.75984098664965"><ele>50.8</ele><time>2026-04-03T08:51:57Z</time></trkpt><trkpt lat="41.945701212102335" lon="12.759855672075766"><ele>50.0</ele><time>2026-04-03T08:51:58Z</time></trkpt><trkpt lat="41.94580149337596" lon="12.75987381426765"><ele>49.5</ele><time>2026-04-03T08:51:59Z</time></trkpt><trkpt lat="41.945910792449375" lon="12.759897192699613"><ele>49.0</ele><time>2026-04-03T08:52:00Z</time></trkpt><trkpt lat="41.946023864770005" lon="12.759919559554199"><ele>48.5</ele><time>2026-04-03T08:52:01Z</time></trkpt><trkpt lat="41.94614846096875" lon="12.7599470565406"><ele>48.0</ele><time>2026-04-03T08:52:02Z</time></trkpt><trkpt lat="41.946277736557576" lon="12.759983852952693"><ele>48.0</ele><time>2026-04-03T08:52:03Z</time></trkpt><trkpt lat="41.946423488742084" lon="12.760025693135892"><ele>48.0</ele><time>2026-04-03T08:52:04Z</time></trkpt><trkpt lat="41.946585455466874" lon="12.760069160058364"><ele>48.0</ele><time>2026-04-03T08:52:05Z</time></trkpt><trkpt lat="41.946772255775905" lon="12.760111505709238"><ele>48.0</ele><time>2026-04-03T08:52:06Z</time></trkpt><trkpt lat="41.94698872555821" lon="12.760169135180805"><ele>48.0</ele><time>2026-04-03T08:52:07Z</time></trkpt><trkpt lat="41.94721999114129" lon="12.76023674599628"><ele>48.0</ele><time>2026-04-03T08:52:08Z</time></trkpt><trkpt lat="41.94746245029891" lon="12.760313554816166"><ele>48.0</ele><time>2026-04-03T08:52:09Z</time></trkpt><trkpt lat="41.94771105510723" lon="12.76038704319918"><ele>48.0</ele><time>2026-04-03T08:52:10Z</time></trkpt><trkpt lat="41.94795497514809" lon="12.760459001152713"><ele>48.0</ele><time>2026-04-03T08:52:11Z</time></trkpt><trkpt lat="41.94819898958014" lon="12.760527522667257"><ele>48.0</ele><time>2026-04-03T08:52:12Z</time></trkpt><trkpt lat="41.948448509380476" lon="12.760601211207678"><ele>48.0</ele><time>2026-04-03T08:52:13Z</time></trkpt><trkpt lat="41.94870055707074" lon="12.760681601813442"><ele>48.0</ele><time>2026-04-03T08:52:14Z</time></trkpt><trkpt lat="41.94894509859638" lon="12.760761410195649"><ele>48.0</ele><time>2026-04-03T08:52:15Z</time></trkpt><trkpt lat="41.94918704959885" lon="12.760834678743105"><ele>47.5</ele><time>2026-04-03T08:52:16Z</time></trkpt><trkpt lat="41.949422053728824" lon="12.760897222675785"><ele>47.0</ele><time>2026-04-03T08:52:17Z</time></trkpt><trkpt lat="41.94966173377097" lon="12.760960564928167"><ele>47.0</ele><time>2026-04-03T08:52:18Z</time></trkpt><trkpt lat="41.94988581153017" lon="12.761027273882428"><ele>47.0</ele><time>2026-04-03T08:52:19Z</time></trkpt><trkpt lat="41.95011235159518" lon="12.761093814720816"><ele>47.5</ele><time>2026-04-03T08:52:20Z</time></trkpt><trkpt lat="41.95033946891153" lon="12.761151968907416"><ele>48.0</ele><time>2026-04-03T08:52:21Z</time></trkpt><trkpt lat="41.950568554233804" lon="12.76121138191548"><ele>48.0</ele><time>2026-04-03T08:52:22Z</time></trkpt><trkpt lat="41.95079126552682" lon="12.761272866773153"><ele>48.0</ele><time>2026-04-03T08:52:23Z</time></trkpt><trkpt lat="41.950989151203125" lon="12.761339228508662"><ele>48.0</ele><time>2026-04-03T08:52:24Z</time></trkpt><trkpt lat="41.951166416737976" lon="12.7614084352625"><ele>47.75</ele><time>2026-04-03T08:52:25Z</time></trkpt><trkpt lat="41.95130856352545" lon="12.761502245310004"><ele>47.5</ele><time>2026-04-03T08:52:26Z</time></trkpt><trkpt lat="41.95137395947272" lon="12.761525668323193"><ele>47.25</ele><time>2026-04-03T08:52:27Z</time></trkpt><trkpt lat="41.9514627483576" lon="12.761575553464398"><ele>47.0</ele><time>2026-04-03T08:52:28Z</time></trkpt><trkpt lat="41.95163538356847" lon="12.761656107328603"><ele>47.5</ele><time>2026-04-03T08:52:29Z</time></trkpt><trkpt lat="41.95186435198485" lon="12.761775995262738"><ele>48.0</ele><time>2026-04-03T08:52:30Z</time></trkpt><trkpt lat="41.952088464526774" lon="12.761850557416528"><ele>48.0</ele><time>2026-04-03T08:52:31Z</time></trkpt><trkpt lat="41.952263179789554" lon="12.761865497498391"><ele>48.0</ele><time>2026-04-03T08:52:32Z</time></trkpt><trkpt lat="41.95238433623472" lon="12.76188908111163"><ele>48.0</ele><time>2026-04-03T08:52:33Z</time></trkpt><trkpt lat="41.952487471231436" lon="12.761894112366326"><ele>48.0</ele><time>2026-04-03T08:52:34Z</time></trkpt><trkpt lat="41.95260023557891" lon="12.761906022255953"><ele>48.0</ele><time>2026-04-03T08:52:35Z</time></trkpt><trkpt lat="41.95274369736593" lon="12.761971901520504"><ele>48.0</ele><time>2026-04-03T08:52:36Z</time></trkpt><trkpt lat="41.95293080057131" lon="12.762078896299853"><ele>48.0</ele><time>2026-04-03T08:52:37Z</time></trkpt><trkpt lat="41.95311488869301" lon="12.762178903512034"><ele>48.0</ele><time>2026-04-03T08:52:38Z</time></trkpt><trkpt lat="41.95326091509563" lon="12.762256946860745"><ele>48.0</ele><time>2026-04-03T08:52:39Z</time></trkpt><trkpt lat="41.95337652672777" lon="12.762317809255816"><ele>48.0</ele><time>2026-04-03T08:52:40Z</time></trkpt><trkpt lat="41.953463006307345" lon="12.762368052032693"><ele>48.0</ele><time>2026-04-03T08:52:41Z</time></trkpt><trkpt lat="41.953535652722685" lon="12.762405379893424"><ele>48.0</ele><time>2026-04-03T08:52:42Z</time></trkpt><trkpt lat="41.95360120467305" lon="12.762441377995417"><ele>48.0</ele><time>2026-04-03T08:52:43Z</time></trkpt><trkpt lat="41.95366235693451" lon="12.762474054405033"><ele>48.0</ele><time>2026-04-03T08:52:44Z</time></trkpt><trkpt lat="41.9537800357687" lon="12.762539830407771"><ele>48.0</ele><time>2026-04-03T08:52:46Z</time></trkpt><trkpt lat="41.95384524443415" lon="12.762561896945225"><ele>48.0</ele><time>2026-04-03T08:52:47Z</time></trkpt><trkpt lat="41.953903197052306" lon="12.762600563768222"><ele>48.0</ele><time>2026-04-03T08:52:48.001Z</time></trkpt><trkpt lat="41.95396698590312" lon="12.762634228063503"><ele>48.0</ele><time>2026-04-03T08:52:49.001Z</time></trkpt><trkpt lat="41.9540305379858" lon="12.762660269864027"><ele>48.0</ele><time>2026-04-03T08:52:50.001Z</time></trkpt><trkpt lat="41.95413337578925" lon="12.762726077407912"><ele>48.0</ele><time>2026-04-03T08:52:52.001Z</time></trkpt><trkpt lat="41.954222756139515" lon="12.762778549733751"><ele>48.0</ele><time>2026-04-03T08:52:54.001Z</time></trkpt><trkpt lat="41.95428270880494" lon="12.762825979853421"><ele>48.0</ele><time>2026-04-03T08:52:57.001Z</time></trkpt><trkpt lat="41.954348503987966" lon="12.762872697709122"><ele>48.0</ele><time>2026-04-03T08:53:00.001Z</time></trkpt><trkpt lat="41.954387117476934" lon="12.762940832272"><ele>48.666666666666664</ele><time>2026-04-03T08:53:01.001Z</time></trkpt><trkpt lat="41.95442080354162" lon="12.763014464959406"><ele>49.33333333333333</ele><time>2026-04-03T08:53:02.001Z</time></trkpt><trkpt lat="41.95445401518511" lon="12.763110806335229"><ele>50.0</ele><time>2026-04-03T08:53:04.001Z</time></trkpt><trkpt lat="41.954490928575616" lon="12.763257144254414"><ele>50.666666666666664</ele><time>2026-04-03T08:53:06.001Z</time></trkpt><trkpt lat="41.954512944025836" lon="12.763348246570281"><ele>51.33333333333333</ele><time>2026-04-03T08:53:07.001Z</time></trkpt><trkpt lat="41.95453966471196" lon="12.763429513959823"><ele>52.0</ele><time>2026-04-03T08:53:08.001Z</time></trkpt><trkpt lat="41.95457273145636" lon="12.763545742452441"><ele>53.0</ele><time>2026-04-03T08:53:09.001Z</time></trkpt><trkpt lat="41.954611305110895" lon="12.763755436919443"><ele>54.0</ele><time>2026-04-03T08:53:10.001Z</time></trkpt><trkpt lat="41.954669148476135" lon="12.763996726203953"><ele>55.0</ele><time>2026-04-03T08:53:11.001Z</time></trkpt><trkpt lat="41.954724433132476" lon="12.764217796783962"><ele>55.33333333333333</ele><time>2026-04-03T08:53:12.001Z</time></trkpt><trkpt lat="41.95477780971395" lon="12.764453865001101"><ele>55.66666666666667</ele><time>2026-04-03T08:53:13.001Z</time></trkpt><trkpt lat="41.95483284379803" lon="12.764696253206283"><ele>56.0</ele><time>2026-04-03T08:53:14.001Z</time></trkpt><trkpt lat="41.95488908232534" lon="12.764930819940297"><ele>56.0</ele><time>2026-04-03T08:53:15.001Z</time></trkpt><trkpt lat="41.9549315943846" lon="12.765121189434714"><ele>56.0</ele><time>2026-04-03T08:53:16.001Z</time></trkpt><trkpt lat="41.95495934198805" lon="12.765279761189305"><ele>56.0</ele><time>2026-04-03T08:53:17.001Z</time></trkpt><trkpt lat="41.954980313567454" lon="12.765435652440456"><ele>56.0</ele><time>2026-04-03T08:53:18.001Z</time></trkpt><trkpt lat="41.955014359390674" lon="12.765608136348867"><ele>58.25</ele><time>2026-04-03T08:53:19.001Z</time></trkpt><trkpt lat="41.955050208716784" lon="12.76581174121105"><ele>60.5</ele><time>2026-04-03T08:53:20.001Z</time></trkpt><trkpt lat="41.95508295339825" lon="12.766025864378031"><ele>62.75</ele><time>2026-04-03T08:53:21.001Z</time></trkpt><trkpt lat="41.95509778558499" lon="12.766171027598856"><ele>65.0</ele><time>2026-04-03T08:53:22.001Z</time></trkpt><trkpt lat="41.95512154255706" lon="12.766339575216884"><ele>65.66666666666667</ele><time>2026-04-03T08:53:23.001Z</time></trkpt><trkpt lat="41.955148260247874" lon="12.76653947611652"><ele>66.33333333333333</ele><time>2026-04-03T08:53:24.001Z</time></trkpt><trkpt lat="41.955169845913915" lon="12.76674439754444"><ele>67.0</ele><time>2026-04-03T08:53:25.001Z</time></trkpt><trkpt lat="41.95518657579495" lon="12.766954068613444"><ele>67.0</ele><time>2026-04-03T08:53:26.001Z</time></trkpt><trkpt lat="41.95520673652271" lon="12.767160198524197"><ele>67.0</ele><time>2026-04-03T08:53:27.001Z</time></trkpt><trkpt lat="41.95523518822536" lon="12.767373623529375"><ele>67.0</ele><time>2026-04-03T08:53:28.001Z</time></trkpt><trkpt lat="41.9552563278532" lon="12.767577174019667"><ele>66.5</ele><time>2026-04-03T08:53:29.001Z</time></trkpt><trkpt lat="41.9552815646379" lon="12.767780946467132"><ele>66.0</ele><time>2026-04-03T08:53:30.001Z</time></trkpt><trkpt lat="41.95531035630517" lon="12.767982387182029"><ele>65.5</ele><time>2026-04-03T08:53:31.001Z</time></trkpt><trkpt lat="41.955347676258704" lon="12.768157301940516"><ele>65.0</ele><time>2026-04-03T08:53:32Z</time></trkpt><trkpt lat="41.95540056387512" lon="12.76842878924846"><ele>64.8</ele><time>2026-04-03T08:53:33Z</time></trkpt><trkpt lat="41.955437809718404" lon="12.768578985195012"><ele>64.6</ele><time>2026-04-03T08:53:34Z</time></trkpt><trkpt lat="41.955485405821356" lon="12.768696336087698"><ele>64.4</ele><time>2026-04-03T08:53:35Z</time></trkpt><trkpt lat="41.955532850338294" lon="12.768793890348046"><ele>64.2</ele><time>2026-04-03T08:53:36Z</time></trkpt><trkpt lat="41.95559143646044" lon="12.768907160583877"><ele>64.0</ele><time>2026-04-03T08:53:37Z</time></trkpt><trkpt lat="41.955689042284725" lon="12.769057211673243"><ele>64.0</ele><time>2026-04-03T08:53:38Z</time></trkpt><trkpt lat="41.95581819392753" lon="12.76924265603097"><ele>64.0</ele><time>2026-04-03T08:53:39Z</time></trkpt><trkpt lat="41.95592552780754" lon="12.76941157617078"><ele>64.0</ele><time>2026-04-03T08:53:40Z</time></trkpt><trkpt lat="41.955999618404626" lon="12.769548182112102"><ele>64.4</ele><time>2026-04-03T08:53:41Z</time></trkpt><trkpt lat="41.95607121275324" lon="12.769663901474546"><ele>64.80000000000001</ele><time>2026-04-03T08:53:42Z</time></trkpt><trkpt lat="41.9561253302409" lon="12.769764112673514"><ele>65.19999999999999</ele><time>2026-04-03T08:53:43Z</time></trkpt><trkpt lat="41.95615697868344" lon="12.769891467901534"><ele>65.6</ele><time>2026-04-03T08:53:44Z</time></trkpt><trkpt lat="41.956215009827254" lon="12.770035005340816"><ele>66.0</ele><time>2026-04-03T08:53:45Z</time></trkpt><trkpt lat="41.95626725535196" lon="12.770208583947634"><ele>66.25</ele><time>2026-04-03T08:53:46Z</time></trkpt><trkpt lat="41.95632174148209" lon="12.770369215758956"><ele>66.5</ele><time>2026-04-03T08:53:47Z</time></trkpt><trkpt lat="41.95634138475972" lon="12.770528804290848"><ele>66.75</ele><time>2026-04-03T08:53:48Z</time></trkpt><trkpt lat="41.95634421176356" lon="12.770682315721825"><ele>67.0</ele><time>2026-04-03T08:53:49Z</time></trkpt><trkpt lat="41.95634575233994" lon="12.770853779917763"><ele>67.0</ele><time>2026-04-03T08:53:50Z</time></trkpt><trkpt lat="41.95633352429026" lon="12.771020510599508"><ele>67.0</ele><time>2026-04-03T08:53:51Z</time></trkpt><trkpt lat="41.95634364179565" lon="12.771192588022064"><ele>67.0</ele><time>2026-04-03T08:53:52Z</time></trkpt><trkpt lat="41.95633750029633" lon="12.771335559242852"><ele>67.0</ele><time>2026-04-03T08:53:53Z</time></trkpt><trkpt lat="41.956330939401184" lon="12.771465551084555"><ele>67.75</ele><time>2026-04-03T08:53:54Z</time></trkpt><trkpt lat="41.956335529398324" lon="12.771632446249592"><ele>68.5</ele><time>2026-04-03T08:53:55Z</time></trkpt><trkpt lat="41.95634960761039" lon="12.771801741492741"><ele>69.25</ele><time>2026-04-03T08:53:56Z</time></trkpt><trkpt lat="41.95636723095188" lon="12.77194352411832"><ele>70.0</ele><time>2026-04-03T08:53:57Z</time></trkpt><trkpt lat="41.956394929475536" lon="12.772101500001176"><ele>70.5</ele><time>2026-04-03T08:53:58Z</time></trkpt><trkpt lat="41.9564304192164" lon="12.772282566090546"><ele>71.0</ele><time>2026-04-03T08:53:59Z</time></trkpt><trkpt lat="41.95646531446003" lon="12.772455772455881"><ele>71.5</ele><time>2026-04-03T08:54:00Z</time></trkpt><trkpt lat="41.95649669922226" lon="12.772602912321753"><ele>72.0</ele><time>2026-04-03T08:54:01Z</time></trkpt><trkpt lat="41.95652648519261" lon="12.772798948942281"><ele>72.4</ele><time>2026-04-03T08:54:02Z</time></trkpt><trkpt lat="41.956557049382894" lon="12.772966817269545"><ele>72.80000000000001</ele><time>2026-04-03T08:54:03Z</time></trkpt><trkpt lat="41.95656493676349" lon="12.773101966261498"><ele>73.2</ele><time>2026-04-03T08:54:04Z</time></trkpt><trkpt lat="41.95658238982854" lon="12.773194406161156"><ele>73.60000000000001</ele><time>2026-04-03T08:54:05Z</time></trkpt><trkpt lat="41.95662147349756" lon="12.773329779107765"><ele>74.0</ele><time>2026-04-03T08:54:16Z</time></trkpt><trkpt lat="41.95664070366778" lon="12.773513492288929"><ele>73.75</ele><time>2026-04-03T08:54:17Z</time></trkpt><trkpt lat="41.95667125533866" lon="12.773721944478703"><ele>73.5</ele><time>2026-04-03T08:54:18Z</time></trkpt><trkpt lat="41.95668537301811" lon="12.773912840245037"><ele>73.25</ele><time>2026-04-03T08:54:19Z</time></trkpt><trkpt lat="41.95671792880188" lon="12.774040718387953"><ele>73.0</ele><time>2026-04-03T08:54:20Z</time></trkpt><trkpt lat="41.95673051108571" lon="12.77415360249874"><ele>73.0</ele><time>2026-04-03T08:54:21Z</time></trkpt><trkpt lat="41.95673487874457" lon="12.774268496136829"><ele>73.0</ele><time>2026-04-03T08:54:23Z</time></trkpt><trkpt lat="41.95674992189123" lon="12.774407426488265"><ele>73.0</ele><time>2026-04-03T08:54:25Z</time></trkpt><trkpt lat="41.956759983406464" lon="12.774552210553239"><ele>73.0</ele><time>2026-04-03T08:54:26Z</time></trkpt><trkpt lat="41.9567660102256" lon="12.774729089156487"><ele>73.0</ele><time>2026-04-03T08:54:27Z</time></trkpt><trkpt lat="41.956770548143005" lon="12.774884289968014"><ele>73.0</ele><time>2026-04-03T08:54:28Z</time></trkpt><trkpt lat="41.95677413530432" lon="12.774997445251266"><ele>73.0</ele><time>2026-04-03T08:54:29Z</time></trkpt><trkpt lat="41.95677249436598" lon="12.775135075014623"><ele>73.0</ele><time>2026-04-03T08:54:31Z</time></trkpt><trkpt lat="41.956773643200314" lon="12.775250387187764"><ele>73.0</ele><time>2026-04-03T08:54:32Z</time></trkpt><trkpt lat="41.95676953472419" lon="12.77543041974674"><ele>73.0</ele><time>2026-04-03T08:54:33Z</time></trkpt><trkpt lat="41.956757133069324" lon="12.775649991717874"><ele>73.33333333333333</ele><time>2026-04-03T08:54:34Z</time></trkpt><trkpt lat="41.956747846545134" lon="12.775879888028589"><ele>73.66666666666667</ele><time>2026-04-03T08:54:35Z</time></trkpt><trkpt lat="41.95674312927898" lon="12.776096173977653"><ele>74.0</ele><time>2026-04-03T08:54:36Z</time></trkpt><trkpt lat="41.956736803453076" lon="12.77629754439439"><ele>74.25</ele><time>2026-04-03T08:54:37Z</time></trkpt><trkpt lat="41.956729532173064" lon="12.776496140642289"><ele>74.5</ele><time>2026-04-03T08:54:38Z</time></trkpt><trkpt lat="41.95671790091198" lon="12.77667521106624"><ele>74.75</ele><time>2026-04-03T08:54:39Z</time></trkpt><trkpt lat="41.95670850941362" lon="12.776835222995466"><ele>75.0</ele><time>2026-04-03T08:54:40Z</time></trkpt><trkpt lat="41.95670395696247" lon="12.776970185269999"><ele>75.4</ele><time>2026-04-03T08:54:41Z</time></trkpt><trkpt lat="41.95670161434395" lon="12.777100790726987"><ele>75.8</ele><time>2026-04-03T08:54:42Z</time></trkpt><trkpt lat="41.95669882010065" lon="12.77724714461943"><ele>76.2</ele><time>2026-04-03T08:54:43Z</time></trkpt><trkpt lat="41.95669184623938" lon="12.777375225672158"><ele>76.6</ele><time>2026-04-03T08:54:45Z</time></trkpt><trkpt lat="41.9566898239596" lon="12.777476782292485"><ele>77.0</ele><time>2026-04-03T08:54:46Z</time></trkpt><trkpt lat="41.95668373842561" lon="12.777606259400898"><ele>76.75</ele><time>2026-04-03T08:54:47Z</time></trkpt><trkpt lat="41.95667996114944" lon="12.77776092792998"><ele>76.5</ele><time>2026-04-03T08:54:48Z</time></trkpt><trkpt lat="41.95667634133093" lon="12.777940281288702"><ele>76.25</ele><time>2026-04-03T08:54:49Z</time></trkpt><trkpt lat="41.95666901928836" lon="12.778144831483607"><ele>76.0</ele><time>2026-04-03T08:54:50Z</time></trkpt><trkpt lat="41.95666329495279" lon="12.778380369937425"><ele>76.33333333333333</ele><time>2026-04-03T08:54:51Z</time></trkpt><trkpt lat="41.956652228817326" lon="12.778634990197336"><ele>76.66666666666667</ele><time>2026-04-03T08:54:52Z</time></trkpt><trkpt lat="41.956639470505436" lon="12.778904263031354"><ele>77.0</ele><time>2026-04-03T08:54:53Z</time></trkpt><trkpt lat="41.956612384204" lon="12.77919081565105"><ele>78.0</ele><time>2026-04-03T08:54:54Z</time></trkpt><trkpt lat="41.956599437253125" lon="12.779479377055138"><ele>79.0</ele><time>2026-04-03T08:54:55Z</time></trkpt><trkpt lat="41.956609897417145" lon="12.779766669161862"><ele>80.0</ele><time>2026-04-03T08:54:56Z</time></trkpt><trkpt lat="41.95659616797506" lon="12.780055678361151"><ele>81.0</ele><time>2026-04-03T08:54:57Z</time></trkpt><trkpt lat="41.95658399850878" lon="12.780335770380644"><ele>82.0</ele><time>2026-04-03T08:54:58.001Z</time></trkpt><trkpt lat="41.95658329020769" lon="12.78063094935287"><ele>83.0</ele><time>2026-04-03T08:54:59.001Z</time></trkpt><trkpt lat="41.9565494105982" lon="12.780986113173915"><ele>84.0</ele><time>2026-04-03T08:55:00.001Z</time></trkpt><trkpt lat="41.956531494250605" lon="12.781362047899389"><ele>85.0</ele><time>2026-04-03T08:55:01.001Z</time></trkpt><trkpt lat="41.95651238363199" lon="12.781701292373908"><ele>86.0</ele><time>2026-04-03T08:55:02.001Z</time></trkpt><trkpt lat="41.95649951579755" lon="12.782013117843238"><ele>87.0</ele><time>2026-04-03T08:55:03.001Z</time></trkpt><trkpt lat="41.95645653290852" lon="12.782269241789159"><ele>88.0</ele><time>2026-04-03T08:55:04.001Z</time></trkpt><trkpt lat="41.95642109663455" lon="12.782526026963176"><ele>88.66666666666666</ele><time>2026-04-03T08:55:05.001Z</time></trkpt><trkpt lat="41.956367518973565" lon="12.782785211886864"><ele>89.33333333333333</ele><time>2026-04-03T08:55:06.001Z</time></trkpt><trkpt lat="41.95630444967133" lon="12.782997506525662"><ele>90.0</ele><time>2026-04-03T08:55:07.001Z</time></trkpt><trkpt lat="41.9562294788679" lon="12.783162766382969"><ele>90.0</ele><time>2026-04-03T08:55:08.001Z</time></trkpt><trkpt lat="41.95612998812655" lon="12.783311306812763"><ele>90.0</ele><time>2026-04-03T08:55:09.001Z</time></trkpt><trkpt lat="41.95601797886706" lon="12.783426478204737"><ele>90.0</ele><time>2026-04-03T08:55:10.001Z</time></trkpt><trkpt lat="41.95587050308236" lon="12.783521837487603"><ele>92.66666666666666</ele><time>2026-04-03T08:55:11.001Z</time></trkpt><trkpt lat="41.95567717216069" lon="12.78358150647185"><ele>95.33333333333333</ele><time>2026-04-03T08:55:12.001Z</time></trkpt><trkpt lat="41.95545842533621" lon="12.783591786098395"><ele>98.0</ele><time>2026-04-03T08:55:13.001Z</time></trkpt><trkpt lat="41.955174520756714" lon="12.78357849217509"><ele>101.5</ele><time>2026-04-03T08:55:14.001Z</time></trkpt><trkpt lat="41.95488973931543" lon="12.783569957955569"><ele>105.0</ele><time>2026-04-03T08:55:15.001Z</time></trkpt><trkpt lat="41.95466252513913" lon="12.783573927514764"><ele>105.0</ele><time>2026-04-03T08:55:16.001Z</time></trkpt><trkpt lat="41.95446560651408" lon="12.783594834921429"><ele>105.0</ele><time>2026-04-03T08:55:17.001Z</time></trkpt><trkpt lat="41.9542987236478" lon="12.783689679298059"><ele>105.0</ele><time>2026-04-03T08:55:18.001Z</time></trkpt><trkpt lat="41.95415879219899" lon="12.783847542030705"><ele>104.66666666666666</ele><time>2026-04-03T08:55:19.001Z</time></trkpt><trkpt lat="41.95406559322234" lon="12.784096530988126"><ele>104.33333333333333</ele><time>2026-04-03T08:55:20.001Z</time></trkpt><trkpt lat="41.95400925471979" lon="12.784371064994309"><ele>104.0</ele><time>2026-04-03T08:55:21.001Z</time></trkpt><trkpt lat="41.95401898189054" lon="12.784640655546449"><ele>106.0</ele><time>2026-04-03T08:55:22.001Z</time></trkpt><trkpt lat="41.95409476340048" lon="12.784910191576113"><ele>108.0</ele><time>2026-04-03T08:55:23.001Z</time></trkpt><trkpt lat="41.95421809523277" lon="12.785205153778229"><ele>111.5</ele><time>2026-04-03T08:55:24.001Z</time></trkpt><trkpt lat="41.954333067330694" lon="12.785559172915095"><ele>115.0</ele><time>2026-04-03T08:55:25.001Z</time></trkpt><trkpt lat="41.9544267538592" lon="12.785868839922053"><ele>117.0</ele><time>2026-04-03T08:55:26.001Z</time></trkpt><trkpt lat="41.95448457851893" lon="12.78616502226845"><ele>119.0</ele><time>2026-04-03T08:55:27.001Z</time></trkpt><trkpt lat="41.95449676990892" lon="12.786437411241225"><ele>121.0</ele><time>2026-04-03T08:55:28.001Z</time></trkpt><trkpt lat="41.954457385139776" lon="12.78670230555634"><ele>121.66666666666667</ele><time>2026-04-03T08:55:29.001Z</time></trkpt><trkpt lat="41.95436681022512" lon="12.786919155871265"><ele>122.33333333333334</ele><time>2026-04-03T08:55:30.001Z</time></trkpt><trkpt lat="41.9542420598048" lon="12.787072659034434"><ele>123.0</ele><time>2026-04-03T08:55:31.001Z</time></trkpt><trkpt lat="41.95408033741429" lon="12.787152622444829"><ele>123.0</ele><time>2026-04-03T08:55:32.001Z</time></trkpt><trkpt lat="41.95389283654525" lon="12.78716383920187"><ele>123.0</ele><time>2026-04-03T08:55:33.001Z</time></trkpt><trkpt lat="41.95366695158524" lon="12.78714115218853"><ele>123.0</ele><time>2026-04-03T08:55:34.001Z</time></trkpt><trkpt lat="41.953399570012806" lon="12.787114852584793"><ele>123.5</ele><time>2026-04-03T08:55:35.001Z</time></trkpt><trkpt lat="41.95312550039908" lon="12.787080508878441"><ele>124.0</ele><time>2026-04-03T08:55:36.001Z</time></trkpt><trkpt lat="41.95288020510876" lon="12.787100869051942"><ele>124.0</ele><time>2026-04-03T08:55:37.001Z</time></trkpt><trkpt lat="41.95263802479075" lon="12.787157759600083"><ele>124.0</ele><time>2026-04-03T08:55:38Z</time></trkpt><trkpt lat="41.9523944796116" lon="12.787283104536629"><ele>126.0</ele><time>2026-04-03T08:55:39Z</time></trkpt><trkpt lat="41.95213779886927" lon="12.78744040343463"><ele>128.0</ele><time>2026-04-03T08:55:40Z</time></trkpt><trkpt lat="41.95185268317292" lon="12.787612640102997"><ele>132.0</ele><time>2026-04-03T08:55:41Z</time></trkpt><trkpt lat="41.95159788239051" lon="12.787887746459203"><ele>136.0</ele><time>2026-04-03T08:55:42Z</time></trkpt><trkpt lat="41.95129440930341" lon="12.788098222072877"><ele>136.0</ele><time>2026-04-03T08:55:43Z</time></trkpt><trkpt lat="41.95098841409031" lon="12.788305885676587"><ele>136.0</ele><time>2026-04-03T08:55:44Z</time></trkpt><trkpt lat="41.95070064764062" lon="12.788506705949766"><ele>143.0</ele><time>2026-04-03T08:55:45Z</time></trkpt><trkpt lat="41.95044306309583" lon="12.788702088618017"><ele>150.0</ele><time>2026-04-03T08:55:46Z</time></trkpt><trkpt lat="41.95016446563926" lon="12.788927810529687"><ele>147.5</ele><time>2026-04-03T08:55:47Z</time></trkpt><trkpt lat="41.94988425040655" lon="12.789162717428924"><ele>145.0</ele><time>2026-04-03T08:55:48Z</time></trkpt><trkpt lat="41.94959156655909" lon="12.789427672883122"><ele>149.0</ele><time>2026-04-03T08:55:49Z</time></trkpt><trkpt lat="41.949315379600286" lon="12.789697713361607"><ele>153.0</ele><time>2026-04-03T08:55:50Z</time></trkpt><trkpt lat="41.949083499562924" lon="12.789941281700052"><ele>153.0</ele><time>2026-04-03T08:55:51Z</time></trkpt><trkpt lat="41.94887586364707" lon="12.790170648350353"><ele>153.0</ele><time>2026-04-03T08:55:52Z</time></trkpt><trkpt lat="41.9487060564666" lon="12.790370712638715"><ele>157.33333333333334</ele><time>2026-04-03T08:55:53Z</time></trkpt><trkpt lat="41.94855986167534" lon="12.790567246152627"><ele>161.66666666666669</ele><time>2026-04-03T08:55:54Z</time></trkpt><trkpt lat="41.94844721710419" lon="12.790814289537515"><ele>166.0</ele><time>2026-04-03T08:55:55Z</time></trkpt><trkpt lat="41.94838881343079" lon="12.791146129306249"><ele>162.5</ele><time>2026-04-03T08:55:56Z</time></trkpt><trkpt lat="41.948367227039476" lon="12.79149319908169"><ele>159.0</ele><time>2026-04-03T08:55:57Z</time></trkpt><trkpt lat="41.948346446010135" lon="12.791813649650472"><ele>160.66666666666666</ele><time>2026-04-03T08:55:58Z</time></trkpt><trkpt lat="41.94826466973922" lon="12.792083952994895"><ele>162.33333333333331</ele><time>2026-04-03T08:55:59Z</time></trkpt><trkpt lat="41.94812440499139" lon="12.79232792311515"><ele>164.0</ele><time>2026-04-03T08:56:00Z</time></trkpt><trkpt lat="41.947964736468094" lon="12.792498037067368"><ele>164.0</ele><time>2026-04-03T08:56:01Z</time></trkpt><trkpt lat="41.947837356567376" lon="12.792636994233614"><ele>164.0</ele><time>2026-04-03T08:56:02Z</time></trkpt><trkpt lat="41.9477559194924" lon="12.792770146295737"><ele>164.0</ele><time>2026-04-03T08:56:03Z</time></trkpt><trkpt lat="41.94773016822241" lon="12.792914706389805"><ele>164.0</ele><time>2026-04-03T08:56:04Z</time></trkpt><trkpt lat="41.94776261195021" lon="12.793048288514251"><ele>166.75</ele><time>2026-04-03T08:56:05Z</time></trkpt><trkpt lat="41.94783825719997" lon="12.793151441196844"><ele>169.5</ele><time>2026-04-03T08:56:06Z</time></trkpt><trkpt lat="41.94793258828402" lon="12.793204527142152"><ele>172.25</ele><time>2026-04-03T08:56:07Z</time></trkpt><trkpt lat="41.94806804783048" lon="12.793223555006607"><ele>175.0</ele><time>2026-04-03T08:56:08Z</time></trkpt><trkpt lat="41.948259225165316" lon="12.793221672164385"><ele>177.33333333333334</ele><time>2026-04-03T08:56:09Z</time></trkpt><trkpt lat="41.94849710586527" lon="12.793219678212152"><ele>179.66666666666666</ele><time>2026-04-03T08:56:10Z</time></trkpt><trkpt lat="41.9487059594078" lon="12.793186705731333"><ele>182.0</ele><time>2026-04-03T08:56:11Z</time></trkpt><trkpt lat="41.94886112059635" lon="12.79308680109287"><ele>182.0</ele><time>2026-04-03T08:56:12Z</time></trkpt><trkpt lat="41.94896269131027" lon="12.792932075853553"><ele>182.0</ele><time>2026-04-03T08:56:13Z</time></trkpt><trkpt lat="41.949017984108494" lon="12.792746202927496"><ele>182.0</ele><time>2026-04-03T08:56:14Z</time></trkpt><trkpt lat="41.949015518940286" lon="12.792542443411584"><ele>181.0</ele><time>2026-04-03T08:56:15Z</time></trkpt><trkpt lat="41.94897296680488" lon="12.792313679106556"><ele>180.0</ele><time>2026-04-03T08:56:16Z</time></trkpt><trkpt lat="41.94896103004417" lon="12.792055381181934"><ele>179.0</ele><time>2026-04-03T08:56:17Z</time></trkpt><trkpt lat="41.9489966679995" lon="12.791823933085231"><ele>177.66666666666666</ele><time>2026-04-03T08:56:18Z</time></trkpt><trkpt lat="41.94907832769023" lon="12.791621538254724"><ele>176.33333333333334</ele><time>2026-04-03T08:56:19Z</time></trkpt><trkpt lat="41.949209404342966" lon="12.791454003294975"><ele>175.0</ele><time>2026-04-03T08:56:20Z</time></trkpt><trkpt lat="41.94938767195045" lon="12.791326031964665"><ele>182.0</ele><time>2026-04-03T08:56:21Z</time></trkpt><trkpt lat="41.94957461031418" lon="12.791246973416262"><ele>189.0</ele><time>2026-04-03T08:56:22Z</time></trkpt><trkpt lat="41.94974112638188" lon="12.79118809299638"><ele>196.0</ele><time>2026-04-03T08:56:23Z</time></trkpt><trkpt lat="41.94991449817125" lon="12.791136460406186"><ele>201.0</ele><time>2026-04-03T08:56:24Z</time></trkpt><trkpt lat="41.95012421583544" lon="12.791094083889814"><ele>206.0</ele><time>2026-04-03T08:56:25Z</time></trkpt><trkpt lat="41.95037313672342" lon="12.791037223751385"><ele>196.5</ele><time>2026-04-03T08:56:26Z</time></trkpt><trkpt lat="41.95064184116462" lon="12.791001695444917"><ele>187.0</ele><time>2026-04-03T08:56:27Z</time></trkpt><trkpt lat="41.95094624643162" lon="12.79100056206575"><ele>198.5</ele><time>2026-04-03T08:56:28Z</time></trkpt><trkpt lat="41.95131801672863" lon="12.791012328446161"><ele>210.0</ele><time>2026-04-03T08:56:29Z</time></trkpt><trkpt lat="41.9516269305193" lon="12.791032823144436"><ele>211.0</ele><time>2026-04-03T08:56:30Z</time></trkpt><trkpt lat="41.951882868625404" lon="12.791063041843346"><ele>212.0</ele><time>2026-04-03T08:56:31Z</time></trkpt><trkpt lat="41.95209612191701" lon="12.791103679095784"><ele>212.0</ele><time>2026-04-03T08:56:32Z</time></trkpt><trkpt lat="41.95229363369537" lon="12.791153260164162"><ele>212.0</ele><time>2026-04-03T08:56:33Z</time></trkpt><trkpt lat="41.95246758603652" lon="12.791202008044673"><ele>212.0</ele><time>2026-04-03T08:56:34Z</time></trkpt><trkpt lat="41.95263205831367" lon="12.79124113116079"><ele>211.66666666666669</ele><time>2026-04-03T08:56:35Z</time></trkpt><trkpt lat="41.95279471756225" lon="12.7912761484904"><ele>211.33333333333331</ele><time>2026-04-03T08:56:36Z</time></trkpt><trkpt lat="41.95296416526636" lon="12.791311883517494"><ele>211.0</ele><time>2026-04-03T08:56:37Z</time></trkpt><trkpt lat="41.953143761026254" lon="12.791357186533299"><ele>211.0</ele><time>2026-04-03T08:56:38Z</time></trkpt><trkpt lat="41.95333856934132" lon="12.79140855801668"><ele>211.0</ele><time>2026-04-03T08:56:39Z</time></trkpt><trkpt lat="41.95352348627419" lon="12.791460755109718"><ele>211.0</ele><time>2026-04-03T08:56:40Z</time></trkpt><trkpt lat="41.95370011515588" lon="12.791510669936002"><ele>211.0</ele><time>2026-04-03T08:56:41Z</time></trkpt><trkpt lat="41.95388395979166" lon="12.791557338348406"><ele>211.0</ele><time>2026-04-03T08:56:42Z</time></trkpt><trkpt lat="41.95405322914529" lon="12.791605684448172"><ele>211.0</ele><time>2026-04-03T08:56:43Z</time></trkpt><trkpt lat="41.95421831081936" lon="12.79164863606635"><ele>210.0</ele><time>2026-04-03T08:56:44Z</time></trkpt><trkpt lat="41.95437997890388" lon="12.79169622135604"><ele>209.0</ele><time>2026-04-03T08:56:45Z</time></trkpt><trkpt lat="41.95452952634904" lon="12.791732042985657"><ele>208.0</ele><time>2026-04-03T08:56:46Z</time></trkpt><trkpt lat="41.95467494528861" lon="12.791768663715777"><ele>208.0</ele><time>2026-04-03T08:56:47Z</time></trkpt><trkpt lat="41.95480750204918" lon="12.791811328746"><ele>208.0</ele><time>2026-04-03T08:56:48Z</time></trkpt><trkpt lat="41.95493976779882" lon="12.791851584824581"><ele>208.0</ele><time>2026-04-03T08:56:49Z</time></trkpt><trkpt lat="41.955063579556025" lon="12.791888857798607"><ele>208.0</ele><time>2026-04-03T08:56:50Z</time></trkpt><trkpt lat="41.95518110692404" lon="12.79192255473349"><ele>212.25</ele><time>2026-04-03T08:56:51Z</time></trkpt><trkpt lat="41.955295545126184" lon="12.7919552131695"><ele>216.5</ele><time>2026-04-03T08:56:52Z</time></trkpt><trkpt lat="41.95540377926554" lon="12.791989822390839"><ele>220.75</ele><time>2026-04-03T08:56:53Z</time></trkpt><trkpt lat="41.95551494483873" lon="12.79203129602958"><ele>225.0</ele><time>2026-04-03T08:56:54Z</time></trkpt><trkpt lat="41.95562648888497" lon="12.79206804718142"><ele>225.0</ele><time>2026-04-03T08:56:55Z</time></trkpt><trkpt lat="41.95574142085709" lon="12.792110882888656"><ele>225.0</ele><time>2026-04-03T08:56:56Z</time></trkpt><trkpt lat="41.95585580922996" lon="12.792159689297801"><ele>225.0</ele><time>2026-04-03T08:56:57Z</time></trkpt><trkpt lat="41.955968539221935" lon="12.792209430781842"><ele>225.0</ele><time>2026-04-03T08:56:58Z</time></trkpt><trkpt lat="41.956081092609146" lon="12.792265373701646"><ele>224.0</ele><time>2026-04-03T08:56:59Z</time></trkpt><trkpt lat="41.9561915668611" lon="12.79232537968347"><ele>223.0</ele><time>2026-04-03T08:57:00Z</time></trkpt><trkpt lat="41.9563000643055" lon="12.79239156697287"><ele>222.0</ele><time>2026-04-03T08:57:01Z</time></trkpt><trkpt lat="41.95640360988131" lon="12.792454746942749"><ele>221.0</ele><time>2026-04-03T08:57:02Z</time></trkpt><trkpt lat="41.956508672851" lon="12.792519256631978"><ele>221.0</ele><time>2026-04-03T08:57:03Z</time></trkpt><trkpt lat="41.95661001955082" lon="12.792588209174088"><ele>221.00000000000003</ele><time>2026-04-03T08:57:04Z</time></trkpt><trkpt lat="41.95670516015101" lon="12.792652558418947"><ele>221.00000000000003</ele><time>2026-04-03T08:57:05.001Z</time></trkpt><trkpt lat="41.95679461083252" lon="12.792714093434492"><ele>221.0</ele><time>2026-04-03T08:57:06Z</time></trkpt><trkpt lat="41.95687518095427" lon="12.792766310467512"><ele>221.0</ele><time>2026-04-03T08:57:07Z</time></trkpt><trkpt lat="41.95694688280876" lon="12.79281418062513"><ele>223.33333333333334</ele><time>2026-04-03T08:57:08Z</time></trkpt><trkpt lat="41.95700710822744" lon="12.792852263296187"><ele>225.66666666666669</ele><time>2026-04-03T08:57:09Z</time></trkpt><trkpt lat="41.95710314238294" lon="12.79292807479982"><ele>228.0</ele><time>2026-04-03T08:57:11Z</time></trkpt><trkpt lat="41.957180643350455" lon="12.792978873972714"><ele>230.33333333333331</ele><time>2026-04-03T08:57:13.001Z</time></trkpt><trkpt lat="41.9572863592449" lon="12.793044034642474"><ele>232.66666666666666</ele><time>2026-04-03T08:57:20.001Z</time></trkpt><trkpt lat="41.957347157703566" lon="12.793085987070123"><ele>235.0</ele><time>2026-04-03T08:57:21.001Z</time></trkpt><trkpt lat="41.95743615204272" lon="12.79314686784084"><ele>235.0</ele><time>2026-04-03T08:57:23.001Z</time></trkpt><trkpt lat="41.95749464356742" lon="12.79317981936414"><ele>235.0</ele><time>2026-04-03T08:57:24.001Z</time></trkpt><trkpt lat="41.95756973686994" lon="12.793229245320234"><ele>235.0</ele><time>2026-04-03T08:57:25.001Z</time></trkpt><trkpt lat="41.95765414617889" lon="12.793288523111928"><ele>235.0</ele><time>2026-04-03T08:57:26.001Z</time></trkpt><trkpt lat="41.957716590858226" lon="12.793336686335005"><ele>235.0</ele><time>2026-04-03T08:57:27.001Z</time></trkpt><trkpt lat="41.957854963518514" lon="12.79342895622029"><ele>237.25</ele><time>2026-04-03T08:57:29.001Z</time></trkpt><trkpt lat="41.95795935424651" lon="12.79350856416453"><ele>239.5</ele><time>2026-04-03T08:57:30.001Z</time></trkpt><trkpt lat="41.95807994239299" lon="12.793591089241932"><ele>241.75</ele><time>2026-04-03T08:57:31.001Z</time></trkpt><trkpt lat="41.95821177994504" lon="12.79369845946408"><ele>244.0</ele><time>2026-04-03T08:57:32.001Z</time></trkpt><trkpt lat="41.95833775703726" lon="12.793798030828157"><ele>242.33333333333331</ele><time>2026-04-03T08:57:33.001Z</time></trkpt><trkpt lat="41.95843368843214" lon="12.79386541134217"><ele>240.66666666666666</ele><time>2026-04-03T08:57:34.001Z</time></trkpt><trkpt lat="41.95851183151212" lon="12.793927104094264"><ele>239.0</ele><time>2026-04-03T08:57:35.001Z</time></trkpt><trkpt lat="41.958579767412225" lon="12.793986542286344"><ele>237.33333333333331</ele><time>2026-04-03T08:57:36.001Z</time></trkpt><trkpt lat="41.958651066203515" lon="12.794043368066509"><ele>235.66666666666666</ele><time>2026-04-03T08:57:37.001Z</time></trkpt><trkpt lat="41.958717358665474" lon="12.79409892214629"><ele>234.0</ele><time>2026-04-03T08:57:38.001Z</time></trkpt><trkpt lat="41.95878824484453" lon="12.794162852801614"><ele>234.0</ele><time>2026-04-03T08:57:39.001Z</time></trkpt><trkpt lat="41.95886042743304" lon="12.794214355927853"><ele>234.0</ele><time>2026-04-03T08:57:40.001Z</time></trkpt><trkpt lat="41.9589235875358" lon="12.79426524148676"><ele>234.0</ele><time>2026-04-03T08:57:41.001Z</time></trkpt><trkpt lat="41.95898555064222" lon="12.794321237891442"><ele>234.0</ele><time>2026-04-03T08:57:42.001Z</time></trkpt><trkpt lat="41.95904762522959" lon="12.794375886278015"><ele>234.0</ele><time>2026-04-03T08:57:43.001Z</time></trkpt><trkpt lat="41.95911531023935" lon="12.794429130755368"><ele>234.0</ele><time>2026-04-03T08:57:44Z</time></trkpt><trkpt lat="41.95919191993229" lon="12.79449129683159"><ele>235.6</ele><time>2026-04-03T08:57:45Z</time></trkpt><trkpt lat="41.95926921730482" lon="12.794559280671209"><ele>237.2</ele><time>2026-04-03T08:57:46Z</time></trkpt><trkpt lat="41.95934855018177" lon="12.794627799862754"><ele>238.79999999999998</ele><time>2026-04-03T08:57:47Z</time></trkpt><trkpt lat="41.95942833568777" lon="12.79469336505536"><ele>240.39999999999998</ele><time>2026-04-03T08:57:48Z</time></trkpt><trkpt lat="41.959512649038786" lon="12.794753826588147"><ele>242.0</ele><time>2026-04-03T08:57:49Z</time></trkpt><trkpt lat="41.95959351847641" lon="12.79481898493092"><ele>242.0</ele><time>2026-04-03T08:57:50Z</time></trkpt><trkpt lat="41.959671659147354" lon="12.794895754259276"><ele>242.0</ele><time>2026-04-03T08:57:51Z</time></trkpt><trkpt lat="41.95974461847734" lon="12.794963230682738"><ele>242.0</ele><time>2026-04-03T08:57:52Z</time></trkpt><trkpt lat="41.959817395386274" lon="12.795024274345181"><ele>242.0</ele><time>2026-04-03T08:57:53Z</time></trkpt><trkpt lat="41.959897787909185" lon="12.795093191087608"><ele>242.0</ele><time>2026-04-03T08:57:54Z</time></trkpt><trkpt lat="41.95997902353004" lon="12.795164825848843"><ele>241.8</ele><time>2026-04-03T08:57:55Z</time></trkpt><trkpt lat="41.96006648109951" lon="12.795242639194093"><ele>241.6</ele><time>2026-04-03T08:57:56Z</time></trkpt><trkpt lat="41.96015098298045" lon="12.795324047426636"><ele>241.40000000000003</ele><time>2026-04-03T08:57:57Z</time></trkpt><trkpt lat="41.96022560747123" lon="12.795414061751744"><ele>241.20000000000002</ele><time>2026-04-03T08:57:58Z</time></trkpt><trkpt lat="41.9602933812652" lon="12.795508833248869"><ele>241.0</ele><time>2026-04-03T08:57:59Z</time></trkpt><trkpt lat="41.960351761702384" lon="12.795601298136233"><ele>241.0</ele><time>2026-04-03T08:58:00Z</time></trkpt><trkpt lat="41.96039836461256" lon="12.79567863215546"><ele>241.00000000000003</ele><time>2026-04-03T08:58:01Z</time></trkpt><trkpt lat="41.960450049170255" lon="12.795780599581837"><ele>241.00000000000003</ele><time>2026-04-03T08:58:03Z</time></trkpt><trkpt lat="41.96044051089467" lon="12.795890158852655"><ele>241.0</ele><time>2026-04-03T08:58:06Z</time></trkpt><trkpt lat="41.96049507198459" lon="12.796046666258714"><ele>241.0</ele><time>2026-04-03T08:58:08Z</time></trkpt><trkpt lat="41.96053310864404" lon="12.796138120751507"><ele>241.60000000000002</ele><time>2026-04-03T08:58:10Z</time></trkpt><trkpt lat="41.96056486849751" lon="12.796239321627366"><ele>242.20000000000002</ele><time>2026-04-03T08:58:13Z</time></trkpt><trkpt lat="41.960622285941945" lon="12.796388152204255"><ele>242.79999999999998</ele><time>2026-04-03T08:58:15Z</time></trkpt><trkpt lat="41.960638512185085" lon="12.796478203581097"><ele>243.39999999999998</ele><time>2026-04-03T08:58:30Z</time></trkpt><trkpt lat="41.96062192518514" lon="12.796590331639843"><ele>244.0</ele><time>2026-04-03T08:58:36Z</time></trkpt><trkpt lat="41.96059424682921" lon="12.796738713004268"><ele>244.0</ele><time>2026-04-03T08:58:38Z</time></trkpt><trkpt lat="41.96053277437917" lon="12.7967784472912"><ele>243.99999999999997</ele><time>2026-04-03T08:58:39Z</time></trkpt><trkpt lat="41.96042351650726" lon="12.79693065836753"><ele>243.99999999999997</ele><time>2026-04-03T08:58:41Z</time></trkpt><trkpt lat="41.96035056098738" lon="12.79703525775599"><ele>244.0</ele><time>2026-04-03T08:58:42Z</time></trkpt><trkpt lat="41.96029657397511" lon="12.79712458253168"><ele>244.0</ele><time>2026-04-03T08:58:43Z</time></trkpt><trkpt lat="41.96024279425325" lon="12.797174399820634"><ele>244.33333333333331</ele><time>2026-04-03T08:58:44Z</time></trkpt><trkpt lat="41.96016487116163" lon="12.797264683063394"><ele>244.66666666666666</ele><time>2026-04-03T08:58:46Z</time></trkpt><trkpt lat="41.960096131954515" lon="12.797324878702966"><ele>245.0</ele><time>2026-04-03T08:58:48Z</time></trkpt><trkpt lat="41.960024590524085" lon="12.797439466829752"><ele>245.33333333333331</ele><time>2026-04-03T08:58:50Z</time></trkpt><trkpt lat="41.959991246770684" lon="12.797511339576056"><ele>245.66666666666666</ele><time>2026-04-03T08:58:51Z</time></trkpt><trkpt lat="41.95994585420293" lon="12.797584501163847"><ele>246.0</ele><time>2026-04-03T08:58:52Z</time></trkpt><trkpt lat="41.959887430396236" lon="12.797656271805455"><ele>246.16666666666666</ele><time>2026-04-03T08:58:53Z</time></trkpt><trkpt lat="41.9598302298651" lon="12.797728118668273"><ele>246.33333333333331</ele><time>2026-04-03T08:58:54Z</time></trkpt><trkpt lat="41.959781285611434" lon="12.797813500330928"><ele>246.5</ele><time>2026-04-03T08:58:56Z</time></trkpt><trkpt lat="41.95971009861308" lon="12.797920508686776"><ele>246.66666666666666</ele><time>2026-04-03T08:58:59Z</time></trkpt><trkpt lat="41.95965691647709" lon="12.797984517131225"><ele>246.83333333333331</ele><time>2026-04-03T08:59:00Z</time></trkpt><trkpt lat="41.95959912973408" lon="12.798061934798618"><ele>247.0</ele><time>2026-04-03T08:59:01Z</time></trkpt><trkpt lat="41.95953809141961" lon="12.798128437108572"><ele>247.0</ele><time>2026-04-03T08:59:02Z</time></trkpt><trkpt lat="41.959476448869445" lon="12.79821790194255"><ele>247.0</ele><time>2026-04-03T08:59:03Z</time></trkpt><trkpt lat="41.959413737858746" lon="12.798297015593052"><ele>247.0</ele><time>2026-04-03T08:59:04Z</time></trkpt><trkpt lat="41.959373951678096" lon="12.79840259964384"><ele>247.0</ele><time>2026-04-03T08:59:05Z</time></trkpt><trkpt lat="41.95937670254929" lon="12.79853678940483"><ele>247.0</ele><time>2026-04-03T08:59:06Z</time></trkpt><trkpt lat="41.95940439025235" lon="12.798682118720542"><ele>247.66666666666666</ele><time>2026-04-03T08:59:07Z</time></trkpt><trkpt lat="41.95941482998119" lon="12.798806878894238"><ele>248.33333333333331</ele><time>2026-04-03T08:59:08Z</time></trkpt><trkpt lat="41.959410631665435" lon="12.7989127615986"><ele>249.0</ele><time>2026-04-03T08:59:09Z</time></trkpt><trkpt lat="41.95941675961686" lon="12.79902335110819"><ele>249.66666666666669</ele><time>2026-04-03T08:59:10Z</time></trkpt><trkpt lat="41.95942365705632" lon="12.799135867978952"><ele>250.33333333333334</ele><time>2026-04-03T08:59:11Z</time></trkpt><trkpt lat="41.95943383150516" lon="12.799265984764595"><ele>251.0</ele><time>2026-04-03T08:59:12Z</time></trkpt><trkpt lat="41.95943807847624" lon="12.799407418266822"><ele>251.4</ele><time>2026-04-03T08:59:13Z</time></trkpt><trkpt lat="41.95944891106641" lon="12.799566077384641"><ele>251.8</ele><time>2026-04-03T08:59:14Z</time></trkpt><trkpt lat="41.959455743332285" lon="12.799722825306482"><ele>252.20000000000002</ele><time>2026-04-03T08:59:15Z</time></trkpt><trkpt lat="41.95946302571443" lon="12.799868655090892"><ele>252.60000000000002</ele><time>2026-04-03T08:59:16Z</time></trkpt><trkpt lat="41.959467411931016" lon="12.79999968807535"><ele>253.0</ele><time>2026-04-03T08:59:17Z</time></trkpt><trkpt lat="41.9594725587003" lon="12.80012274074293"><ele>252.49999999999997</ele><time>2026-04-03T08:59:18Z</time></trkpt><trkpt lat="41.959477785185136" lon="12.80023682588372"><ele>252.0</ele><time>2026-04-03T08:59:19.001Z</time></trkpt><trkpt lat="41.959486713825484" lon="12.800351666770927"><ele>251.5</ele><time>2026-04-03T08:59:20.001Z</time></trkpt><trkpt lat="41.959488731867054" lon="12.800453592589374"><ele>251.0</ele><time>2026-04-03T08:59:21.001Z</time></trkpt><trkpt lat="41.959493642419325" lon="12.800568941209262"><ele>250.49999999999997</ele><time>2026-04-03T08:59:22.001Z</time></trkpt><trkpt lat="41.95949697998687" lon="12.800663387941215"><ele>250.0</ele><time>2026-04-03T08:59:23.001Z</time></trkpt><trkpt lat="41.95949802996754" lon="12.800769854662487"><ele>250.0</ele><time>2026-04-03T08:59:24.001Z</time></trkpt><trkpt lat="41.959491967845665" lon="12.800893069356713"><ele>250.0</ele><time>2026-04-03T08:59:26.001Z</time></trkpt><trkpt lat="41.95952294743009" lon="12.801031792585299"><ele>250.0</ele><time>2026-04-03T08:59:37.001Z</time></trkpt><trkpt lat="41.959538296544196" lon="12.80113979667359"><ele>250.0</ele><time>2026-04-03T08:59:38.001Z</time></trkpt><trkpt lat="41.95954862254361" lon="12.801261473997632"><ele>250.0</ele><time>2026-04-03T08:59:39.001Z</time></trkpt><trkpt lat="41.959549928009096" lon="12.801372262514661"><ele>249.16666666666666</ele><time>2026-04-03T08:59:40.001Z</time></trkpt><trkpt lat="41.95954449190511" lon="12.801468970410596"><ele>248.33333333333331</ele><time>2026-04-03T08:59:41.001Z</time></trkpt><trkpt lat="41.959544298741626" lon="12.801556260631049"><ele>247.5</ele><time>2026-04-03T08:59:42.001Z</time></trkpt><trkpt lat="41.95954881955774" lon="12.801695254475174"><ele>246.66666666666669</ele><time>2026-04-03T08:59:44.001Z</time></trkpt><trkpt lat="41.95955553820227" lon="12.80179785712445"><ele>245.83333333333334</ele><time>2026-04-03T08:59:47.001Z</time></trkpt><trkpt lat="41.959566204499254" lon="12.801889924398658"><ele>245.0</ele><time>2026-04-03T08:59:49.001Z</time></trkpt><trkpt lat="41.95958124791716" lon="12.80200607266313"><ele>244.6</ele><time>2026-04-03T08:59:51Z</time></trkpt><trkpt lat="41.95958065976028" lon="12.802099439062317"><ele>244.2</ele><time>2026-04-03T08:59:53Z</time></trkpt><trkpt lat="41.95962273466098" lon="12.80217000582389"><ele>243.8</ele><time>2026-04-03T08:59:54Z</time></trkpt><trkpt lat="41.95963664558215" lon="12.802285427437896"><ele>243.4</ele><time>2026-04-03T08:59:55Z</time></trkpt><trkpt lat="41.9596760135135" lon="12.802431181942806"><ele>243.0</ele><time>2026-04-03T08:59:56Z</time></trkpt><trkpt lat="41.95971864608174" lon="12.802588904820777"><ele>240.60000000000002</ele><time>2026-04-03T08:59:57Z</time></trkpt><trkpt lat="41.959758493601186" lon="12.802745897284638"><ele>238.20000000000002</ele><time>2026-04-03T08:59:58Z</time></trkpt><trkpt lat="41.95980032385332" lon="12.80287949872604"><ele>235.8</ele><time>2026-04-03T08:59:59Z</time></trkpt><trkpt lat="41.95984581993836" lon="12.803008896133864"><ele>233.4</ele><time>2026-04-03T09:00:00Z</time></trkpt><trkpt lat="41.9599196341833" lon="12.803115944204992"><ele>231.0</ele><time>2026-04-03T09:00:01Z</time></trkpt><trkpt lat="41.96003112457833" lon="12.803178627046085"><ele>229.75</ele><time>2026-04-03T09:00:02Z</time></trkpt><trkpt lat="41.96016716040521" lon="12.803201381460221"><ele>228.5</ele><time>2026-04-03T09:00:03Z</time></trkpt><trkpt lat="41.960311482329516" lon="12.803161038540347"><ele>227.25</ele><time>2026-04-03T09:00:04Z</time></trkpt><trkpt lat="41.96045651630222" lon="12.803107206279304"><ele>226.0</ele><time>2026-04-03T09:00:05Z</time></trkpt><trkpt lat="41.960601742520886" lon="12.803069119384563"><ele>226.0</ele><time>2026-04-03T09:00:06Z</time></trkpt><trkpt lat="41.96075327297068" lon="12.803037263722745"><ele>226.0</ele><time>2026-04-03T09:00:07Z</time></trkpt><trkpt lat="41.96088542129848" lon="12.803011418389636"><ele>226.0</ele><time>2026-04-03T09:00:08Z</time></trkpt><trkpt lat="41.96101748937081" lon="12.802988109355683"><ele>226.0</ele><time>2026-04-03T09:00:09Z</time></trkpt><trkpt lat="41.96114710837429" lon="12.80295983215686"><ele>224.25</ele><time>2026-04-03T09:00:10Z</time></trkpt><trkpt lat="41.961271839981016" lon="12.802931925242238"><ele>222.5</ele><time>2026-04-03T09:00:11Z</time></trkpt><trkpt lat="41.96140604261632" lon="12.802884146975748"><ele>220.75</ele><time>2026-04-03T09:00:12Z</time></trkpt><trkpt lat="41.96153318870166" lon="12.802834671257642"><ele>219.0</ele><time>2026-04-03T09:00:13Z</time></trkpt><trkpt lat="41.96165305033491" lon="12.802785832329187"><ele>219.75</ele><time>2026-04-03T09:00:14Z</time></trkpt><trkpt lat="41.961772596388236" lon="12.802731473419216"><ele>220.5</ele><time>2026-04-03T09:00:15Z</time></trkpt><trkpt lat="41.961898052566355" lon="12.802665335865266"><ele>221.25</ele><time>2026-04-03T09:00:16Z</time></trkpt><trkpt lat="41.96203199692512" lon="12.802588931281361"><ele>222.0</ele><time>2026-04-03T09:00:17Z</time></trkpt><trkpt lat="41.96216748552844" lon="12.802505102512171"><ele>222.0</ele><time>2026-04-03T09:00:18Z</time></trkpt><trkpt lat="41.962308856386144" lon="12.802415959954553"><ele>222.0</ele><time>2026-04-03T09:00:19Z</time></trkpt><trkpt lat="41.96244199212707" lon="12.80232724579749"><ele>222.0</ele><time>2026-04-03T09:00:20Z</time></trkpt><trkpt lat="41.9625351814937" lon="12.802262953385695"><ele>222.0</ele><time>2026-04-03T09:00:21Z</time></trkpt><trkpt lat="41.96260666480145" lon="12.802211851115107"><ele>222.5</ele><time>2026-04-03T09:00:22Z</time></trkpt><trkpt lat="41.962695827223186" lon="12.802157488540226"><ele>223.0</ele><time>2026-04-03T09:00:23Z</time></trkpt><trkpt lat="41.962801011429434" lon="12.802091300013869"><ele>223.5</ele><time>2026-04-03T09:00:24Z</time></trkpt><trkpt lat="41.962917587826524" lon="12.802025047692872"><ele>224.0</ele><time>2026-04-03T09:00:25Z</time></trkpt><trkpt lat="41.963036717942856" lon="12.801962245126132"><ele>224.0</ele><time>2026-04-03T09:00:26Z</time></trkpt><trkpt lat="41.96315933252571" lon="12.801897433828639"><ele>224.0</ele><time>2026-04-03T09:00:27Z</time></trkpt><trkpt lat="41.963287490307685" lon="12.801828471956192"><ele>224.0</ele><time>2026-04-03T09:00:28Z</time></trkpt><trkpt lat="41.96341765788876" lon="12.801763007386672"><ele>224.0</ele><time>2026-04-03T09:00:29Z</time></trkpt><trkpt lat="41.963555233009835" lon="12.80170320932449"><ele>223.0</ele><time>2026-04-03T09:00:30Z</time></trkpt><trkpt lat="41.9636904818043" lon="12.801669779841076"><ele>222.0</ele><time>2026-04-03T09:00:31Z</time></trkpt><trkpt lat="41.96382121887069" lon="12.801667463458244"><ele>221.0</ele><time>2026-04-03T09:00:32Z</time></trkpt><trkpt lat="41.96396938928811" lon="12.801677325916078"><ele>220.0</ele><time>2026-04-03T09:00:33Z</time></trkpt><trkpt lat="41.964124912276574" lon="12.801711785200464"><ele>221.0</ele><time>2026-04-03T09:00:34Z</time></trkpt><trkpt lat="41.964262382447934" lon="12.801753145188053"><ele>222.0</ele><time>2026-04-03T09:00:35Z</time></trkpt><trkpt lat="41.964374417359195" lon="12.801796435611962"><ele>223.0</ele><time>2026-04-03T09:00:36Z</time></trkpt><trkpt lat="41.96447821743155" lon="12.801814432245967"><ele>224.0</ele><time>2026-04-03T09:00:37Z</time></trkpt><trkpt lat="41.964571495425155" lon="12.801777984630398"><ele>224.00000000000003</ele><time>2026-04-03T09:00:38Z</time></trkpt><trkpt lat="41.96465389441057" lon="12.8017277541095"><ele>224.0</ele><time>2026-04-03T09:00:39Z</time></trkpt><trkpt lat="41.964724251825956" lon="12.801684656343427"><ele>224.0</ele><time>2026-04-03T09:00:40Z</time></trkpt><trkpt lat="41.964800216271776" lon="12.801641053777024"><ele>224.0</ele><time>2026-04-03T09:00:41Z</time></trkpt><trkpt lat="41.96487302712248" lon="12.801593518192457"><ele>224.00000000000003</ele><time>2026-04-03T09:00:42Z</time></trkpt><trkpt lat="41.96495102839842" lon="12.801552493010778"><ele>224.0</ele><time>2026-04-03T09:00:43Z</time></trkpt><trkpt lat="41.965017099713016" lon="12.80154822009656"><ele>224.5</ele><time>2026-04-03T09:00:44Z</time></trkpt><trkpt lat="41.965078794476085" lon="12.801592118757833"><ele>225.0</ele><time>2026-04-03T09:00:46Z</time></trkpt><trkpt lat="41.96512148704704" lon="12.801750829701344"><ele>225.5</ele><time>2026-04-03T09:00:47Z</time></trkpt><trkpt lat="41.96510138116111" lon="12.801851455054724"><ele>226.0</ele><time>2026-04-03T09:00:48Z</time></trkpt><trkpt lat="41.96497785674021" lon="12.802052236814509"><ele>227.5</ele><time>2026-04-03T09:00:50Z</time></trkpt><trkpt lat="41.96489142036554" lon="12.802150760542766"><ele>229.0</ele><time>2026-04-03T09:00:51Z</time></trkpt><trkpt lat="41.96479583395458" lon="12.802277791202531"><ele>230.5</ele><time>2026-04-03T09:00:52Z</time></trkpt><trkpt lat="41.964678682775585" lon="12.802400936329443"><ele>232.0</ele><time>2026-04-03T09:00:53Z</time></trkpt><trkpt lat="41.96455625007367" lon="12.80256050868823"><ele>235.0</ele><time>2026-04-03T09:00:54Z</time></trkpt><trkpt lat="41.96441145342157" lon="12.802734276145593"><ele>238.0</ele><time>2026-04-03T09:00:55Z</time></trkpt><trkpt lat="41.9642736135539" lon="12.802900175548643"><ele>241.0</ele><time>2026-04-03T09:00:56Z</time></trkpt><trkpt lat="41.964150753451314" lon="12.803058934232023"><ele>241.0</ele><time>2026-04-03T09:00:57Z</time></trkpt><trkpt lat="41.96404977355806" lon="12.803187612893801"><ele>241.0</ele><time>2026-04-03T09:00:58Z</time></trkpt><trkpt lat="41.963949847398275" lon="12.803354225064462"><ele>241.0</ele><time>2026-04-03T09:00:59Z</time></trkpt><trkpt lat="41.9638543068378" lon="12.803579997589184"><ele>245.25</ele><time>2026-04-03T09:01:00Z</time></trkpt><trkpt lat="41.96376949642765" lon="12.803787929237668"><ele>249.5</ele><time>2026-04-03T09:01:01Z</time></trkpt><trkpt lat="41.9636928458797" lon="12.803941525386655"><ele>253.75</ele><time>2026-04-03T09:01:02Z</time></trkpt><trkpt lat="41.963638676252884" lon="12.804071086035961"><ele>258.0</ele><time>2026-04-03T09:01:03Z</time></trkpt><trkpt lat="41.963593421556205" lon="12.804160471349343"><ele>258.0</ele><time>2026-04-03T09:01:04Z</time></trkpt><trkpt lat="41.96354733238215" lon="12.804219631896943"><ele>258.0</ele><time>2026-04-03T09:01:05Z</time></trkpt><trkpt lat="41.96349529697826" lon="12.804345803051971"><ele>258.0</ele><time>2026-04-03T09:01:07Z</time></trkpt><trkpt lat="41.96344651308987" lon="12.804440275694194"><ele>258.0</ele><time>2026-04-03T09:01:09Z</time></trkpt><trkpt lat="41.96340226730671" lon="12.804518161748957"><ele>258.0</ele><time>2026-04-03T09:01:10Z</time></trkpt><trkpt lat="41.963327087273065" lon="12.804616607872516"><ele>258.0</ele><time>2026-04-03T09:01:11Z</time></trkpt><trkpt lat="41.96322887466657" lon="12.804725877423724"><ele>255.25</ele><time>2026-04-03T09:01:12Z</time></trkpt><trkpt lat="41.96312530589439" lon="12.804836575702343"><ele>252.5</ele><time>2026-04-03T09:01:13Z</time></trkpt><trkpt lat="41.96300929239034" lon="12.80494360115946"><ele>249.75</ele><time>2026-04-03T09:01:14Z</time></trkpt><trkpt lat="41.9628765997835" lon="12.805052340321234"><ele>247.0</ele><time>2026-04-03T09:01:15Z</time></trkpt><trkpt lat="41.962754577656305" lon="12.805129969804444"><ele>249.33333333333331</ele><time>2026-04-03T09:01:16Z</time></trkpt><trkpt lat="41.9626369910805" lon="12.80520478173902"><ele>251.66666666666669</ele><time>2026-04-03T09:01:17Z</time></trkpt><trkpt lat="41.9624971853974" lon="12.805276394823926"><ele>254.0</ele><time>2026-04-03T09:01:18Z</time></trkpt><trkpt lat="41.9623170190449" lon="12.805342783503493"><ele>254.0</ele><time>2026-04-03T09:01:19Z</time></trkpt><trkpt lat="41.962096507726606" lon="12.805467313114853"><ele>254.0</ele><time>2026-04-03T09:01:20Z</time></trkpt><trkpt lat="41.96183816368815" lon="12.805589113583505"><ele>247.0</ele><time>2026-04-03T09:01:21Z</time></trkpt><trkpt lat="41.96162399923058" lon="12.805699001846463"><ele>240.0</ele><time>2026-04-03T09:01:22Z</time></trkpt><trkpt lat="41.96139852392801" lon="12.805782007716774"><ele>240.0</ele><time>2026-04-03T09:01:23Z</time></trkpt><trkpt lat="41.961136244428786" lon="12.805834908193397"><ele>240.0</ele><time>2026-04-03T09:01:24Z</time></trkpt><trkpt lat="41.960852425453204" lon="12.805832807246931"><ele>239.5</ele><time>2026-04-03T09:01:25Z</time></trkpt><trkpt lat="41.96057981927691" lon="12.805806248285325"><ele>239.0</ele><time>2026-04-03T09:01:26.001Z</time></trkpt><trkpt lat="41.96032154659172" lon="12.805817284322071"><ele>239.0</ele><time>2026-04-03T09:01:27.001Z</time></trkpt><trkpt lat="41.96006784472569" lon="12.805874035574083"><ele>239.0</ele><time>2026-04-03T09:01:28.001Z</time></trkpt><trkpt lat="41.959829131486956" lon="12.805978769238234"><ele>248.5</ele><time>2026-04-03T09:01:29.001Z</time></trkpt><trkpt lat="41.95961042029301" lon="12.806127776057096"><ele>258.0</ele><time>2026-04-03T09:01:30.001Z</time></trkpt><trkpt lat="41.95941070142237" lon="12.806334679127133"><ele>258.0</ele><time>2026-04-03T09:01:31.001Z</time></trkpt><trkpt lat="41.959226750892775" lon="12.806584383198881"><ele>258.0</ele><time>2026-04-03T09:01:32.001Z</time></trkpt><trkpt lat="41.959038523355204" lon="12.806882630379116"><ele>256.5</ele><time>2026-04-03T09:01:33.001Z</time></trkpt><trkpt lat="41.958853777678605" lon="12.807195420672171"><ele>255.0</ele><time>2026-04-03T09:01:34.001Z</time></trkpt><trkpt lat="41.9586935064779" lon="12.807458852133253"><ele>251.5</ele><time>2026-04-03T09:01:35.001Z</time></trkpt><trkpt lat="41.95853541381623" lon="12.807710930225776"><ele>248.0</ele><time>2026-04-03T09:01:36.001Z</time></trkpt><trkpt lat="41.958361319546356" lon="12.807965118589324"><ele>248.0</ele><time>2026-04-03T09:01:37.001Z</time></trkpt><trkpt lat="41.95821857593008" lon="12.808221147194464"><ele>248.0</ele><time>2026-04-03T09:01:38.001Z</time></trkpt><trkpt lat="41.95805847430948" lon="12.808469946335027"><ele>255.0</ele><time>2026-04-03T09:01:39.001Z</time></trkpt><trkpt lat="41.95788139899014" lon="12.808726907935585"><ele>262.0</ele><time>2026-04-03T09:01:40.001Z</time></trkpt><trkpt lat="41.95770526218325" lon="12.80902384120366"><ele>257.0</ele><time>2026-04-03T09:01:41.001Z</time></trkpt><trkpt lat="41.95751367660213" lon="12.809347750015004"><ele>252.0</ele><time>2026-04-03T09:01:42.001Z</time></trkpt><trkpt lat="41.95733286489522" lon="12.809655058776118"><ele>252.0</ele><time>2026-04-03T09:01:43.001Z</time></trkpt><trkpt lat="41.9571852539006" lon="12.809899730382146"><ele>252.0</ele><time>2026-04-03T09:01:44.001Z</time></trkpt><trkpt lat="41.95706129311258" lon="12.810095762579206"><ele>252.0</ele><time>2026-04-03T09:01:45.001Z</time></trkpt><trkpt lat="41.95696819476283" lon="12.810268512946704"><ele>251.8</ele><time>2026-04-03T09:01:46.001Z</time></trkpt><trkpt lat="41.956906769288175" lon="12.810357041783043"><ele>251.6</ele><time>2026-04-03T09:01:47.001Z</time></trkpt><trkpt lat="41.956843952439854" lon="12.81044468428558"><ele>251.40000000000003</ele><time>2026-04-03T09:01:48.001Z</time></trkpt><trkpt lat="41.956775645411305" lon="12.8105575684353"><ele>251.20000000000002</ele><time>2026-04-03T09:01:49.001Z</time></trkpt><trkpt lat="41.95668464463341" lon="12.810667791245443"><ele>251.0</ele><time>2026-04-03T09:01:50.001Z</time></trkpt><trkpt lat="41.95660182789972" lon="12.810784709281632"><ele>251.0</ele><time>2026-04-03T09:01:51.001Z</time></trkpt><trkpt lat="41.95654138931139" lon="12.81091669729737"><ele>251.0</ele><time>2026-04-03T09:01:52.001Z</time></trkpt><trkpt lat="41.95648603200475" lon="12.811042024949371"><ele>251.0</ele><time>2026-04-03T09:01:53.001Z</time></trkpt><trkpt lat="41.95644104518069" lon="12.811199742820689"><ele>251.0</ele><time>2026-04-03T09:01:54.001Z</time></trkpt><trkpt lat="41.956375856959085" lon="12.81141516371314"><ele>258.5</ele><time>2026-04-03T09:01:55.001Z</time></trkpt><trkpt lat="41.9562999472139" lon="12.811722256985808"><ele>266.0</ele><time>2026-04-03T09:01:56Z</time></trkpt><trkpt lat="41.956230402550254" lon="12.812072806221773"><ele>268.6666666666667</ele><time>2026-04-03T09:01:57Z</time></trkpt><trkpt lat="41.95614942522433" lon="12.812356185502546"><ele>271.3333333333333</ele><time>2026-04-03T09:01:58Z</time></trkpt><trkpt lat="41.95605150446228" lon="12.812578874708887"><ele>274.0</ele><time>2026-04-03T09:01:59Z</time></trkpt><trkpt lat="41.95594593805269" lon="12.812768420553617"><ele>271.25</ele><time>2026-04-03T09:02:00Z</time></trkpt><trkpt lat="41.95586714060089" lon="12.812935071690868"><ele>268.5</ele><time>2026-04-03T09:02:01Z</time></trkpt><trkpt lat="41.95579470920051" lon="12.81308388208997"><ele>265.75</ele><time>2026-04-03T09:02:02Z</time></trkpt><trkpt lat="41.95574846112641" lon="12.813230236863285"><ele>263.0</ele><time>2026-04-03T09:02:03Z</time></trkpt><trkpt lat="41.955721262360655" lon="12.813405134915836"><ele>263.5</ele><time>2026-04-03T09:02:04Z</time></trkpt><trkpt lat="41.95570904924424" lon="12.813602179989456"><ele>264.0</ele><time>2026-04-03T09:02:05Z</time></trkpt><trkpt lat="41.955677322543714" lon="12.813810992618452"><ele>264.5</ele><time>2026-04-03T09:02:06Z</time></trkpt><trkpt lat="41.95564689842709" lon="12.813992513322612"><ele>265.0</ele><time>2026-04-03T09:02:07Z</time></trkpt><trkpt lat="41.95561890454522" lon="12.814179084886154"><ele>265.0</ele><time>2026-04-03T09:02:08Z</time></trkpt><trkpt lat="41.955573419637496" lon="12.814355545989445"><ele>265.0</ele><time>2026-04-03T09:02:09Z</time></trkpt><trkpt lat="41.95553017224173" lon="12.814540040415874"><ele>265.0</ele><time>2026-04-03T09:02:10Z</time></trkpt><trkpt lat="41.955489552991054" lon="12.814718025511166"><ele>265.0</ele><time>2026-04-03T09:02:11Z</time></trkpt><trkpt lat="41.955451166887514" lon="12.814876836788091"><ele>265.0</ele><time>2026-04-03T09:02:12Z</time></trkpt><trkpt lat="41.955419449905236" lon="12.81502730904426"><ele>265.0</ele><time>2026-04-03T09:02:13Z</time></trkpt><trkpt lat="41.95539471650046" lon="12.8151879678689"><ele>265.0</ele><time>2026-04-03T09:02:14Z</time></trkpt><trkpt lat="41.9553930718613" lon="12.815372457436032"><ele>265.0</ele><time>2026-04-03T09:02:15Z</time></trkpt><trkpt lat="41.9554149715225" lon="12.815556922970224"><ele>264.25</ele><time>2026-04-03T09:02:16Z</time></trkpt><trkpt lat="41.95544261487721" lon="12.815744012198117"><ele>263.5</ele><time>2026-04-03T09:02:17Z</time></trkpt><trkpt lat="41.9554701172919" lon="12.815909438497835"><ele>262.75</ele><time>2026-04-03T09:02:18Z</time></trkpt><trkpt lat="41.9554952309276" lon="12.816075954165028"><ele>262.0</ele><time>2026-04-03T09:02:19Z</time></trkpt><trkpt lat="41.955519191013586" lon="12.81623388402591"><ele>262.0</ele><time>2026-04-03T09:02:20Z</time></trkpt><trkpt lat="41.95554616381719" lon="12.816378167143135"><ele>262.0</ele><time>2026-04-03T09:02:21Z</time></trkpt><trkpt lat="41.95557864297237" lon="12.81651980265844"><ele>262.0</ele><time>2026-04-03T09:02:22Z</time></trkpt><trkpt lat="41.95561115921238" lon="12.816657094168106"><ele>262.0</ele><time>2026-04-03T09:02:23Z</time></trkpt><trkpt lat="41.95565016938433" lon="12.816788593715117"><ele>262.0</ele><time>2026-04-03T09:02:24Z</time></trkpt><trkpt lat="41.95569706204414" lon="12.816931050906977"><ele>261.75</ele><time>2026-04-03T09:02:25Z</time></trkpt><trkpt lat="41.95574688186902" lon="12.817078143425471"><ele>261.5</ele><time>2026-04-03T09:02:26Z</time></trkpt><trkpt lat="41.95580096971448" lon="12.817237389761505"><ele>261.25</ele><time>2026-04-03T09:02:27Z</time></trkpt><trkpt lat="41.955857945393035" lon="12.817405326894127"><ele>261.0</ele><time>2026-04-03T09:02:28Z</time></trkpt><trkpt lat="41.955920533192064" lon="12.817590314149228"><ele>261.25</ele><time>2026-04-03T09:02:29Z</time></trkpt><trkpt lat="41.95598307509971" lon="12.817758975876528"><ele>261.5</ele><time>2026-04-03T09:02:30Z</time></trkpt><trkpt lat="41.956050881489155" lon="12.817895997041775"><ele>261.75</ele><time>2026-04-03T09:02:31Z</time></trkpt><trkpt lat="41.95613640004724" lon="12.818029140784144"><ele>262.0</ele><time>2026-04-03T09:02:32Z</time></trkpt><trkpt lat="41.956235259907004" lon="12.818162938645475"><ele>262.0</ele><time>2026-04-03T09:02:33Z</time></trkpt><trkpt lat="41.95633456074627" lon="12.818288698943817"><ele>262.0</ele><time>2026-04-03T09:02:34Z</time></trkpt><trkpt lat="41.95642007274538" lon="12.818391322927008"><ele>262.0</ele><time>2026-04-03T09:02:35Z</time></trkpt><trkpt lat="41.956507159967614" lon="12.818494747423795"><ele>262.0</ele><time>2026-04-03T09:02:36Z</time></trkpt><trkpt lat="41.9565825683695" lon="12.818600715802738"><ele>261.0</ele><time>2026-04-03T09:02:37Z</time></trkpt><trkpt lat="41.95664959428129" lon="12.818707314339582"><ele>260.0</ele><time>2026-04-03T09:02:38Z</time></trkpt><trkpt lat="41.95671247064082" lon="12.81880886199924"><ele>259.0</ele><time>2026-04-03T09:02:39Z</time></trkpt><trkpt lat="41.95676817086073" lon="12.818905842456306"><ele>258.0</ele><time>2026-04-03T09:02:40Z</time></trkpt><trkpt lat="41.95682899873498" lon="12.819010826258552"><ele>257.0</ele><time>2026-04-03T09:02:41Z</time></trkpt><trkpt lat="41.95687952719074" lon="12.81913525603078"><ele>257.75</ele><time>2026-04-03T09:02:42Z</time></trkpt><trkpt lat="41.95693081939177" lon="12.819236983560348"><ele>258.5</ele><time>2026-04-03T09:02:43Z</time></trkpt><trkpt lat="41.95699859462897" lon="12.819333317160684"><ele>259.25</ele><time>2026-04-03T09:02:44Z</time></trkpt><trkpt lat="41.957039357361936" lon="12.81948056414555"><ele>260.0</ele><time>2026-04-03T09:02:45Z</time></trkpt><trkpt lat="41.95711649784926" lon="12.819642280759707"><ele>260.0</ele><time>2026-04-03T09:02:46Z</time></trkpt><trkpt lat="41.95721304528685" lon="12.819806299511981"><ele>260.0</ele><time>2026-04-03T09:02:47Z</time></trkpt><trkpt lat="41.95733586593582" lon="12.81998723736562"><ele>260.0</ele><time>2026-04-03T09:02:48Z</time></trkpt><trkpt lat="41.957465157245906" lon="12.820175918230818"><ele>260.33333333333337</ele><time>2026-04-03T09:02:49Z</time></trkpt><trkpt lat="41.95757210413623" lon="12.820321532017003"><ele>260.6666666666667</ele><time>2026-04-03T09:02:50Z</time></trkpt><trkpt lat="41.95772755837493" lon="12.820490614012368"><ele>261.0</ele><time>2026-04-03T09:02:51Z</time></trkpt><trkpt lat="41.957884244462775" lon="12.8206344322219"><ele>261.0</ele><time>2026-04-03T09:02:52Z</time></trkpt><trkpt lat="41.958013968347224" lon="12.820747499055141"><ele>261.0</ele><time>2026-04-03T09:02:53Z</time></trkpt><trkpt lat="41.958140743693875" lon="12.820821793522498"><ele>261.0</ele><time>2026-04-03T09:02:54Z</time></trkpt><trkpt lat="41.95826234870838" lon="12.820893277992274"><ele>261.0</ele><time>2026-04-03T09:02:55Z</time></trkpt><trkpt lat="41.95838673938062" lon="12.820971024136067"><ele>261.0</ele><time>2026-04-03T09:02:56Z</time></trkpt><trkpt lat="41.95851482614203" lon="12.821061171818707"><ele>261.0</ele><time>2026-04-03T09:02:57Z</time></trkpt><trkpt lat="41.95865180133183" lon="12.82116047115298"><ele>261.0</ele><time>2026-04-03T09:02:58Z</time></trkpt><trkpt lat="41.958810212312734" lon="12.821284688659622"><ele>261.0</ele><time>2026-04-03T09:02:59Z</time></trkpt><trkpt lat="41.95899772126451" lon="12.821413013943722"><ele>261.0</ele><time>2026-04-03T09:03:00Z</time></trkpt><trkpt lat="41.95920899545022" lon="12.821541952159189"><ele>261.0</ele><time>2026-04-03T09:03:01Z</time></trkpt><trkpt lat="41.95942961042473" lon="12.821680698375646"><ele>259.0</ele><time>2026-04-03T09:03:02Z</time></trkpt><trkpt lat="41.9596659142338" lon="12.821826574416578"><ele>257.0</ele><time>2026-04-03T09:03:03Z</time></trkpt><trkpt lat="41.95992859670868" lon="12.82195735862429"><ele>258.0</ele><time>2026-04-03T09:03:04Z</time></trkpt><trkpt lat="41.96020197734801" lon="12.82206877420756"><ele>259.0</ele><time>2026-04-03T09:03:05Z</time></trkpt><trkpt lat="41.96047536638512" lon="12.822155601399274"><ele>259.0</ele><time>2026-04-03T09:03:06Z</time></trkpt><trkpt lat="41.960775395982964" lon="12.822251356590975"><ele>259.0</ele><time>2026-04-03T09:03:07Z</time></trkpt><trkpt lat="41.96109387054088" lon="12.822349010231544"><ele>261.0</ele><time>2026-04-03T09:03:08Z</time></trkpt><trkpt lat="41.961400806909154" lon="12.822461520647108"><ele>263.0</ele><time>2026-04-03T09:03:09Z</time></trkpt><trkpt lat="41.961720515271686" lon="12.822604906540956"><ele>259.5</ele><time>2026-04-03T09:03:10Z</time></trkpt><trkpt lat="41.9620707251772" lon="12.822735299242963"><ele>256.0</ele><time>2026-04-03T09:03:11Z</time></trkpt><trkpt lat="41.96237900579362" lon="12.822843384713293"><ele>257.5</ele><time>2026-04-03T09:03:12Z</time></trkpt><trkpt lat="41.96263420242408" lon="12.822972421112363"><ele>259.0</ele><time>2026-04-03T09:03:13Z</time></trkpt><trkpt lat="41.962863777016274" lon="12.823150314931798"><ele>259.0</ele><time>2026-04-03T09:03:14Z</time></trkpt><trkpt lat="41.963109230638544" lon="12.823313190335758"><ele>259.0</ele><time>2026-04-03T09:03:15Z</time></trkpt><trkpt lat="41.963345083753765" lon="12.8235258606569"><ele>259.0</ele><time>2026-04-03T09:03:16Z</time></trkpt><trkpt lat="41.963601003924516" lon="12.823746461550371"><ele>259.0</ele><time>2026-04-03T09:03:17Z</time></trkpt><trkpt lat="41.963856658645135" lon="12.823944987865605"><ele>259.0</ele><time>2026-04-03T09:03:18Z</time></trkpt><trkpt lat="41.96410131963842" lon="12.824109699970549"><ele>259.0</ele><time>2026-04-03T09:03:19Z</time></trkpt><trkpt lat="41.96432810912204" lon="12.824236702383875"><ele>256.5</ele><time>2026-04-03T09:03:20Z</time></trkpt><trkpt lat="41.96454637979187" lon="12.824355721815788"><ele>254.0</ele><time>2026-04-03T09:03:21Z</time></trkpt><trkpt lat="41.964758648677375" lon="12.824474124497645"><ele>254.0</ele><time>2026-04-03T09:03:22Z</time></trkpt><trkpt lat="41.96495834059168" lon="12.82459317438653"><ele>254.0</ele><time>2026-04-03T09:03:23Z</time></trkpt><trkpt lat="41.96513863784087" lon="12.824700908830295"><ele>254.0</ele><time>2026-04-03T09:03:24Z</time></trkpt><trkpt lat="41.965333591690296" lon="12.824805410879053"><ele>255.0</ele><time>2026-04-03T09:03:25Z</time></trkpt><trkpt lat="41.9655229935337" lon="12.824904969264404"><ele>256.0</ele><time>2026-04-03T09:03:26Z</time></trkpt><trkpt lat="41.965711916735756" lon="12.825006125959147"><ele>257.0</ele><time>2026-04-03T09:03:27Z</time></trkpt><trkpt lat="41.96589947590411" lon="12.825105676910145"><ele>256.6666666666667</ele><time>2026-04-03T09:03:28Z</time></trkpt><trkpt lat="41.9660991199629" lon="12.825205837379158"><ele>256.3333333333333</ele><time>2026-04-03T09:03:29Z</time></trkpt><trkpt lat="41.96629473024428" lon="12.825339402614995"><ele>256.0</ele><time>2026-04-03T09:03:30Z</time></trkpt><trkpt lat="41.966529666958785" lon="12.825442688158379"><ele>257.5</ele><time>2026-04-03T09:03:31Z</time></trkpt><trkpt lat="41.96675821307004" lon="12.825586917895292"><ele>259.0</ele><time>2026-04-03T09:03:32Z</time></trkpt><trkpt lat="41.9669804869857" lon="12.825750961970114"><ele>259.0</ele><time>2026-04-03T09:03:33Z</time></trkpt><trkpt lat="41.967186232653965" lon="12.825934132206482"><ele>259.0</ele><time>2026-04-03T09:03:34Z</time></trkpt><trkpt lat="41.967398310627985" lon="12.826140058854774"><ele>261.0</ele><time>2026-04-03T09:03:35Z</time></trkpt><trkpt lat="41.967594545739836" lon="12.82636194992719"><ele>263.0</ele><time>2026-04-03T09:03:36Z</time></trkpt><trkpt lat="41.96778718131917" lon="12.826612754250165"><ele>262.0</ele><time>2026-04-03T09:03:37Z</time></trkpt><trkpt lat="41.96797196525692" lon="12.826893155499608"><ele>261.0</ele><time>2026-04-03T09:03:38Z</time></trkpt><trkpt lat="41.968145153762606" lon="12.827194244081639"><ele>261.0</ele><time>2026-04-03T09:03:39Z</time></trkpt><trkpt lat="41.96830348445003" lon="12.827524224618633"><ele>261.0</ele><time>2026-04-03T09:03:40Z</time></trkpt><trkpt lat="41.968450945249366" lon="12.827871472156314"><ele>262.0</ele><time>2026-04-03T09:03:41Z</time></trkpt><trkpt lat="41.968604622156455" lon="12.828229297747983"><ele>263.0</ele><time>2026-04-03T09:03:42Z</time></trkpt><trkpt lat="41.96876283375892" lon="12.828580481898996"><ele>263.0</ele><time>2026-04-03T09:03:43Z</time></trkpt><trkpt lat="41.96892335229999" lon="12.82892882665172"><ele>263.0</ele><time>2026-04-03T09:03:44Z</time></trkpt><trkpt lat="41.9691101634363" lon="12.829264636323535"><ele>261.5</ele><time>2026-04-03T09:03:45.001Z</time></trkpt><trkpt lat="41.96932627477554" lon="12.829565759547341"><ele>260.0</ele><time>2026-04-03T09:03:46.001Z</time></trkpt><trkpt lat="41.96957642165196" lon="12.829868000267405"><ele>258.5</ele><time>2026-04-03T09:03:47.001Z</time></trkpt><trkpt lat="41.96984607249022" lon="12.83014854343334"><ele>257.0</ele><time>2026-04-03T09:03:48.001Z</time></trkpt><trkpt lat="41.970151431361344" lon="12.830429777691164"><ele>256.5</ele><time>2026-04-03T09:03:49.001Z</time></trkpt><trkpt lat="41.970481866255234" lon="12.830711301604907"><ele>256.0</ele><time>2026-04-03T09:03:50.001Z</time></trkpt><trkpt lat="41.970810536817524" lon="12.83098890321292"><ele>253.5</ele><time>2026-04-03T09:03:51.001Z</time></trkpt><trkpt lat="41.97114576216193" lon="12.831284394732826"><ele>251.0</ele><time>2026-04-03T09:03:52.001Z</time></trkpt><trkpt lat="41.97148777502694" lon="12.83157908847067"><ele>253.5</ele><time>2026-04-03T09:03:53.001Z</time></trkpt><trkpt lat="41.97180855979777" lon="12.83183157151254"><ele>256.0</ele><time>2026-04-03T09:03:54.001Z</time></trkpt><trkpt lat="41.97210336367989" lon="12.832024005993404"><ele>256.0</ele><time>2026-04-03T09:03:55.001Z</time></trkpt><trkpt lat="41.972384865850046" lon="12.832131399069048"><ele>256.0</ele><time>2026-04-03T09:03:56.001Z</time></trkpt><trkpt lat="41.97267299160219" lon="12.832215071662175"><ele>257.5</ele><time>2026-04-03T09:03:57.001Z</time></trkpt><trkpt lat="41.97295774199583" lon="12.832269768280934"><ele>259.0</ele><time>2026-04-03T09:03:58.001Z</time></trkpt><trkpt lat="41.973249921196256" lon="12.832313328102762"><ele>261.0</ele><time>2026-04-03T09:03:59.001Z</time></trkpt><trkpt lat="41.973545693835796" lon="12.832365311821745"><ele>263.0</ele><time>2026-04-03T09:04:00.001Z</time></trkpt><trkpt lat="41.97384182868093" lon="12.832420665851199"><ele>263.0</ele><time>2026-04-03T09:04:01.001Z</time></trkpt><trkpt lat="41.97411282977071" lon="12.832470931318547"><ele>263.0</ele><time>2026-04-03T09:04:02Z</time></trkpt><trkpt lat="41.97439303242115" lon="12.83252231493756"><ele>263.5</ele><time>2026-04-03T09:04:03Z</time></trkpt><trkpt lat="41.97467592072757" lon="12.832590949773488"><ele>264.0</ele><time>2026-04-03T09:04:04Z</time></trkpt><trkpt lat="41.97496529817993" lon="12.832667035905583"><ele>260.5</ele><time>2026-04-03T09:04:05Z</time></trkpt><trkpt lat="41.97526127955849" lon="12.832760666886848"><ele>257.0</ele><time>2026-04-03T09:04:06Z</time></trkpt><trkpt lat="41.97556114176366" lon="12.832885795713125"><ele>259.0</ele><time>2026-04-03T09:04:07Z</time></trkpt><trkpt lat="41.975871289350984" lon="12.83304317752097"><ele>261.0</ele><time>2026-04-03T09:04:08Z</time></trkpt><trkpt lat="41.97623525875521" lon="12.83321543371883"><ele>261.0</ele><time>2026-04-03T09:04:09Z</time></trkpt><trkpt lat="41.97657712978525" lon="12.833356378480818"><ele>261.0</ele><time>2026-04-03T09:04:10Z</time></trkpt><trkpt lat="41.97689131424999" lon="12.833506755110612"><ele>259.0</ele><time>2026-04-03T09:04:11Z</time></trkpt><trkpt lat="41.97717974672601" lon="12.833686912357797"><ele>257.0</ele><time>2026-04-03T09:04:12Z</time></trkpt><trkpt lat="41.977436005510526" lon="12.833928372864563"><ele>258.5</ele><time>2026-04-03T09:04:13Z</time></trkpt><trkpt lat="41.97765732082462" lon="12.834232758676027"><ele>260.0</ele><time>2026-04-03T09:04:14Z</time></trkpt><trkpt lat="41.977846751957856" lon="12.83456617710657"><ele>260.0</ele><time>2026-04-03T09:04:15Z</time></trkpt><trkpt lat="41.978048302488624" lon="12.834980245675933"><ele>260.0</ele><time>2026-04-03T09:04:16Z</time></trkpt><trkpt lat="41.97822640918417" lon="12.835377822464046"><ele>258.0</ele><time>2026-04-03T09:04:17Z</time></trkpt><trkpt lat="41.978389975096185" lon="12.8357311935541"><ele>256.0</ele><time>2026-04-03T09:04:18Z</time></trkpt><trkpt lat="41.97856716231931" lon="12.83603340600689"><ele>256.0</ele><time>2026-04-03T09:04:19Z</time></trkpt><trkpt lat="41.97879551996976" lon="12.8362881331883"><ele>256.0</ele><time>2026-04-03T09:04:20Z</time></trkpt><trkpt lat="41.97903582340438" lon="12.836495649963375"><ele>256.0</ele><time>2026-04-03T09:04:21Z</time></trkpt><trkpt lat="41.97922722645707" lon="12.836717151295307"><ele>256.0</ele><time>2026-04-03T09:04:22Z</time></trkpt><trkpt lat="41.979348541491156" lon="12.837006143858417"><ele>256.5</ele><time>2026-04-03T09:04:23Z</time></trkpt><trkpt lat="41.979430331862936" lon="12.837362847152406"><ele>257.0</ele><time>2026-04-03T09:04:24Z</time></trkpt><trkpt lat="41.9794788897246" lon="12.837716934460943"><ele>260.0</ele><time>2026-04-03T09:04:25Z</time></trkpt><trkpt lat="41.97948893547136" lon="12.83804167601665"><ele>263.0</ele><time>2026-04-03T09:04:26Z</time></trkpt><trkpt lat="41.979418665496134" lon="12.838330104457683"><ele>264.5</ele><time>2026-04-03T09:04:27Z</time></trkpt><trkpt lat="41.979297452530325" lon="12.838644313283059"><ele>266.0</ele><time>2026-04-03T09:04:28Z</time></trkpt><trkpt lat="41.979130753613624" lon="12.8389540226525"><ele>260.0</ele><time>2026-04-03T09:04:29Z</time></trkpt><trkpt lat="41.97898084201681" lon="12.839211769862235"><ele>254.0</ele><time>2026-04-03T09:04:30Z</time></trkpt><trkpt lat="41.978903909846686" lon="12.839488585730672"><ele>254.0</ele><time>2026-04-03T09:04:31Z</time></trkpt><trkpt lat="41.97889267687954" lon="12.83979757110615"><ele>254.0</ele><time>2026-04-03T09:04:32Z</time></trkpt><trkpt lat="41.978943788274634" lon="12.840138134124098"><ele>253.0</ele><time>2026-04-03T09:04:33Z</time></trkpt><trkpt lat="41.979050787422956" lon="12.84042759804386"><ele>252.0</ele><time>2026-04-03T09:04:34Z</time></trkpt><trkpt lat="41.979214442874394" lon="12.840682381004273"><ele>252.5</ele><time>2026-04-03T09:04:35Z</time></trkpt><trkpt lat="41.979444396191006" lon="12.840912355939876"><ele>253.0</ele><time>2026-04-03T09:04:36Z</time></trkpt><trkpt lat="41.979699414211076" lon="12.841123226383777"><ele>253.0</ele><time>2026-04-03T09:04:37Z</time></trkpt><trkpt lat="41.97994524572286" lon="12.841410302453875"><ele>253.0</ele><time>2026-04-03T09:04:38Z</time></trkpt><trkpt lat="41.98014006000384" lon="12.841775444646263"><ele>255.5</ele><time>2026-04-03T09:04:39Z</time></trkpt><trkpt lat="41.9803084284575" lon="12.842138806272473"><ele>258.0</ele><time>2026-04-03T09:04:40Z</time></trkpt><trkpt lat="41.98044775322031" lon="12.842526803134973"><ele>256.5</ele><time>2026-04-03T09:04:41Z</time></trkpt><trkpt lat="41.98054372173482" lon="12.842891114573765"><ele>255.0</ele><time>2026-04-03T09:04:42Z</time></trkpt><trkpt lat="41.98062315656029" lon="12.843206866493444"><ele>250.5</ele><time>2026-04-03T09:04:43Z</time></trkpt><trkpt lat="41.980705148211115" lon="12.843510052193793"><ele>246.0</ele><time>2026-04-03T09:04:44Z</time></trkpt><trkpt lat="41.98082356071409" lon="12.843752407757211"><ele>249.33333333333331</ele><time>2026-04-03T09:04:45Z</time></trkpt><trkpt lat="41.980976981855875" lon="12.843936463709605"><ele>252.66666666666666</ele><time>2026-04-03T09:04:46Z</time></trkpt><trkpt lat="41.98113964590191" lon="12.844079235111424"><ele>256.0</ele><time>2026-04-03T09:04:47Z</time></trkpt><trkpt lat="41.98129953951611" lon="12.844187466379003"><ele>256.0</ele><time>2026-04-03T09:04:48Z</time></trkpt><trkpt lat="41.98144471013181" lon="12.84426321024003"><ele>256.0</ele><time>2026-04-03T09:04:49Z</time></trkpt><trkpt lat="41.98160472939625" lon="12.844331920816185"><ele>256.0</ele><time>2026-04-03T09:04:50Z</time></trkpt><trkpt lat="41.98176835931774" lon="12.84437837760083"><ele>250.0</ele><time>2026-04-03T09:04:51Z</time></trkpt><trkpt lat="41.98193061280512" lon="12.844397003707178"><ele>244.0</ele><time>2026-04-03T09:04:52Z</time></trkpt><trkpt lat="41.982105452701695" lon="12.84436696796843"><ele>238.0</ele><time>2026-04-03T09:04:53Z</time></trkpt><trkpt lat="41.98232032041456" lon="12.844327386106968"><ele>246.0</ele><time>2026-04-03T09:04:54Z</time></trkpt><trkpt lat="41.9826170664846" lon="12.844272890255564"><ele>254.0</ele><time>2026-04-03T09:04:55Z</time></trkpt><trkpt lat="41.982993210258215" lon="12.844187491468826"><ele>254.0</ele><time>2026-04-03T09:04:56Z</time></trkpt><trkpt lat="41.983361728096014" lon="12.844135143377896"><ele>254.0</ele><time>2026-04-03T09:04:57Z</time></trkpt><trkpt lat="41.98367010387143" lon="12.844092298790796"><ele>254.0</ele><time>2026-04-03T09:04:58Z</time></trkpt><trkpt lat="41.98397965968595" lon="12.84407034567045"><ele>254.0</ele><time>2026-04-03T09:04:59Z</time></trkpt><trkpt lat="41.98429908506211" lon="12.844150728264806"><ele>255.5</ele><time>2026-04-03T09:05:00Z</time></trkpt><trkpt lat="41.9846168372557" lon="12.844262013829287"><ele>257.0</ele><time>2026-04-03T09:05:01Z</time></trkpt><trkpt lat="41.98492600273738" lon="12.844426764557442"><ele>256.5</ele><time>2026-04-03T09:05:02Z</time></trkpt><trkpt lat="41.985234947298906" lon="12.844660797261518"><ele>256.0</ele><time>2026-04-03T09:05:03Z</time></trkpt><trkpt lat="41.985507837048225" lon="12.844930885683052"><ele>255.0</ele><time>2026-04-03T09:05:04Z</time></trkpt><trkpt lat="41.98573925093092" lon="12.845212925333385"><ele>254.0</ele><time>2026-04-03T09:05:05Z</time></trkpt><trkpt lat="41.985914264308434" lon="12.845496146257474"><ele>254.0</ele><time>2026-04-03T09:05:06Z</time></trkpt><trkpt lat="41.98608474809193" lon="12.845842485187866"><ele>254.0</ele><time>2026-04-03T09:05:07Z</time></trkpt><trkpt lat="41.98626508136297" lon="12.84628206051619"><ele>255.5</ele><time>2026-04-03T09:05:08Z</time></trkpt><trkpt lat="41.986434113699374" lon="12.846726893842376"><ele>257.0</ele><time>2026-04-03T09:05:09Z</time></trkpt><trkpt lat="41.986585029417704" lon="12.847094153072154"><ele>257.5</ele><time>2026-04-03T09:05:10Z</time></trkpt><trkpt lat="41.98664618639002" lon="12.847421732417944"><ele>258.0</ele><time>2026-04-03T09:05:11Z</time></trkpt><trkpt lat="41.98665530770882" lon="12.847721552414844"><ele>257.0</ele><time>2026-04-03T09:05:12Z</time></trkpt><trkpt lat="41.986602572187074" lon="12.848028059236505"><ele>256.0</ele><time>2026-04-03T09:05:13Z</time></trkpt><trkpt lat="41.986478535552386" lon="12.848334674807504"><ele>258.5</ele><time>2026-04-03T09:05:14Z</time></trkpt><trkpt lat="41.986299934285455" lon="12.848644783619145"><ele>261.0</ele><time>2026-04-03T09:05:15Z</time></trkpt><trkpt lat="41.98611940389549" lon="12.848956295149923"><ele>261.0</ele><time>2026-04-03T09:05:16Z</time></trkpt><trkpt lat="41.986009647215205" lon="12.849250627072806"><ele>261.0</ele><time>2026-04-03T09:05:17Z</time></trkpt><trkpt lat="41.98599181619094" lon="12.849565910724296"><ele>261.5</ele><time>2026-04-03T09:05:18Z</time></trkpt><trkpt lat="41.98601844943231" lon="12.849951041894295"><ele>262.0</ele><time>2026-04-03T09:05:19Z</time></trkpt><trkpt lat="41.98599289540017" lon="12.850369804786418"><ele>262.5</ele><time>2026-04-03T09:05:20Z</time></trkpt><trkpt lat="41.98591974143695" lon="12.850721657310741"><ele>263.0</ele><time>2026-04-03T09:05:21Z</time></trkpt><trkpt lat="41.98579061033513" lon="12.851055833867372"><ele>263.0</ele><time>2026-04-03T09:05:22Z</time></trkpt><trkpt lat="41.985599550359694" lon="12.851428277312596"><ele>263.0</ele><time>2026-04-03T09:05:23Z</time></trkpt><trkpt lat="41.98537235812682" lon="12.851758802338908"><ele>261.0</ele><time>2026-04-03T09:05:24Z</time></trkpt><trkpt lat="41.98514316216472" lon="12.852041148257"><ele>259.0</ele><time>2026-04-03T09:05:25Z</time></trkpt><trkpt lat="41.98488174206447" lon="12.852348021839177"><ele>263.0</ele><time>2026-04-03T09:05:26Z</time></trkpt><trkpt lat="41.984642030298616" lon="12.852628697010335"><ele>267.0</ele><time>2026-04-03T09:05:27Z</time></trkpt><trkpt lat="41.984415648531886" lon="12.85289878883817"><ele>267.0</ele><time>2026-04-03T09:05:28Z</time></trkpt><trkpt lat="41.98418158207765" lon="12.853148861763767"><ele>267.0</ele><time>2026-04-03T09:05:29Z</time></trkpt><trkpt lat="41.98400010212575" lon="12.853392976086509"><ele>261.0</ele><time>2026-04-03T09:05:30Z</time></trkpt><trkpt lat="41.98388312783437" lon="12.853659111837212"><ele>255.0</ele><time>2026-04-03T09:05:31Z</time></trkpt><trkpt lat="41.983839800163885" lon="12.853999057815889"><ele>256.5</ele><time>2026-04-03T09:05:32Z</time></trkpt><trkpt lat="41.9838166772938" lon="12.854436307887783"><ele>258.0</ele><time>2026-04-03T09:05:33Z</time></trkpt><trkpt lat="41.983791931468176" lon="12.854915947700253"><ele>260.5</ele><time>2026-04-03T09:05:34Z</time></trkpt><trkpt lat="41.98375780659868" lon="12.855292976904343"><ele>263.0</ele><time>2026-04-03T09:05:35Z</time></trkpt><trkpt lat="41.983749847331104" lon="12.855601981209961"><ele>263.0</ele><time>2026-04-03T09:05:36Z</time></trkpt><trkpt lat="41.98379805029125" lon="12.85590144463069"><ele>263.0</ele><time>2026-04-03T09:05:37Z</time></trkpt><trkpt lat="41.983916572730806" lon="12.856187695442086"><ele>260.0</ele><time>2026-04-03T09:05:38Z</time></trkpt><trkpt lat="41.98410699499516" lon="12.856433912614836"><ele>257.0</ele><time>2026-04-03T09:05:39Z</time></trkpt><trkpt lat="41.984356598284876" lon="12.85667317063226"><ele>257.5</ele><time>2026-04-03T09:05:40Z</time></trkpt><trkpt lat="41.984672965584366" lon="12.856943421281278"><ele>258.0</ele><time>2026-04-03T09:05:41Z</time></trkpt><trkpt lat="41.98499559027309" lon="12.857264870715609"><ele>260.0</ele><time>2026-04-03T09:05:42Z</time></trkpt><trkpt lat="41.9853428240593" lon="12.85761817490801"><ele>262.0</ele><time>2026-04-03T09:05:43Z</time></trkpt><trkpt lat="41.985642006839626" lon="12.857925741983022"><ele>269.5</ele><time>2026-04-03T09:05:44Z</time></trkpt><trkpt lat="41.985883748060914" lon="12.858238639309416"><ele>277.0</ele><time>2026-04-03T09:05:45Z</time></trkpt><trkpt lat="41.98607871704347" lon="12.858542989836565"><ele>277.0</ele><time>2026-04-03T09:05:46Z</time></trkpt><trkpt lat="41.98624805347041" lon="12.858869541300818"><ele>277.0</ele><time>2026-04-03T09:05:47Z</time></trkpt><trkpt lat="41.98638351845283" lon="12.859254694516334"><ele>271.5</ele><time>2026-04-03T09:05:48Z</time></trkpt><trkpt lat="41.98653361386578" lon="12.859636953923937"><ele>266.0</ele><time>2026-04-03T09:05:49.001Z</time></trkpt><trkpt lat="41.98665032711802" lon="12.860023481225541"><ele>274.0</ele><time>2026-04-03T09:05:50.001Z</time></trkpt><trkpt lat="41.98670357573303" lon="12.860427632783631"><ele>282.0</ele><time>2026-04-03T09:05:51.001Z</time></trkpt><trkpt lat="41.98668394022059" lon="12.860878838732255"><ele>279.5</ele><time>2026-04-03T09:05:52.001Z</time></trkpt><trkpt lat="41.986590154653555" lon="12.861298463458404"><ele>277.0</ele><time>2026-04-03T09:05:53.001Z</time></trkpt><trkpt lat="41.98644485945894" lon="12.861647745178264"><ele>278.5</ele><time>2026-04-03T09:05:54.001Z</time></trkpt><trkpt lat="41.98629532285441" lon="12.861923603254565"><ele>280.0</ele><time>2026-04-03T09:05:55.001Z</time></trkpt><trkpt lat="41.98620494187758" lon="12.862188148592805"><ele>280.0</ele><time>2026-04-03T09:05:56.001Z</time></trkpt><trkpt lat="41.98619872578418" lon="12.862448776942653"><ele>280.0</ele><time>2026-04-03T09:05:57.001Z</time></trkpt><trkpt lat="41.986263475251334" lon="12.862699175658385"><ele>280.0</ele><time>2026-04-03T09:05:58.001Z</time></trkpt><trkpt lat="41.986388898742504" lon="12.862937902324427"><ele>280.0</ele><time>2026-04-03T09:05:59.001Z</time></trkpt><trkpt lat="41.98657199714564" lon="12.8631121797297"><ele>280.0</ele><time>2026-04-03T09:06:00.001Z</time></trkpt><trkpt lat="41.986805292951836" lon="12.863202073160688"><ele>280.0</ele><time>2026-04-03T09:06:01.001Z</time></trkpt><trkpt lat="41.987105593926785" lon="12.863246607071133"><ele>280.0</ele><time>2026-04-03T09:06:02.001Z</time></trkpt><trkpt lat="41.98742913447382" lon="12.86327938850428"><ele>276.5</ele><time>2026-04-03T09:06:03.001Z</time></trkpt><trkpt lat="41.987712164264664" lon="12.863327629990538"><ele>273.0</ele><time>2026-04-03T09:06:04.001Z</time></trkpt><trkpt lat="41.98794137993108" lon="12.863456682620704"><ele>273.0</ele><time>2026-04-03T09:06:05.001Z</time></trkpt><trkpt lat="41.98814825805962" lon="12.863703878159884"><ele>273.0</ele><time>2026-04-03T09:06:06.001Z</time></trkpt><trkpt lat="41.98838478723304" lon="12.863987272238083"><ele>277.5</ele><time>2026-04-03T09:06:07.001Z</time></trkpt><trkpt lat="41.988645717900425" lon="12.864228598737299"><ele>282.0</ele><time>2026-04-03T09:06:08Z</time></trkpt><trkpt lat="41.988866808410364" lon="12.864476754044826"><ele>282.0</ele><time>2026-04-03T09:06:09Z</time></trkpt><trkpt lat="41.989019115295946" lon="12.86478534444064"><ele>282.0</ele><time>2026-04-03T09:06:10Z</time></trkpt><trkpt lat="41.98915156613468" lon="12.865198345105153"><ele>286.0</ele><time>2026-04-03T09:06:11Z</time></trkpt><trkpt lat="41.98927802883349" lon="12.865604775038864"><ele>290.0</ele><time>2026-04-03T09:06:12Z</time></trkpt><trkpt lat="41.989410462580885" lon="12.865950413792826"><ele>280.5</ele><time>2026-04-03T09:06:13Z</time></trkpt><trkpt lat="41.98958339938879" lon="12.866253753041775"><ele>271.0</ele><time>2026-04-03T09:06:14Z</time></trkpt><trkpt lat="41.98981596369403" lon="12.866536149837193"><ele>266.0</ele><time>2026-04-03T09:06:15Z</time></trkpt><trkpt lat="41.99008196868681" lon="12.866783145990304"><ele>261.0</ele><time>2026-04-03T09:06:16Z</time></trkpt><trkpt lat="41.990343583215406" lon="12.86696783655445"><ele>261.0</ele><time>2026-04-03T09:06:17Z</time></trkpt><trkpt lat="41.990648027357736" lon="12.867075740872293"><ele>261.0</ele><time>2026-04-03T09:06:18Z</time></trkpt><trkpt lat="41.991047654161314" lon="12.867188112845163"><ele>262.0</ele><time>2026-04-03T09:06:19Z</time></trkpt><trkpt lat="41.99145369790717" lon="12.867336647584738"><ele>263.0</ele><time>2026-04-03T09:06:20Z</time></trkpt><trkpt lat="41.991863627814816" lon="12.867551398534484"><ele>263.5</ele><time>2026-04-03T09:06:21Z</time></trkpt><trkpt lat="41.9922470306312" lon="12.867801696345214"><ele>264.0</ele><time>2026-04-03T09:06:22Z</time></trkpt><trkpt lat="41.99257766987779" lon="12.868036741928838"><ele>264.5</ele><time>2026-04-03T09:06:23Z</time></trkpt><trkpt lat="41.992929847936004" lon="12.868290103664334"><ele>265.0</ele><time>2026-04-03T09:06:24Z</time></trkpt><trkpt lat="41.99325434465722" lon="12.868567702095305"><ele>268.5</ele><time>2026-04-03T09:06:25Z</time></trkpt><trkpt lat="41.99351906960541" lon="12.868852651676844"><ele>272.0</ele><time>2026-04-03T09:06:26Z</time></trkpt><trkpt lat="41.99374419287876" lon="12.869137427479128"><ele>270.0</ele><time>2026-04-03T09:06:27Z</time></trkpt><trkpt lat="41.993913053456616" lon="12.869467921421576"><ele>268.0</ele><time>2026-04-03T09:06:28Z</time></trkpt><trkpt lat="41.994041971432466" lon="12.869858602092902"><ele>270.0</ele><time>2026-04-03T09:06:29Z</time></trkpt><trkpt lat="41.99414799574838" lon="12.870226552636163"><ele>272.0</ele><time>2026-04-03T09:06:30Z</time></trkpt><trkpt lat="41.99421459719024" lon="12.870550824651987"><ele>278.0</ele><time>2026-04-03T09:06:31Z</time></trkpt><trkpt lat="41.99424198696599" lon="12.870867706435583"><ele>284.0</ele><time>2026-04-03T09:06:32Z</time></trkpt><trkpt lat="41.99421963734695" lon="12.87119359071084"><ele>287.5</ele><time>2026-04-03T09:06:33Z</time></trkpt><trkpt lat="41.99418353021512" lon="12.87156224623666"><ele>291.0</ele><time>2026-04-03T09:06:34Z</time></trkpt><trkpt lat="41.994129177843135" lon="12.871908684426318"><ele>290.0</ele><time>2026-04-03T09:06:35Z</time></trkpt><trkpt lat="41.99412177106527" lon="12.87219730233122"><ele>289.0</ele><time>2026-04-03T09:06:36Z</time></trkpt><trkpt lat="41.99419730246843" lon="12.872502373542678"><ele>282.5</ele><time>2026-04-03T09:06:37Z</time></trkpt><trkpt lat="41.994354281491496" lon="12.872825702994147"><ele>276.0</ele><time>2026-04-03T09:06:38Z</time></trkpt><trkpt lat="41.99455334804033" lon="12.873153471868214"><ele>276.0</ele><time>2026-04-03T09:06:39Z</time></trkpt><trkpt lat="41.99472526857243" lon="12.873397676937921"><ele>276.0</ele><time>2026-04-03T09:06:40Z</time></trkpt><trkpt lat="41.99491878863971" lon="12.873560627646762"><ele>272.0</ele><time>2026-04-03T09:06:41Z</time></trkpt><trkpt lat="41.99517023174726" lon="12.873672526053527"><ele>268.0</ele><time>2026-04-03T09:06:42Z</time></trkpt><trkpt lat="41.99543893272963" lon="12.873736075683547"><ele>268.0</ele><time>2026-04-03T09:06:43Z</time></trkpt><trkpt lat="41.99562919382382" lon="12.873884284601049"><ele>268.0</ele><time>2026-04-03T09:06:44Z</time></trkpt><trkpt lat="41.99580857892845" lon="12.874125041764295"><ele>269.5</ele><time>2026-04-03T09:06:45Z</time></trkpt><trkpt lat="41.99602762951345" lon="12.874454149317277"><ele>271.0</ele><time>2026-04-03T09:06:46Z</time></trkpt><trkpt lat="41.99633563483311" lon="12.874870742674949"><ele>269.0</ele><time>2026-04-03T09:06:47Z</time></trkpt><trkpt lat="41.99663294273433" lon="12.875200305036977"><ele>267.0</ele><time>2026-04-03T09:06:48Z</time></trkpt><trkpt lat="41.996977181406855" lon="12.875550932043316"><ele>267.0</ele><time>2026-04-03T09:06:49Z</time></trkpt><trkpt lat="41.99723847136977" lon="12.875835221943905"><ele>267.0</ele><time>2026-04-03T09:06:50Z</time></trkpt><trkpt lat="41.99750187181025" lon="12.876080096242507"><ele>265.0</ele><time>2026-04-03T09:06:51Z</time></trkpt><trkpt lat="41.99776369885858" lon="12.876288497550249"><ele>263.0</ele><time>2026-04-03T09:06:52Z</time></trkpt><trkpt lat="41.99807142594593" lon="12.87647812856355"><ele>261.5</ele><time>2026-04-03T09:06:53Z</time></trkpt><trkpt lat="41.99846163105645" lon="12.87665089681757"><ele>260.0</ele><time>2026-04-03T09:06:54Z</time></trkpt><trkpt lat="41.99881486455636" lon="12.876811668123063"><ele>260.0</ele><time>2026-04-03T09:06:55Z</time></trkpt><trkpt lat="41.99909065720207" lon="12.876958044762524"><ele>260.0</ele><time>2026-04-03T09:06:56Z</time></trkpt><trkpt lat="41.99929154171251" lon="12.877016598136677"><ele>261.5</ele><time>2026-04-03T09:06:57Z</time></trkpt><trkpt lat="41.99953065206268" lon="12.877056567672188"><ele>263.0</ele><time>2026-04-03T09:06:58Z</time></trkpt><trkpt lat="41.999884413098094" lon="12.877109780582234"><ele>263.0</ele><time>2026-04-03T09:06:59Z</time></trkpt><trkpt lat="42.00022281766932" lon="12.877170481797995"><ele>263.0</ele><time>2026-04-03T09:07:00Z</time></trkpt><trkpt lat="42.00056582520142" lon="12.87719319466383"><ele>263.0</ele><time>2026-04-03T09:07:01Z</time></trkpt><trkpt lat="42.00088983730171" lon="12.877181598883382"><ele>263.0</ele><time>2026-04-03T09:07:02Z</time></trkpt><trkpt lat="42.00124992611379" lon="12.87711091770492"><ele>263.0</ele><time>2026-04-03T09:07:03Z</time></trkpt><trkpt lat="42.001603614124406" lon="12.877094723275231"><ele>263.0</ele><time>2026-04-03T09:07:04Z</time></trkpt><trkpt lat="42.00195117020788" lon="12.877145613370578"><ele>262.5</ele><time>2026-04-03T09:07:05Z</time></trkpt><trkpt lat="42.00227700673471" lon="12.877167738891814"><ele>262.0</ele><time>2026-04-03T09:07:06Z</time></trkpt><trkpt lat="42.00257055748866" lon="12.877019319051904"><ele>262.0</ele><time>2026-04-03T09:07:07Z</time></trkpt><trkpt lat="42.00282039208185" lon="12.876866760045116"><ele>262.0</ele><time>2026-04-03T09:07:08Z</time></trkpt><trkpt lat="42.00308253072514" lon="12.876601025172269"><ele>264.5</ele><time>2026-04-03T09:07:09Z</time></trkpt><trkpt lat="42.00336109866889" lon="12.876530615553678"><ele>267.0</ele><time>2026-04-03T09:07:10Z</time></trkpt><trkpt lat="42.00363832383928" lon="12.876627032252859"><ele>267.0</ele><time>2026-04-03T09:07:11Z</time></trkpt><trkpt lat="42.00389508063688" lon="12.87675228340432"><ele>267.0</ele><time>2026-04-03T09:07:12Z</time></trkpt><trkpt lat="42.004149003406546" lon="12.876965170683988"><ele>266.5</ele><time>2026-04-03T09:07:13Z</time></trkpt><trkpt lat="42.00441817339041" lon="12.877093606089003"><ele>266.0</ele><time>2026-04-03T09:07:14Z</time></trkpt><trkpt lat="42.00467576561754" lon="12.877178402673751"><ele>266.0</ele><time>2026-04-03T09:07:15Z</time></trkpt><trkpt lat="42.00487898810063" lon="12.87716432454694"><ele>266.0</ele><time>2026-04-03T09:07:16Z</time></trkpt><trkpt lat="42.005063638783696" lon="12.87708368671978"><ele>266.0</ele><time>2026-04-03T09:07:17Z</time></trkpt><trkpt lat="42.00522871235198" lon="12.877099301559825"><ele>265.6666666666667</ele><time>2026-04-03T09:07:18Z</time></trkpt><trkpt lat="42.00539929093436" lon="12.877265102937868"><ele>265.3333333333333</ele><time>2026-04-03T09:07:19Z</time></trkpt><trkpt lat="42.00544863422509" lon="12.877512778046583"><ele>265.0</ele><time>2026-04-03T09:07:20Z</time></trkpt><trkpt lat="42.00547578438892" lon="12.877788634251718"><ele>265.0</ele><time>2026-04-03T09:07:21Z</time></trkpt><trkpt lat="42.00553410923512" lon="12.878144869803364"><ele>265.0</ele><time>2026-04-03T09:07:22Z</time></trkpt><trkpt lat="42.00569298502429" lon="12.878542994911408"><ele>264.5</ele><time>2026-04-03T09:07:23Z</time></trkpt><trkpt lat="42.00587541482249" lon="12.878922783903324"><ele>264.0</ele><time>2026-04-03T09:07:24Z</time></trkpt><trkpt lat="42.00603441828528" lon="12.879318755420748"><ele>264.0</ele><time>2026-04-03T09:07:25Z</time></trkpt><trkpt lat="42.00610713352863" lon="12.879678458682823"><ele>264.0</ele><time>2026-04-03T09:07:26Z</time></trkpt><trkpt lat="42.006172492898756" lon="12.880075504728335"><ele>263.5</ele><time>2026-04-03T09:07:27Z</time></trkpt><trkpt lat="42.00625125719334" lon="12.880451703099345"><ele>263.0</ele><time>2026-04-03T09:07:28Z</time></trkpt><trkpt lat="42.00642609071714" lon="12.880758263753007"><ele>263.0</ele><time>2026-04-03T09:07:29Z</time></trkpt><trkpt lat="42.00666059107361" lon="12.88108428016541"><ele>263.0</ele><time>2026-04-03T09:07:30Z</time></trkpt><trkpt lat="42.006926349005305" lon="12.881379021396738"><ele>263.0</ele><time>2026-04-03T09:07:31Z</time></trkpt><trkpt lat="42.00716260773913" lon="12.88161107756889"><ele>263.0</ele><time>2026-04-03T09:07:32Z</time></trkpt><trkpt lat="42.00739279941952" lon="12.881778796513148"><ele>263.0</ele><time>2026-04-03T09:07:33Z</time></trkpt><trkpt lat="42.007618942742226" lon="12.881866109046655"><ele>263.0</ele><time>2026-04-03T09:07:34Z</time></trkpt><trkpt lat="42.007865239148906" lon="12.881911869183552"><ele>263.0</ele><time>2026-04-03T09:07:35Z</time></trkpt><trkpt lat="42.008110781580356" lon="12.881918586639507"><ele>263.0</ele><time>2026-04-03T09:07:36Z</time></trkpt><trkpt lat="42.00834607599492" lon="12.881962214727185"><ele>263.0</ele><time>2026-04-03T09:07:37Z</time></trkpt><trkpt lat="42.008521237450445" lon="12.881955394009776"><ele>263.0</ele><time>2026-04-03T09:07:38Z</time></trkpt><trkpt lat="42.00871053837165" lon="12.882014996034298"><ele>263.0</ele><time>2026-04-03T09:07:39Z</time></trkpt><trkpt lat="42.00888816045699" lon="12.882136924072158"><ele>263.0</ele><time>2026-04-03T09:07:40Z</time></trkpt><trkpt lat="42.0090639017158" lon="12.882329054211857"><ele>263.0</ele><time>2026-04-03T09:07:41Z</time></trkpt><trkpt lat="42.009304935893546" lon="12.882553221171012"><ele>264.0</ele><time>2026-04-03T09:07:42Z</time></trkpt><trkpt lat="42.00957913065013" lon="12.882810950248558"><ele>265.0</ele><time>2026-04-03T09:07:43Z</time></trkpt><trkpt lat="42.009883693618114" lon="12.883170210909567"><ele>265.0</ele><time>2026-04-03T09:07:44Z</time></trkpt><trkpt lat="42.01017007209296" lon="12.883529887980139"><ele>265.0</ele><time>2026-04-03T09:07:45Z</time></trkpt><trkpt lat="42.01042292058597" lon="12.88384330322506"><ele>265.0</ele><time>2026-04-03T09:07:46Z</time></trkpt><trkpt lat="42.01062149301784" lon="12.884145301759267"><ele>265.0</ele><time>2026-04-03T09:07:47Z</time></trkpt><trkpt lat="42.010774166430714" lon="12.88442079394644"><ele>267.66666666666663</ele><time>2026-04-03T09:07:48Z</time></trkpt><trkpt lat="42.01089371252319" lon="12.884637708249597"><ele>270.3333333333333</ele><time>2026-04-03T09:07:49Z</time></trkpt><trkpt lat="42.010999736561146" lon="12.884813987032896"><ele>273.0</ele><time>2026-04-03T09:07:50Z</time></trkpt><trkpt lat="42.01110309014652" lon="12.884977022335859"><ele>270.6666666666667</ele><time>2026-04-03T09:07:51Z</time></trkpt><trkpt lat="42.011210073650645" lon="12.885154986824773"><ele>268.33333333333337</ele><time>2026-04-03T09:07:52Z</time></trkpt><trkpt lat="42.01131866931638" lon="12.885371111914921"><ele>266.0</ele><time>2026-04-03T09:07:53Z</time></trkpt><trkpt lat="42.01143065302651" lon="12.885629069134184"><ele>266.0</ele><time>2026-04-03T09:07:54Z</time></trkpt><trkpt lat="42.01153128112887" lon="12.885926583847732"><ele>266.0</ele><time>2026-04-03T09:07:55Z</time></trkpt><trkpt lat="42.01161184878427" lon="12.886247687325216"><ele>268.0</ele><time>2026-04-03T09:07:56Z</time></trkpt><trkpt lat="42.01170305845428" lon="12.886615321507422"><ele>270.0</ele><time>2026-04-03T09:07:57.001Z</time></trkpt><trkpt lat="42.01179183009255" lon="12.886909578143705"><ele>270.0</ele><time>2026-04-03T09:07:58.001Z</time></trkpt><trkpt lat="42.01190646225822" lon="12.887166697575655"><ele>270.0</ele><time>2026-04-03T09:07:59.001Z</time></trkpt><trkpt lat="42.01204544349567" lon="12.88741622521973"><ele>269.5</ele><time>2026-04-03T09:08:00.001Z</time></trkpt><trkpt lat="42.01217877996274" lon="12.88767318498445"><ele>269.0</ele><time>2026-04-03T09:08:01.001Z</time></trkpt><trkpt lat="42.01230288324453" lon="12.887934297664522"><ele>269.0</ele><time>2026-04-03T09:08:02.001Z</time></trkpt><trkpt lat="42.01241964627364" lon="12.888200894220564"><ele>269.0</ele><time>2026-04-03T09:08:03.001Z</time></trkpt><trkpt lat="42.012525951609476" lon="12.888456333390328"><ele>269.0</ele><time>2026-04-03T09:08:04.001Z</time></trkpt><trkpt lat="42.01264598118457" lon="12.888699858954313"><ele>269.33333333333337</ele><time>2026-04-03T09:08:05.001Z</time></trkpt><trkpt lat="42.01277789713741" lon="12.888925478164854"><ele>269.6666666666667</ele><time>2026-04-03T09:08:06.001Z</time></trkpt><trkpt lat="42.01294283146976" lon="12.889141318306711"><ele>270.0</ele><time>2026-04-03T09:08:07.001Z</time></trkpt><trkpt lat="42.013125836129454" lon="12.889313309405384"><ele>269.3333333333333</ele><time>2026-04-03T09:08:08.001Z</time></trkpt><trkpt lat="42.013297928342524" lon="12.88949847064592"><ele>268.66666666666663</ele><time>2026-04-03T09:08:09.001Z</time></trkpt><trkpt lat="42.01340324501381" lon="12.889730511145784"><ele>268.0</ele><time>2026-04-03T09:08:10.001Z</time></trkpt><trkpt lat="42.01345489596132" lon="12.890003707040737"><ele>276.0</ele><time>2026-04-03T09:08:11.001Z</time></trkpt><trkpt lat="42.01347687372662" lon="12.890345168809443"><ele>284.0</ele><time>2026-04-03T09:08:12.001Z</time></trkpt><trkpt lat="42.01347962140037" lon="12.890648195959693"><ele>284.0</ele><time>2026-04-03T09:08:13.001Z</time></trkpt><trkpt lat="42.013453297494806" lon="12.890892933156998"><ele>284.0</ele><time>2026-04-03T09:08:14Z</time></trkpt><trkpt lat="42.01340215186916" lon="12.891171107366153"><ele>284.0</ele><time>2026-04-03T09:08:15Z</time></trkpt><trkpt lat="42.01335681729469" lon="12.891465793833497"><ele>285.0</ele><time>2026-04-03T09:08:16Z</time></trkpt><trkpt lat="42.01333881479631" lon="12.8917579564536"><ele>286.0</ele><time>2026-04-03T09:08:17Z</time></trkpt><trkpt lat="42.01335066079921" lon="12.892018090091947"><ele>287.0</ele><time>2026-04-03T09:08:18Z</time></trkpt><trkpt lat="42.01339113859585" lon="12.892259249147404"><ele>287.0</ele><time>2026-04-03T09:08:19Z</time></trkpt><trkpt lat="42.01346065561864" lon="12.89246839061304"><ele>287.0</ele><time>2026-04-03T09:08:20Z</time></trkpt><trkpt lat="42.013567389805544" lon="12.892613687726598"><ele>287.0</ele><time>2026-04-03T09:08:21Z</time></trkpt><trkpt lat="42.01371065082248" lon="12.892698414247544"><ele>284.6666666666667</ele><time>2026-04-03T09:08:22Z</time></trkpt><trkpt lat="42.01388811053085" lon="12.892727075918017"><ele>282.3333333333333</ele><time>2026-04-03T09:08:23Z</time></trkpt><trkpt lat="42.01411386739844" lon="12.892750181775638"><ele>280.0</ele><time>2026-04-03T09:08:24Z</time></trkpt><trkpt lat="42.014351373384265" lon="12.892781868538064"><ele>280.0</ele><time>2026-04-03T09:08:25Z</time></trkpt><trkpt lat="42.01461755368629" lon="12.89284785203002"><ele>280.0</ele><time>2026-04-03T09:08:26Z</time></trkpt><trkpt lat="42.01486431226043" lon="12.892965332637282"><ele>291.0</ele><time>2026-04-03T09:08:27Z</time></trkpt><trkpt lat="42.01507989678527" lon="12.893136883032263"><ele>302.0</ele><time>2026-04-03T09:08:28Z</time></trkpt><trkpt lat="42.015284688325295" lon="12.893375928694477"><ele>290.5</ele><time>2026-04-03T09:08:29Z</time></trkpt><trkpt lat="42.015469970450404" lon="12.893698596260537"><ele>279.0</ele><time>2026-04-03T09:08:30Z</time></trkpt><trkpt lat="42.01564825472321" lon="12.894105374611694"><ele>275.0</ele><time>2026-04-03T09:08:31Z</time></trkpt><trkpt lat="42.01580315233712" lon="12.894468268961"><ele>271.0</ele><time>2026-04-03T09:08:32Z</time></trkpt><trkpt lat="42.01592687169335" lon="12.894754313429639"><ele>279.3333333333333</ele><time>2026-04-03T09:08:33Z</time></trkpt><trkpt lat="42.01602932156564" lon="12.895018614324757"><ele>287.6666666666667</ele><time>2026-04-03T09:08:34Z</time></trkpt><trkpt lat="42.01608762463728" lon="12.895275980720658"><ele>296.0</ele><time>2026-04-03T09:08:35Z</time></trkpt><trkpt lat="42.016112668109066" lon="12.89550790183187"><ele>296.0</ele><time>2026-04-03T09:08:36Z</time></trkpt><trkpt lat="42.016132741665494" lon="12.895766557803297"><ele>296.0</ele><time>2026-04-03T09:08:37Z</time></trkpt><trkpt lat="42.01612985197712" lon="12.896060170665148"><ele>296.0</ele><time>2026-04-03T09:08:38Z</time></trkpt><trkpt lat="42.01611176919781" lon="12.896350422259331"><ele>295.6666666666667</ele><time>2026-04-03T09:08:39Z</time></trkpt><trkpt lat="42.01611737321682" lon="12.896631813578695"><ele>295.3333333333333</ele><time>2026-04-03T09:08:40Z</time></trkpt><trkpt lat="42.01615523666197" lon="12.896926796518786"><ele>295.0</ele><time>2026-04-03T09:08:41Z</time></trkpt><trkpt lat="42.016194333692695" lon="12.897228787224744"><ele>295.0</ele><time>2026-04-03T09:08:42Z</time></trkpt><trkpt lat="42.016224320058924" lon="12.897560183652896"><ele>295.0</ele><time>2026-04-03T09:08:43Z</time></trkpt><trkpt lat="42.01625556911337" lon="12.897877990165046"><ele>293.0</ele><time>2026-04-03T09:08:44Z</time></trkpt><trkpt lat="42.01628013912173" lon="12.898190697687664"><ele>291.0</ele><time>2026-04-03T09:08:45Z</time></trkpt><trkpt lat="42.01629979508559" lon="12.898499694359792"><ele>289.0</ele><time>2026-04-03T09:08:46Z</time></trkpt><trkpt lat="42.01632857156223" lon="12.898770290492307"><ele>287.0</ele><time>2026-04-03T09:08:47Z</time></trkpt><trkpt lat="42.01640045129602" lon="12.899000960692824"><ele>285.0</ele><time>2026-04-03T09:08:48Z</time></trkpt><trkpt lat="42.01652396754603" lon="12.899175238520742"><ele>286.6666666666667</ele><time>2026-04-03T09:08:49Z</time></trkpt><trkpt lat="42.0166923601505" lon="12.89928976060731"><ele>288.33333333333337</ele><time>2026-04-03T09:08:50Z</time></trkpt><trkpt lat="42.016915438021705" lon="12.899321567361607"><ele>290.0</ele><time>2026-04-03T09:08:51Z</time></trkpt><trkpt lat="42.01715542490911" lon="12.899314244697415"><ele>290.0</ele><time>2026-04-03T09:08:52Z</time></trkpt><trkpt lat="42.01706023225703" lon="12.899366191845825"><ele>290.0</ele><time>2026-04-03T09:08:53Z</time></trkpt><trkpt lat="42.01792852867589" lon="12.8991600350513"><ele>300.5</ele><time>2026-04-03T09:08:54Z</time></trkpt><trkpt lat="42.01830934177357" lon="12.899141035996077"><ele>311.0</ele><time>2026-04-03T09:08:55Z</time></trkpt><trkpt lat="42.018655709157805" lon="12.899103926056421"><ele>311.0</ele><time>2026-04-03T09:08:56Z</time></trkpt><trkpt lat="42.01897162315113" lon="12.899069575385749"><ele>311.0</ele><time>2026-04-03T09:08:57Z</time></trkpt><trkpt lat="42.01928777430159" lon="12.899032813434944"><ele>311.0</ele><time>2026-04-03T09:08:58Z</time></trkpt><trkpt lat="42.01952310046428" lon="12.899015756357688"><ele>311.0</ele><time>2026-04-03T09:08:59Z</time></trkpt><trkpt lat="42.01972000079039" lon="12.898990580656779"><ele>311.0</ele><time>2026-04-03T09:09:00Z</time></trkpt><trkpt lat="42.019786550513324" lon="12.898991818773776"><ele>311.0</ele><time>2026-04-03T09:09:01Z</time></trkpt><trkpt lat="42.01991370037709" lon="12.898987561937432"><ele>311.0</ele><time>2026-04-03T09:09:02Z</time></trkpt><trkpt lat="42.02001186971143" lon="12.898995627294235"><ele>311.0</ele><time>2026-04-03T09:09:04Z</time></trkpt><trkpt lat="42.020062295860164" lon="12.899162868101069"><ele>311.0</ele><time>2026-04-03T09:09:06Z</time></trkpt><trkpt lat="42.02005551574546" lon="12.899260636627568"><ele>311.0</ele><time>2026-04-03T09:09:07Z</time></trkpt><trkpt lat="42.019991752074304" lon="12.899332312772293"><ele>312.75</ele><time>2026-04-03T09:09:08Z</time></trkpt><trkpt lat="42.0198926929133" lon="12.899371952813967"><ele>314.5</ele><time>2026-04-03T09:09:09Z</time></trkpt><trkpt lat="42.0197365049989" lon="12.899439742994899"><ele>316.25</ele><time>2026-04-03T09:09:10Z</time></trkpt><trkpt lat="42.019566008723274" lon="12.899516132164313"><ele>318.0</ele><time>2026-04-03T09:09:11Z</time></trkpt><trkpt lat="42.019317490255006" lon="12.899649582413016"><ele>318.3333333333333</ele><time>2026-04-03T09:09:12Z</time></trkpt><trkpt lat="42.01909848880272" lon="12.899775210770072"><ele>318.66666666666663</ele><time>2026-04-03T09:09:13Z</time></trkpt><trkpt lat="42.0189709743509" lon="12.899908313582529"><ele>319.0</ele><time>2026-04-03T09:09:14Z</time></trkpt><trkpt lat="42.01887978784591" lon="12.90015534799902"><ele>319.0</ele><time>2026-04-03T09:09:15Z</time></trkpt><trkpt lat="42.01880625311186" lon="12.900502757888894"><ele>319.0</ele><time>2026-04-03T09:09:16Z</time></trkpt><trkpt lat="42.01870894846301" lon="12.900860687855994"><ele>316.0</ele><time>2026-04-03T09:09:17Z</time></trkpt><trkpt lat="42.01858010737537" lon="12.90101080167546"><ele>313.0</ele><time>2026-04-03T09:09:18Z</time></trkpt><trkpt lat="42.01843258771996" lon="12.901076237445086"><ele>310.0</ele><time>2026-04-03T09:09:19Z</time></trkpt><trkpt lat="42.01825027949999" lon="12.901109114970547"><ele>310.0</ele><time>2026-04-03T09:09:20Z</time></trkpt><trkpt lat="42.018010413999555" lon="12.901148078707383"><ele>310.0</ele><time>2026-04-03T09:09:21Z</time></trkpt><trkpt lat="42.01782204357071" lon="12.901162133500247"><ele>310.0</ele><time>2026-04-03T09:09:22Z</time></trkpt><trkpt lat="42.017713281483864" lon="12.901187926253042"><ele>310.0</ele><time>2026-04-03T09:09:23Z</time></trkpt><trkpt lat="42.01762715092932" lon="12.901307276436164"><ele>310.0</ele><time>2026-04-03T09:09:24Z</time></trkpt><trkpt lat="42.01758590609293" lon="12.901499565789496"><ele>310.0</ele><time>2026-04-03T09:09:25Z</time></trkpt><trkpt lat="42.017625485634774" lon="12.901679852967382"><ele>310.0</ele><time>2026-04-03T09:09:26Z</time></trkpt><trkpt lat="42.01775686710053" lon="12.901878313177786"><ele>306.5</ele><time>2026-04-03T09:09:27Z</time></trkpt><trkpt lat="42.01800399304632" lon="12.902112028846545"><ele>303.0</ele><time>2026-04-03T09:09:28Z</time></trkpt><trkpt lat="42.01825847332747" lon="12.902406521090835"><ele>308.0</ele><time>2026-04-03T09:09:29Z</time></trkpt><trkpt lat="42.018440884191165" lon="12.902591679227482"><ele>313.0</ele><time>2026-04-03T09:09:30Z</time></trkpt><trkpt lat="42.018604359976685" lon="12.902665313076012"><ele>318.0</ele><time>2026-04-03T09:09:31Z</time></trkpt><trkpt lat="42.018812687404214" lon="12.902663205117706"><ele>323.0</ele><time>2026-04-03T09:09:32Z</time></trkpt><trkpt lat="42.019073835767394" lon="12.90255438605045"><ele>328.0</ele><time>2026-04-03T09:09:33Z</time></trkpt><trkpt lat="42.01932587930095" lon="12.902441314744147"><ele>326.66666666666663</ele><time>2026-04-03T09:09:34Z</time></trkpt><trkpt lat="42.019535268386136" lon="12.902369560319231"><ele>325.3333333333333</ele><time>2026-04-03T09:09:35Z</time></trkpt><trkpt lat="42.019709265436106" lon="12.902437329989057"><ele>324.0</ele><time>2026-04-03T09:09:36Z</time></trkpt><trkpt lat="42.01988156262678" lon="12.9025896907854"><ele>329.0</ele><time>2026-04-03T09:09:37Z</time></trkpt><trkpt lat="42.02002849436677" lon="12.902808310109634"><ele>334.0</ele><time>2026-04-03T09:09:38Z</time></trkpt><trkpt lat="42.02007936199431" lon="12.903067955243184"><ele>339.0</ele><time>2026-04-03T09:09:39Z</time></trkpt><trkpt lat="42.02005931844118" lon="12.903279816642439"><ele>341.6666666666667</ele><time>2026-04-03T09:09:40Z</time></trkpt><trkpt lat="42.01999275088624" lon="12.903505766390403"><ele>344.33333333333337</ele><time>2026-04-03T09:09:41Z</time></trkpt><trkpt lat="42.01987895525882" lon="12.903647872917327"><ele>347.0</ele><time>2026-04-03T09:09:42Z</time></trkpt><trkpt lat="42.01975281595297" lon="12.903820827401363"><ele>345.75</ele><time>2026-04-03T09:09:43Z</time></trkpt><trkpt lat="42.01964630294657" lon="12.90396473475975"><ele>344.5</ele><time>2026-04-03T09:09:44Z</time></trkpt><trkpt lat="42.0195775345909" lon="12.904060647584181"><ele>343.25</ele><time>2026-04-03T09:09:45Z</time></trkpt><trkpt lat="42.01949055115153" lon="12.9041819654084"><ele>342.0</ele><time>2026-04-03T09:09:46Z</time></trkpt><trkpt lat="42.01941042794515" lon="12.904299309075688"><ele>342.0</ele><time>2026-04-03T09:09:47Z</time></trkpt><trkpt lat="42.019340582942284" lon="12.904448548919648"><ele>342.0</ele><time>2026-04-03T09:09:48Z</time></trkpt><trkpt lat="42.01923889497697" lon="12.904586729893854"><ele>342.0</ele><time>2026-04-03T09:09:49Z</time></trkpt><trkpt lat="42.01915094639424" lon="12.904745363015344"><ele>342.0</ele><time>2026-04-03T09:09:50Z</time></trkpt><trkpt lat="42.01907532157659" lon="12.90488948842171"><ele>340.0</ele><time>2026-04-03T09:09:51Z</time></trkpt><trkpt lat="42.0190040572144" lon="12.905034578568753"><ele>338.0</ele><time>2026-04-03T09:09:52Z</time></trkpt><trkpt lat="42.01894787907034" lon="12.905146940785288"><ele>336.0</ele><time>2026-04-03T09:09:53Z</time></trkpt><trkpt lat="42.01888157101319" lon="12.905279265052421"><ele>334.0</ele><time>2026-04-03T09:09:54Z</time></trkpt><trkpt lat="42.018813070214776" lon="12.905418367585419"><ele>334.0</ele><time>2026-04-03T09:09:55Z</time></trkpt><trkpt lat="42.01873169699534" lon="12.905584511196912"><ele>334.0</ele><time>2026-04-03T09:09:56Z</time></trkpt><trkpt lat="42.01863487598767" lon="12.905781409936191"><ele>334.0</ele><time>2026-04-03T09:09:57Z</time></trkpt><trkpt lat="42.01854530250229" lon="12.905964567143261"><ele>335.75</ele><time>2026-04-03T09:09:58Z</time></trkpt><trkpt lat="42.018466973773144" lon="12.906124731406582"><ele>337.5</ele><time>2026-04-03T09:09:59Z</time></trkpt><trkpt lat="42.01839870948724" lon="12.90626377215516"><ele>339.25</ele><time>2026-04-03T09:10:00Z</time></trkpt><trkpt lat="42.018355690811624" lon="12.906375168030072"><ele>341.0</ele><time>2026-04-03T09:10:01Z</time></trkpt><trkpt lat="42.01829538927974" lon="12.906476509478367"><ele>340.6</ele><time>2026-04-03T09:10:02Z</time></trkpt><trkpt lat="42.018251055230806" lon="12.90658188877656"><ele>340.20000000000005</ele><time>2026-04-03T09:10:03Z</time></trkpt><trkpt lat="42.01820401878388" lon="12.906697989699744"><ele>339.79999999999995</ele><time>2026-04-03T09:10:04Z</time></trkpt><trkpt lat="42.01814369646983" lon="12.9068125308119"><ele>339.4</ele><time>2026-04-03T09:10:05Z</time></trkpt><trkpt lat="42.01808291381924" lon="12.90695100481906"><ele>339.0</ele><time>2026-04-03T09:10:06Z</time></trkpt><trkpt lat="42.01801694275497" lon="12.907075270987278"><ele>339.0</ele><time>2026-04-03T09:10:07Z</time></trkpt><trkpt lat="42.01796545029929" lon="12.907175336095229"><ele>339.0</ele><time>2026-04-03T09:10:08.001Z</time></trkpt><trkpt lat="42.017916003715264" lon="12.90726345107466"><ele>339.0</ele><time>2026-04-03T09:10:09.001Z</time></trkpt><trkpt lat="42.01785848595539" lon="12.907381568069791"><ele>339.0</ele><time>2026-04-03T09:10:11.001Z</time></trkpt><trkpt lat="42.017811359297504" lon="12.90748345719325"><ele>339.0</ele><time>2026-04-03T09:10:12.001Z</time></trkpt><trkpt lat="42.017746289048375" lon="12.907615089616334"><ele>340.0</ele><time>2026-04-03T09:10:13.001Z</time></trkpt><trkpt lat="42.01763215950924" lon="12.90773783871867"><ele>341.0</ele><time>2026-04-03T09:10:14.001Z</time></trkpt><trkpt lat="42.01751206093539" lon="12.907882477092611"><ele>342.0</ele><time>2026-04-03T09:10:15.001Z</time></trkpt><trkpt lat="42.017359399498815" lon="12.90798399094559"><ele>339.6666666666667</ele><time>2026-04-03T09:10:16.001Z</time></trkpt><trkpt lat="42.01719110863429" lon="12.908050099861631"><ele>337.33333333333337</ele><time>2026-04-03T09:10:17.001Z</time></trkpt><trkpt lat="42.01704547647109" lon="12.908151870086492"><ele>335.0</ele><time>2026-04-03T09:10:18.001Z</time></trkpt><trkpt lat="42.016891507773586" lon="12.908209411302416"><ele>335.0</ele><time>2026-04-03T09:10:19.001Z</time></trkpt><trkpt lat="42.016743430831774" lon="12.908311220491466"><ele>335.0</ele><time>2026-04-03T09:10:20Z</time></trkpt><trkpt lat="42.016604285710585" lon="12.908501350671639"><ele>335.0</ele><time>2026-04-03T09:10:21Z</time></trkpt><trkpt lat="42.01649250921943" lon="12.908733732062078"><ele>336.0</ele><time>2026-04-03T09:10:22Z</time></trkpt><trkpt lat="42.016392126039385" lon="12.909006497236808"><ele>337.0</ele><time>2026-04-03T09:10:23Z</time></trkpt><trkpt lat="42.01630039325635" lon="12.909265631462784"><ele>338.0</ele><time>2026-04-03T09:10:24Z</time></trkpt><trkpt lat="42.016195093380794" lon="12.909538852478509"><ele>338.0</ele><time>2026-04-03T09:10:25Z</time></trkpt><trkpt lat="42.0160836700093" lon="12.909808678651636"><ele>338.0</ele><time>2026-04-03T09:10:26Z</time></trkpt><trkpt lat="42.01599054494906" lon="12.910090946812703"><ele>338.0</ele><time>2026-04-03T09:10:27Z</time></trkpt><trkpt lat="42.01592760594208" lon="12.910342051049948"><ele>338.0</ele><time>2026-04-03T09:10:28Z</time></trkpt><trkpt lat="42.0158753810314" lon="12.91058230214722"><ele>338.0</ele><time>2026-04-03T09:10:29Z</time></trkpt><trkpt lat="42.01582335542604" lon="12.910812588947834"><ele>337.6666666666667</ele><time>2026-04-03T09:10:30Z</time></trkpt><trkpt lat="42.0157560132338" lon="12.911030608558175"><ele>337.3333333333333</ele><time>2026-04-03T09:10:31Z</time></trkpt><trkpt lat="42.01569636443965" lon="12.911275197005237"><ele>337.0</ele><time>2026-04-03T09:10:32Z</time></trkpt><trkpt lat="42.015637398534714" lon="12.911517764117471"><ele>336.66666666666663</ele><time>2026-04-03T09:10:33Z</time></trkpt><trkpt lat="42.015590375526024" lon="12.911748317564948"><ele>336.3333333333333</ele><time>2026-04-03T09:10:34Z</time></trkpt><trkpt lat="42.01553984703502" lon="12.911950964237473"><ele>336.0</ele><time>2026-04-03T09:10:35Z</time></trkpt><trkpt lat="42.01547521688876" lon="12.912164445658112"><ele>336.0</ele><time>2026-04-03T09:10:36Z</time></trkpt><trkpt lat="42.01541186157822" lon="12.912419338721254"><ele>336.0</ele><time>2026-04-03T09:10:37Z</time></trkpt><trkpt lat="42.01534423132282" lon="12.912701081865615"><ele>336.0</ele><time>2026-04-03T09:10:38Z</time></trkpt><trkpt lat="42.01528722121425" lon="12.912992485755707"><ele>334.0</ele><time>2026-04-03T09:10:39Z</time></trkpt><trkpt lat="42.01522101083861" lon="12.913291314453295"><ele>332.0</ele><time>2026-04-03T09:10:40Z</time></trkpt><trkpt lat="42.015157091623834" lon="12.913597928596714"><ele>330.0</ele><time>2026-04-03T09:10:41Z</time></trkpt><trkpt lat="42.01512110592921" lon="12.913915730021305"><ele>328.0</ele><time>2026-04-03T09:10:42Z</time></trkpt><trkpt lat="42.015125744680475" lon="12.914259997214435"><ele>325.5</ele><time>2026-04-03T09:10:43Z</time></trkpt><trkpt lat="42.0151552500077" lon="12.914588019959925"><ele>323.0</ele><time>2026-04-03T09:10:44Z</time></trkpt><trkpt lat="42.01521188537756" lon="12.91491073564444"><ele>317.5</ele><time>2026-04-03T09:10:45Z</time></trkpt><trkpt lat="42.01529126544267" lon="12.915236102796754"><ele>312.0</ele><time>2026-04-03T09:10:46Z</time></trkpt><trkpt lat="42.015367595329465" lon="12.915545317190746"><ele>312.0</ele><time>2026-04-03T09:10:47Z</time></trkpt><trkpt lat="42.015440321164505" lon="12.91584529930426"><ele>312.0</ele><time>2026-04-03T09:10:48Z</time></trkpt><trkpt lat="42.01551211575605" lon="12.916131223854064"><ele>309.5</ele><time>2026-04-03T09:10:49Z</time></trkpt><trkpt lat="42.015587455201505" lon="12.916419664708659"><ele>307.0</ele><time>2026-04-03T09:10:50Z</time></trkpt><trkpt lat="42.01566435401747" lon="12.916713183208172"><ele>304.5</ele><time>2026-04-03T09:10:51Z</time></trkpt><trkpt lat="42.01574556636622" lon="12.917008258449574"><ele>302.0</ele><time>2026-04-03T09:10:52Z</time></trkpt><trkpt lat="42.01582774107658" lon="12.91730703011589"><ele>307.0</ele><time>2026-04-03T09:10:53Z</time></trkpt><trkpt lat="42.01590816882282" lon="12.917597624906001"><ele>312.0</ele><time>2026-04-03T09:10:54Z</time></trkpt><trkpt lat="42.01599085150522" lon="12.917892611434027"><ele>312.0</ele><time>2026-04-03T09:10:55Z</time></trkpt><trkpt lat="42.016073492205116" lon="12.918180764112963"><ele>312.0</ele><time>2026-04-03T09:10:56Z</time></trkpt><trkpt lat="42.016156199903634" lon="12.918467495461492"><ele>309.5</ele><time>2026-04-03T09:10:57Z</time></trkpt><trkpt lat="42.0162235355542" lon="12.91876291922796"><ele>307.0</ele><time>2026-04-03T09:10:58Z</time></trkpt><trkpt lat="42.016298965987275" lon="12.919052387916242"><ele>305.0</ele><time>2026-04-03T09:10:59Z</time></trkpt><trkpt lat="42.016372645733284" lon="12.91933513824481"><ele>303.0</ele><time>2026-04-03T09:11:00Z</time></trkpt><trkpt lat="42.01646151062977" lon="12.919620733080512"><ele>303.0</ele><time>2026-04-03T09:11:01Z</time></trkpt><trkpt lat="42.01652082849665" lon="12.919896655263534"><ele>303.0</ele><time>2026-04-03T09:11:02Z</time></trkpt><trkpt lat="42.01658526348494" lon="12.920139624299397"><ele>303.0</ele><time>2026-04-03T09:11:03Z</time></trkpt><trkpt lat="42.01664776716243" lon="12.920355271515982"><ele>304.0</ele><time>2026-04-03T09:11:04Z</time></trkpt><trkpt lat="42.01670163830549" lon="12.920575136813412"><ele>305.0</ele><time>2026-04-03T09:11:05Z</time></trkpt><trkpt lat="42.0167601056305" lon="12.92078769958327"><ele>306.0</ele><time>2026-04-03T09:11:06Z</time></trkpt><trkpt lat="42.01681846523738" lon="12.921005693215747"><ele>306.0</ele><time>2026-04-03T09:11:07Z</time></trkpt><trkpt lat="42.016874635774485" lon="12.921220629270913"><ele>306.0</ele><time>2026-04-03T09:11:08Z</time></trkpt><trkpt lat="42.01693553274481" lon="12.921441055591096"><ele>306.0</ele><time>2026-04-03T09:11:09Z</time></trkpt><trkpt lat="42.016998266923714" lon="12.921658867166906"><ele>305.0</ele><time>2026-04-03T09:11:10Z</time></trkpt><trkpt lat="42.01706283568808" lon="12.921887520498341"><ele>304.0</ele><time>2026-04-03T09:11:11Z</time></trkpt><trkpt lat="42.01712087054659" lon="12.922105541193035"><ele>303.0</ele><time>2026-04-03T09:11:12Z</time></trkpt><trkpt lat="42.017167083683084" lon="12.922304884412409"><ele>303.0</ele><time>2026-04-03T09:11:13Z</time></trkpt><trkpt lat="42.01720249264055" lon="12.922458851057087"><ele>303.0</ele><time>2026-04-03T09:11:14Z</time></trkpt><trkpt lat="42.017232504548694" lon="12.922590503339247"><ele>303.0</ele><time>2026-04-03T09:11:15Z</time></trkpt><trkpt lat="42.01725898882407" lon="12.922702553003477"><ele>303.0</ele><time>2026-04-03T09:11:16Z</time></trkpt><trkpt lat="42.017285457836465" lon="12.922810914717493"><ele>303.0</ele><time>2026-04-03T09:11:17Z</time></trkpt><trkpt lat="42.01730696620496" lon="12.922901938559416"><ele>302.5</ele><time>2026-04-03T09:11:18Z</time></trkpt><trkpt lat="42.01733741688913" lon="12.92299990410211"><ele>302.0</ele><time>2026-04-03T09:11:21Z</time></trkpt><trkpt lat="42.01736530541213" lon="12.92311343447751"><ele>301.5</ele><time>2026-04-03T09:11:23Z</time></trkpt><trkpt lat="42.01741576806636" lon="12.923327985085331"><ele>301.0</ele><time>2026-04-03T09:11:25Z</time></trkpt><trkpt lat="42.017465348062125" lon="12.92352178254831"><ele>301.3333333333333</ele><time>2026-04-03T09:11:26Z</time></trkpt><trkpt lat="42.01752925372641" lon="12.923765103857415"><ele>301.6666666666667</ele><time>2026-04-03T09:11:27Z</time></trkpt><trkpt lat="42.017598368285135" lon="12.924028763317338"><ele>302.0</ele><time>2026-04-03T09:11:28Z</time></trkpt><trkpt lat="42.01767875030852" lon="12.924319112940891"><ele>302.0</ele><time>2026-04-03T09:11:29Z</time></trkpt><trkpt lat="42.0177571421756" lon="12.924600613976297"><ele>302.0</ele><time>2026-04-03T09:11:30Z</time></trkpt><trkpt lat="42.017830883373065" lon="12.924878233725345"><ele>302.0</ele><time>2026-04-03T09:11:31Z</time></trkpt><trkpt lat="42.017912517107774" lon="12.925135823186908"><ele>301.33333333333337</ele><time>2026-04-03T09:11:32Z</time></trkpt><trkpt lat="42.018036991475036" lon="12.925341523374152"><ele>300.6666666666667</ele><time>2026-04-03T09:11:33Z</time></trkpt><trkpt lat="42.01817294905011" lon="12.925500751638078"><ele>300.0</ele><time>2026-04-03T09:11:34Z</time></trkpt><trkpt lat="42.01832122178021" lon="12.925667379490807"><ele>300.0</ele><time>2026-04-03T09:11:35Z</time></trkpt><trkpt lat="42.01847070210538" lon="12.925860196898219"><ele>300.0</ele><time>2026-04-03T09:11:36Z</time></trkpt><trkpt lat="42.01862527185461" lon="12.926052495214496"><ele>300.0</ele><time>2026-04-03T09:11:37Z</time></trkpt><trkpt lat="42.01876864191663" lon="12.926214420970052"><ele>299.75</ele><time>2026-04-03T09:11:38Z</time></trkpt><trkpt lat="42.018895362401466" lon="12.926333259802542"><ele>299.5</ele><time>2026-04-03T09:11:39Z</time></trkpt><trkpt lat="42.019006939631694" lon="12.926419347200572"><ele>299.25</ele><time>2026-04-03T09:11:40Z</time></trkpt><trkpt lat="42.01910935417783" lon="12.926497041334688"><ele>299.0</ele><time>2026-04-03T09:11:41Z</time></trkpt><trkpt lat="42.01920916806022" lon="12.926577385789196"><ele>299.0</ele><time>2026-04-03T09:11:42Z</time></trkpt><trkpt lat="42.01931884798026" lon="12.926662800353443"><ele>299.0</ele><time>2026-04-03T09:11:43Z</time></trkpt><trkpt lat="42.01943169356421" lon="12.92675300604944"><ele>299.0</ele><time>2026-04-03T09:11:44Z</time></trkpt><trkpt lat="42.01956564818605" lon="12.926856551088292"><ele>299.0</ele><time>2026-04-03T09:11:45Z</time></trkpt><trkpt lat="42.01971761047772" lon="12.92697215138866"><ele>299.0</ele><time>2026-04-03T09:11:46Z</time></trkpt><trkpt lat="42.019886696627005" lon="12.927109414198751"><ele>299.0</ele><time>2026-04-03T09:11:47Z</time></trkpt><trkpt lat="42.02008711601197" lon="12.927268811284375"><ele>299.0</ele><time>2026-04-03T09:11:48Z</time></trkpt><trkpt lat="42.020283970125746" lon="12.927436727302885"><ele>298.5</ele><time>2026-04-03T09:11:49Z</time></trkpt><trkpt lat="42.020492117140506" lon="12.927623714184035"><ele>298.0</ele><time>2026-04-03T09:11:50Z</time></trkpt><trkpt lat="42.020710726441784" lon="12.927815898973344"><ele>300.0</ele><time>2026-04-03T09:11:51Z</time></trkpt><trkpt lat="42.02093717543844" lon="12.927999320870729"><ele>302.0</ele><time>2026-04-03T09:11:52Z</time></trkpt><trkpt lat="42.0211754409769" lon="12.928186346759283"><ele>302.0</ele><time>2026-04-03T09:11:53Z</time></trkpt><trkpt lat="42.02142744351845" lon="12.928374171638078"><ele>302.0</ele><time>2026-04-03T09:11:54Z</time></trkpt><trkpt lat="42.021691861732016" lon="12.928559903390184"><ele>300.0</ele><time>2026-04-03T09:11:55Z</time></trkpt><trkpt lat="42.02196559517847" lon="12.92875087749561"><ele>298.0</ele><time>2026-04-03T09:11:56Z</time></trkpt><trkpt lat="42.02223392980575" lon="12.928961470594421"><ele>297.0</ele><time>2026-04-03T09:11:57Z</time></trkpt><trkpt lat="42.02250566631095" lon="12.929192657720531"><ele>296.0</ele><time>2026-04-03T09:11:58Z</time></trkpt><trkpt lat="42.022772811305984" lon="12.92943469962486"><ele>296.0</ele><time>2026-04-03T09:11:59Z</time></trkpt><trkpt lat="42.02304297000063" lon="12.929696416426479"><ele>296.0</ele><time>2026-04-03T09:12:00Z</time></trkpt><trkpt lat="42.0232890465464" lon="12.92995222714622"><ele>297.5</ele><time>2026-04-03T09:12:01Z</time></trkpt><trkpt lat="42.023536454567505" lon="12.930224645682873"><ele>299.0</ele><time>2026-04-03T09:12:02Z</time></trkpt><trkpt lat="42.02376679405071" lon="12.93049260252759"><ele>299.0</ele><time>2026-04-03T09:12:03Z</time></trkpt><trkpt lat="42.02398705815425" lon="12.930773838728646"><ele>299.0</ele><time>2026-04-03T09:12:04Z</time></trkpt><trkpt lat="42.02419387113679" lon="12.93107064423536"><ele>300.5</ele><time>2026-04-03T09:12:05Z</time></trkpt><trkpt lat="42.02440078041946" lon="12.931382082141756"><ele>302.0</ele><time>2026-04-03T09:12:06Z</time></trkpt><trkpt lat="42.02461414578548" lon="12.931718585902768"><ele>299.5</ele><time>2026-04-03T09:12:07Z</time></trkpt><trkpt lat="42.0248300870453" lon="12.932086627998927"><ele>297.0</ele><time>2026-04-03T09:12:08Z</time></trkpt><trkpt lat="42.02504999517704" lon="12.932472232033362"><ele>300.0</ele><time>2026-04-03T09:12:09Z</time></trkpt><trkpt lat="42.02527381866359" lon="12.932872729674939"><ele>303.0</ele><time>2026-04-03T09:12:10Z</time></trkpt><trkpt lat="42.025473170206126" lon="12.9332326083119"><ele>301.5</ele><time>2026-04-03T09:12:11Z</time></trkpt><trkpt lat="42.02565660755005" lon="12.933560324619744"><ele>300.0</ele><time>2026-04-03T09:12:12Z</time></trkpt><trkpt lat="42.025839045399195" lon="12.933880240368891"><ele>303.0</ele><time>2026-04-03T09:12:13Z</time></trkpt><trkpt lat="42.026012373703715" lon="12.93419258472877"><ele>306.0</ele><time>2026-04-03T09:12:14Z</time></trkpt><trkpt lat="42.02619456526519" lon="12.934512968230568"><ele>306.0</ele><time>2026-04-03T09:12:15Z</time></trkpt><trkpt lat="42.02637259846789" lon="12.934828859208851"><ele>306.0</ele><time>2026-04-03T09:12:16Z</time></trkpt><trkpt lat="42.02654793592069" lon="12.935133426251383"><ele>305.5</ele><time>2026-04-03T09:12:17Z</time></trkpt><trkpt lat="42.02671777071404" lon="12.935429394354408"><ele>305.0</ele><time>2026-04-03T09:12:18Z</time></trkpt><trkpt lat="42.0268855290887" lon="12.93572783149334"><ele>304.5</ele><time>2026-04-03T09:12:19Z</time></trkpt><trkpt lat="42.02706220127257" lon="12.936036848641143"><ele>304.0</ele><time>2026-04-03T09:12:20.001Z</time></trkpt><trkpt lat="42.0272221829838" lon="12.93632305603987"><ele>304.0</ele><time>2026-04-03T09:12:21.001Z</time></trkpt><trkpt lat="42.02737956149491" lon="12.936603617566133"><ele>304.0</ele><time>2026-04-03T09:12:22.001Z</time></trkpt><trkpt lat="42.027518270707645" lon="12.936870444800217"><ele>304.0</ele><time>2026-04-03T09:12:23.001Z</time></trkpt><trkpt lat="42.02765737615384" lon="12.937164976863397"><ele>304.0</ele><time>2026-04-03T09:12:24.001Z</time></trkpt><trkpt lat="42.02777769161086" lon="12.937457050680328"><ele>303.5</ele><time>2026-04-03T09:12:25Z</time></trkpt><trkpt lat="42.027867872415996" lon="12.937772387414327"><ele>303.0</ele><time>2026-04-03T09:12:26Z</time></trkpt><trkpt lat="42.0279639700576" lon="12.938082440384235"><ele>303.0</ele><time>2026-04-03T09:12:27Z</time></trkpt><trkpt lat="42.02805897128865" lon="12.938379526955769"><ele>303.0</ele><time>2026-04-03T09:12:28Z</time></trkpt><trkpt lat="42.02812932498184" lon="12.938685936570547"><ele>302.0</ele><time>2026-04-03T09:12:29Z</time></trkpt><trkpt lat="42.02819087565136" lon="12.938980179021236"><ele>301.0</ele><time>2026-04-03T09:12:30Z</time></trkpt><trkpt lat="42.02822540786804" lon="12.93929162802356"><ele>300.5</ele><time>2026-04-03T09:12:31Z</time></trkpt><trkpt lat="42.02825999779068" lon="12.939595212974782"><ele>300.0</ele><time>2026-04-03T09:12:32Z</time></trkpt><trkpt lat="42.028299851477264" lon="12.939899568110407"><ele>300.5</ele><time>2026-04-03T09:12:33Z</time></trkpt><trkpt lat="42.028319920467034" lon="12.940214712709665"><ele>301.0</ele><time>2026-04-03T09:12:34Z</time></trkpt><trkpt lat="42.028338341510924" lon="12.940547750437888"><ele>300.5</ele><time>2026-04-03T09:12:35Z</time></trkpt><trkpt lat="42.028360756290255" lon="12.940900054164885"><ele>300.0</ele><time>2026-04-03T09:12:36Z</time></trkpt><trkpt lat="42.02838803800317" lon="12.941253711495515"><ele>300.0</ele><time>2026-04-03T09:12:37Z</time></trkpt><trkpt lat="42.02841342517286" lon="12.941610600284145"><ele>300.0</ele><time>2026-04-03T09:12:38Z</time></trkpt><trkpt lat="42.02843431634646" lon="12.941957081662235"><ele>301.0</ele><time>2026-04-03T09:12:39Z</time></trkpt><trkpt lat="42.02845830755184" lon="12.942275022529628"><ele>302.0</ele><time>2026-04-03T09:12:40Z</time></trkpt><trkpt lat="42.02848894853401" lon="12.942565052470583"><ele>304.0</ele><time>2026-04-03T09:12:41Z</time></trkpt><trkpt lat="42.028540472570036" lon="12.9428712588674"><ele>306.0</ele><time>2026-04-03T09:12:42Z</time></trkpt><trkpt lat="42.02862968981412" lon="12.943192951513884"><ele>307.5</ele><time>2026-04-03T09:12:43Z</time></trkpt><trkpt lat="42.02878980643344" lon="12.943495229443702"><ele>309.0</ele><time>2026-04-03T09:12:44Z</time></trkpt><trkpt lat="42.0290076864621" lon="12.943726594383769"><ele>308.0</ele><time>2026-04-03T09:12:45Z</time></trkpt><trkpt lat="42.02925727247705" lon="12.943914166523502"><ele>307.0</ele><time>2026-04-03T09:12:46Z</time></trkpt><trkpt lat="42.02958075195062" lon="12.94410498437149"><ele>307.0</ele><time>2026-04-03T09:12:47Z</time></trkpt><trkpt lat="42.02990907795671" lon="12.944300047617439"><ele>307.0</ele><time>2026-04-03T09:12:48Z</time></trkpt><trkpt lat="42.03024754642697" lon="12.944468471094407"><ele>307.5</ele><time>2026-04-03T09:12:49Z</time></trkpt><trkpt lat="42.030583160939806" lon="12.944597817165644"><ele>308.0</ele><time>2026-04-03T09:12:50Z</time></trkpt><trkpt lat="42.030886503872416" lon="12.944699226430878"><ele>309.5</ele><time>2026-04-03T09:12:51Z</time></trkpt><trkpt lat="42.03118007160359" lon="12.944793707473176"><ele>311.0</ele><time>2026-04-03T09:12:52Z</time></trkpt><trkpt lat="42.03145805784174" lon="12.944932688864629"><ele>310.0</ele><time>2026-04-03T09:12:53Z</time></trkpt><trkpt lat="42.03169695707368" lon="12.945106664222097"><ele>309.0</ele><time>2026-04-03T09:12:54Z</time></trkpt><trkpt lat="42.031948276003085" lon="12.945357917909996"><ele>309.0</ele><time>2026-04-03T09:12:55Z</time></trkpt><trkpt lat="42.03218726906897" lon="12.945588585637282"><ele>309.0</ele><time>2026-04-03T09:12:56Z</time></trkpt><trkpt lat="42.03238818299678" lon="12.945746514557355"><ele>311.5</ele><time>2026-04-03T09:12:57Z</time></trkpt><trkpt lat="42.0326444926327" lon="12.945812472187788"><ele>314.0</ele><time>2026-04-03T09:12:58Z</time></trkpt><trkpt lat="42.032960602741774" lon="12.94587197581061"><ele>313.0</ele><time>2026-04-03T09:12:59Z</time></trkpt><trkpt lat="42.0332450655055" lon="12.945921979674019"><ele>312.0</ele><time>2026-04-03T09:13:00Z</time></trkpt><trkpt lat="42.0334945919403" lon="12.946015313106402"><ele>312.0</ele><time>2026-04-03T09:13:01Z</time></trkpt><trkpt lat="42.033720611720774" lon="12.946172963737478"><ele>312.0</ele><time>2026-04-03T09:13:02Z</time></trkpt><trkpt lat="42.03389932385594" lon="12.946408881816762"><ele>311.0</ele><time>2026-04-03T09:13:03Z</time></trkpt><trkpt lat="42.034028459571516" lon="12.94671622161585"><ele>310.0</ele><time>2026-04-03T09:13:04Z</time></trkpt><trkpt lat="42.03410655426721" lon="12.947080625326993"><ele>310.0</ele><time>2026-04-03T09:13:05Z</time></trkpt><trkpt lat="42.03411960516707" lon="12.947470404177418"><ele>310.0</ele><time>2026-04-03T09:13:06Z</time></trkpt><trkpt lat="42.03417392129772" lon="12.947810132516475"><ele>312.5</ele><time>2026-04-03T09:13:07Z</time></trkpt><trkpt lat="42.034299267565835" lon="12.948180846025238"><ele>315.0</ele><time>2026-04-03T09:13:08Z</time></trkpt><trkpt lat="42.03441661262586" lon="12.948555997390814"><ele>315.0</ele><time>2026-04-03T09:13:09Z</time></trkpt><trkpt lat="42.034483017996735" lon="12.94889103100601"><ele>315.0</ele><time>2026-04-03T09:13:10Z</time></trkpt><trkpt lat="42.03453967894374" lon="12.949207738754065"><ele>315.0</ele><time>2026-04-03T09:13:11Z</time></trkpt><trkpt lat="42.03459320332484" lon="12.949522504222951"><ele>315.0</ele><time>2026-04-03T09:13:12Z</time></trkpt><trkpt lat="42.034639956048736" lon="12.949813475297512"><ele>314.0</ele><time>2026-04-03T09:13:13Z</time></trkpt><trkpt lat="42.034694945863016" lon="12.950063538815845"><ele>313.0</ele><time>2026-04-03T09:13:14Z</time></trkpt><trkpt lat="42.03477136623402" lon="12.950286671859597"><ele>312.0</ele><time>2026-04-03T09:13:15Z</time></trkpt><trkpt lat="42.03486394702007" lon="12.950475462331108"><ele>312.0</ele><time>2026-04-03T09:13:16Z</time></trkpt><trkpt lat="42.034979605037236" lon="12.950671467867037"><ele>312.0</ele><time>2026-04-03T09:13:17Z</time></trkpt><trkpt lat="42.03511785025853" lon="12.950887971436421"><ele>312.0</ele><time>2026-04-03T09:13:18Z</time></trkpt><trkpt lat="42.035270181540014" lon="12.95112682534853"><ele>312.0</ele><time>2026-04-03T09:13:19Z</time></trkpt><trkpt lat="42.035437236619096" lon="12.951402122602165"><ele>312.0</ele><time>2026-04-03T09:13:20Z</time></trkpt><trkpt lat="42.03560288584536" lon="12.9517242617116"><ele>312.5</ele><time>2026-04-03T09:13:21Z</time></trkpt><trkpt lat="42.035784378202514" lon="12.952085779333945"><ele>313.0</ele><time>2026-04-03T09:13:22Z</time></trkpt><trkpt lat="42.03600674210892" lon="12.952497966107076"><ele>314.5</ele><time>2026-04-03T09:13:23Z</time></trkpt><trkpt lat="42.03624950476258" lon="12.952944733173402"><ele>316.0</ele><time>2026-04-03T09:13:24Z</time></trkpt><trkpt lat="42.03646021365855" lon="12.953359077697254"><ele>317.0</ele><time>2026-04-03T09:13:25Z</time></trkpt><trkpt lat="42.036637534881415" lon="12.953721595472038"><ele>318.0</ele><time>2026-04-03T09:13:26Z</time></trkpt><trkpt lat="42.03681073828569" lon="12.954075827063875"><ele>317.5</ele><time>2026-04-03T09:13:27Z</time></trkpt><trkpt lat="42.03699068506053" lon="12.954432030557522"><ele>317.0</ele><time>2026-04-03T09:13:28Z</time></trkpt><trkpt lat="42.03717388920524" lon="12.95480535629312"><ele>316.5</ele><time>2026-04-03T09:13:29Z</time></trkpt><trkpt lat="42.0373658884573" lon="12.955206586994"><ele>316.0</ele><time>2026-04-03T09:13:30Z</time></trkpt><trkpt lat="42.037545466971366" lon="12.955589561670056"><ele>316.5</ele><time>2026-04-03T09:13:31Z</time></trkpt><trkpt lat="42.03768521602501" lon="12.955915510094627"><ele>317.0</ele><time>2026-04-03T09:13:32Z</time></trkpt><trkpt lat="42.037790648585286" lon="12.956228768749684"><ele>317.0</ele><time>2026-04-03T09:13:33Z</time></trkpt><trkpt lat="42.037892912218524" lon="12.956568418969903"><ele>317.0</ele><time>2026-04-03T09:13:34Z</time></trkpt><trkpt lat="42.038008725941665" lon="12.956932604274959"><ele>317.5</ele><time>2026-04-03T09:13:35Z</time></trkpt><trkpt lat="42.038078158601394" lon="12.957270803443391"><ele>318.0</ele><time>2026-04-03T09:13:36Z</time></trkpt><trkpt lat="42.038086955612265" lon="12.957596238945488"><ele>319.0</ele><time>2026-04-03T09:13:37Z</time></trkpt><trkpt lat="42.038014785552974" lon="12.957890956781647"><ele>320.0</ele><time>2026-04-03T09:13:38Z</time></trkpt><trkpt lat="42.03787136939057" lon="12.95817401296368"><ele>320.0</ele><time>2026-04-03T09:13:39Z</time></trkpt><trkpt lat="42.03766425770214" lon="12.958433109694612"><ele>320.0</ele><time>2026-04-03T09:13:40Z</time></trkpt><trkpt lat="42.03739572174525" lon="12.958685233716444"><ele>320.0</ele><time>2026-04-03T09:13:41Z</time></trkpt><trkpt lat="42.03715382095679" lon="12.958885198595674"><ele>320.0</ele><time>2026-04-03T09:13:42Z</time></trkpt><trkpt lat="42.036953913944124" lon="12.959065545304595"><ele>323.33333333333337</ele><time>2026-04-03T09:13:43Z</time></trkpt><trkpt lat="42.036769220546866" lon="12.959216172938069"><ele>326.6666666666667</ele><time>2026-04-03T09:13:44Z</time></trkpt><trkpt lat="42.03656404340084" lon="12.959316125002463"><ele>330.0</ele><time>2026-04-03T09:13:45Z</time></trkpt><trkpt lat="42.03630455789939" lon="12.959403709921558"><ele>330.0</ele><time>2026-04-03T09:13:46Z</time></trkpt><trkpt lat="42.03602944906115" lon="12.959512731766555"><ele>330.0</ele><time>2026-04-03T09:13:47Z</time></trkpt><trkpt lat="42.035796275133315" lon="12.959588667206072"><ele>327.0</ele><time>2026-04-03T09:13:48Z</time></trkpt><trkpt lat="42.035601432201396" lon="12.959678460381031"><ele>324.0</ele><time>2026-04-03T09:13:49Z</time></trkpt><trkpt lat="42.03539185106127" lon="12.959809971713153"><ele>321.0</ele><time>2026-04-03T09:13:50Z</time></trkpt><trkpt lat="42.03520887649835" lon="12.960003858957561"><ele>319.5</ele><time>2026-04-03T09:13:51Z</time></trkpt><trkpt lat="42.0350383247651" lon="12.960343211785563"><ele>318.0</ele><time>2026-04-03T09:13:52Z</time></trkpt><trkpt lat="42.03486385753826" lon="12.960753616640154"><ele>319.5</ele><time>2026-04-03T09:13:53Z</time></trkpt><trkpt lat="42.034667776227785" lon="12.961184535747867"><ele>321.0</ele><time>2026-04-03T09:13:54Z</time></trkpt><trkpt lat="42.03450498030582" lon="12.961531469616085"><ele>320.0</ele><time>2026-04-03T09:13:55Z</time></trkpt><trkpt lat="42.034417840417305" lon="12.961818205142693"><ele>319.0</ele><time>2026-04-03T09:13:56Z</time></trkpt><trkpt lat="42.03441582920904" lon="12.962137306893414"><ele>319.0</ele><time>2026-04-03T09:13:57Z</time></trkpt><trkpt lat="42.034454946592284" lon="12.962475936445864"><ele>319.0</ele><time>2026-04-03T09:13:58Z</time></trkpt><trkpt lat="42.034465524493186" lon="12.962786390672825"><ele>320.5</ele><time>2026-04-03T09:13:59Z</time></trkpt><trkpt lat="42.03442767287191" lon="12.96307930003827"><ele>322.0</ele><time>2026-04-03T09:14:00Z</time></trkpt><trkpt lat="42.034320436195095" lon="12.963473713862475"><ele>322.5</ele><time>2026-04-03T09:14:01Z</time></trkpt><trkpt lat="42.034177522024734" lon="12.963951592098118"><ele>323.0</ele><time>2026-04-03T09:14:02Z</time></trkpt><trkpt lat="42.034059097762494" lon="12.964379904102428"><ele>323.0</ele><time>2026-04-03T09:14:03Z</time></trkpt><trkpt lat="42.03393919241742" lon="12.96477621797548"><ele>323.0</ele><time>2026-04-03T09:14:04Z</time></trkpt><trkpt lat="42.03380325707608" lon="12.965168515727202"><ele>322.5</ele><time>2026-04-03T09:14:05Z</time></trkpt><trkpt lat="42.03367971789578" lon="12.965514690346813"><ele>322.0</ele><time>2026-04-03T09:14:06Z</time></trkpt><trkpt lat="42.03358804879507" lon="12.965793944638774"><ele>322.3333333333333</ele><time>2026-04-03T09:14:07Z</time></trkpt><trkpt lat="42.0335298151389" lon="12.966018777092545"><ele>322.6666666666667</ele><time>2026-04-03T09:14:08Z</time></trkpt><trkpt lat="42.03350050471666" lon="12.96626316276756"><ele>323.0</ele><time>2026-04-03T09:14:09Z</time></trkpt><trkpt lat="42.03346899699158" lon="12.966626906122105"><ele>324.0</ele><time>2026-04-03T09:14:10Z</time></trkpt><trkpt lat="42.033459301581125" lon="12.967040211641809"><ele>325.0</ele><time>2026-04-03T09:14:11Z</time></trkpt><trkpt lat="42.03349992768158" lon="12.967395526307856"><ele>323.5</ele><time>2026-04-03T09:14:12Z</time></trkpt><trkpt lat="42.033580113544346" lon="12.967701595862309"><ele>322.0</ele><time>2026-04-03T09:14:13Z</time></trkpt><trkpt lat="42.03366672539288" lon="12.967984031688589"><ele>322.0</ele><time>2026-04-03T09:14:14Z</time></trkpt><trkpt lat="42.03370997290214" lon="12.968283873328414"><ele>322.0</ele><time>2026-04-03T09:14:15Z</time></trkpt><trkpt lat="42.033762104799" lon="12.968612728273289"><ele>321.3333333333333</ele><time>2026-04-03T09:14:16Z</time></trkpt><trkpt lat="42.03381124962865" lon="12.96895263702087"><ele>320.6666666666667</ele><time>2026-04-03T09:14:17Z</time></trkpt><trkpt lat="42.0338244452546" lon="12.969191581114318"><ele>320.0</ele><time>2026-04-03T09:14:18Z</time></trkpt><trkpt lat="42.03380469422424" lon="12.969364014023228"><ele>320.0</ele><time>2026-04-03T09:14:19Z</time></trkpt><trkpt lat="42.03376160162958" lon="12.969509973082577"><ele>320.0</ele><time>2026-04-03T09:14:20Z</time></trkpt><trkpt lat="42.03369968837162" lon="12.969636206343681"><ele>320.0</ele><time>2026-04-03T09:14:21Z</time></trkpt><trkpt lat="42.033621573254955" lon="12.969762123363896"><ele>320.0</ele><time>2026-04-03T09:14:22Z</time></trkpt><trkpt lat="42.03352180331491" lon="12.96989321313019"><ele>319.33333333333337</ele><time>2026-04-03T09:14:23Z</time></trkpt><trkpt lat="42.03338239252295" lon="12.970026490173614"><ele>318.6666666666667</ele><time>2026-04-03T09:14:24Z</time></trkpt><trkpt lat="42.03315844663012" lon="12.97021828221905"><ele>318.0</ele><time>2026-04-03T09:14:25Z</time></trkpt><trkpt lat="42.03288470856734" lon="12.970460805547548"><ele>318.0</ele><time>2026-04-03T09:14:26Z</time></trkpt><trkpt lat="42.03258324067064" lon="12.970666067158676"><ele>318.0</ele><time>2026-04-03T09:14:27Z</time></trkpt><trkpt lat="42.03233860164303" lon="12.970804526935584"><ele>319.0</ele><time>2026-04-03T09:14:28Z</time></trkpt><trkpt lat="42.0321397728081" lon="12.970923528004729"><ele>320.0</ele><time>2026-04-03T09:14:29.001Z</time></trkpt><trkpt lat="42.032006429936516" lon="12.971124482653948"><ele>321.0</ele><time>2026-04-03T09:14:30Z</time></trkpt><trkpt lat="42.031903448759586" lon="12.971423607964754"><ele>324.0</ele><time>2026-04-03T09:14:31Z</time></trkpt><trkpt lat="42.031806223389175" lon="12.971715682365314"><ele>327.0</ele><time>2026-04-03T09:14:32Z</time></trkpt><trkpt lat="42.031687093806845" lon="12.971995422423698"><ele>325.5</ele><time>2026-04-03T09:14:33Z</time></trkpt><trkpt lat="42.031560736799385" lon="12.972300828128157"><ele>324.0</ele><time>2026-04-03T09:14:34Z</time></trkpt><trkpt lat="42.03141127254425" lon="12.972582442491705"><ele>324.0</ele><time>2026-04-03T09:14:35Z</time></trkpt><trkpt lat="42.03124190585059" lon="12.972845996124303"><ele>324.0</ele><time>2026-04-03T09:14:36Z</time></trkpt><trkpt lat="42.03109903271493" lon="12.973085479390813"><ele>324.0</ele><time>2026-04-03T09:14:37Z</time></trkpt><trkpt lat="42.03097325373496" lon="12.973272820987717"><ele>324.0</ele><time>2026-04-03T09:14:38Z</time></trkpt><trkpt lat="42.030865264679996" lon="12.973433542606138"><ele>324.0</ele><time>2026-04-03T09:14:39Z</time></trkpt><trkpt lat="42.03074445124928" lon="12.97354486020766"><ele>325.6666666666667</ele><time>2026-04-03T09:14:40Z</time></trkpt><trkpt lat="42.03061756906155" lon="12.973659816836134"><ele>327.33333333333337</ele><time>2026-04-03T09:14:41Z</time></trkpt><trkpt lat="42.03045088830647" lon="12.973791490220783"><ele>329.0</ele><time>2026-04-03T09:14:42Z</time></trkpt><trkpt lat="42.03021175169288" lon="12.973968581245202"><ele>326.0</ele><time>2026-04-03T09:14:43Z</time></trkpt><trkpt lat="42.02995359020466" lon="12.974156731465177"><ele>323.0</ele><time>2026-04-03T09:14:44Z</time></trkpt><trkpt lat="42.02974597560778" lon="12.974347912129094"><ele>323.0</ele><time>2026-04-03T09:14:45Z</time></trkpt><trkpt lat="42.02958902347582" lon="12.974640248128384"><ele>323.0</ele><time>2026-04-03T09:14:46Z</time></trkpt><trkpt lat="42.029453427977806" lon="12.975033583390173"><ele>324.5</ele><time>2026-04-03T09:14:47Z</time></trkpt><trkpt lat="42.02929133622124" lon="12.975374344068701"><ele>326.0</ele><time>2026-04-03T09:14:48Z</time></trkpt><trkpt lat="42.02910684952926" lon="12.975601870708637"><ele>326.0</ele><time>2026-04-03T09:14:49Z</time></trkpt><trkpt lat="42.02887169610366" lon="12.97577000393065"><ele>326.0</ele><time>2026-04-03T09:14:50Z</time></trkpt><trkpt lat="42.02856027478701" lon="12.97588764173687"><ele>325.0</ele><time>2026-04-03T09:14:51Z</time></trkpt><trkpt lat="42.0282534221916" lon="12.975986678778368"><ele>324.0</ele><time>2026-04-03T09:14:52Z</time></trkpt><trkpt lat="42.02800159693775" lon="12.976089155479436"><ele>324.0</ele><time>2026-04-03T09:14:53Z</time></trkpt><trkpt lat="42.02779060934351" lon="12.976307299942995"><ele>324.0</ele><time>2026-04-03T09:14:54Z</time></trkpt><trkpt lat="42.02762303991981" lon="12.976584040042962"><ele>325.5</ele><time>2026-04-03T09:14:55Z</time></trkpt><trkpt lat="42.027527260698825" lon="12.976885016906323"><ele>327.0</ele><time>2026-04-03T09:14:56Z</time></trkpt><trkpt lat="42.027475567325524" lon="12.97727634530412"><ele>323.5</ele><time>2026-04-03T09:14:57Z</time></trkpt><trkpt lat="42.0274410165057" lon="12.977772769323256"><ele>320.0</ele><time>2026-04-03T09:14:58Z</time></trkpt><trkpt lat="42.027406892433525" lon="12.978339273050082"><ele>320.0</ele><time>2026-04-03T09:14:59Z</time></trkpt><trkpt lat="42.02736047718862" lon="12.978946034506436"><ele>319.5</ele><time>2026-04-03T09:15:00Z</time></trkpt><trkpt lat="42.02730513314926" lon="12.979489014524555"><ele>319.0</ele><time>2026-04-03T09:15:01Z</time></trkpt><trkpt lat="42.02720953525251" lon="12.979984754623795"><ele>320.5</ele><time>2026-04-03T09:15:02Z</time></trkpt><trkpt lat="42.0270871627286" lon="12.980411773384246"><ele>322.0</ele><time>2026-04-03T09:15:03Z</time></trkpt><trkpt lat="42.02691056107341" lon="12.980842301201717"><ele>322.0</ele><time>2026-04-03T09:15:04Z</time></trkpt><trkpt lat="42.02668604034921" lon="12.981257113055987"><ele>322.0</ele><time>2026-04-03T09:15:05Z</time></trkpt><trkpt lat="42.02640291751024" lon="12.981677360704783"><ele>323.0</ele><time>2026-04-03T09:15:06Z</time></trkpt><trkpt lat="42.026090467102904" lon="12.982144285188813"><ele>323.5</ele><time>2026-04-03T09:15:07Z</time></trkpt><trkpt lat="42.025780682088666" lon="12.98258101772937"><ele>324.0</ele><time>2026-04-03T09:15:08Z</time></trkpt><trkpt lat="42.025525723259356" lon="12.98294718776489"><ele>324.0</ele><time>2026-04-03T09:15:09Z</time></trkpt><trkpt lat="42.025281825998604" lon="12.983303384275162"><ele>324.0</ele><time>2026-04-03T09:15:10Z</time></trkpt><trkpt lat="42.02505299610194" lon="12.98362921085708"><ele>324.0</ele><time>2026-04-03T09:15:11Z</time></trkpt><trkpt lat="42.02485601575117" lon="12.983964194216128"><ele>324.0</ele><time>2026-04-03T09:15:12Z</time></trkpt><trkpt lat="42.02471220814133" lon="12.984303232146472"><ele>324.0</ele><time>2026-04-03T09:15:13Z</time></trkpt><trkpt lat="42.024592634536816" lon="12.984621450523019"><ele>324.0</ele><time>2026-04-03T09:15:14Z</time></trkpt><trkpt lat="42.0244698980533" lon="12.984911551387636"><ele>326.0</ele><time>2026-04-03T09:15:15Z</time></trkpt><trkpt lat="42.02445578558097" lon="12.98529277492712"><ele>328.0</ele><time>2026-04-03T09:15:16Z</time></trkpt><trkpt lat="42.024404108466314" lon="12.985625266084616"><ele>327.0</ele><time>2026-04-03T09:15:17Z</time></trkpt><trkpt lat="42.0243783532889" lon="12.985942857373296"><ele>326.0</ele><time>2026-04-03T09:15:18Z</time></trkpt><trkpt lat="42.02435940946475" lon="12.986244768347564"><ele>326.0</ele><time>2026-04-03T09:15:19Z</time></trkpt><trkpt lat="42.024335363887886" lon="12.986546719516777"><ele>326.0</ele><time>2026-04-03T09:15:20Z</time></trkpt><trkpt lat="42.024315788203715" lon="12.986835517111208"><ele>326.0</ele><time>2026-04-03T09:15:21Z</time></trkpt><trkpt lat="42.024295583235514" lon="12.987131524182065"><ele>326.6666666666667</ele><time>2026-04-03T09:15:22Z</time></trkpt><trkpt lat="42.024271900401054" lon="12.987411596836154"><ele>327.3333333333333</ele><time>2026-04-03T09:15:23Z</time></trkpt><trkpt lat="42.02424519016108" lon="12.987666020324022"><ele>328.0</ele><time>2026-04-03T09:15:24Z</time></trkpt><trkpt lat="42.02421516633424" lon="12.987911225198596"><ele>328.3333333333333</ele><time>2026-04-03T09:15:25Z</time></trkpt><trkpt lat="42.02415932397757" lon="12.988137464688888"><ele>328.6666666666667</ele><time>2026-04-03T09:15:26Z</time></trkpt><trkpt lat="42.024074264122774" lon="12.988361272404795"><ele>329.0</ele><time>2026-04-03T09:15:27Z</time></trkpt><trkpt lat="42.02397821333053" lon="12.988558050108805"><ele>329.0</ele><time>2026-04-03T09:15:28Z</time></trkpt><trkpt lat="42.02387896564101" lon="12.988735293986691"><ele>329.0</ele><time>2026-04-03T09:15:29Z</time></trkpt><trkpt lat="42.023793438640105" lon="12.988869325785508"><ele>329.0</ele><time>2026-04-03T09:15:30Z</time></trkpt><trkpt lat="42.02373421256889" lon="12.98894277839406"><ele>329.0</ele><time>2026-04-03T09:15:31Z</time></trkpt><trkpt lat="42.02367506919042" lon="12.98900423199795"><ele>329.0</ele><time>2026-04-03T09:15:32Z</time></trkpt><trkpt lat="42.02362300922045" lon="12.989058378646565"><ele>329.0</ele><time>2026-04-03T09:15:33Z</time></trkpt><trkpt lat="42.02353037124355" lon="12.989165918443797"><ele>329.0</ele><time>2026-04-03T09:15:35Z</time></trkpt><trkpt lat="42.02347741944868" lon="12.989229469478284"><ele>329.0</ele><time>2026-04-03T09:15:36Z</time></trkpt><trkpt lat="42.0234221384794" lon="12.989291789274802"><ele>329.0</ele><time>2026-04-03T09:15:37Z</time></trkpt><trkpt lat="42.023369757329" lon="12.989345943852712"><ele>329.0</ele><time>2026-04-03T09:15:38Z</time></trkpt><trkpt lat="42.02330661320722" lon="12.989417258605252"><ele>328.79999999999995</ele><time>2026-04-03T09:15:39Z</time></trkpt><trkpt lat="42.023240796248636" lon="12.989495171489743"><ele>328.59999999999997</ele><time>2026-04-03T09:15:40Z</time></trkpt><trkpt lat="42.023166134895064" lon="12.989573376208776"><ele>328.4</ele><time>2026-04-03T09:15:41Z</time></trkpt><trkpt lat="42.023078113261256" lon="12.989662948334386"><ele>328.2</ele><time>2026-04-03T09:15:42Z</time></trkpt><trkpt lat="42.02298035893502" lon="12.989786486388144"><ele>328.0</ele><time>2026-04-03T09:15:43Z</time></trkpt><trkpt lat="42.02287254167859" lon="12.98993101863842"><ele>331.0</ele><time>2026-04-03T09:15:44Z</time></trkpt><trkpt lat="42.02275994929075" lon="12.990105890709758"><ele>334.0</ele><time>2026-04-03T09:15:45Z</time></trkpt><trkpt lat="42.02265387703772" lon="12.99032270500719"><ele>337.0</ele><time>2026-04-03T09:15:46Z</time></trkpt><trkpt lat="42.02255128715573" lon="12.990584555558558"><ele>331.0</ele><time>2026-04-03T09:15:47Z</time></trkpt><trkpt lat="42.02243268760328" lon="12.99086134314677"><ele>325.0</ele><time>2026-04-03T09:15:48Z</time></trkpt><trkpt lat="42.022307241474046" lon="12.991125340408955"><ele>325.0</ele><time>2026-04-03T09:15:49Z</time></trkpt><trkpt lat="42.0221693958609" lon="12.99138964797178"><ele>325.0</ele><time>2026-04-03T09:15:50Z</time></trkpt><trkpt lat="42.02203997843933" lon="12.991648176366262"><ele>328.0</ele><time>2026-04-03T09:15:51Z</time></trkpt><trkpt lat="42.021913632627474" lon="12.991911565129744"><ele>331.0</ele><time>2026-04-03T09:15:52Z</time></trkpt><trkpt lat="42.0217905818349" lon="12.992177545193723"><ele>331.0</ele><time>2026-04-03T09:15:53Z</time></trkpt><trkpt lat="42.02167143655941" lon="12.99242881723223"><ele>331.0</ele><time>2026-04-03T09:15:54Z</time></trkpt><trkpt lat="42.021553638276046" lon="12.99268229558392"><ele>331.0</ele><time>2026-04-03T09:15:55Z</time></trkpt><trkpt lat="42.02143079148183" lon="12.992938747532236"><ele>330.66666666666663</ele><time>2026-04-03T09:15:56Z</time></trkpt><trkpt lat="42.02131455542512" lon="12.993175896458052"><ele>330.3333333333333</ele><time>2026-04-03T09:15:57Z</time></trkpt><trkpt lat="42.02121181629009" lon="12.993391436405878"><ele>330.0</ele><time>2026-04-03T09:15:58Z</time></trkpt><trkpt lat="42.021123406075034" lon="12.99358109998524"><ele>330.0</ele><time>2026-04-03T09:15:59Z</time></trkpt><trkpt lat="42.02104181019092" lon="12.993755786172851"><ele>330.0</ele><time>2026-04-03T09:16:00Z</time></trkpt><trkpt lat="42.020970273365634" lon="12.993911048195095"><ele>330.0</ele><time>2026-04-03T09:16:01Z</time></trkpt><trkpt lat="42.02090573106578" lon="12.99405465030933"><ele>330.0</ele><time>2026-04-03T09:16:02Z</time></trkpt><trkpt lat="42.02085180862863" lon="12.99417886551408"><ele>330.0</ele><time>2026-04-03T09:16:03Z</time></trkpt><trkpt lat="42.020824125424056" lon="12.994265951517015"><ele>330.0</ele><time>2026-04-03T09:16:04Z</time></trkpt><trkpt lat="42.02082788506664" lon="12.994372781931514"><ele>330.0</ele><time>2026-04-03T09:16:06Z</time></trkpt><trkpt lat="42.02090957291393" lon="12.994374620308868"><ele>330.0</ele><time>2026-04-03T09:16:09Z</time></trkpt><trkpt lat="42.020977332163916" lon="12.994288381891147"><ele>330.0</ele><time>2026-04-03T09:16:11Z</time></trkpt><trkpt lat="42.02104244183486" lon="12.994189087921123"><ele>330.0</ele><time>2026-04-03T09:16:19Z</time></trkpt><trkpt lat="42.02101999769888" lon="12.994087014395708"><ele>328.6666666666667</ele><time>2026-04-03T09:16:21Z</time></trkpt><trkpt lat="42.02080759707907" lon="12.994223975483704"><ele>327.33333333333337</ele><time>2026-04-03T09:16:29Z</time></trkpt><trkpt lat="42.02074279074569" lon="12.99440802565681"><ele>326.0</ele><time>2026-04-03T09:16:30Z</time></trkpt><trkpt lat="42.020646362712334" lon="12.994606014954789"><ele>326.0</ele><time>2026-04-03T09:16:31Z</time></trkpt><trkpt lat="42.02053035745238" lon="12.994837675597559"><ele>326.0</ele><time>2026-04-03T09:16:32Z</time></trkpt><trkpt lat="42.020398934842916" lon="12.995106862520705"><ele>326.0</ele><time>2026-04-03T09:16:33Z</time></trkpt><trkpt lat="42.02023910445708" lon="12.995454605606753"><ele>326.0</ele><time>2026-04-03T09:16:34Z</time></trkpt><trkpt lat="42.020073579230825" lon="12.995836502434853"><ele>326.0</ele><time>2026-04-03T09:16:35Z</time></trkpt><trkpt lat="42.01989896667505" lon="12.996257011309888"><ele>327.5</ele><time>2026-04-03T09:16:36Z</time></trkpt><trkpt lat="42.01972449250635" lon="12.996718705770576"><ele>329.0</ele><time>2026-04-03T09:16:37Z</time></trkpt><trkpt lat="42.01956103279402" lon="12.997223186699046"><ele>330.0</ele><time>2026-04-03T09:16:38Z</time></trkpt><trkpt lat="42.01940652039404" lon="12.997782136839799"><ele>331.0</ele><time>2026-04-03T09:16:39Z</time></trkpt><trkpt lat="42.01926005100706" lon="12.998385483890857"><ele>329.5</ele><time>2026-04-03T09:16:40Z</time></trkpt><trkpt lat="42.01913753932185" lon="12.998960331738102"><ele>328.0</ele><time>2026-04-03T09:16:41Z</time></trkpt><trkpt lat="42.019029730404974" lon="12.999473008625865"><ele>328.0</ele><time>2026-04-03T09:16:42Z</time></trkpt><trkpt lat="42.018928972278545" lon="12.999925936360482"><ele>328.0</ele><time>2026-04-03T09:16:43Z</time></trkpt><trkpt lat="42.01882981881301" lon="13.00033216642701"><ele>328.0</ele><time>2026-04-03T09:16:44Z</time></trkpt><trkpt lat="42.01873692505711" lon="13.000723567254772"><ele>328.0</ele><time>2026-04-03T09:16:45Z</time></trkpt><trkpt lat="42.018656565470764" lon="13.001087474405596"><ele>327.5</ele><time>2026-04-03T09:16:46Z</time></trkpt><trkpt lat="42.01859949514714" lon="13.00146369066279"><ele>327.0</ele><time>2026-04-03T09:16:47Z</time></trkpt><trkpt lat="42.018580802317906" lon="13.001859923548448"><ele>327.0</ele><time>2026-04-03T09:16:48Z</time></trkpt><trkpt lat="42.0186006815687" lon="13.002250676505579"><ele>327.0</ele><time>2026-04-03T09:16:49Z</time></trkpt><trkpt lat="42.01868429914288" lon="13.00265450020206"><ele>327.0</ele><time>2026-04-03T09:16:50Z</time></trkpt><trkpt lat="42.01881586590903" lon="13.003060029124143"><ele>327.0</ele><time>2026-04-03T09:16:51Z</time></trkpt><trkpt lat="42.01899781214677" lon="13.003434532056485"><ele>327.0</ele><time>2026-04-03T09:16:52Z</time></trkpt><trkpt lat="42.019233485326154" lon="13.003857904789266"><ele>327.0</ele><time>2026-04-03T09:16:53Z</time></trkpt><trkpt lat="42.019454388437374" lon="13.004318427616298"><ele>327.0</ele><time>2026-04-03T09:16:54Z</time></trkpt><trkpt lat="42.01965050126067" lon="13.004708815435373"><ele>327.0</ele><time>2026-04-03T09:16:55Z</time></trkpt><trkpt lat="42.01982727120902" lon="13.005062901913787"><ele>327.0</ele><time>2026-04-03T09:16:56Z</time></trkpt><trkpt lat="42.02000420040309" lon="13.005417318341156"><ele>327.0</ele><time>2026-04-03T09:16:57Z</time></trkpt><trkpt lat="42.02018989425676" lon="13.005789291739093"><ele>326.5</ele><time>2026-04-03T09:16:58Z</time></trkpt><trkpt lat="42.02039404904393" lon="13.006194127321846"><ele>326.0</ele><time>2026-04-03T09:16:59Z</time></trkpt><trkpt lat="42.0205798451666" lon="13.006561946129914"><ele>326.0</ele><time>2026-04-03T09:17:00Z</time></trkpt><trkpt lat="42.02074112738849" lon="13.00688123495014"><ele>326.0</ele><time>2026-04-03T09:17:01Z</time></trkpt><trkpt lat="42.020893635760444" lon="13.007182969708653"><ele>325.0</ele><time>2026-04-03T09:17:02Z</time></trkpt><trkpt lat="42.021040594865234" lon="13.00747313965555"><ele>324.0</ele><time>2026-04-03T09:17:03Z</time></trkpt><trkpt lat="42.02117399984703" lon="13.007736546953785"><ele>324.0</ele><time>2026-04-03T09:17:04Z</time></trkpt><trkpt lat="42.02128970046892" lon="13.007976366994047"><ele>324.0</ele><time>2026-04-03T09:17:05Z</time></trkpt><trkpt lat="42.021381013848604" lon="13.008207296877275"><ele>324.0</ele><time>2026-04-03T09:17:06Z</time></trkpt><trkpt lat="42.02144296581465" lon="13.008426123347935"><ele>323.6666666666667</ele><time>2026-04-03T09:17:07Z</time></trkpt><trkpt lat="42.02149371037217" lon="13.008689657122998"><ele>323.33333333333337</ele><time>2026-04-03T09:17:08Z</time></trkpt><trkpt lat="42.02151651383606" lon="13.008996956233386"><ele>323.0</ele><time>2026-04-03T09:17:09Z</time></trkpt><trkpt lat="42.021533367602" lon="13.009331723272332"><ele>323.0</ele><time>2026-04-03T09:17:10Z</time></trkpt><trkpt lat="42.02157494216248" lon="13.009600858666072"><ele>323.0</ele><time>2026-04-03T09:17:11Z</time></trkpt><trkpt lat="42.02170396504264" lon="13.009832807964392"><ele>323.0</ele><time>2026-04-03T09:17:12Z</time></trkpt><trkpt lat="42.02191433199799" lon="13.01007942755699"><ele>324.5</ele><time>2026-04-03T09:17:13Z</time></trkpt><trkpt lat="42.02215096809996" lon="13.010416742107983"><ele>326.0</ele><time>2026-04-03T09:17:14Z</time></trkpt><trkpt lat="42.0223600221757" lon="13.010733110821763"><ele>329.5</ele><time>2026-04-03T09:17:15Z</time></trkpt><trkpt lat="42.022516789579754" lon="13.011015052823467"><ele>333.0</ele><time>2026-04-03T09:17:16Z</time></trkpt><trkpt lat="42.02265577567071" lon="13.011312871392693"><ele>333.0</ele><time>2026-04-03T09:17:17Z</time></trkpt><trkpt lat="42.022800363946736" lon="13.011641710665629"><ele>333.0</ele><time>2026-04-03T09:17:18Z</time></trkpt><trkpt lat="42.02296619591826" lon="13.011998991109756"><ele>332.0</ele><time>2026-04-03T09:17:19Z</time></trkpt><trkpt lat="42.023151287079216" lon="13.012315043005573"><ele>331.0</ele><time>2026-04-03T09:17:20Z</time></trkpt><trkpt lat="42.0233011826001" lon="13.012557857620127"><ele>333.66666666666663</ele><time>2026-04-03T09:17:21Z</time></trkpt><trkpt lat="42.02341582161347" lon="13.01277878052983"><ele>336.3333333333333</ele><time>2026-04-03T09:17:22Z</time></trkpt><trkpt lat="42.02351469133224" lon="13.012946908487832"><ele>339.0</ele><time>2026-04-03T09:17:23Z</time></trkpt><trkpt lat="42.02372633863574" lon="13.012968629993098"><ele>339.0</ele><time>2026-04-03T09:17:24Z</time></trkpt><trkpt lat="42.02383911756314" lon="13.013062370228699"><ele>339.0</ele><time>2026-04-03T09:17:25Z</time></trkpt><trkpt lat="42.02393639541138" lon="13.013179092013582"><ele>339.0</ele><time>2026-04-03T09:17:26Z</time></trkpt><trkpt lat="42.02403343319192" lon="13.013364118954499"><ele>339.0</ele><time>2026-04-03T09:17:27Z</time></trkpt><trkpt lat="42.024109881040985" lon="13.013538743106507"><ele>342.3333333333333</ele><time>2026-04-03T09:17:28Z</time></trkpt><trkpt lat="42.02420093658747" lon="13.013694950697204"><ele>345.66666666666663</ele><time>2026-04-03T09:17:29Z</time></trkpt><trkpt lat="42.024362956716686" lon="13.013861014610118"><ele>349.0</ele><time>2026-04-03T09:17:30Z</time></trkpt><trkpt lat="42.02459782392625" lon="13.014079130319205"><ele>348.3333333333333</ele><time>2026-04-03T09:17:31Z</time></trkpt><trkpt lat="42.02478752002442" lon="13.014294833994912"><ele>347.6666666666667</ele><time>2026-04-03T09:17:32Z</time></trkpt><trkpt lat="42.02489773175748" lon="13.014505156413096"><ele>347.0</ele><time>2026-04-03T09:17:33Z</time></trkpt><trkpt lat="42.02493019282511" lon="13.014781368433725"><ele>347.33333333333337</ele><time>2026-04-03T09:17:34Z</time></trkpt><trkpt lat="42.024873857350435" lon="13.015080170648318"><ele>347.6666666666667</ele><time>2026-04-03T09:17:35Z</time></trkpt><trkpt lat="42.024768413236224" lon="13.015304707481464"><ele>348.0</ele><time>2026-04-03T09:17:36Z</time></trkpt><trkpt lat="42.024621575387044" lon="13.015437804383936"><ele>348.0</ele><time>2026-04-03T09:17:37Z</time></trkpt><trkpt lat="42.02445226866548" lon="13.015487065935183"><ele>348.0</ele><time>2026-04-03T09:17:38Z</time></trkpt><trkpt lat="42.02432569878124" lon="13.015521279647224"><ele>348.0</ele><time>2026-04-03T09:17:39Z</time></trkpt><trkpt lat="42.02427096748102" lon="13.015599464528888"><ele>348.0</ele><time>2026-04-03T09:17:40Z</time></trkpt><trkpt lat="42.02427591485524" lon="13.015759226135543"><ele>349.0</ele><time>2026-04-03T09:17:42Z</time></trkpt><trkpt lat="42.0243230505479" lon="13.015851780368068"><ele>350.0</ele><time>2026-04-03T09:17:43Z</time></trkpt><trkpt lat="42.02440096677391" lon="13.015913766704433"><ele>351.0</ele><time>2026-04-03T09:17:44Z</time></trkpt><trkpt lat="42.02452044808518" lon="13.015911866054983"><ele>352.0</ele><time>2026-04-03T09:17:45Z</time></trkpt><trkpt lat="42.024702043447654" lon="13.01587230688457"><ele>352.0</ele><time>2026-04-03T09:17:46Z</time></trkpt><trkpt lat="42.02494455215745" lon="13.015832760898581"><ele>352.0</ele><time>2026-04-03T09:17:47Z</time></trkpt><trkpt lat="42.02518756281049" lon="13.015807299368399"><ele>353.66666666666663</ele><time>2026-04-03T09:17:48Z</time></trkpt><trkpt lat="42.02539119660791" lon="13.01575430854326"><ele>355.3333333333333</ele><time>2026-04-03T09:17:49Z</time></trkpt><trkpt lat="42.025564593081825" lon="13.015618096243639"><ele>357.0</ele><time>2026-04-03T09:17:50Z</time></trkpt><trkpt lat="42.02571007427353" lon="13.015445155960824"><ele>360.6666666666667</ele><time>2026-04-03T09:17:51Z</time></trkpt><trkpt lat="42.0258471609705" lon="13.015337774379825"><ele>364.33333333333337</ele><time>2026-04-03T09:17:52Z</time></trkpt><trkpt lat="42.026004133663015" lon="13.015366367203397"><ele>368.0</ele><time>2026-04-03T09:17:53Z</time></trkpt><trkpt lat="42.02615982257752" lon="13.015493521392491"><ele>368.0</ele><time>2026-04-03T09:17:54Z</time></trkpt><trkpt lat="42.026324243909805" lon="13.015689849945062"><ele>368.0</ele><time>2026-04-03T09:17:55Z</time></trkpt><trkpt lat="42.02646806391915" lon="13.015885489676938"><ele>368.0</ele><time>2026-04-03T09:17:56Z</time></trkpt><trkpt lat="42.02658696803056" lon="13.016039896214444"><ele>370.6666666666667</ele><time>2026-04-03T09:17:57Z</time></trkpt><trkpt lat="42.026741548075776" lon="13.016181260764572"><ele>373.3333333333333</ele><time>2026-04-03T09:17:58Z</time></trkpt><trkpt lat="42.02695899001844" lon="13.016254812509427"><ele>376.0</ele><time>2026-04-03T09:17:59Z</time></trkpt><trkpt lat="42.02719400065251" lon="13.016276170987615"><ele>376.0</ele><time>2026-04-03T09:18:00Z</time></trkpt><trkpt lat="42.027388201838754" lon="13.01621806353285"><ele>376.0</ele><time>2026-04-03T09:18:01Z</time></trkpt><trkpt lat="42.02759072090868" lon="13.01609279848366"><ele>376.0</ele><time>2026-04-03T09:18:02Z</time></trkpt><trkpt lat="42.02779887433494" lon="13.015939977178647"><ele>378.5</ele><time>2026-04-03T09:18:03Z</time></trkpt><trkpt lat="42.02802076791061" lon="13.015883642863818"><ele>381.0</ele><time>2026-04-03T09:18:04Z</time></trkpt><trkpt lat="42.02824819883529" lon="13.015962864527753"><ele>385.5</ele><time>2026-04-03T09:18:05Z</time></trkpt><trkpt lat="42.02846464013336" lon="13.01613439132767"><ele>390.0</ele><time>2026-04-03T09:18:06Z</time></trkpt><trkpt lat="42.02863976454194" lon="13.01632680230699"><ele>390.0</ele><time>2026-04-03T09:18:07Z</time></trkpt><trkpt lat="42.02877934546277" lon="13.016421002770688"><ele>390.0</ele><time>2026-04-03T09:18:08Z</time></trkpt><trkpt lat="42.028943061463245" lon="13.016389246713223"><ele>390.0</ele><time>2026-04-03T09:18:09Z</time></trkpt><trkpt lat="42.029147834186176" lon="13.016219273909071"><ele>392.5</ele><time>2026-04-03T09:18:10Z</time></trkpt><trkpt lat="42.02937505486438" lon="13.01595604633404"><ele>395.0</ele><time>2026-04-03T09:18:11Z</time></trkpt><trkpt lat="42.02963568048332" lon="13.015650724711614"><ele>398.5</ele><time>2026-04-03T09:18:12Z</time></trkpt><trkpt lat="42.02985834729893" lon="13.015379888949582"><ele>402.0</ele><time>2026-04-03T09:18:13Z</time></trkpt><trkpt lat="42.030001012280486" lon="13.015104209471007"><ele>409.33333333333337</ele><time>2026-04-03T09:18:14Z</time></trkpt><trkpt lat="42.03013224392378" lon="13.0148535544056"><ele>416.6666666666667</ele><time>2026-04-03T09:18:15Z</time></trkpt><trkpt lat="42.03030146371053" lon="13.014676088048304"><ele>424.0</ele><time>2026-04-03T09:18:16Z</time></trkpt><trkpt lat="42.03051413093591" lon="13.014637085095412"><ele>424.0</ele><time>2026-04-03T09:18:17Z</time></trkpt><trkpt lat="42.030770949696795" lon="13.01461753283637"><ele>424.0</ele><time>2026-04-03T09:18:18Z</time></trkpt><trkpt lat="42.03103677500081" lon="13.014477648070079"><ele>420.5</ele><time>2026-04-03T09:18:19Z</time></trkpt><trkpt lat="42.03131373821978" lon="13.014219451061477"><ele>417.0</ele><time>2026-04-03T09:18:20Z</time></trkpt><trkpt lat="42.03161876085924" lon="13.013939770339816"><ele>421.5</ele><time>2026-04-03T09:18:21Z</time></trkpt><trkpt lat="42.03192025429282" lon="13.013718126618741"><ele>426.0</ele><time>2026-04-03T09:18:22Z</time></trkpt><trkpt lat="42.03221419445654" lon="13.013543596720984"><ele>422.5</ele><time>2026-04-03T09:18:23Z</time></trkpt><trkpt lat="42.0325172033248" lon="13.01345769387648"><ele>419.0</ele><time>2026-04-03T09:18:24Z</time></trkpt><trkpt lat="42.03283973583938" lon="13.01342637389751"><ele>419.0</ele><time>2026-04-03T09:18:25Z</time></trkpt><trkpt lat="42.03312754271159" lon="13.013423476049672"><ele>419.0</ele><time>2026-04-03T09:18:26Z</time></trkpt><trkpt lat="42.03338029263338" lon="13.013360017961444"><ele>427.5</ele><time>2026-04-03T09:18:27Z</time></trkpt><trkpt lat="42.033617138250285" lon="13.013209584947235"><ele>436.0</ele><time>2026-04-03T09:18:28Z</time></trkpt><trkpt lat="42.03383087102183" lon="13.013016574464256"><ele>436.0</ele><time>2026-04-03T09:18:29Z</time></trkpt><trkpt lat="42.033994486782646" lon="13.012863390725242"><ele>436.0</ele><time>2026-04-03T09:18:30Z</time></trkpt><trkpt lat="42.03414182180216" lon="13.012828007142314"><ele>436.0</ele><time>2026-04-03T09:18:31Z</time></trkpt><trkpt lat="42.034223828704164" lon="13.012965439627594"><ele>436.33333333333337</ele><time>2026-04-03T09:18:32Z</time></trkpt><trkpt lat="42.03437410083785" lon="13.01309160816524"><ele>436.66666666666663</ele><time>2026-04-03T09:18:33Z</time></trkpt><trkpt lat="42.03456111469725" lon="13.01330322060318"><ele>437.0</ele><time>2026-04-03T09:18:34Z</time></trkpt><trkpt lat="42.03485097203251" lon="13.013551463518391"><ele>437.5</ele><time>2026-04-03T09:18:35Z</time></trkpt><trkpt lat="42.03507974509958" lon="13.013792020944827"><ele>438.0</ele><time>2026-04-03T09:18:36Z</time></trkpt><trkpt lat="42.03524604242509" lon="13.014009364682796"><ele>438.0</ele><time>2026-04-03T09:18:37Z</time></trkpt><trkpt lat="42.03538804593335" lon="13.014183449119038"><ele>438.0</ele><time>2026-04-03T09:18:38Z</time></trkpt><trkpt lat="42.03560780995373" lon="13.014295747311392"><ele>438.0</ele><time>2026-04-03T09:18:39Z</time></trkpt><trkpt lat="42.03588244643563" lon="13.014380546596035"><ele>438.0</ele><time>2026-04-03T09:18:40Z</time></trkpt><trkpt lat="42.036095087698854" lon="13.01440520456263"><ele>438.0</ele><time>2026-04-03T09:18:41Z</time></trkpt><trkpt lat="42.036320671685566" lon="13.01432128076979"><ele>438.0</ele><time>2026-04-03T09:18:42Z</time></trkpt><trkpt lat="42.036554396726764" lon="13.014196700909055"><ele>442.0</ele><time>2026-04-03T09:18:43Z</time></trkpt><trkpt lat="42.03672472612515" lon="13.014197241219378"><ele>446.0</ele><time>2026-04-03T09:18:44Z</time></trkpt><trkpt lat="42.036865302224754" lon="13.014280706588998"><ele>450.0</ele><time>2026-04-03T09:18:45Z</time></trkpt><trkpt lat="42.03694056916925" lon="13.014464999686583"><ele>450.0</ele><time>2026-04-03T09:18:46Z</time></trkpt><trkpt lat="42.037067586761694" lon="13.014722566702286"><ele>450.0</ele><time>2026-04-03T09:18:47Z</time></trkpt><trkpt lat="42.037215292609226" lon="13.015029710634682"><ele>450.66666666666663</ele><time>2026-04-03T09:18:48Z</time></trkpt><trkpt lat="42.0373408502723" lon="13.01522365756314"><ele>451.3333333333333</ele><time>2026-04-03T09:18:49Z</time></trkpt><trkpt lat="42.03746237491055" lon="13.015269633933151"><ele>452.0</ele><time>2026-04-03T09:18:50Z</time></trkpt><trkpt lat="42.03764394863191" lon="13.015277196887263"><ele>452.0</ele><time>2026-04-03T09:18:51Z</time></trkpt><trkpt lat="42.0378093303401" lon="13.015252152588005"><ele>452.0</ele><time>2026-04-03T09:18:52Z</time></trkpt><trkpt lat="42.03795490455074" lon="13.015282731642795"><ele>452.0</ele><time>2026-04-03T09:18:53Z</time></trkpt><trkpt lat="42.038030689095784" lon="13.015359638138023"><ele>452.0</ele><time>2026-04-03T09:18:54Z</time></trkpt><trkpt lat="42.03813016745987" lon="13.015487962808004"><ele>452.0</ele><time>2026-04-03T09:18:55Z</time></trkpt><trkpt lat="42.03823755113253" lon="13.015607806629864"><ele>452.0</ele><time>2026-04-03T09:18:56Z</time></trkpt><trkpt lat="42.038344920164334" lon="13.015799488425088"><ele>452.0</ele><time>2026-04-03T09:18:57Z</time></trkpt><trkpt lat="42.03837223563143" lon="13.01597161168802"><ele>452.0</ele><time>2026-04-03T09:18:58Z</time></trkpt><trkpt lat="42.03841855961247" lon="13.016146868963537"><ele>453.0</ele><time>2026-04-03T09:18:59Z</time></trkpt><trkpt lat="42.038482818014955" lon="13.016298482990079"><ele>454.0</ele><time>2026-04-03T09:19:00Z</time></trkpt><trkpt lat="42.038606054364244" lon="13.016378910760302"><ele>455.0</ele><time>2026-04-03T09:19:01Z</time></trkpt><trkpt lat="42.03877931466059" lon="13.01642299738615"><ele>456.0</ele><time>2026-04-03T09:19:02Z</time></trkpt><trkpt lat="42.038974722852245" lon="13.016464371612091"><ele>456.33333333333337</ele><time>2026-04-03T09:19:03Z</time></trkpt><trkpt lat="42.03913528900072" lon="13.016541251800662"><ele>456.6666666666667</ele><time>2026-04-03T09:19:04Z</time></trkpt><trkpt lat="42.03929773411897" lon="13.01662321363829"><ele>457.0</ele><time>2026-04-03T09:19:05Z</time></trkpt><trkpt lat="42.03945239315663" lon="13.016653853415004"><ele>464.0</ele><time>2026-04-03T09:19:06Z</time></trkpt><trkpt lat="42.03963543439191" lon="13.016624804196992"><ele>471.0</ele><time>2026-04-03T09:19:07Z</time></trkpt><trkpt lat="42.03982825907997" lon="13.016533179144044"><ele>478.0</ele><time>2026-04-03T09:19:08Z</time></trkpt><trkpt lat="42.039996721164634" lon="13.016424009156516"><ele>479.25</ele><time>2026-04-03T09:19:09Z</time></trkpt><trkpt lat="42.04011872066696" lon="13.016304303222407"><ele>480.5</ele><time>2026-04-03T09:19:10Z</time></trkpt><trkpt lat="42.040223405429934" lon="13.016224352296186"><ele>481.75</ele><time>2026-04-03T09:19:11Z</time></trkpt><trkpt lat="42.04033468597495" lon="13.01617953640859"><ele>483.0</ele><time>2026-04-03T09:19:12Z</time></trkpt><trkpt lat="42.04046305490035" lon="13.016167220620783"><ele>483.0</ele><time>2026-04-03T09:19:13Z</time></trkpt><trkpt lat="42.040586840930835" lon="13.016129300997829"><ele>482.99999999999994</ele><time>2026-04-03T09:19:14Z</time></trkpt><trkpt lat="42.0406951683007" lon="13.01611415723628"><ele>482.99999999999994</ele><time>2026-04-03T09:19:15Z</time></trkpt><trkpt lat="42.0407823365798" lon="13.016106197232094"><ele>483.0</ele><time>2026-04-03T09:19:16Z</time></trkpt><trkpt lat="42.04085578397082" lon="13.016103944301191"><ele>483.0</ele><time>2026-04-03T09:19:17Z</time></trkpt><trkpt lat="42.040920699198" lon="13.016095963902039"><ele>482.4</ele><time>2026-04-03T09:19:18Z</time></trkpt><trkpt lat="42.040998482859756" lon="13.016079225468536"><ele>481.79999999999995</ele><time>2026-04-03T09:19:19Z</time></trkpt><trkpt lat="42.04109141650767" lon="13.016070675184206"><ele>481.2</ele><time>2026-04-03T09:19:20Z</time></trkpt><trkpt lat="42.04115835975439" lon="13.016096356076616"><ele>480.6</ele><time>2026-04-03T09:19:21Z</time></trkpt><trkpt lat="42.04126480242757" lon="13.016087707698052"><ele>480.0</ele><time>2026-04-03T09:19:23Z</time></trkpt><trkpt lat="42.04131718779834" lon="13.015929513057761"><ele>480.0</ele><time>2026-04-03T09:19:25Z</time></trkpt><trkpt lat="42.04130944967612" lon="13.015799974248669"><ele>507.0</ele><time>2026-04-03T09:19:27Z</time></trkpt><trkpt lat="42.04129153521365" lon="13.015926332618028"><ele>480.0</ele><time>2026-04-03T09:20:52.057Z</time></trkpt></trkseg><trkseg><trkpt lat="42.0414288740213" lon="13.01617604333994"><ele>480.0</ele><time>2026-04-03T09:44:12Z</time></trkpt><trkpt lat="42.041378935228146" lon="13.016070159391445"><ele>480.0</ele><time>2026-04-03T09:44:14Z</time></trkpt><trkpt lat="42.0413345421272" lon="13.016005863109914"><ele>480.0</ele><time>2026-04-03T09:44:16Z</time></trkpt><trkpt lat="42.041279631076186" lon="13.015907009072675"><ele>480.0</ele><time>2026-04-03T09:44:18Z</time></trkpt><trkpt lat="42.041244530159936" lon="13.015819819936523"><ele>480.0</ele><time>2026-04-03T09:44:19Z</time></trkpt><trkpt lat="42.04117172104776" lon="13.015729439947002"><ele>480.0</ele><time>2026-04-03T09:44:20Z</time></trkpt><trkpt lat="42.04105561371205" lon="13.015691016440352"><ele>489.0</ele><time>2026-04-03T09:44:21Z</time></trkpt><trkpt lat="42.04091421400405" lon="13.015696578007237"><ele>498.0</ele><time>2026-04-03T09:44:22Z</time></trkpt><trkpt lat="42.040745161268354" lon="13.015723582641073"><ele>507.0</ele><time>2026-04-03T09:44:23Z</time></trkpt><trkpt lat="42.04057775597748" lon="13.015745647501332"><ele>507.75</ele><time>2026-04-03T09:44:24Z</time></trkpt><trkpt lat="42.04044565785975" lon="13.01575752725527"><ele>508.5</ele><time>2026-04-03T09:44:25Z</time></trkpt><trkpt lat="42.04032108944327" lon="13.015767453354586"><ele>509.25</ele><time>2026-04-03T09:44:26Z</time></trkpt><trkpt lat="42.04020274460194" lon="13.01582279366109"><ele>510.0</ele><time>2026-04-03T09:44:27Z</time></trkpt><trkpt lat="42.04010408686864" lon="13.015922801045773"><ele>503.25</ele><time>2026-04-03T09:44:28Z</time></trkpt><trkpt lat="42.04000573965566" lon="13.01603140567869"><ele>496.5</ele><time>2026-04-03T09:44:29Z</time></trkpt><trkpt lat="42.03989085032884" lon="13.01603969841576"><ele>489.75</ele><time>2026-04-03T09:44:30Z</time></trkpt><trkpt lat="42.03975986329221" lon="13.016054610107396"><ele>483.0</ele><time>2026-04-03T09:44:31Z</time></trkpt><trkpt lat="42.03963071189566" lon="13.016057941171264"><ele>481.75</ele><time>2026-04-03T09:44:32Z</time></trkpt><trkpt lat="42.03950777908697" lon="13.016046991762876"><ele>480.5</ele><time>2026-04-03T09:44:33Z</time></trkpt><trkpt lat="42.0394338603691" lon="13.015931471639467"><ele>479.25</ele><time>2026-04-03T09:44:34Z</time></trkpt><trkpt lat="42.039367080065254" lon="13.01581223150353"><ele>478.0</ele><time>2026-04-03T09:44:35Z</time></trkpt><trkpt lat="42.03928183684537" lon="13.015679655001039"><ele>476.2</ele><time>2026-04-03T09:44:36Z</time></trkpt><trkpt lat="42.039218511321934" lon="13.015533614858832"><ele>474.4</ele><time>2026-04-03T09:44:37Z</time></trkpt><trkpt lat="42.03916473510711" lon="13.015405859001367"><ele>472.59999999999997</ele><time>2026-04-03T09:44:38Z</time></trkpt><trkpt lat="42.03911557539035" lon="13.015300976703651"><ele>470.79999999999995</ele><time>2026-04-03T09:44:39Z</time></trkpt><trkpt lat="42.03906798410523" lon="13.015215968793738"><ele>469.0</ele><time>2026-04-03T09:44:40Z</time></trkpt><trkpt lat="42.03902996042698" lon="13.015142960711412"><ele>469.0</ele><time>2026-04-03T09:44:41Z</time></trkpt><trkpt lat="42.038974230698884" lon="13.015016626625005"><ele>469.0</ele><time>2026-04-03T09:44:43Z</time></trkpt><trkpt lat="42.03892202776745" lon="13.014858324736542"><ele>469.0</ele><time>2026-04-03T09:44:45Z</time></trkpt><trkpt lat="42.038952736367285" lon="13.014709531299587"><ele>469.0</ele><time>2026-04-03T09:44:47Z</time></trkpt><trkpt lat="42.03901610601825" lon="13.014674441007216"><ele>469.0</ele><time>2026-04-03T09:44:48Z</time></trkpt><trkpt lat="42.039132313601996" lon="13.014782705281908"><ele>473.6</ele><time>2026-04-03T09:44:50Z</time></trkpt><trkpt lat="42.039160649764284" lon="13.014898176983"><ele>478.2</ele><time>2026-04-03T09:44:51Z</time></trkpt><trkpt lat="42.03921467803652" lon="13.014994378353018"><ele>482.80000000000007</ele><time>2026-04-03T09:44:52Z</time></trkpt><trkpt lat="42.039248456929556" lon="13.01507878643824"><ele>487.40000000000003</ele><time>2026-04-03T09:44:53Z</time></trkpt><trkpt lat="42.03933892609919" lon="13.015230615284624"><ele>492.0</ele><time>2026-04-03T09:44:55Z</time></trkpt><trkpt lat="42.03941979899102" lon="13.01535154641334"><ele>492.0</ele><time>2026-04-03T09:44:56Z</time></trkpt><trkpt lat="42.039506918810204" lon="13.0154681715864"><ele>492.00000000000006</ele><time>2026-04-03T09:44:57Z</time></trkpt><trkpt lat="42.03959322133843" lon="13.015543922559978"><ele>492.00000000000006</ele><time>2026-04-03T09:44:58Z</time></trkpt><trkpt lat="42.0396847858105" lon="13.015571379093098"><ele>492.0</ele><time>2026-04-03T09:44:59Z</time></trkpt><trkpt lat="42.03978527229919" lon="13.01557842400884"><ele>492.0</ele><time>2026-04-03T09:45:00Z</time></trkpt><trkpt lat="42.03988828548819" lon="13.015561278308954"><ele>496.5</ele><time>2026-04-03T09:45:01Z</time></trkpt><trkpt lat="42.039983558810896" lon="13.0155086836483"><ele>501.0</ele><time>2026-04-03T09:45:02Z</time></trkpt><trkpt lat="42.04008761087489" lon="13.015411090487218"><ele>505.5</ele><time>2026-04-03T09:45:03Z</time></trkpt><trkpt lat="42.04023950323194" lon="13.015262189915736"><ele>510.0</ele><time>2026-04-03T09:45:04Z</time></trkpt><trkpt lat="42.040410752526505" lon="13.01513978864667"><ele>510.0</ele><time>2026-04-03T09:45:05Z</time></trkpt><trkpt lat="42.04055630270453" lon="13.015105034370427"><ele>510.0</ele><time>2026-04-03T09:45:06Z</time></trkpt><trkpt lat="42.040675936550265" lon="13.015052914655067"><ele>510.0</ele><time>2026-04-03T09:45:07.001Z</time></trkpt><trkpt lat="42.04082237508471" lon="13.015003361570463"><ele>510.0</ele><time>2026-04-03T09:45:08.001Z</time></trkpt><trkpt lat="42.04094447948842" lon="13.014925055985982"><ele>515.25</ele><time>2026-04-03T09:45:09.001Z</time></trkpt><trkpt lat="42.04103536825598" lon="13.014815718229613"><ele>520.5</ele><time>2026-04-03T09:45:10.001Z</time></trkpt><trkpt lat="42.0411150944834" lon="13.014695151466519"><ele>525.75</ele><time>2026-04-03T09:45:11.001Z</time></trkpt><trkpt lat="42.041188001988104" lon="13.014600234363838"><ele>531.0</ele><time>2026-04-03T09:45:12.001Z</time></trkpt><trkpt lat="42.0412703554064" lon="13.014504836447271"><ele>531.0</ele><time>2026-04-03T09:45:13.001Z</time></trkpt><trkpt lat="42.04136123588825" lon="13.014405955947424"><ele>531.0</ele><time>2026-04-03T09:45:14.001Z</time></trkpt><trkpt lat="42.041469146629694" lon="13.014354655423547"><ele>531.0</ele><time>2026-04-03T09:45:15.001Z</time></trkpt><trkpt lat="42.04157816184005" lon="13.014319752493796"><ele>531.0</ele><time>2026-04-03T09:45:16.001Z</time></trkpt><trkpt lat="42.041696583657924" lon="13.014294532055857"><ele>528.0</ele><time>2026-04-03T09:45:17.001Z</time></trkpt><trkpt lat="42.041808650731724" lon="13.014256763481974"><ele>525.0</ele><time>2026-04-03T09:45:18.001Z</time></trkpt><trkpt lat="42.04192589132488" lon="13.01424035322956"><ele>522.0</ele><time>2026-04-03T09:45:19.001Z</time></trkpt><trkpt lat="42.04204223115061" lon="13.01422537946292"><ele>519.0</ele><time>2026-04-03T09:45:20.001Z</time></trkpt><trkpt lat="42.04215664148777" lon="13.014223643232707"><ele>519.0</ele><time>2026-04-03T09:45:21.001Z</time></trkpt><trkpt lat="42.042260339414845" lon="13.014278904681754"><ele>519.0</ele><time>2026-04-03T09:45:22.001Z</time></trkpt><trkpt lat="42.04237810793172" lon="13.014330765125377"><ele>519.0</ele><time>2026-04-03T09:45:23.001Z</time></trkpt><trkpt lat="42.042491344728" lon="13.014393221771906"><ele>519.0</ele><time>2026-04-03T09:45:24.001Z</time></trkpt><trkpt lat="42.04260437563275" lon="13.014397808772431"><ele>519.25</ele><time>2026-04-03T09:45:25.001Z</time></trkpt><trkpt lat="42.04272412396828" lon="13.01436507160263"><ele>519.5</ele><time>2026-04-03T09:45:26.001Z</time></trkpt><trkpt lat="42.042835078948606" lon="13.014314770845832"><ele>519.75</ele><time>2026-04-03T09:45:27.001Z</time></trkpt><trkpt lat="42.04295669634832" lon="13.014273520484142"><ele>520.0</ele><time>2026-04-03T09:45:28.001Z</time></trkpt><trkpt lat="42.043073387099355" lon="13.014282342535473"><ele>520.0</ele><time>2026-04-03T09:45:29.001Z</time></trkpt><trkpt lat="42.04318255174079" lon="13.014302097957135"><ele>520.0</ele><time>2026-04-03T09:45:30.001Z</time></trkpt><trkpt lat="42.04329795908193" lon="13.014328610627603"><ele>520.0</ele><time>2026-04-03T09:45:31.001Z</time></trkpt><trkpt lat="42.04340596950013" lon="13.014360063411358"><ele>520.0</ele><time>2026-04-03T09:45:32.001Z</time></trkpt><trkpt lat="42.043515311336535" lon="13.0143751784992"><ele>520.0</ele><time>2026-04-03T09:45:33.001Z</time></trkpt><trkpt lat="42.043608549375136" lon="13.014439056505172"><ele>521.0</ele><time>2026-04-03T09:45:34.001Z</time></trkpt><trkpt lat="42.043695943110315" lon="13.014502597116609"><ele>522.0</ele><time>2026-04-03T09:45:35.001Z</time></trkpt><trkpt lat="42.04378875480493" lon="13.014584998400583"><ele>523.0</ele><time>2026-04-03T09:45:36.001Z</time></trkpt><trkpt lat="42.043881713669734" lon="13.01467175810636"><ele>524.0</ele><time>2026-04-03T09:45:37.001Z</time></trkpt><trkpt lat="42.04396968100888" lon="13.014763668493105"><ele>525.0</ele><time>2026-04-03T09:45:38.001Z</time></trkpt><trkpt lat="42.04406920205692" lon="13.01480634107646"><ele>526.0</ele><time>2026-04-03T09:45:39.001Z</time></trkpt><trkpt lat="42.04417362497816" lon="13.014812920444085"><ele>527.0</ele><time>2026-04-03T09:45:40.001Z</time></trkpt><trkpt lat="42.04429158710938" lon="13.014806565634528"><ele>528.0</ele><time>2026-04-03T09:45:41.001Z</time></trkpt><trkpt lat="42.04440403663735" lon="13.014792575409436"><ele>529.0</ele><time>2026-04-03T09:45:42.001Z</time></trkpt><trkpt lat="42.04451793118528" lon="13.014781305116106"><ele>529.0</ele><time>2026-04-03T09:45:43.001Z</time></trkpt><trkpt lat="42.04462519291678" lon="13.014780170252877"><ele>529.0</ele><time>2026-04-03T09:45:44.001Z</time></trkpt><trkpt lat="42.044725105025265" lon="13.014777890423986"><ele>529.0</ele><time>2026-04-03T09:45:45.001Z</time></trkpt><trkpt lat="42.04484074090604" lon="13.014777574793799"><ele>529.0</ele><time>2026-04-03T09:45:46.001Z</time></trkpt><trkpt lat="42.044956105618944" lon="13.014789464040273"><ele>529.0</ele><time>2026-04-03T09:45:47.001Z</time></trkpt><trkpt lat="42.04505139870381" lon="13.014885287960615"><ele>528.8</ele><time>2026-04-03T09:45:48.001Z</time></trkpt><trkpt lat="42.045146037473046" lon="13.014969269879751"><ele>528.5999999999999</ele><time>2026-04-03T09:45:49.001Z</time></trkpt><trkpt lat="42.04523606792284" lon="13.015033108645433"><ele>528.4</ele><time>2026-04-03T09:45:50.001Z</time></trkpt><trkpt lat="42.04531553504566" lon="13.015105609658253"><ele>528.1999999999999</ele><time>2026-04-03T09:45:51.001Z</time></trkpt><trkpt lat="42.04542905826058" lon="13.015097920992657"><ele>528.0</ele><time>2026-04-03T09:45:52.001Z</time></trkpt><trkpt lat="42.045534654186596" lon="13.015097348370988"><ele>528.0</ele><time>2026-04-03T09:45:53.001Z</time></trkpt><trkpt lat="42.04562957897048" lon="13.015093193033497"><ele>528.0</ele><time>2026-04-03T09:45:54.001Z</time></trkpt><trkpt lat="42.04571588344903" lon="13.015098339806853"><ele>528.0</ele><time>2026-04-03T09:45:55.001Z</time></trkpt><trkpt lat="42.045783965499695" lon="13.015087728530625"><ele>528.0</ele><time>2026-04-03T09:45:56.001Z</time></trkpt><trkpt lat="42.04585215465642" lon="13.01503107903893"><ele>528.0</ele><time>2026-04-03T09:45:57.001Z</time></trkpt><trkpt lat="42.04589796542049" lon="13.014928128965304"><ele>528.0</ele><time>2026-04-03T09:45:58.001Z</time></trkpt><trkpt lat="42.04592260608648" lon="13.014799458565111"><ele>530.4</ele><time>2026-04-03T09:45:59.001Z</time></trkpt><trkpt lat="42.04594355864456" lon="13.014664330916856"><ele>532.8</ele><time>2026-04-03T09:46:00.001Z</time></trkpt><trkpt lat="42.045966419662236" lon="13.014522364703632"><ele>535.2</ele><time>2026-04-03T09:46:01.001Z</time></trkpt><trkpt lat="42.04599756280031" lon="13.0143755033367"><ele>537.6</ele><time>2026-04-03T09:46:02.001Z</time></trkpt><trkpt lat="42.046046335742965" lon="13.014233414281685"><ele>540.0</ele><time>2026-04-03T09:46:03.001Z</time></trkpt><trkpt lat="42.04609959319744" lon="13.014104391399716"><ele>541.8</ele><time>2026-04-03T09:46:04.001Z</time></trkpt><trkpt lat="42.04615490203262" lon="13.013994511172188"><ele>543.6</ele><time>2026-04-03T09:46:05.001Z</time></trkpt><trkpt lat="42.04620897441347" lon="13.013879795611306"><ele>545.4</ele><time>2026-04-03T09:46:06.001Z</time></trkpt><trkpt lat="42.046255511515916" lon="13.01377429693428"><ele>547.2</ele><time>2026-04-03T09:46:07.001Z</time></trkpt><trkpt lat="42.0463076071013" lon="13.013671868028405"><ele>549.0</ele><time>2026-04-03T09:46:08.001Z</time></trkpt><trkpt lat="42.04637493148104" lon="13.01358571142857"><ele>549.0</ele><time>2026-04-03T09:46:09.001Z</time></trkpt><trkpt lat="42.04646527483859" lon="13.01356082740732"><ele>549.0</ele><time>2026-04-03T09:46:10.001Z</time></trkpt><trkpt lat="42.04655306154987" lon="13.013560700974947"><ele>549.0</ele><time>2026-04-03T09:46:11.001Z</time></trkpt><trkpt lat="42.046647168097856" lon="13.013578697214689"><ele>549.0</ele><time>2026-04-03T09:46:12.001Z</time></trkpt><trkpt lat="42.04673569851689" lon="13.013655309519129"><ele>549.0</ele><time>2026-04-03T09:46:13.001Z</time></trkpt><trkpt lat="42.04680016616187" lon="13.013781391773577"><ele>549.0</ele><time>2026-04-03T09:46:14.001Z</time></trkpt><trkpt lat="42.04685599013574" lon="13.013893086190091"><ele>549.0</ele><time>2026-04-03T09:46:15Z</time></trkpt><trkpt lat="42.04691461219291" lon="13.014007633854149"><ele>549.0</ele><time>2026-04-03T09:46:16Z</time></trkpt><trkpt lat="42.046978284607775" lon="13.01410142087213"><ele>549.0</ele><time>2026-04-03T09:46:17Z</time></trkpt><trkpt lat="42.0470190892144" lon="13.014193831839185"><ele>549.0</ele><time>2026-04-03T09:46:18Z</time></trkpt><trkpt lat="42.04705098834416" lon="13.01427380478551"><ele>549.0</ele><time>2026-04-03T09:46:19Z</time></trkpt><trkpt lat="42.04709071193301" lon="13.014362417564962"><ele>548.6</ele><time>2026-04-03T09:46:20Z</time></trkpt><trkpt lat="42.04714728335236" lon="13.014441609988664"><ele>548.2</ele><time>2026-04-03T09:46:21Z</time></trkpt><trkpt lat="42.04721245334351" lon="13.01448746462075"><ele>547.8000000000001</ele><time>2026-04-03T09:46:22Z</time></trkpt><trkpt lat="42.047300563690406" lon="13.014495434655903"><ele>547.4</ele><time>2026-04-03T09:46:23Z</time></trkpt><trkpt lat="42.047386323130866" lon="13.014447161351459"><ele>547.0</ele><time>2026-04-03T09:46:24Z</time></trkpt><trkpt lat="42.04747076013265" lon="13.014320330984436"><ele>551.5</ele><time>2026-04-03T09:46:25Z</time></trkpt><trkpt lat="42.047590269246314" lon="13.014115799392302"><ele>556.0</ele><time>2026-04-03T09:46:26Z</time></trkpt><trkpt lat="42.04777494101512" lon="13.013857739188927"><ele>556.0</ele><time>2026-04-03T09:46:27Z</time></trkpt><trkpt lat="42.04798692843191" lon="13.013613153928146"><ele>556.0</ele><time>2026-04-03T09:46:28Z</time></trkpt><trkpt lat="42.0481553253727" lon="13.013426224764084"><ele>558.0</ele><time>2026-04-03T09:46:29Z</time></trkpt><trkpt lat="42.048377433901635" lon="13.013360037289162"><ele>560.0</ele><time>2026-04-03T09:46:30Z</time></trkpt><trkpt lat="42.04864893376534" lon="13.013233344225748"><ele>570.5</ele><time>2026-04-03T09:46:31Z</time></trkpt><trkpt lat="42.0489428099228" lon="13.013138119699486"><ele>581.0</ele><time>2026-04-03T09:46:32Z</time></trkpt><trkpt lat="42.04918087774412" lon="13.012979301319632"><ele>581.0</ele><time>2026-04-03T09:46:33Z</time></trkpt><trkpt lat="42.04938347533944" lon="13.012756080562362"><ele>581.0</ele><time>2026-04-03T09:46:34Z</time></trkpt><trkpt lat="42.04960220433985" lon="13.012630684622586"><ele>581.0</ele><time>2026-04-03T09:46:35Z</time></trkpt><trkpt lat="42.049832278551726" lon="13.012584745220229"><ele>581.0</ele><time>2026-04-03T09:46:36Z</time></trkpt><trkpt lat="42.05009105074314" lon="13.012626039688916"><ele>580.5</ele><time>2026-04-03T09:46:37Z</time></trkpt><trkpt lat="42.05035627128887" lon="13.012662812852405"><ele>580.0</ele><time>2026-04-03T09:46:38Z</time></trkpt><trkpt lat="42.05060312050197" lon="13.012799334219299"><ele>583.0</ele><time>2026-04-03T09:46:39Z</time></trkpt><trkpt lat="42.05086124940023" lon="13.012912830424971"><ele>586.0</ele><time>2026-04-03T09:46:40Z</time></trkpt><trkpt lat="42.05111543009988" lon="13.013034108271123"><ele>586.0</ele><time>2026-04-03T09:46:41Z</time></trkpt><trkpt lat="42.05133979987767" lon="13.013216870223486"><ele>586.0</ele><time>2026-04-03T09:46:42Z</time></trkpt><trkpt lat="42.051519931117916" lon="13.013395229160608"><ele>581.5</ele><time>2026-04-03T09:46:43Z</time></trkpt><trkpt lat="42.05165183011434" lon="13.013631315837312"><ele>577.0</ele><time>2026-04-03T09:46:44Z</time></trkpt><trkpt lat="42.05183292579759" lon="13.013868035978943"><ele>577.0</ele><time>2026-04-03T09:46:45Z</time></trkpt><trkpt lat="42.0519696077824" lon="13.014009319130633"><ele>577.0</ele><time>2026-04-03T09:46:46Z</time></trkpt><trkpt lat="42.05216986760175" lon="13.014148917060394"><ele>577.0</ele><time>2026-04-03T09:46:47Z</time></trkpt><trkpt lat="42.052408677470424" lon="13.014282221039531"><ele>571.5</ele><time>2026-04-03T09:46:48Z</time></trkpt><trkpt lat="42.05263782764091" lon="13.014393698196937"><ele>566.0</ele><time>2026-04-03T09:46:49Z</time></trkpt><trkpt lat="42.05286559694718" lon="13.014505946471969"><ele>566.0</ele><time>2026-04-03T09:46:50Z</time></trkpt><trkpt lat="42.05310662362447" lon="13.014635447262537"><ele>566.0</ele><time>2026-04-03T09:46:51Z</time></trkpt><trkpt lat="42.053348956634714" lon="13.014766524493789"><ele>565.5</ele><time>2026-04-03T09:46:52Z</time></trkpt><trkpt lat="42.05358097246087" lon="13.014895644308451"><ele>565.0</ele><time>2026-04-03T09:46:53Z</time></trkpt><trkpt lat="42.05380489662916" lon="13.015020562801412"><ele>565.0</ele><time>2026-04-03T09:46:54Z</time></trkpt><trkpt lat="42.05404449668905" lon="13.015138689007022"><ele>565.0</ele><time>2026-04-03T09:46:55Z</time></trkpt><trkpt lat="42.05428169262709" lon="13.015264549962202"><ele>568.0</ele><time>2026-04-03T09:46:56Z</time></trkpt><trkpt lat="42.05452110537929" lon="13.015379284004188"><ele>571.0</ele><time>2026-04-03T09:46:57Z</time></trkpt><trkpt lat="42.054762013603955" lon="13.015477407117688"><ele>570.5</ele><time>2026-04-03T09:46:58Z</time></trkpt><trkpt lat="42.05501372010766" lon="13.015542345629122"><ele>570.0</ele><time>2026-04-03T09:46:59Z</time></trkpt><trkpt lat="42.055270773781615" lon="13.015577160393102"><ele>570.0</ele><time>2026-04-03T09:47:00Z</time></trkpt><trkpt lat="42.055519588882255" lon="13.01558861202902"><ele>570.0</ele><time>2026-04-03T09:47:01Z</time></trkpt><trkpt lat="42.05577111227543" lon="13.015587442942774"><ele>570.5</ele><time>2026-04-03T09:47:02Z</time></trkpt><trkpt lat="42.056028883501604" lon="13.015555638911454"><ele>571.0</ele><time>2026-04-03T09:47:03Z</time></trkpt><trkpt lat="42.05629804164655" lon="13.01551332930826"><ele>571.0</ele><time>2026-04-03T09:47:04Z</time></trkpt><trkpt lat="42.05654722764907" lon="13.015474448887488"><ele>571.0</ele><time>2026-04-03T09:47:05Z</time></trkpt><trkpt lat="42.05682293058443" lon="13.015446883694802"><ele>573.0</ele><time>2026-04-03T09:47:06Z</time></trkpt><trkpt lat="42.05709390300848" lon="13.015421893677901"><ele>575.0</ele><time>2026-04-03T09:47:07Z</time></trkpt><trkpt lat="42.057362602913315" lon="13.015396171176835"><ele>578.5</ele><time>2026-04-03T09:47:08Z</time></trkpt><trkpt lat="42.057632247034974" lon="13.015362024765185"><ele>582.0</ele><time>2026-04-03T09:47:09Z</time></trkpt><trkpt lat="42.057893209583625" lon="13.015321920482581"><ele>582.0</ele><time>2026-04-03T09:47:10Z</time></trkpt><trkpt lat="42.05816111428554" lon="13.015291068224522"><ele>582.0</ele><time>2026-04-03T09:47:11Z</time></trkpt><trkpt lat="42.05842892803777" lon="13.01526972338035"><ele>587.5</ele><time>2026-04-03T09:47:12Z</time></trkpt><trkpt lat="42.05867990403046" lon="13.015255278017257"><ele>593.0</ele><time>2026-04-03T09:47:13Z</time></trkpt><trkpt lat="42.058928575156315" lon="13.01526457099713"><ele>594.5</ele><time>2026-04-03T09:47:14Z</time></trkpt><trkpt lat="42.059174257978725" lon="13.015335495296986"><ele>596.0</ele><time>2026-04-03T09:47:15Z</time></trkpt><trkpt lat="42.0593895600788" lon="13.015472813326836"><ele>596.0</ele><time>2026-04-03T09:47:16.001Z</time></trkpt><trkpt lat="42.05957008465303" lon="13.015659458641164"><ele>596.0</ele><time>2026-04-03T09:47:17.001Z</time></trkpt><trkpt lat="42.05970851021716" lon="13.015897281474182"><ele>602.0</ele><time>2026-04-03T09:47:18.001Z</time></trkpt><trkpt lat="42.0598176842084" lon="13.016190488501119"><ele>608.0</ele><time>2026-04-03T09:47:19.001Z</time></trkpt><trkpt lat="42.05989759826094" lon="13.016510025204544"><ele>617.0</ele><time>2026-04-03T09:47:20.001Z</time></trkpt><trkpt lat="42.05993135964348" lon="13.016835491422942"><ele>626.0</ele><time>2026-04-03T09:47:21.001Z</time></trkpt><trkpt lat="42.059909158038245" lon="13.017165838707765"><ele>624.5</ele><time>2026-04-03T09:47:22.001Z</time></trkpt><trkpt lat="42.05985521434113" lon="13.01752008087528"><ele>623.0</ele><time>2026-04-03T09:47:23.001Z</time></trkpt><trkpt lat="42.05980432580769" lon="13.017903649009378"><ele>623.0</ele><time>2026-04-03T09:47:24.001Z</time></trkpt><trkpt lat="42.05975872561731" lon="13.01830030900609"><ele>623.0</ele><time>2026-04-03T09:47:25.001Z</time></trkpt><trkpt lat="42.05972493513337" lon="13.018691104884695"><ele>616.5</ele><time>2026-04-03T09:47:26.001Z</time></trkpt><trkpt lat="42.059692615238156" lon="13.019078923295739"><ele>610.0</ele><time>2026-04-03T09:47:27.001Z</time></trkpt><trkpt lat="42.059654280619924" lon="13.019460105631055"><ele>609.0</ele><time>2026-04-03T09:47:28.001Z</time></trkpt><trkpt lat="42.05961179670571" lon="13.019852539139992"><ele>608.0</ele><time>2026-04-03T09:47:29.001Z</time></trkpt><trkpt lat="42.059574113404935" lon="13.020259090923073"><ele>607.0</ele><time>2026-04-03T09:47:30.001Z</time></trkpt><trkpt lat="42.059557921241066" lon="13.020703372448102"><ele>606.0</ele><time>2026-04-03T09:47:31.001Z</time></trkpt><trkpt lat="42.05956074150289" lon="13.021163219568177"><ele>606.0</ele><time>2026-04-03T09:47:32.001Z</time></trkpt><trkpt lat="42.05957064414573" lon="13.021641257814284"><ele>606.0</ele><time>2026-04-03T09:47:33.001Z</time></trkpt><trkpt lat="42.059584523145276" lon="13.022124358539074"><ele>607.0</ele><time>2026-04-03T09:47:34.001Z</time></trkpt><trkpt lat="42.05960051490064" lon="13.022585920539477"><ele>608.0</ele><time>2026-04-03T09:47:35.001Z</time></trkpt><trkpt lat="42.05963920901312" lon="13.023028512200758"><ele>611.5</ele><time>2026-04-03T09:47:36.001Z</time></trkpt><trkpt lat="42.0597177434957" lon="13.023490619507939"><ele>615.0</ele><time>2026-04-03T09:47:37.001Z</time></trkpt><trkpt lat="42.059830067824215" lon="13.023982610643477"><ele>615.5</ele><time>2026-04-03T09:47:38.001Z</time></trkpt><trkpt lat="42.05995160077419" lon="13.024457843740139"><ele>616.0</ele><time>2026-04-03T09:47:39.001Z</time></trkpt><trkpt lat="42.06006614769952" lon="13.024929108863343"><ele>615.0</ele><time>2026-04-03T09:47:40.001Z</time></trkpt><trkpt lat="42.060182232624605" lon="13.02541792041868"><ele>614.0</ele><time>2026-04-03T09:47:41.001Z</time></trkpt><trkpt lat="42.06029475831577" lon="13.025916025205689"><ele>614.0</ele><time>2026-04-03T09:47:42.001Z</time></trkpt><trkpt lat="42.06041448897555" lon="13.026443131194334"><ele>614.0</ele><time>2026-04-03T09:47:43.001Z</time></trkpt><trkpt lat="42.06054551958543" lon="13.027007371085848"><ele>622.5</ele><time>2026-04-03T09:47:44.001Z</time></trkpt><trkpt lat="42.0606614623769" lon="13.02752995945376"><ele>631.0</ele><time>2026-04-03T09:47:45.001Z</time></trkpt><trkpt lat="42.06076976022613" lon="13.027983128085307"><ele>621.5</ele><time>2026-04-03T09:47:46.001Z</time></trkpt><trkpt lat="42.06086513089807" lon="13.028438499407818"><ele>612.0</ele><time>2026-04-03T09:47:47.001Z</time></trkpt><trkpt lat="42.060945801050266" lon="13.02888625566316"><ele>614.0</ele><time>2026-04-03T09:47:48.001Z</time></trkpt><trkpt lat="42.06098040437061" lon="13.029337321999652"><ele>616.0</ele><time>2026-04-03T09:47:49.001Z</time></trkpt><trkpt lat="42.06095159316916" lon="13.029785424070413"><ele>615.5</ele><time>2026-04-03T09:47:50.001Z</time></trkpt><trkpt lat="42.06087722394446" lon="13.030291087916828"><ele>615.0</ele><time>2026-04-03T09:47:51.001Z</time></trkpt><trkpt lat="42.06083364377264" lon="13.030799154315872"><ele>613.0</ele><time>2026-04-03T09:47:52.001Z</time></trkpt><trkpt lat="42.06079682691914" lon="13.03125429208946"><ele>611.0</ele><time>2026-04-03T09:47:53.001Z</time></trkpt><trkpt lat="42.06076424843652" lon="13.031640660877931"><ele>620.5</ele><time>2026-04-03T09:47:54.001Z</time></trkpt><trkpt lat="42.06073254896874" lon="13.031990358095074"><ele>630.0</ele><time>2026-04-03T09:47:55.001Z</time></trkpt><trkpt lat="42.06071235165481" lon="13.032314248002532"><ele>628.6666666666666</ele><time>2026-04-03T09:47:56.001Z</time></trkpt><trkpt lat="42.06071361609545" lon="13.032598683513802"><ele>627.3333333333333</ele><time>2026-04-03T09:47:57.001Z</time></trkpt><trkpt lat="42.06072333134293" lon="13.032870093704734"><ele>626.0</ele><time>2026-04-03T09:47:58.001Z</time></trkpt><trkpt lat="42.06074953210163" lon="13.033120033637376"><ele>621.6666666666666</ele><time>2026-04-03T09:47:59.001Z</time></trkpt><trkpt lat="42.06079618657771" lon="13.03338917206671"><ele>617.3333333333334</ele><time>2026-04-03T09:48:00.001Z</time></trkpt><trkpt lat="42.06085849592294" lon="13.033689369664238"><ele>613.0</ele><time>2026-04-03T09:48:01.001Z</time></trkpt><trkpt lat="42.060932810118416" lon="13.034071700939801"><ele>612.5</ele><time>2026-04-03T09:48:02.001Z</time></trkpt><trkpt lat="42.06102408480847" lon="13.034557437705722"><ele>612.0</ele><time>2026-04-03T09:48:03.001Z</time></trkpt><trkpt lat="42.0611282264575" lon="13.035105848120676"><ele>610.0</ele><time>2026-04-03T09:48:04.001Z</time></trkpt><trkpt lat="42.0612266817822" lon="13.035700188769667"><ele>610.0</ele><time>2026-04-03T09:48:05.001Z</time></trkpt><trkpt lat="42.06127230705755" lon="13.036212350178868"><ele>610.0</ele><time>2026-04-03T09:48:06.001Z</time></trkpt><trkpt lat="42.06127862353422" lon="13.03669083874839"><ele>610.0</ele><time>2026-04-03T09:48:07.001Z</time></trkpt><trkpt lat="42.06128236048919" lon="13.037145504937355"><ele>610.0</ele><time>2026-04-03T09:48:08.001Z</time></trkpt><trkpt lat="42.06129435071702" lon="13.037588284156874"><ele>610.5</ele><time>2026-04-03T09:48:09.001Z</time></trkpt><trkpt lat="42.06131968382653" lon="13.03804105216963"><ele>611.0</ele><time>2026-04-03T09:48:10.001Z</time></trkpt><trkpt lat="42.061352010793" lon="13.038467185327148"><ele>611.5</ele><time>2026-04-03T09:48:11.001Z</time></trkpt><trkpt lat="42.06138690636907" lon="13.038828786360318"><ele>612.0</ele><time>2026-04-03T09:48:12.001Z</time></trkpt><trkpt lat="42.06144644974097" lon="13.039149332990402"><ele>612.6666666666666</ele><time>2026-04-03T09:48:13.001Z</time></trkpt><trkpt lat="42.06152427604538" lon="13.039432964508586"><ele>613.3333333333333</ele><time>2026-04-03T09:48:14.001Z</time></trkpt><trkpt lat="42.061600576387995" lon="13.039674930455384"><ele>614.0</ele><time>2026-04-03T09:48:15.001Z</time></trkpt><trkpt lat="42.06168684745144" lon="13.03990828039001"><ele>617.0</ele><time>2026-04-03T09:48:16.001Z</time></trkpt><trkpt lat="42.06177834458341" lon="13.040113092976092"><ele>620.0</ele><time>2026-04-03T09:48:17.001Z</time></trkpt><trkpt lat="42.061886087545574" lon="13.040324829533613"><ele>623.0</ele><time>2026-04-03T09:48:18.001Z</time></trkpt><trkpt lat="42.06201467026834" lon="13.040543910625717"><ele>623.0</ele><time>2026-04-03T09:48:19.001Z</time></trkpt><trkpt lat="42.06215162456322" lon="13.040758964956497"><ele>623.0</ele><time>2026-04-03T09:48:20.001Z</time></trkpt><trkpt lat="42.06228726151662" lon="13.040952682407626"><ele>623.0</ele><time>2026-04-03T09:48:21Z</time></trkpt><trkpt lat="42.06244450432646" lon="13.041120062040433"><ele>624.5</ele><time>2026-04-03T09:48:22Z</time></trkpt><trkpt lat="42.062649711507746" lon="13.041295188376713"><ele>626.0</ele><time>2026-04-03T09:48:23Z</time></trkpt><trkpt lat="42.062868573604305" lon="13.04150391315711"><ele>626.0</ele><time>2026-04-03T09:48:24Z</time></trkpt><trkpt lat="42.06310476739213" lon="13.041716226495105"><ele>626.0</ele><time>2026-04-03T09:48:25Z</time></trkpt><trkpt lat="42.06334917073108" lon="13.041912108580682"><ele>626.0</ele><time>2026-04-03T09:48:26Z</time></trkpt><trkpt lat="42.06357158294286" lon="13.04212565616626"><ele>626.0</ele><time>2026-04-03T09:48:27Z</time></trkpt><trkpt lat="42.06377193328778" lon="13.042315211372962"><ele>625.3333333333333</ele><time>2026-04-03T09:48:28Z</time></trkpt><trkpt lat="42.063934186037656" lon="13.042466208515071"><ele>624.6666666666666</ele><time>2026-04-03T09:48:29Z</time></trkpt><trkpt lat="42.06406431289411" lon="13.042591699157576"><ele>624.0</ele><time>2026-04-03T09:48:30Z</time></trkpt><trkpt lat="42.064174443454796" lon="13.042689062692114"><ele>623.8333333333334</ele><time>2026-04-03T09:48:31Z</time></trkpt><trkpt lat="42.06423411162621" lon="13.042753834277123"><ele>623.6666666666666</ele><time>2026-04-03T09:48:32Z</time></trkpt><trkpt lat="42.06427817850499" lon="13.042821399756532"><ele>623.5</ele><time>2026-04-03T09:48:34Z</time></trkpt><trkpt lat="42.064315362804805" lon="13.04294846460444"><ele>623.3333333333333</ele><time>2026-04-03T09:48:39Z</time></trkpt><trkpt lat="42.064335762227564" lon="13.043039387898306"><ele>623.1666666666666</ele><time>2026-04-03T09:48:40Z</time></trkpt><trkpt lat="42.06439674871513" lon="13.043171882278786"><ele>623.0</ele><time>2026-04-03T09:48:42Z</time></trkpt><trkpt lat="42.06451458184977" lon="13.043271712672782"><ele>622.6</ele><time>2026-04-03T09:48:44Z</time></trkpt><trkpt lat="42.06459518654268" lon="13.043313422042797"><ele>622.1999999999999</ele><time>2026-04-03T09:48:45Z</time></trkpt><trkpt lat="42.064674443456084" lon="13.043380505552152"><ele>621.8</ele><time>2026-04-03T09:48:46Z</time></trkpt><trkpt lat="42.0647623842835" lon="13.043426787176607"><ele>621.4</ele><time>2026-04-03T09:48:47Z</time></trkpt><trkpt lat="42.06482555885358" lon="13.043596540026957"><ele>621.0</ele><time>2026-04-03T09:48:48Z</time></trkpt><trkpt lat="42.06490275676576" lon="13.043791372940442"><ele>621.5</ele><time>2026-04-03T09:48:49Z</time></trkpt><trkpt lat="42.06503272310982" lon="13.044049852172666"><ele>622.0</ele><time>2026-04-03T09:48:50Z</time></trkpt><trkpt lat="42.065149696961576" lon="13.044361597870358"><ele>622.0</ele><time>2026-04-03T09:48:51Z</time></trkpt><trkpt lat="42.06526148610104" lon="13.044651440657226"><ele>622.0</ele><time>2026-04-03T09:48:52Z</time></trkpt><trkpt lat="42.06539937525422" lon="13.044896850523022"><ele>620.5</ele><time>2026-04-03T09:48:53Z</time></trkpt><trkpt lat="42.06559404125826" lon="13.045124236602268"><ele>619.0</ele><time>2026-04-03T09:48:54Z</time></trkpt><trkpt lat="42.06582845215736" lon="13.045319795418095"><ele>619.0</ele><time>2026-04-03T09:48:55Z</time></trkpt><trkpt lat="42.06610041092581" lon="13.045475192117618"><ele>619.0</ele><time>2026-04-03T09:48:56Z</time></trkpt><trkpt lat="42.06638905014834" lon="13.045647832277414"><ele>617.0</ele><time>2026-04-03T09:48:57Z</time></trkpt><trkpt lat="42.066694363871456" lon="13.045831200433076"><ele>615.0</ele><time>2026-04-03T09:48:58Z</time></trkpt><trkpt lat="42.06699649825647" lon="13.04601550848836"><ele>615.0</ele><time>2026-04-03T09:48:59Z</time></trkpt><trkpt lat="42.06730493028294" lon="13.046212507520746"><ele>615.0</ele><time>2026-04-03T09:49:00Z</time></trkpt><trkpt lat="42.06759984902407" lon="13.046432258986428"><ele>612.5</ele><time>2026-04-03T09:49:01Z</time></trkpt><trkpt lat="42.06786482988068" lon="13.046697603826473"><ele>610.0</ele><time>2026-04-03T09:49:02Z</time></trkpt><trkpt lat="42.06813341701998" lon="13.046939064155362"><ele>610.5</ele><time>2026-04-03T09:49:03Z</time></trkpt><trkpt lat="42.06837490612439" lon="13.047182015907532"><ele>611.0</ele><time>2026-04-03T09:49:04Z</time></trkpt><trkpt lat="42.06861752286369" lon="13.047416424527682"><ele>610.5</ele><time>2026-04-03T09:49:05Z</time></trkpt><trkpt lat="42.06885006360371" lon="13.047638410049094"><ele>610.0</ele><time>2026-04-03T09:49:06Z</time></trkpt><trkpt lat="42.06905659279875" lon="13.047833076942993"><ele>612.0</ele><time>2026-04-03T09:49:07Z</time></trkpt><trkpt lat="42.069252383978494" lon="13.048018535788039"><ele>614.0</ele><time>2026-04-03T09:49:08Z</time></trkpt><trkpt lat="42.06943414155278" lon="13.048194432555563"><ele>612.0</ele><time>2026-04-03T09:49:09Z</time></trkpt><trkpt lat="42.06961547633528" lon="13.048366597686856"><ele>610.0</ele><time>2026-04-03T09:49:10Z</time></trkpt><trkpt lat="42.06981615956233" lon="13.048555973913484"><ele>609.3333333333334</ele><time>2026-04-03T09:49:11Z</time></trkpt><trkpt lat="42.070007740812024" lon="13.048739762171898"><ele>608.6666666666666</ele><time>2026-04-03T09:49:12Z</time></trkpt><trkpt lat="42.07016426658405" lon="13.048896070733905"><ele>608.0</ele><time>2026-04-03T09:49:13Z</time></trkpt><trkpt lat="42.07030669587558" lon="13.049032230502547"><ele>608.0</ele><time>2026-04-03T09:49:14Z</time></trkpt><trkpt lat="42.070426174298525" lon="13.049150523035816"><ele>608.0</ele><time>2026-04-03T09:49:15Z</time></trkpt><trkpt lat="42.070529937385196" lon="13.049253794964544"><ele>608.0</ele><time>2026-04-03T09:49:16Z</time></trkpt><trkpt lat="42.07061855659428" lon="13.049353310185412"><ele>608.0</ele><time>2026-04-03T09:49:17Z</time></trkpt><trkpt lat="42.07067950075722" lon="13.049458696400787"><ele>608.0</ele><time>2026-04-03T09:49:18Z</time></trkpt><trkpt lat="42.070714692906066" lon="13.049576707010893"><ele>608.0</ele><time>2026-04-03T09:49:19Z</time></trkpt><trkpt lat="42.07074891339344" lon="13.049678102467686"><ele>608.0</ele><time>2026-04-03T09:49:20Z</time></trkpt><trkpt lat="42.07080520767176" lon="13.049727642997583"><ele>608.0</ele><time>2026-04-03T09:49:21Z</time></trkpt><trkpt lat="42.070855265751895" lon="13.04960325222453"><ele>608.0</ele><time>2026-04-03T09:49:23Z</time></trkpt><trkpt lat="42.070897682262476" lon="13.049485982382466"><ele>608.0</ele><time>2026-04-03T09:49:25.001Z</time></trkpt><trkpt lat="42.07082456658867" lon="13.049421528871234"><ele>608.0</ele><time>2026-04-03T09:49:26.001Z</time></trkpt><trkpt lat="42.07069573271884" lon="13.049331377608715"><ele>608.0</ele><time>2026-04-03T09:49:27.001Z</time></trkpt><trkpt lat="42.07051900317498" lon="13.049180480314597"><ele>608.0</ele><time>2026-04-03T09:49:28.001Z</time></trkpt><trkpt lat="42.070291466022006" lon="13.048971667141606"><ele>608.0</ele><time>2026-04-03T09:49:29.001Z</time></trkpt><trkpt lat="42.0700198646639" lon="13.048716902109373"><ele>608.0</ele><time>2026-04-03T09:49:30.001Z</time></trkpt><trkpt lat="42.069695863029764" lon="13.048408973185065"><ele>609.0</ele><time>2026-04-03T09:49:31.001Z</time></trkpt><trkpt lat="42.06933814051391" lon="13.048069484926247"><ele>610.0</ele><time>2026-04-03T09:49:32.001Z</time></trkpt><trkpt lat="42.069021049062734" lon="13.047770439435554"><ele>610.0</ele><time>2026-04-03T09:49:33.001Z</time></trkpt><trkpt lat="42.068746727777174" lon="13.047512104117853"><ele>610.0</ele><time>2026-04-03T09:49:34.001Z</time></trkpt><trkpt lat="42.06848799609912" lon="13.0472663771004"><ele>610.0</ele><time>2026-04-03T09:49:35.001Z</time></trkpt><trkpt lat="42.068266852725635" lon="13.047028208898968"><ele>610.0</ele><time>2026-04-03T09:49:36.001Z</time></trkpt><trkpt lat="42.068057145766275" lon="13.046827265714521"><ele>610.0</ele><time>2026-04-03T09:49:37.001Z</time></trkpt><trkpt lat="42.06785015236365" lon="13.04665232089562"><ele>610.0</ele><time>2026-04-03T09:49:38.001Z</time></trkpt><trkpt lat="42.067663306972435" lon="13.046464417600689"><ele>612.5</ele><time>2026-04-03T09:49:39.001Z</time></trkpt><trkpt lat="42.06744036861219" lon="13.046279871561541"><ele>615.0</ele><time>2026-04-03T09:49:40.001Z</time></trkpt><trkpt lat="42.067171413330485" lon="13.04611183155596"><ele>615.0</ele><time>2026-04-03T09:49:41.001Z</time></trkpt><trkpt lat="42.066884836509" lon="13.045900088633497"><ele>615.0</ele><time>2026-04-03T09:49:42.001Z</time></trkpt><trkpt lat="42.06653025441641" lon="13.045677238374951"><ele>617.0</ele><time>2026-04-03T09:49:43.001Z</time></trkpt><trkpt lat="42.06619971127448" lon="13.045474907762703"><ele>619.0</ele><time>2026-04-03T09:49:44.001Z</time></trkpt><trkpt lat="42.065932405980035" lon="13.04532031841116"><ele>618.5</ele><time>2026-04-03T09:49:45.001Z</time></trkpt><trkpt lat="42.06572086973439" lon="13.045161479881981"><ele>618.0</ele><time>2026-04-03T09:49:46.001Z</time></trkpt><trkpt lat="42.06553393507741" lon="13.044995789754287"><ele>619.3333333333334</ele><time>2026-04-03T09:49:47.001Z</time></trkpt><trkpt lat="42.06541372796353" lon="13.044805991494583"><ele>620.6666666666667</ele><time>2026-04-03T09:49:48.001Z</time></trkpt><trkpt lat="42.06530862090271" lon="13.044616729957172"><ele>622.0</ele><time>2026-04-03T09:49:49.001Z</time></trkpt><trkpt lat="42.06519812404088" lon="13.044373424215557"><ele>622.5</ele><time>2026-04-03T09:49:50.001Z</time></trkpt><trkpt lat="42.06505901573113" lon="13.044093499154888"><ele>623.0</ele><time>2026-04-03T09:49:51.001Z</time></trkpt><trkpt lat="42.06493002910361" lon="13.043791523006044"><ele>623.0</ele><time>2026-04-03T09:49:52.001Z</time></trkpt><trkpt lat="42.06482950453718" lon="13.04355966090556"><ele>623.0</ele><time>2026-04-03T09:49:53.001Z</time></trkpt><trkpt lat="42.0647508632408" lon="13.043381068554863"><ele>623.0</ele><time>2026-04-03T09:49:54.001Z</time></trkpt><trkpt lat="42.06470606831316" lon="13.04326533382231"><ele>623.0</ele><time>2026-04-03T09:49:55.001Z</time></trkpt><trkpt lat="42.064683063443866" lon="13.043140634153005"><ele>623.0</ele><time>2026-04-03T09:49:56.001Z</time></trkpt><trkpt lat="42.06467240561348" lon="13.04301799557107"><ele>623.0</ele><time>2026-04-03T09:49:57.001Z</time></trkpt><trkpt lat="42.064635068783794" lon="13.042911907109636"><ele>623.0</ele><time>2026-04-03T09:49:58.001Z</time></trkpt><trkpt lat="42.064588711134384" lon="13.04284909860167"><ele>623.0</ele><time>2026-04-03T09:49:59.001Z</time></trkpt><trkpt lat="42.06451629827155" lon="13.042812669417419"><ele>623.0</ele><time>2026-04-03T09:50:01.001Z</time></trkpt><trkpt lat="42.064400930372045" lon="13.042785070002614"><ele>623.0</ele><time>2026-04-03T09:50:03.001Z</time></trkpt><trkpt lat="42.06433100293799" lon="13.042782183375715"><ele>623.0</ele><time>2026-04-03T09:50:04.001Z</time></trkpt><trkpt lat="42.06425714021742" lon="13.042719903521133"><ele>623.0</ele><time>2026-04-03T09:50:05.001Z</time></trkpt><trkpt lat="42.064198336259444" lon="13.042651004079314"><ele>623.0</ele><time>2026-04-03T09:50:06.001Z</time></trkpt><trkpt lat="42.06411662467599" lon="13.042576289875232"><ele>623.0</ele><time>2026-04-03T09:50:07.001Z</time></trkpt><trkpt lat="42.06398482047777" lon="13.04250184369667"><ele>624.0</ele><time>2026-04-03T09:50:08.001Z</time></trkpt><trkpt lat="42.063830007926164" lon="13.042348520640674"><ele>625.0</ele><time>2026-04-03T09:50:09.001Z</time></trkpt><trkpt lat="42.06365225896713" lon="13.04216261662425"><ele>626.0</ele><time>2026-04-03T09:50:10.001Z</time></trkpt><trkpt lat="42.06344455545162" lon="13.041974501984534"><ele>626.0</ele><time>2026-04-03T09:50:11.001Z</time></trkpt><trkpt lat="42.06320281350158" lon="13.041768981219576"><ele>626.0</ele><time>2026-04-03T09:50:12.001Z</time></trkpt><trkpt lat="42.06293752347099" lon="13.04153209703793"><ele>626.0</ele><time>2026-04-03T09:50:13.001Z</time></trkpt><trkpt lat="42.062664601261375" lon="13.041287836452089"><ele>626.0</ele><time>2026-04-03T09:50:14.001Z</time></trkpt><trkpt lat="42.06241636210485" lon="13.04105327124341"><ele>624.5</ele><time>2026-04-03T09:50:15.001Z</time></trkpt><trkpt lat="42.06221201902613" lon="13.040786809146223"><ele>623.0</ele><time>2026-04-03T09:50:16.001Z</time></trkpt><trkpt lat="42.06201059951338" lon="13.040499703120801"><ele>623.0</ele><time>2026-04-03T09:50:17.001Z</time></trkpt><trkpt lat="42.0618368577601" lon="13.040137323381147"><ele>623.0</ele><time>2026-04-03T09:50:18.001Z</time></trkpt><trkpt lat="42.06167006374567" lon="13.03973536693743"><ele>618.5</ele><time>2026-04-03T09:50:19.001Z</time></trkpt><trkpt lat="42.06151740729938" lon="13.039307308119634"><ele>614.0</ele><time>2026-04-03T09:50:20.001Z</time></trkpt><trkpt lat="42.06143754558835" lon="13.038855975808211"><ele>613.0</ele><time>2026-04-03T09:50:21.001Z</time></trkpt><trkpt lat="42.06137935616575" lon="13.038380402948537"><ele>612.0</ele><time>2026-04-03T09:50:22.001Z</time></trkpt><trkpt lat="42.06134716606392" lon="13.037879939395985"><ele>611.0</ele><time>2026-04-03T09:50:23.001Z</time></trkpt><trkpt lat="42.06131672374862" lon="13.037327104295592"><ele>610.0</ele><time>2026-04-03T09:50:24.001Z</time></trkpt><trkpt lat="42.06130960213809" lon="13.036747349615121"><ele>610.0</ele><time>2026-04-03T09:50:25.001Z</time></trkpt><trkpt lat="42.06128556242838" lon="13.036181893495856"><ele>610.0</ele><time>2026-04-03T09:50:26Z</time></trkpt><trkpt lat="42.061245098651476" lon="13.035637668770594"><ele>610.0</ele><time>2026-04-03T09:50:27Z</time></trkpt><trkpt lat="42.06116573141019" lon="13.035076426778264"><ele>610.0</ele><time>2026-04-03T09:50:28Z</time></trkpt><trkpt lat="42.06105436830248" lon="13.0344894343626"><ele>611.5</ele><time>2026-04-03T09:50:29Z</time></trkpt><trkpt lat="42.06094032398479" lon="13.033944914188751"><ele>613.0</ele><time>2026-04-03T09:50:30Z</time></trkpt><trkpt lat="42.06083547486586" lon="13.033464279548642"><ele>619.5</ele><time>2026-04-03T09:50:31Z</time></trkpt><trkpt lat="42.06074874064739" lon="13.032997436003102"><ele>626.0</ele><time>2026-04-03T09:50:32Z</time></trkpt><trkpt lat="42.06070693492285" lon="13.032521839766867"><ele>628.0</ele><time>2026-04-03T09:50:33Z</time></trkpt><trkpt lat="42.06076229575064" lon="13.032000742476473"><ele>630.0</ele><time>2026-04-03T09:50:34Z</time></trkpt><trkpt lat="42.060810789299516" lon="13.031452746470595"><ele>622.5</ele><time>2026-04-03T09:50:35Z</time></trkpt><trkpt lat="42.060853744555985" lon="13.03086061654522"><ele>615.0</ele><time>2026-04-03T09:50:36Z</time></trkpt><trkpt lat="42.06091309228892" lon="13.030321861452153"><ele>615.5</ele><time>2026-04-03T09:50:37Z</time></trkpt><trkpt lat="42.06095658922463" lon="13.029861633240106"><ele>616.0</ele><time>2026-04-03T09:50:38Z</time></trkpt><trkpt lat="42.06098534935201" lon="13.0294316784541"><ele>614.0</ele><time>2026-04-03T09:50:39Z</time></trkpt><trkpt lat="42.06099043947933" lon="13.029006974327743"><ele>612.0</ele><time>2026-04-03T09:50:40Z</time></trkpt><trkpt lat="42.06094488850375" lon="13.028561443420912"><ele>611.5</ele><time>2026-04-03T09:50:41Z</time></trkpt><trkpt lat="42.06083798620834" lon="13.028055343980954"><ele>611.0</ele><time>2026-04-03T09:50:42Z</time></trkpt><trkpt lat="42.060706502097105" lon="13.027534735152882"><ele>612.5</ele><time>2026-04-03T09:50:43Z</time></trkpt><trkpt lat="42.06056518981017" lon="13.026985658678447"><ele>614.0</ele><time>2026-04-03T09:50:44Z</time></trkpt><trkpt lat="42.06042189434522" lon="13.026391951503093"><ele>614.0</ele><time>2026-04-03T09:50:45Z</time></trkpt><trkpt lat="42.060299484188135" lon="13.025826467804494"><ele>614.0</ele><time>2026-04-03T09:50:46Z</time></trkpt><trkpt lat="42.06019023503335" lon="13.025334242167235"><ele>615.0</ele><time>2026-04-03T09:50:47Z</time></trkpt><trkpt lat="42.06008987910887" lon="13.024887921966858"><ele>616.0</ele><time>2026-04-03T09:50:48Z</time></trkpt><trkpt lat="42.05999478085312" lon="13.024471660907796"><ele>615.5</ele><time>2026-04-03T09:50:49Z</time></trkpt><trkpt lat="42.059897070206766" lon="13.024053553760325"><ele>615.0</ele><time>2026-04-03T09:50:50Z</time></trkpt><trkpt lat="42.059798280007406" lon="13.02362425620738"><ele>611.5</ele><time>2026-04-03T09:50:51Z</time></trkpt><trkpt lat="42.05970476899103" lon="13.023211833712947"><ele>608.0</ele><time>2026-04-03T09:50:52Z</time></trkpt><trkpt lat="42.059637432797196" lon="13.022812579198174"><ele>606.5</ele><time>2026-04-03T09:50:53Z</time></trkpt><trkpt lat="42.05962311465017" lon="13.022398151933276"><ele>605.0</ele><time>2026-04-03T09:50:54Z</time></trkpt><trkpt lat="42.05961436712579" lon="13.021950138880168"><ele>605.5</ele><time>2026-04-03T09:50:55Z</time></trkpt><trkpt lat="42.05960327580524" lon="13.021495990293658"><ele>606.0</ele><time>2026-04-03T09:50:56Z</time></trkpt><trkpt lat="42.05959616167077" lon="13.021049780511985"><ele>606.0</ele><time>2026-04-03T09:50:57Z</time></trkpt><trkpt lat="42.059588942391784" lon="13.020610573387762"><ele>606.0</ele><time>2026-04-03T09:50:58Z</time></trkpt><trkpt lat="42.059613023236516" lon="13.020169950660685"><ele>607.0</ele><time>2026-04-03T09:50:59Z</time></trkpt><trkpt lat="42.0596561082902" lon="13.01971802380126"><ele>608.0</ele><time>2026-04-03T09:51:00Z</time></trkpt><trkpt lat="42.0597061501927" lon="13.019265633637545"><ele>609.0</ele><time>2026-04-03T09:51:01Z</time></trkpt><trkpt lat="42.05975279470594" lon="13.018834528852782"><ele>610.0</ele><time>2026-04-03T09:51:02Z</time></trkpt><trkpt lat="42.05979939306789" lon="13.018362471208853"><ele>616.5</ele><time>2026-04-03T09:51:03Z</time></trkpt><trkpt lat="42.05984550494307" lon="13.017930184573848"><ele>623.0</ele><time>2026-04-03T09:51:04Z</time></trkpt><trkpt lat="42.05988538133817" lon="13.017509964047564"><ele>624.5</ele><time>2026-04-03T09:51:05Z</time></trkpt><trkpt lat="42.0599211460815" lon="13.017130131167319"><ele>626.0</ele><time>2026-04-03T09:51:06Z</time></trkpt><trkpt lat="42.05995020107425" lon="13.01677319369202"><ele>617.0</ele><time>2026-04-03T09:51:07Z</time></trkpt><trkpt lat="42.05993093753299" lon="13.016446080174909"><ele>608.0</ele><time>2026-04-03T09:51:08Z</time></trkpt><trkpt lat="42.05984886871963" lon="13.016159949100885"><ele>608.0</ele><time>2026-04-03T09:51:09Z</time></trkpt><trkpt lat="42.05974126326003" lon="13.015913962218113"><ele>608.0</ele><time>2026-04-03T09:51:10Z</time></trkpt><trkpt lat="42.059616902133634" lon="13.015685546232021"><ele>608.0</ele><time>2026-04-03T09:51:11Z</time></trkpt><trkpt lat="42.05945548456696" lon="13.015490893323681"><ele>604.0</ele><time>2026-04-03T09:51:12Z</time></trkpt><trkpt lat="42.05927168426697" lon="13.015338190304574"><ele>600.0</ele><time>2026-04-03T09:51:13Z</time></trkpt><trkpt lat="42.05905398209965" lon="13.015247233999018"><ele>596.0</ele><time>2026-04-03T09:51:14Z</time></trkpt><trkpt lat="42.05880607011429" lon="13.015211536641884"><ele>594.5</ele><time>2026-04-03T09:51:15Z</time></trkpt><trkpt lat="42.05855175596672" lon="13.0152157535768"><ele>593.0</ele><time>2026-04-03T09:51:16Z</time></trkpt><trkpt lat="42.058286408957635" lon="13.015245163571002"><ele>587.5</ele><time>2026-04-03T09:51:17Z</time></trkpt><trkpt lat="42.05799937683718" lon="13.015277106971288"><ele>582.0</ele><time>2026-04-03T09:51:18Z</time></trkpt><trkpt lat="42.05770487113339" lon="13.015309904661759"><ele>578.5</ele><time>2026-04-03T09:51:19Z</time></trkpt><trkpt lat="42.0573763929778" lon="13.015350285648273"><ele>575.0</ele><time>2026-04-03T09:51:20Z</time></trkpt><trkpt lat="42.05703276560957" lon="13.015387238802642"><ele>575.0</ele><time>2026-04-03T09:51:21Z</time></trkpt><trkpt lat="42.056684776668604" lon="13.015420772566555"><ele>575.0</ele><time>2026-04-03T09:51:22Z</time></trkpt><trkpt lat="42.05630932851636" lon="13.015460775925899"><ele>573.0</ele><time>2026-04-03T09:51:23Z</time></trkpt><trkpt lat="42.05593921143699" lon="13.015509796094166"><ele>571.0</ele><time>2026-04-03T09:51:24Z</time></trkpt><trkpt lat="42.05559905977744" lon="13.015542665539703"><ele>571.0</ele><time>2026-04-03T09:51:25Z</time></trkpt><trkpt lat="42.05525981159625" lon="13.015521205281491"><ele>571.0</ele><time>2026-04-03T09:51:26.001Z</time></trkpt><trkpt lat="42.054904658734905" lon="13.01545573175568"><ele>571.0</ele><time>2026-04-03T09:51:27.001Z</time></trkpt><trkpt lat="42.05453886277295" lon="13.015335132548712"><ele>571.0</ele><time>2026-04-03T09:51:28.001Z</time></trkpt><trkpt lat="42.05418606287688" lon="13.015153937569563"><ele>570.0</ele><time>2026-04-03T09:51:29.001Z</time></trkpt><trkpt lat="42.05381969343139" lon="13.014956132046963"><ele>569.0</ele><time>2026-04-03T09:51:30.001Z</time></trkpt><trkpt lat="42.05338531135311" lon="13.01476185821638"><ele>567.5</ele><time>2026-04-03T09:51:31.001Z</time></trkpt><trkpt lat="42.052972983587495" lon="13.014541234124552"><ele>566.0</ele><time>2026-04-03T09:51:32.001Z</time></trkpt><trkpt lat="42.05262681653877" lon="13.014314152860043"><ele>562.5</ele><time>2026-04-03T09:51:33.001Z</time></trkpt><trkpt lat="42.05233648064589" lon="13.014160795045347"><ele>559.0</ele><time>2026-04-03T09:51:34.001Z</time></trkpt><trkpt lat="42.052097139693934" lon="13.014043127960992"><ele>559.3333333333334</ele><time>2026-04-03T09:51:35.001Z</time></trkpt><trkpt lat="42.05191639850402" lon="13.013913195113728"><ele>559.6666666666666</ele><time>2026-04-03T09:51:36.001Z</time></trkpt><trkpt lat="42.051750623658954" lon="13.013717378075436"><ele>560.0</ele><time>2026-04-03T09:51:37.001Z</time></trkpt><trkpt lat="42.05159641598528" lon="13.01346583672921"><ele>573.0</ele><time>2026-04-03T09:51:38.001Z</time></trkpt><trkpt lat="42.05143573440792" lon="13.013233077095522"><ele>586.0</ele><time>2026-04-03T09:51:39.001Z</time></trkpt><trkpt lat="42.05125958086208" lon="13.013039208784633"><ele>586.0</ele><time>2026-04-03T09:51:40.001Z</time></trkpt><trkpt lat="42.0510544926923" lon="13.012901665936518"><ele>586.0</ele><time>2026-04-03T09:51:41.001Z</time></trkpt><trkpt lat="42.05089756965026" lon="13.01282198945626"><ele>586.0</ele><time>2026-04-03T09:51:42.001Z</time></trkpt><trkpt lat="42.050732338111125" lon="13.012792063263788"><ele>584.0</ele><time>2026-04-03T09:51:43.001Z</time></trkpt><trkpt lat="42.05055510830444" lon="13.012748315377287"><ele>582.0</ele><time>2026-04-03T09:51:44.001Z</time></trkpt><trkpt lat="42.050375522890356" lon="13.01262283628151"><ele>580.0</ele><time>2026-04-03T09:51:45.001Z</time></trkpt><trkpt lat="42.05015079807451" lon="13.012569436746071"><ele>580.5</ele><time>2026-04-03T09:51:46.001Z</time></trkpt><trkpt lat="42.04987677523476" lon="13.012514327438371"><ele>581.0</ele><time>2026-04-03T09:51:47.001Z</time></trkpt><trkpt lat="42.04963679926137" lon="13.012530187564094"><ele>581.0</ele><time>2026-04-03T09:51:48.001Z</time></trkpt><trkpt lat="42.04941360564833" lon="13.012631632514507"><ele>581.0</ele><time>2026-04-03T09:51:49.001Z</time></trkpt><trkpt lat="42.04922707021442" lon="13.012790363210907"><ele>582.0</ele><time>2026-04-03T09:51:50.001Z</time></trkpt><trkpt lat="42.04907231857259" lon="13.012946534927456"><ele>583.0</ele><time>2026-04-03T09:51:51.001Z</time></trkpt><trkpt lat="42.04896018456981" lon="13.013061902180509"><ele>584.0</ele><time>2026-04-03T09:51:52.001Z</time></trkpt><trkpt lat="42.048839942932446" lon="13.013155191304463"><ele>584.0</ele><time>2026-04-03T09:51:53.001Z</time></trkpt><trkpt lat="42.048711574815485" lon="13.013185473294575"><ele>584.0</ele><time>2026-04-03T09:51:54.001Z</time></trkpt><trkpt lat="42.04857204717216" lon="13.013254527975228"><ele>584.0</ele><time>2026-04-03T09:51:55.001Z</time></trkpt><trkpt lat="42.04839645283271" lon="13.013321522517952"><ele>577.0</ele><time>2026-04-03T09:51:56.001Z</time></trkpt><trkpt lat="42.0482190295898" lon="13.013387597256493"><ele>570.0</ele><time>2026-04-03T09:51:57.001Z</time></trkpt><trkpt lat="42.04808856859896" lon="13.013436499521823"><ele>563.0</ele><time>2026-04-03T09:51:58.001Z</time></trkpt><trkpt lat="42.0479971395542" lon="13.013516127362498"><ele>556.0</ele><time>2026-04-03T09:51:59.001Z</time></trkpt><trkpt lat="42.047921439010196" lon="13.013620536402124"><ele>556.0</ele><time>2026-04-03T09:52:00.001Z</time></trkpt><trkpt lat="42.04785433169737" lon="13.01373022202585"><ele>556.0</ele><time>2026-04-03T09:52:01.001Z</time></trkpt><trkpt lat="42.04777090500641" lon="13.013856174627303"><ele>556.0</ele><time>2026-04-03T09:52:02.001Z</time></trkpt><trkpt lat="42.0476325787826" lon="13.014034012998708"><ele>556.0</ele><time>2026-04-03T09:52:03.001Z</time></trkpt><trkpt lat="42.04750433854264" lon="13.014243402619087"><ele>554.0</ele><time>2026-04-03T09:52:04.001Z</time></trkpt><trkpt lat="42.04740789657374" lon="13.014353727879081"><ele>552.0</ele><time>2026-04-03T09:52:05.001Z</time></trkpt><trkpt lat="42.04732892634182" lon="13.01441562584813"><ele>550.0</ele><time>2026-04-03T09:52:07.001Z</time></trkpt><trkpt lat="42.047241150339914" lon="13.014426157860209"><ele>548.0</ele><time>2026-04-03T09:52:10.001Z</time></trkpt><trkpt lat="42.04717612809385" lon="13.014403832694468"><ele>546.0</ele><time>2026-04-03T09:52:11.001Z</time></trkpt><trkpt lat="42.04710445982669" lon="13.014313837457811"><ele>546.0</ele><time>2026-04-03T09:52:12.001Z</time></trkpt><trkpt lat="42.04704387846798" lon="13.014191522175736"><ele>546.0</ele><time>2026-04-03T09:52:13.001Z</time></trkpt><trkpt lat="42.046942281289326" lon="13.013982752938444"><ele>546.0</ele><time>2026-04-03T09:52:14.001Z</time></trkpt><trkpt lat="42.04683905077297" lon="13.013791308925077"><ele>547.0</ele><time>2026-04-03T09:52:15.001Z</time></trkpt><trkpt lat="42.04672365653696" lon="13.013635515902264"><ele>548.0</ele><time>2026-04-03T09:52:16.001Z</time></trkpt><trkpt lat="42.04658550940489" lon="13.013535996597124"><ele>549.0</ele><time>2026-04-03T09:52:17.001Z</time></trkpt><trkpt lat="42.04643834772072" lon="13.013511800838417"><ele>549.0</ele><time>2026-04-03T09:52:18.001Z</time></trkpt><trkpt lat="42.04630307888678" lon="13.013589127963078"><ele>549.0</ele><time>2026-04-03T09:52:19.001Z</time></trkpt><trkpt lat="42.046182161102756" lon="13.013780672862582"><ele>549.0</ele><time>2026-04-03T09:52:20.001Z</time></trkpt><trkpt lat="42.04607017248238" lon="13.014063279465258"><ele>546.0</ele><time>2026-04-03T09:52:21.001Z</time></trkpt><trkpt lat="42.045970357510065" lon="13.014363765914855"><ele>543.0</ele><time>2026-04-03T09:52:22.001Z</time></trkpt><trkpt lat="42.045918289308304" lon="13.014620477507655"><ele>540.0</ele><time>2026-04-03T09:52:23.001Z</time></trkpt><trkpt lat="42.04588668336062" lon="13.014838146848698"><ele>537.5</ele><time>2026-04-03T09:52:24.001Z</time></trkpt><trkpt lat="42.045822777784814" lon="13.015010543505246"><ele>535.0</ele><time>2026-04-03T09:52:25.001Z</time></trkpt><trkpt lat="42.04573061833304" lon="13.015105775671168"><ele>532.5</ele><time>2026-04-03T09:52:26.001Z</time></trkpt><trkpt lat="42.045593781713364" lon="13.015054548218286"><ele>530.0</ele><time>2026-04-03T09:52:27.001Z</time></trkpt><trkpt lat="42.04539475495621" lon="13.01503493456816"><ele>529.6666666666666</ele><time>2026-04-03T09:52:28.001Z</time></trkpt><trkpt lat="42.045201525849606" lon="13.014972307194924"><ele>529.3333333333334</ele><time>2026-04-03T09:52:29.001Z</time></trkpt><trkpt lat="42.04500362487587" lon="13.014856570702088"><ele>529.0</ele><time>2026-04-03T09:52:30.001Z</time></trkpt><trkpt lat="42.0448487353389" lon="13.014728083447661"><ele>529.0</ele><time>2026-04-03T09:52:31Z</time></trkpt><trkpt lat="42.04463901910102" lon="13.014711469201528"><ele>529.0</ele><time>2026-04-03T09:52:32Z</time></trkpt><trkpt lat="42.04437738976823" lon="13.014767820805007"><ele>529.0</ele><time>2026-04-03T09:52:33Z</time></trkpt><trkpt lat="42.04415907950388" lon="13.014766284228617"><ele>529.0</ele><time>2026-04-03T09:52:34Z</time></trkpt><trkpt lat="42.04399096077449" lon="13.014719683110878"><ele>529.0</ele><time>2026-04-03T09:52:35Z</time></trkpt><trkpt lat="42.04383386374786" lon="13.014572719316302"><ele>527.6666666666667</ele><time>2026-04-03T09:52:36Z</time></trkpt><trkpt lat="42.043645731039284" lon="13.01440396148435"><ele>526.3333333333334</ele><time>2026-04-03T09:52:37Z</time></trkpt><trkpt lat="42.043448561854674" lon="13.014293758985643"><ele>525.0</ele><time>2026-04-03T09:52:38Z</time></trkpt><trkpt lat="42.04320381365889" lon="13.01423537845391"><ele>523.3333333333334</ele><time>2026-04-03T09:52:39Z</time></trkpt><trkpt lat="42.042979329012255" lon="13.014220228080564"><ele>521.6666666666667</ele><time>2026-04-03T09:52:40Z</time></trkpt><trkpt lat="42.042789040457606" lon="13.01427623679946"><ele>520.0</ele><time>2026-04-03T09:52:41Z</time></trkpt><trkpt lat="42.04259099416214" lon="13.014363836174603"><ele>519.6666666666667</ele><time>2026-04-03T09:52:42Z</time></trkpt><trkpt lat="42.04241299390949" lon="13.014301856164906"><ele>519.3333333333334</ele><time>2026-04-03T09:52:43Z</time></trkpt><trkpt lat="42.04219815649888" lon="13.014208340045249"><ele>519.0</ele><time>2026-04-03T09:52:44Z</time></trkpt><trkpt lat="42.042002624801526" lon="13.014173336051698"><ele>519.0</ele><time>2026-04-03T09:52:45Z</time></trkpt><trkpt lat="42.04174439888602" lon="13.014217680554308"><ele>519.0</ele><time>2026-04-03T09:52:46Z</time></trkpt><trkpt lat="42.04151602717399" lon="13.014273336040993"><ele>523.0</ele><time>2026-04-03T09:52:47Z</time></trkpt><trkpt lat="42.04134997597875" lon="13.01434554659845"><ele>527.0</ele><time>2026-04-03T09:52:48Z</time></trkpt><trkpt lat="42.04118553418267" lon="13.0145129150105"><ele>531.0</ele><time>2026-04-03T09:52:49Z</time></trkpt><trkpt lat="42.04102088360652" lon="13.014770334406597"><ele>531.0</ele><time>2026-04-03T09:52:50Z</time></trkpt><trkpt lat="42.04086542388186" lon="13.014973509662363"><ele>531.0</ele><time>2026-04-03T09:52:51Z</time></trkpt><trkpt lat="42.04070340064942" lon="13.015080938721827"><ele>531.0</ele><time>2026-04-03T09:52:52Z</time></trkpt><trkpt lat="42.0404755825003" lon="13.015104325819372"><ele>520.5</ele><time>2026-04-03T09:52:53Z</time></trkpt><trkpt lat="42.04024073976928" lon="13.015175945978685"><ele>510.0</ele><time>2026-04-03T09:52:54Z</time></trkpt><trkpt lat="42.04005525873448" lon="13.015351482238438"><ele>504.0</ele><time>2026-04-03T09:52:55Z</time></trkpt><trkpt lat="42.03991505453889" lon="13.015510301739537"><ele>498.0</ele><time>2026-04-03T09:52:56Z</time></trkpt><trkpt lat="42.03976834445726" lon="13.015546845102277"><ele>492.0</ele><time>2026-04-03T09:52:57Z</time></trkpt><trkpt lat="42.03961563302003" lon="13.015506999121182"><ele>492.0</ele><time>2026-04-03T09:52:58Z</time></trkpt><trkpt lat="42.03946824775893" lon="13.015369069459398"><ele>492.0</ele><time>2026-04-03T09:52:59Z</time></trkpt><trkpt lat="42.03934029324616" lon="13.01517319595613"><ele>492.0</ele><time>2026-04-03T09:53:00Z</time></trkpt><trkpt lat="42.03921069062857" lon="13.014948797152977"><ele>491.8</ele><time>2026-04-03T09:53:01Z</time></trkpt><trkpt lat="42.039123642884114" lon="13.014744789381016"><ele>491.6</ele><time>2026-04-03T09:53:02Z</time></trkpt><trkpt lat="42.03908093361446" lon="13.014638371013401"><ele>491.40000000000003</ele><time>2026-04-03T09:53:03Z</time></trkpt><trkpt lat="42.039012271797866" lon="13.014586911993408"><ele>491.20000000000005</ele><time>2026-04-03T09:53:04Z</time></trkpt><trkpt lat="42.038912667396126" lon="13.014634836134237"><ele>491.0</ele><time>2026-04-03T09:53:05Z</time></trkpt><trkpt lat="42.03885631746856" lon="13.014775952954174"><ele>491.0</ele><time>2026-04-03T09:53:06Z</time></trkpt><trkpt lat="42.038882616527275" lon="13.014953262860168"><ele>491.0</ele><time>2026-04-03T09:53:07Z</time></trkpt><trkpt lat="42.038983816505606" lon="13.015162067540759"><ele>491.0</ele><time>2026-04-03T09:53:08Z</time></trkpt><trkpt lat="42.03913404773216" lon="13.015431485064349"><ele>491.3333333333333</ele><time>2026-04-03T09:53:09Z</time></trkpt><trkpt lat="42.03926103852758" lon="13.015679755668566"><ele>491.66666666666663</ele><time>2026-04-03T09:53:10Z</time></trkpt><trkpt lat="42.03935721231557" lon="13.01587395329471"><ele>492.0</ele><time>2026-04-03T09:53:11Z</time></trkpt><trkpt lat="42.03945075976442" lon="13.016035429020711"><ele>487.33333333333337</ele><time>2026-04-03T09:53:12Z</time></trkpt><trkpt lat="42.039568033085615" lon="13.016134846258193"><ele>482.6666666666667</ele><time>2026-04-03T09:53:13Z</time></trkpt><trkpt lat="42.03971143178843" lon="13.016145723877365"><ele>478.0</ele><time>2026-04-03T09:53:14Z</time></trkpt><trkpt lat="42.03988331052958" lon="13.016101011799856"><ele>479.0</ele><time>2026-04-03T09:53:15Z</time></trkpt><trkpt lat="42.040022156664385" lon="13.016069138786733"><ele>479.99999999999994</ele><time>2026-04-03T09:53:16Z</time></trkpt><trkpt lat="42.04011661054794" lon="13.01603164482042"><ele>480.99999999999994</ele><time>2026-04-03T09:53:17Z</time></trkpt><trkpt lat="42.04018396645134" lon="13.015964452898507"><ele>482.0</ele><time>2026-04-03T09:53:18Z</time></trkpt><trkpt lat="42.0402462220344" lon="13.015881732460919"><ele>483.0</ele><time>2026-04-03T09:53:19Z</time></trkpt><trkpt lat="42.04031330149074" lon="13.01582867866776"><ele>487.0</ele><time>2026-04-03T09:53:20Z</time></trkpt><trkpt lat="42.04039689776153" lon="13.015806226914506"><ele>491.0</ele><time>2026-04-03T09:53:21Z</time></trkpt><trkpt lat="42.04047606279739" lon="13.015800959757446"><ele>495.0</ele><time>2026-04-03T09:53:22Z</time></trkpt><trkpt lat="42.04056849137692" lon="13.015791359580335"><ele>499.0</ele><time>2026-04-03T09:53:23Z</time></trkpt><trkpt lat="42.04066368731784" lon="13.015784572371505"><ele>503.0</ele><time>2026-04-03T09:53:24Z</time></trkpt><trkpt lat="42.04075236182802" lon="13.015783664371483"><ele>507.0</ele><time>2026-04-03T09:53:25Z</time></trkpt><trkpt lat="42.04083493595749" lon="13.015775424457882"><ele>507.0</ele><time>2026-04-03T09:53:26Z</time></trkpt><trkpt lat="42.04091760609641" lon="13.01577717435301"><ele>507.0</ele><time>2026-04-03T09:53:27Z</time></trkpt><trkpt lat="42.040989962724005" lon="13.015779226745334"><ele>507.0</ele><time>2026-04-03T09:53:28Z</time></trkpt><trkpt lat="42.04107099874943" lon="13.015785317126873"><ele>507.0</ele><time>2026-04-03T09:53:29Z</time></trkpt><trkpt lat="42.041136370225736" lon="13.01579015145259"><ele>507.0</ele><time>2026-04-03T09:53:30Z</time></trkpt><trkpt lat="42.041245040654296" lon="13.015837732908446"><ele>507.0</ele><time>2026-04-03T09:53:32Z</time></trkpt><trkpt lat="42.04126807807376" lon="13.015957503142438"><ele>499.0</ele><time>2026-04-03T09:53:34Z</time></trkpt><trkpt lat="42.041145385286065" lon="13.01605607023827"><ele>491.0</ele><time>2026-04-03T09:53:36Z</time></trkpt><trkpt lat="42.041050966691564" lon="13.016088325242913"><ele>483.0</ele><time>2026-04-03T09:53:37Z</time></trkpt><trkpt lat="42.040747014791634" lon="13.016069005071623"><ele>483.0</ele><time>2026-04-03T09:53:38Z</time></trkpt><trkpt lat="42.040463954823174" lon="13.016131031154028"><ele>483.0</ele><time>2026-04-03T09:53:39Z</time></trkpt><trkpt lat="42.04026940608328" lon="13.016173510065935"><ele>483.0</ele><time>2026-04-03T09:53:40Z</time></trkpt><trkpt lat="42.04004990004991" lon="13.01630803287948"><ele>483.0</ele><time>2026-04-03T09:53:41.001Z</time></trkpt><trkpt lat="42.039837409206456" lon="13.016464914818737"><ele>481.33333333333337</ele><time>2026-04-03T09:53:42.001Z</time></trkpt><trkpt lat="42.03962396684838" lon="13.016594561139152"><ele>479.6666666666667</ele><time>2026-04-03T09:53:43.001Z</time></trkpt><trkpt lat="42.03942467121509" lon="13.016638097907267"><ele>478.0</ele><time>2026-04-03T09:53:44.001Z</time></trkpt><trkpt lat="42.03923219872706" lon="13.016538188511285"><ele>467.0</ele><time>2026-04-03T09:53:45.001Z</time></trkpt><trkpt lat="42.03903878719665" lon="13.016442792983353"><ele>456.0</ele><time>2026-04-03T09:53:46.001Z</time></trkpt><trkpt lat="42.03875628968851" lon="13.016329151835436"><ele>456.0</ele><time>2026-04-03T09:53:47.001Z</time></trkpt><trkpt lat="42.03856246220991" lon="13.01625891559651"><ele>456.0</ele><time>2026-04-03T09:53:48.001Z</time></trkpt><trkpt lat="42.038415017908086" lon="13.016141531853764"><ele>456.0</ele><time>2026-04-03T09:53:49.001Z</time></trkpt><trkpt lat="42.0384023528976" lon="13.016010786726346"><ele>454.66666666666663</ele><time>2026-04-03T09:53:50.001Z</time></trkpt><trkpt lat="42.038373438677475" lon="13.015792711907556"><ele>453.3333333333333</ele><time>2026-04-03T09:53:51.001Z</time></trkpt><trkpt lat="42.03823381403663" lon="13.01554441740087"><ele>452.0</ele><time>2026-04-03T09:53:52.001Z</time></trkpt><trkpt lat="42.03807145648879" lon="13.015339801781499"><ele>452.0</ele><time>2026-04-03T09:53:53.001Z</time></trkpt><trkpt lat="42.03793373813586" lon="13.015206667079886"><ele>452.0</ele><time>2026-04-03T09:53:54.001Z</time></trkpt><trkpt lat="42.03780963974613" lon="13.015143557561352"><ele>452.0</ele><time>2026-04-03T09:53:55.001Z</time></trkpt><trkpt lat="42.037653126514904" lon="13.015177427032269"><ele>452.0</ele><time>2026-04-03T09:53:56.001Z</time></trkpt><trkpt lat="42.03750450323493" lon="13.015163097151175"><ele>452.0</ele><time>2026-04-03T09:53:57.001Z</time></trkpt><trkpt lat="42.03739775735236" lon="13.015143174488724"><ele>452.0</ele><time>2026-04-03T09:53:58.001Z</time></trkpt><trkpt lat="42.037301534341836" lon="13.015093548360982"><ele>452.0</ele><time>2026-04-03T09:53:59.001Z</time></trkpt><trkpt lat="42.03721906595123" lon="13.014956999228938"><ele>451.3333333333333</ele><time>2026-04-03T09:54:00.001Z</time></trkpt><trkpt lat="42.03713634789761" lon="13.014782782205923"><ele>450.66666666666663</ele><time>2026-04-03T09:54:01.001Z</time></trkpt><trkpt lat="42.037065636391695" lon="13.014636338827458"><ele>450.0</ele><time>2026-04-03T09:54:02.001Z</time></trkpt><trkpt lat="42.036897661997415" lon="13.0142665439225"><ele>453.33333333333337</ele><time>2026-04-03T09:54:03.001Z</time></trkpt><trkpt lat="42.03677707951167" lon="13.014133245974808"><ele>456.6666666666667</ele><time>2026-04-03T09:54:04.001Z</time></trkpt><trkpt lat="42.03660830853161" lon="13.014104710414971"><ele>460.0</ele><time>2026-04-03T09:54:05.001Z</time></trkpt><trkpt lat="42.036423802811825" lon="13.014190392415992"><ele>449.0</ele><time>2026-04-03T09:54:06.001Z</time></trkpt><trkpt lat="42.03620701569391" lon="13.014278230891401"><ele>438.0</ele><time>2026-04-03T09:54:07.001Z</time></trkpt><trkpt lat="42.03596540340542" lon="13.014333320995004"><ele>438.0</ele><time>2026-04-03T09:54:08.001Z</time></trkpt><trkpt lat="42.03577822069546" lon="13.014276513643399"><ele>438.0</ele><time>2026-04-03T09:54:09.001Z</time></trkpt><trkpt lat="42.03553589341058" lon="13.014175059807293"><ele>438.0</ele><time>2026-04-03T09:54:10.001Z</time></trkpt><trkpt lat="42.03532802427306" lon="13.014065843424563"><ele>438.0</ele><time>2026-04-03T09:54:11.001Z</time></trkpt><trkpt lat="42.03518625570955" lon="13.013895103638568"><ele>438.0</ele><time>2026-04-03T09:54:12.001Z</time></trkpt><trkpt lat="42.03499405143492" lon="13.01364897382008"><ele>437.5</ele><time>2026-04-03T09:54:13.001Z</time></trkpt><trkpt lat="42.03479058622719" lon="13.013418566679103"><ele>437.0</ele><time>2026-04-03T09:54:14.001Z</time></trkpt><trkpt lat="42.034496658179975" lon="13.013149621345347"><ele>437.0</ele><time>2026-04-03T09:54:15.001Z</time></trkpt><trkpt lat="42.03429111898683" lon="13.012960314108653"><ele>437.0</ele><time>2026-04-03T09:54:16.001Z</time></trkpt><trkpt lat="42.034117469907585" lon="13.01280674553495"><ele>436.75</ele><time>2026-04-03T09:54:17.001Z</time></trkpt><trkpt lat="42.033995675480405" lon="13.012766761294598"><ele>436.5</ele><time>2026-04-03T09:54:18.001Z</time></trkpt><trkpt lat="42.03391949424309" lon="13.012845593383068"><ele>436.25</ele><time>2026-04-03T09:54:19.001Z</time></trkpt><trkpt lat="42.03374574686645" lon="13.013004640159172"><ele>436.0</ele><time>2026-04-03T09:54:20.001Z</time></trkpt><trkpt lat="42.03354583093478" lon="13.013163781493175"><ele>436.0</ele><time>2026-04-03T09:54:21.001Z</time></trkpt><trkpt lat="42.03337273127193" lon="13.013280632455121"><ele>436.0</ele><time>2026-04-03T09:54:22.001Z</time></trkpt><trkpt lat="42.03316014430539" lon="13.013357057795625"><ele>436.0</ele><time>2026-04-03T09:54:23.001Z</time></trkpt><trkpt lat="42.032808838830576" lon="13.013416909566722"><ele>431.0</ele><time>2026-04-03T09:54:24.001Z</time></trkpt><trkpt lat="42.03248653534111" lon="13.013466596196588"><ele>426.0</ele><time>2026-04-03T09:54:25.001Z</time></trkpt><trkpt lat="42.0322090756221" lon="13.013550527195475"><ele>426.0</ele><time>2026-04-03T09:54:26.001Z</time></trkpt><trkpt lat="42.031938999841785" lon="13.013702143505492"><ele>426.0</ele><time>2026-04-03T09:54:27.001Z</time></trkpt><trkpt lat="42.031613531871734" lon="13.013943437424736"><ele>421.5</ele><time>2026-04-03T09:54:28.001Z</time></trkpt><trkpt lat="42.03129647672335" lon="13.014161199750486"><ele>417.0</ele><time>2026-04-03T09:54:29.001Z</time></trkpt><trkpt lat="42.031031445357215" lon="13.014364332686347"><ele>417.0</ele><time>2026-04-03T09:54:30.001Z</time></trkpt><trkpt lat="42.03081004795886" lon="13.014530512691927"><ele>417.0</ele><time>2026-04-03T09:54:31.001Z</time></trkpt><trkpt lat="42.03061356843255" lon="13.014618011306416"><ele>419.33333333333337</ele><time>2026-04-03T09:54:32.001Z</time></trkpt><trkpt lat="42.03037879502392" lon="13.014663398269779"><ele>421.6666666666667</ele><time>2026-04-03T09:54:33.001Z</time></trkpt><trkpt lat="42.03020172619089" lon="13.014750597664484"><ele>424.0</ele><time>2026-04-03T09:54:34.001Z</time></trkpt><trkpt lat="42.03004047709186" lon="13.014939463010823"><ele>416.0</ele><time>2026-04-03T09:54:35.001Z</time></trkpt><trkpt lat="42.02989196759246" lon="13.015177652283398"><ele>408.0</ele><time>2026-04-03T09:54:36.001Z</time></trkpt><trkpt lat="42.029701798301275" lon="13.015514385973884"><ele>408.0</ele><time>2026-04-03T09:54:37Z</time></trkpt><trkpt lat="42.029487641369386" lon="13.015744961304836"><ele>408.0</ele><time>2026-04-03T09:54:38Z</time></trkpt><trkpt lat="42.02925058313359" lon="13.01598954478392"><ele>402.0</ele><time>2026-04-03T09:54:39Z</time></trkpt><trkpt lat="42.02904924979434" lon="13.016190592298738"><ele>396.0</ele><time>2026-04-03T09:54:40Z</time></trkpt><trkpt lat="42.02891446475162" lon="13.016294442249976"><ele>390.0</ele><time>2026-04-03T09:54:41Z</time></trkpt><trkpt lat="42.02874258719192" lon="13.016348795755592"><ele>390.0</ele><time>2026-04-03T09:54:42Z</time></trkpt><trkpt lat="42.02859975066495" lon="13.016362352995618"><ele>390.0</ele><time>2026-04-03T09:54:43Z</time></trkpt><trkpt lat="42.02844973461178" lon="13.016174722769875"><ele>390.0</ele><time>2026-04-03T09:54:44Z</time></trkpt><trkpt lat="42.02828444987589" lon="13.015967619576246"><ele>385.5</ele><time>2026-04-03T09:54:45Z</time></trkpt><trkpt lat="42.02805476668941" lon="13.015854843955847"><ele>381.0</ele><time>2026-04-03T09:54:46Z</time></trkpt><trkpt lat="42.02783866416586" lon="13.015872823071398"><ele>381.0</ele><time>2026-04-03T09:54:47Z</time></trkpt><trkpt lat="42.027625481581666" lon="13.015975227161455"><ele>381.0</ele><time>2026-04-03T09:54:48Z</time></trkpt><trkpt lat="42.027412479771755" lon="13.01613680811724"><ele>379.3333333333333</ele><time>2026-04-03T09:54:49Z</time></trkpt><trkpt lat="42.02719154473771" lon="13.016195030100244"><ele>377.66666666666663</ele><time>2026-04-03T09:54:50Z</time></trkpt><trkpt lat="42.02700704102886" lon="13.016178486192805"><ele>376.0</ele><time>2026-04-03T09:54:51Z</time></trkpt><trkpt lat="42.02679611073835" lon="13.016129778646016"><ele>373.3333333333333</ele><time>2026-04-03T09:54:52Z</time></trkpt><trkpt lat="42.02662805587597" lon="13.01604111081199"><ele>370.6666666666667</ele><time>2026-04-03T09:54:53Z</time></trkpt><trkpt lat="42.026513527296395" lon="13.015907242492412"><ele>368.0</ele><time>2026-04-03T09:54:54Z</time></trkpt><trkpt lat="42.02631629009513" lon="13.015641022223791"><ele>368.0</ele><time>2026-04-03T09:54:55Z</time></trkpt><trkpt lat="42.026140755485926" lon="13.015437191082867"><ele>368.0</ele><time>2026-04-03T09:54:56Z</time></trkpt><trkpt lat="42.02596352525458" lon="13.015316673416253"><ele>368.0</ele><time>2026-04-03T09:54:57Z</time></trkpt><trkpt lat="42.025783775657374" lon="13.015307153304601"><ele>364.33333333333337</ele><time>2026-04-03T09:54:58Z</time></trkpt><trkpt lat="42.025613878591706" lon="13.0154336884901"><ele>360.6666666666667</ele><time>2026-04-03T09:54:59Z</time></trkpt><trkpt lat="42.025427896512355" lon="13.01562772723933"><ele>357.0</ele><time>2026-04-03T09:55:00Z</time></trkpt><trkpt lat="42.02524012960771" lon="13.015775668590459"><ele>357.0</ele><time>2026-04-03T09:55:01Z</time></trkpt><trkpt lat="42.025025067578845" lon="13.015836652295665"><ele>357.0</ele><time>2026-04-03T09:55:02Z</time></trkpt><trkpt lat="42.024782239762764" lon="13.016009689968573"><ele>354.5</ele><time>2026-04-03T09:55:03Z</time></trkpt><trkpt lat="42.02448002382539" lon="13.015889903419678"><ele>352.0</ele><time>2026-04-03T09:55:04Z</time></trkpt><trkpt lat="42.02433642183082" lon="13.01590822250879"><ele>352.0</ele><time>2026-04-03T09:55:05Z</time></trkpt><trkpt lat="42.024280357895144" lon="13.015837688957495"><ele>352.0</ele><time>2026-04-03T09:55:06Z</time></trkpt><trkpt lat="42.024312961388" lon="13.015725977910279"><ele>352.0</ele><time>2026-04-03T09:55:07Z</time></trkpt><trkpt lat="42.02436819771978" lon="13.015564319436876"><ele>352.0</ele><time>2026-04-03T09:55:08Z</time></trkpt><trkpt lat="42.02450088613365" lon="13.015482766370125"><ele>352.0</ele><time>2026-04-03T09:55:09Z</time></trkpt><trkpt lat="42.02469027821345" lon="13.015391307145862"><ele>350.66666666666663</ele><time>2026-04-03T09:55:10Z</time></trkpt><trkpt lat="42.02485939961972" lon="13.015257529577674"><ele>349.3333333333333</ele><time>2026-04-03T09:55:11Z</time></trkpt><trkpt lat="42.02493774030793" lon="13.015034213464977"><ele>348.0</ele><time>2026-04-03T09:55:12Z</time></trkpt><trkpt lat="42.024942920378955" lon="13.014730764103032"><ele>347.5</ele><time>2026-04-03T09:55:13Z</time></trkpt><trkpt lat="42.02492151078214" lon="13.014405670825223"><ele>347.0</ele><time>2026-04-03T09:55:14Z</time></trkpt><trkpt lat="42.02480128942138" lon="13.014176621310067"><ele>348.0</ele><time>2026-04-03T09:55:15Z</time></trkpt><trkpt lat="42.02461630389311" lon="13.01400210630288"><ele>349.0</ele><time>2026-04-03T09:55:16Z</time></trkpt><trkpt lat="42.024385488145974" lon="13.013846966185584"><ele>343.5</ele><time>2026-04-03T09:55:17Z</time></trkpt><trkpt lat="42.02412814185707" lon="13.013605474072133"><ele>338.0</ele><time>2026-04-03T09:55:18Z</time></trkpt><trkpt lat="42.024008968195254" lon="13.013363959376406"><ele>338.25</ele><time>2026-04-03T09:55:19Z</time></trkpt><trkpt lat="42.023919114520474" lon="13.013093600595512"><ele>338.5</ele><time>2026-04-03T09:55:20Z</time></trkpt><trkpt lat="42.02383883324405" lon="13.01296812894234"><ele>338.75</ele><time>2026-04-03T09:55:21Z</time></trkpt><trkpt lat="42.023746974925125" lon="13.012927913694096"><ele>339.0</ele><time>2026-04-03T09:55:22Z</time></trkpt><trkpt lat="42.02358421070573" lon="13.012813883940671"><ele>339.0</ele><time>2026-04-03T09:55:23Z</time></trkpt><trkpt lat="42.023371875420054" lon="13.012578820952982"><ele>339.0</ele><time>2026-04-03T09:55:24Z</time></trkpt><trkpt lat="42.02316151913898" lon="13.012282253398155"><ele>336.0</ele><time>2026-04-03T09:55:25Z</time></trkpt><trkpt lat="42.022941832401074" lon="13.011888165508578"><ele>333.0</ele><time>2026-04-03T09:55:26Z</time></trkpt><trkpt lat="42.022756761716835" lon="13.011454598439837"><ele>333.0</ele><time>2026-04-03T09:55:27Z</time></trkpt><trkpt lat="42.022594423073485" lon="13.011099110054584"><ele>333.0</ele><time>2026-04-03T09:55:28Z</time></trkpt><trkpt lat="42.02244993362182" lon="13.0107741794953"><ele>329.5</ele><time>2026-04-03T09:55:29Z</time></trkpt><trkpt lat="42.02226890487796" lon="13.010483988980663"><ele>326.0</ele><time>2026-04-03T09:55:30Z</time></trkpt><trkpt lat="42.02204997356585" lon="13.01018942330673"><ele>327.5</ele><time>2026-04-03T09:55:31Z</time></trkpt><trkpt lat="42.02185477332151" lon="13.009918503009333"><ele>329.0</ele><time>2026-04-03T09:55:32Z</time></trkpt><trkpt lat="42.02168544516507" lon="13.009667180110524"><ele>327.0</ele><time>2026-04-03T09:55:33Z</time></trkpt><trkpt lat="42.021574270051296" lon="13.009415440671285"><ele>325.0</ele><time>2026-04-03T09:55:34Z</time></trkpt><trkpt lat="42.02152341792033" lon="13.009150822191717"><ele>323.0</ele><time>2026-04-03T09:55:35Z</time></trkpt><trkpt lat="42.02154163774113" lon="13.008814907506924"><ele>323.0</ele><time>2026-04-03T09:55:36Z</time></trkpt><trkpt lat="42.02150735957475" lon="13.008456205940748"><ele>323.0</ele><time>2026-04-03T09:55:37Z</time></trkpt><trkpt lat="42.021405262141336" lon="13.008069055608955"><ele>323.5</ele><time>2026-04-03T09:55:38Z</time></trkpt><trkpt lat="42.02123127205588" lon="13.007710316607021"><ele>324.0</ele><time>2026-04-03T09:55:39Z</time></trkpt><trkpt lat="42.02106129184566" lon="13.007391836436733"><ele>325.0</ele><time>2026-04-03T09:55:40Z</time></trkpt><trkpt lat="42.02087554290686" lon="13.007057789698301"><ele>326.0</ele><time>2026-04-03T09:55:41Z</time></trkpt><trkpt lat="42.02066951612022" lon="13.006657648317093"><ele>326.0</ele><time>2026-04-03T09:55:42Z</time></trkpt><trkpt lat="42.02046621414812" lon="13.006253835934416"><ele>326.0</ele><time>2026-04-03T09:55:43Z</time></trkpt><trkpt lat="42.0202701681079" lon="13.005865471224435"><ele>326.0</ele><time>2026-04-03T09:55:44Z</time></trkpt><trkpt lat="42.020066442652194" lon="13.005464736788033"><ele>326.0</ele><time>2026-04-03T09:55:45Z</time></trkpt><trkpt lat="42.01985433257318" lon="13.005051457195771"><ele>326.5</ele><time>2026-04-03T09:55:46Z</time></trkpt><trkpt lat="42.01963686987911" lon="13.004631250460012"><ele>327.0</ele><time>2026-04-03T09:55:47Z</time></trkpt><trkpt lat="42.019447314406875" lon="13.004252602713043"><ele>326.5</ele><time>2026-04-03T09:55:48Z</time></trkpt><trkpt lat="42.019279083107925" lon="13.003914212795703"><ele>326.0</ele><time>2026-04-03T09:55:49.001Z</time></trkpt><trkpt lat="42.01911449854898" lon="13.003596923723686"><ele>326.5</ele><time>2026-04-03T09:55:50.001Z</time></trkpt><trkpt lat="42.01896731733753" lon="13.00330219515915"><ele>327.0</ele><time>2026-04-03T09:55:51.001Z</time></trkpt><trkpt lat="42.01884206932275" lon="13.002983923313478"><ele>327.0</ele><time>2026-04-03T09:55:52.001Z</time></trkpt><trkpt lat="42.01874319824981" lon="13.002666796194829"><ele>327.0</ele><time>2026-04-03T09:55:53.001Z</time></trkpt><trkpt lat="42.0186720634357" lon="13.002346276089291"><ele>327.0</ele><time>2026-04-03T09:55:54.001Z</time></trkpt><trkpt lat="42.01863556970358" lon="13.002043421360298"><ele>327.0</ele><time>2026-04-03T09:55:55.001Z</time></trkpt><trkpt lat="42.01860977963726" lon="13.00176518318973"><ele>327.0</ele><time>2026-04-03T09:55:56.001Z</time></trkpt><trkpt lat="42.01862353076534" lon="13.001502384126285"><ele>327.0</ele><time>2026-04-03T09:55:57.001Z</time></trkpt><trkpt lat="42.01864589010432" lon="13.001261255811821"><ele>327.0</ele><time>2026-04-03T09:55:58.001Z</time></trkpt><trkpt lat="42.018684584660946" lon="13.001043393330807"><ele>327.0</ele><time>2026-04-03T09:55:59.001Z</time></trkpt><trkpt lat="42.018750448606454" lon="13.000798786640443"><ele>327.5</ele><time>2026-04-03T09:56:00.001Z</time></trkpt><trkpt lat="42.01881988851803" lon="13.000491094478917"><ele>328.0</ele><time>2026-04-03T09:56:01.001Z</time></trkpt><trkpt lat="42.01888973122569" lon="13.000186012446811"><ele>328.0</ele><time>2026-04-03T09:56:02.001Z</time></trkpt><trkpt lat="42.0189555032677" lon="12.999855531614898"><ele>328.0</ele><time>2026-04-03T09:56:03.001Z</time></trkpt><trkpt lat="42.01903796609469" lon="12.999528717585019"><ele>328.0</ele><time>2026-04-03T09:56:04.001Z</time></trkpt><trkpt lat="42.019110833927925" lon="12.999188888927476"><ele>328.0</ele><time>2026-04-03T09:56:05.001Z</time></trkpt><trkpt lat="42.019185931930295" lon="12.998853597602123"><ele>329.5</ele><time>2026-04-03T09:56:06.001Z</time></trkpt><trkpt lat="42.01926267164828" lon="12.998526425085418"><ele>331.0</ele><time>2026-04-03T09:56:07.001Z</time></trkpt><trkpt lat="42.01933671253565" lon="12.998180876455928"><ele>331.0</ele><time>2026-04-03T09:56:08.001Z</time></trkpt><trkpt lat="42.0194148126046" lon="12.997824076027817"><ele>331.0</ele><time>2026-04-03T09:56:09.001Z</time></trkpt><trkpt lat="42.019514403459425" lon="12.997460378222547"><ele>330.0</ele><time>2026-04-03T09:56:10.001Z</time></trkpt><trkpt lat="42.01962927814846" lon="12.997092909069975"><ele>329.0</ele><time>2026-04-03T09:56:11.001Z</time></trkpt><trkpt lat="42.01974267897962" lon="12.996751912692874"><ele>327.5</ele><time>2026-04-03T09:56:12.001Z</time></trkpt><trkpt lat="42.019858482963386" lon="12.996421239410793"><ele>326.0</ele><time>2026-04-03T09:56:13.001Z</time></trkpt><trkpt lat="42.01998076515718" lon="12.996113854071044"><ele>327.5</ele><time>2026-04-03T09:56:14.001Z</time></trkpt><trkpt lat="42.020109290018475" lon="12.995813023668573"><ele>329.0</ele><time>2026-04-03T09:56:15.001Z</time></trkpt><trkpt lat="42.02025176902866" lon="12.995481306573124"><ele>329.0</ele><time>2026-04-03T09:56:16.001Z</time></trkpt><trkpt lat="42.02040497270785" lon="12.995143225425169"><ele>329.0</ele><time>2026-04-03T09:56:17.001Z</time></trkpt><trkpt lat="42.02056512584235" lon="12.994805267556638"><ele>329.5</ele><time>2026-04-03T09:56:18.001Z</time></trkpt><trkpt lat="42.020734873594016" lon="12.994468400480965"><ele>330.0</ele><time>2026-04-03T09:56:19.001Z</time></trkpt><trkpt lat="42.0209046061015" lon="12.99412296674455"><ele>330.0</ele><time>2026-04-03T09:56:20.001Z</time></trkpt><trkpt lat="42.021074057132495" lon="12.993768361413995"><ele>330.0</ele><time>2026-04-03T09:56:21.001Z</time></trkpt><trkpt lat="42.021235187177105" lon="12.993429561789045"><ele>327.0</ele><time>2026-04-03T09:56:22.001Z</time></trkpt><trkpt lat="42.021394770719226" lon="12.993084978861761"><ele>324.0</ele><time>2026-04-03T09:56:23.001Z</time></trkpt><trkpt lat="42.021548733630375" lon="12.992748111851744"><ele>327.5</ele><time>2026-04-03T09:56:24.001Z</time></trkpt><trkpt lat="42.02169130655639" lon="12.99243696168677"><ele>331.0</ele><time>2026-04-03T09:56:25.001Z</time></trkpt><trkpt lat="42.02182500579307" lon="12.992144944727729"><ele>331.0</ele><time>2026-04-03T09:56:26.001Z</time></trkpt><trkpt lat="42.02196550928001" lon="12.991848376760668"><ele>331.0</ele><time>2026-04-03T09:56:27.001Z</time></trkpt><trkpt lat="42.02210498590839" lon="12.991568501161286"><ele>329.0</ele><time>2026-04-03T09:56:28.001Z</time></trkpt><trkpt lat="42.02222748887718" lon="12.991317903679297"><ele>327.0</ele><time>2026-04-03T09:56:29.001Z</time></trkpt><trkpt lat="42.02233756826669" lon="12.991080911274775"><ele>325.0</ele><time>2026-04-03T09:56:30.001Z</time></trkpt><trkpt lat="42.02243690033965" lon="12.990863096432637"><ele>329.0</ele><time>2026-04-03T09:56:31.001Z</time></trkpt><trkpt lat="42.02253152921152" lon="12.990659262296802"><ele>333.0</ele><time>2026-04-03T09:56:32.001Z</time></trkpt><trkpt lat="42.02261512285672" lon="12.990471087182033"><ele>337.0</ele><time>2026-04-03T09:56:33.001Z</time></trkpt><trkpt lat="42.022702970475216" lon="12.990298209906982"><ele>337.0</ele><time>2026-04-03T09:56:34.001Z</time></trkpt><trkpt lat="42.02280437382594" lon="12.990116826769881"><ele>337.0</ele><time>2026-04-03T09:56:35.001Z</time></trkpt><trkpt lat="42.022911344169216" lon="12.989933922581828"><ele>337.0</ele><time>2026-04-03T09:56:36.001Z</time></trkpt><trkpt lat="42.02304787178489" lon="12.9897774574608"><ele>336.66666666666663</ele><time>2026-04-03T09:56:37.001Z</time></trkpt><trkpt lat="42.023195202666756" lon="12.989593514775386"><ele>336.3333333333333</ele><time>2026-04-03T09:56:38.001Z</time></trkpt><trkpt lat="42.02338715591434" lon="12.989408755394987"><ele>336.0</ele><time>2026-04-03T09:56:39.001Z</time></trkpt><trkpt lat="42.023588381003016" lon="12.989183233781382"><ele>332.5</ele><time>2026-04-03T09:56:40.001Z</time></trkpt><trkpt lat="42.023792190951696" lon="12.988945012666358"><ele>329.0</ele><time>2026-04-03T09:56:41.001Z</time></trkpt><trkpt lat="42.02398044848738" lon="12.988685338176111"><ele>329.0</ele><time>2026-04-03T09:56:42.001Z</time></trkpt><trkpt lat="42.02413914629602" lon="12.988360296756102"><ele>329.0</ele><time>2026-04-03T09:56:43Z</time></trkpt><trkpt lat="42.02425119646496" lon="12.988000120537754"><ele>328.5</ele><time>2026-04-03T09:56:44Z</time></trkpt><trkpt lat="42.024313051024215" lon="12.987592058021063"><ele>328.0</ele><time>2026-04-03T09:56:45Z</time></trkpt><trkpt lat="42.02434684429754" lon="12.987095698298745"><ele>327.0</ele><time>2026-04-03T09:56:46Z</time></trkpt><trkpt lat="42.024359829088766" lon="12.986534332223492"><ele>326.0</ele><time>2026-04-03T09:56:47Z</time></trkpt><trkpt lat="42.0243997260993" lon="12.986048492293554"><ele>327.0</ele><time>2026-04-03T09:56:48Z</time></trkpt><trkpt lat="42.024363240563126" lon="12.985575278820981"><ele>328.0</ele><time>2026-04-03T09:56:49Z</time></trkpt><trkpt lat="42.02449053187063" lon="12.98505501980893"><ele>326.0</ele><time>2026-04-03T09:56:50Z</time></trkpt><trkpt lat="42.024596289804364" lon="12.984604397925786"><ele>324.0</ele><time>2026-04-03T09:56:51Z</time></trkpt><trkpt lat="42.02474861802177" lon="12.984180093984982"><ele>321.0</ele><time>2026-04-03T09:56:52Z</time></trkpt><trkpt lat="42.024933668553416" lon="12.983781644495428"><ele>318.0</ele><time>2026-04-03T09:56:53Z</time></trkpt><trkpt lat="42.025151814946945" lon="12.983414044700655"><ele>321.0</ele><time>2026-04-03T09:56:54Z</time></trkpt><trkpt lat="42.02543200653619" lon="12.98304116033252"><ele>324.0</ele><time>2026-04-03T09:56:55Z</time></trkpt><trkpt lat="42.02576749581131" lon="12.982605990674639"><ele>323.0</ele><time>2026-04-03T09:56:56Z</time></trkpt><trkpt lat="42.02610869521984" lon="12.9821428951498"><ele>323.0</ele><time>2026-04-03T09:56:57Z</time></trkpt><trkpt lat="42.026401648095934" lon="12.981740232635175"><ele>323.0</ele><time>2026-04-03T09:56:58Z</time></trkpt><trkpt lat="42.026662201854045" lon="12.98137829619115"><ele>322.5</ele><time>2026-04-03T09:56:59Z</time></trkpt><trkpt lat="42.02689877490109" lon="12.980990044707212"><ele>322.0</ele><time>2026-04-03T09:57:00Z</time></trkpt><trkpt lat="42.02710089559115" lon="12.980590615670433"><ele>322.0</ele><time>2026-04-03T09:57:01Z</time></trkpt><trkpt lat="42.0272542908295" lon="12.980175572263049"><ele>322.0</ele><time>2026-04-03T09:57:02Z</time></trkpt><trkpt lat="42.02735355863966" lon="12.9797168391201"><ele>321.0</ele><time>2026-04-03T09:57:03Z</time></trkpt><trkpt lat="42.027416549633" lon="12.979178688745176"><ele>320.0</ele><time>2026-04-03T09:57:04Z</time></trkpt><trkpt lat="42.02745150560665" lon="12.978613461853348"><ele>320.0</ele><time>2026-04-03T09:57:05Z</time></trkpt><trkpt lat="42.027465203200265" lon="12.978106536679231"><ele>320.0</ele><time>2026-04-03T09:57:06Z</time></trkpt><trkpt lat="42.027492885774265" lon="12.977657438056767"><ele>323.5</ele><time>2026-04-03T09:57:07Z</time></trkpt><trkpt lat="42.02753302338652" lon="12.977263928844714"><ele>327.0</ele><time>2026-04-03T09:57:08Z</time></trkpt><trkpt lat="42.02757249741607" lon="12.976908958811457"><ele>325.5</ele><time>2026-04-03T09:57:09Z</time></trkpt><trkpt lat="42.027625969834226" lon="12.976607941183758"><ele>324.0</ele><time>2026-04-03T09:57:10Z</time></trkpt><trkpt lat="42.027746112504545" lon="12.97633735766717"><ele>324.0</ele><time>2026-04-03T09:57:11Z</time></trkpt><trkpt lat="42.02793070621572" lon="12.97611628233926"><ele>324.0</ele><time>2026-04-03T09:57:12Z</time></trkpt><trkpt lat="42.02817181782576" lon="12.975943562454884"><ele>325.0</ele><time>2026-04-03T09:57:13Z</time></trkpt><trkpt lat="42.02845925355185" lon="12.975835536829132"><ele>326.0</ele><time>2026-04-03T09:57:14Z</time></trkpt><trkpt lat="42.02876803949427" lon="12.975759537034266"><ele>326.0</ele><time>2026-04-03T09:57:15Z</time></trkpt><trkpt lat="42.02902929841424" lon="12.975684846266091"><ele>326.0</ele><time>2026-04-03T09:57:16Z</time></trkpt><trkpt lat="42.02925213081285" lon="12.975527594694915"><ele>324.5</ele><time>2026-04-03T09:57:17Z</time></trkpt><trkpt lat="42.029440855573405" lon="12.975291185673099"><ele>323.0</ele><time>2026-04-03T09:57:18Z</time></trkpt><trkpt lat="42.02957637098121" lon="12.974991636553755"><ele>323.0</ele><time>2026-04-03T09:57:19Z</time></trkpt><trkpt lat="42.02969386966599" lon="12.974625281419254"><ele>323.0</ele><time>2026-04-03T09:57:20Z</time></trkpt><trkpt lat="42.02983327554123" lon="12.974351015579062"><ele>326.0</ele><time>2026-04-03T09:57:21Z</time></trkpt><trkpt lat="42.03001302870098" lon="12.974170540652919"><ele>329.0</ele><time>2026-04-03T09:57:22Z</time></trkpt><trkpt lat="42.03022884464055" lon="12.974006972913186"><ele>329.0</ele><time>2026-04-03T09:57:23Z</time></trkpt><trkpt lat="42.0304217275624" lon="12.973864332201094"><ele>329.0</ele><time>2026-04-03T09:57:24Z</time></trkpt><trkpt lat="42.03062330957367" lon="12.973707837994247"><ele>326.5</ele><time>2026-04-03T09:57:25Z</time></trkpt><trkpt lat="42.030859239009885" lon="12.973504919981155"><ele>324.0</ele><time>2026-04-03T09:57:26Z</time></trkpt><trkpt lat="42.03107555747821" lon="12.97324928511867"><ele>324.0</ele><time>2026-04-03T09:57:27Z</time></trkpt><trkpt lat="42.031280545290436" lon="12.972918211625506"><ele>324.0</ele><time>2026-04-03T09:57:28Z</time></trkpt><trkpt lat="42.031475571298984" lon="12.972583496153451"><ele>325.5</ele><time>2026-04-03T09:57:29Z</time></trkpt><trkpt lat="42.03165946993314" lon="12.972267029290476"><ele>327.0</ele><time>2026-04-03T09:57:30Z</time></trkpt><trkpt lat="42.031808071488776" lon="12.97188884862897"><ele>324.0</ele><time>2026-04-03T09:57:31Z</time></trkpt><trkpt lat="42.031936226251986" lon="12.971505635212909"><ele>321.0</ele><time>2026-04-03T09:57:32Z</time></trkpt><trkpt lat="42.03205010514042" lon="12.97118446371409"><ele>321.0</ele><time>2026-04-03T09:57:33Z</time></trkpt><trkpt lat="42.03219862124453" lon="12.970961894772648"><ele>321.0</ele><time>2026-04-03T09:57:34Z</time></trkpt><trkpt lat="42.032393186231985" lon="12.970799445140816"><ele>319.5</ele><time>2026-04-03T09:57:35Z</time></trkpt><trkpt lat="42.03264237306408" lon="12.970659139727537"><ele>318.0</ele><time>2026-04-03T09:57:36Z</time></trkpt><trkpt lat="42.032918827271274" lon="12.970469023391773"><ele>318.0</ele><time>2026-04-03T09:57:37Z</time></trkpt><trkpt lat="42.03323904321156" lon="12.970203336861477"><ele>318.0</ele><time>2026-04-03T09:57:38Z</time></trkpt><trkpt lat="42.033466274367115" lon="12.970000241084241"><ele>319.0</ele><time>2026-04-03T09:57:39Z</time></trkpt><trkpt lat="42.033661742811645" lon="12.969824290147026"><ele>320.0</ele><time>2026-04-03T09:57:40Z</time></trkpt><trkpt lat="42.03383487118967" lon="12.96958532396285"><ele>320.0</ele><time>2026-04-03T09:57:41Z</time></trkpt><trkpt lat="42.033937611192314" lon="12.969319607581033"><ele>320.0</ele><time>2026-04-03T09:57:42Z</time></trkpt><trkpt lat="42.03393629802512" lon="12.969077900783768"><ele>320.0</ele><time>2026-04-03T09:57:43Z</time></trkpt><trkpt lat="42.033843787920674" lon="12.968637565856232"><ele>321.0</ele><time>2026-04-03T09:57:44Z</time></trkpt><trkpt lat="42.033714501195625" lon="12.968089923786097"><ele>322.0</ele><time>2026-04-03T09:57:45Z</time></trkpt><trkpt lat="42.03360262839707" lon="12.967589522685824"><ele>323.5</ele><time>2026-04-03T09:57:46Z</time></trkpt><trkpt lat="42.03351507901429" lon="12.967176243149684"><ele>325.0</ele><time>2026-04-03T09:57:47Z</time></trkpt><trkpt lat="42.03349134825825" lon="12.966756222181246"><ele>324.0</ele><time>2026-04-03T09:57:48Z</time></trkpt><trkpt lat="42.03350298174468" lon="12.966428192835707"><ele>323.0</ele><time>2026-04-03T09:57:49Z</time></trkpt><trkpt lat="42.033563044077674" lon="12.966056222366545"><ele>322.5</ele><time>2026-04-03T09:57:50Z</time></trkpt><trkpt lat="42.033643467490556" lon="12.965684967786947"><ele>322.0</ele><time>2026-04-03T09:57:51Z</time></trkpt><trkpt lat="42.03377422114164" lon="12.965264429420753"><ele>323.0</ele><time>2026-04-03T09:57:52Z</time></trkpt><trkpt lat="42.03398986049264" lon="12.964709886985817"><ele>323.0</ele><time>2026-04-03T09:57:53Z</time></trkpt><trkpt lat="42.03413972578279" lon="12.964276744028957"><ele>323.0</ele><time>2026-04-03T09:57:54Z</time></trkpt><trkpt lat="42.03425699696947" lon="12.9638298552136"><ele>322.5</ele><time>2026-04-03T09:57:55Z</time></trkpt><trkpt lat="42.03437718963058" lon="12.963363159186107"><ele>322.0</ele><time>2026-04-03T09:57:56Z</time></trkpt><trkpt lat="42.034468800334224" lon="12.962972715308588"><ele>322.0</ele><time>2026-04-03T09:57:57Z</time></trkpt><trkpt lat="42.03452460911272" lon="12.962560536091756"><ele>322.0</ele><time>2026-04-03T09:57:58Z</time></trkpt><trkpt lat="42.03451526118398" lon="12.962177717418154"><ele>321.5</ele><time>2026-04-03T09:57:59Z</time></trkpt><trkpt lat="42.03450419664012" lon="12.96175391109206"><ele>321.0</ele><time>2026-04-03T09:58:00Z</time></trkpt><trkpt lat="42.034570854260075" lon="12.96145819988774"><ele>321.0</ele><time>2026-04-03T09:58:01Z</time></trkpt><trkpt lat="42.0347105328687" lon="12.961172620715079"><ele>321.0</ele><time>2026-04-03T09:58:02Z</time></trkpt><trkpt lat="42.034888838234544" lon="12.960862238537324"><ele>323.5</ele><time>2026-04-03T09:58:03Z</time></trkpt><trkpt lat="42.03508405767218" lon="12.960445075359946"><ele>326.0</ele><time>2026-04-03T09:58:04Z</time></trkpt><trkpt lat="42.03523855483415" lon="12.960124471066688"><ele>323.5</ele><time>2026-04-03T09:58:05Z</time></trkpt><trkpt lat="42.03540381481052" lon="12.959851620014717"><ele>321.0</ele><time>2026-04-03T09:58:06Z</time></trkpt><trkpt lat="42.035591318619424" lon="12.959720228461967"><ele>325.5</ele><time>2026-04-03T09:58:07.001Z</time></trkpt><trkpt lat="42.03582192338516" lon="12.959603466475656"><ele>330.0</ele><time>2026-04-03T09:58:08.001Z</time></trkpt><trkpt lat="42.036141589714944" lon="12.959502434568373"><ele>330.0</ele><time>2026-04-03T09:58:09.001Z</time></trkpt><trkpt lat="42.03648981602871" lon="12.95935652143524"><ele>330.0</ele><time>2026-04-03T09:58:10.001Z</time></trkpt><trkpt lat="42.03677790991898" lon="12.959248705450639"><ele>325.0</ele><time>2026-04-03T09:58:11.001Z</time></trkpt><trkpt lat="42.03703239206817" lon="12.95912649900949"><ele>320.0</ele><time>2026-04-03T09:58:12.001Z</time></trkpt><trkpt lat="42.03723567101526" lon="12.958890269172473"><ele>320.0</ele><time>2026-04-03T09:58:13.001Z</time></trkpt><trkpt lat="42.03752138358258" lon="12.958582236676927"><ele>320.0</ele><time>2026-04-03T09:58:14.001Z</time></trkpt><trkpt lat="42.037764949476234" lon="12.958354427776671"><ele>320.0</ele><time>2026-04-03T09:58:15.001Z</time></trkpt><trkpt lat="42.037971857556855" lon="12.958105048908731"><ele>320.0</ele><time>2026-04-03T09:58:16.001Z</time></trkpt><trkpt lat="42.03804440777096" lon="12.957887915050016"><ele>320.0</ele><time>2026-04-03T09:58:17.001Z</time></trkpt><trkpt lat="42.038122279220886" lon="12.957574968955939"><ele>320.0</ele><time>2026-04-03T09:58:18.001Z</time></trkpt><trkpt lat="42.03813521496988" lon="12.957233282379676"><ele>319.0</ele><time>2026-04-03T09:58:19.001Z</time></trkpt><trkpt lat="42.03806685915641" lon="12.95688683279624"><ele>318.0</ele><time>2026-04-03T09:58:20.001Z</time></trkpt><trkpt lat="42.037911362940655" lon="12.956464232933124"><ele>317.5</ele><time>2026-04-03T09:58:21.001Z</time></trkpt><trkpt lat="42.03773513071812" lon="12.956017044980861"><ele>317.0</ele><time>2026-04-03T09:58:22.001Z</time></trkpt><trkpt lat="42.037577932019914" lon="12.955599190143543"><ele>317.0</ele><time>2026-04-03T09:58:23.001Z</time></trkpt><trkpt lat="42.03743089951076" lon="12.955194334800723"><ele>317.0</ele><time>2026-04-03T09:58:24.001Z</time></trkpt><trkpt lat="42.037228572716565" lon="12.954804204691321"><ele>317.0</ele><time>2026-04-03T09:58:25.001Z</time></trkpt><trkpt lat="42.037026193686316" lon="12.954408677213143"><ele>317.0</ele><time>2026-04-03T09:58:26.001Z</time></trkpt><trkpt lat="42.03686265216872" lon="12.954078395988411"><ele>317.5</ele><time>2026-04-03T09:58:27.001Z</time></trkpt><trkpt lat="42.036712570925516" lon="12.95376483866069"><ele>318.0</ele><time>2026-04-03T09:58:28.001Z</time></trkpt><trkpt lat="42.03651112275347" lon="12.953377215067025"><ele>317.0</ele><time>2026-04-03T09:58:29.001Z</time></trkpt><trkpt lat="42.03631078134024" lon="12.952963879777457"><ele>316.0</ele><time>2026-04-03T09:58:30.001Z</time></trkpt><trkpt lat="42.036112446354124" lon="12.9525603994007"><ele>315.0</ele><time>2026-04-03T09:58:31.001Z</time></trkpt><trkpt lat="42.03588731994409" lon="12.952119040823227"><ele>314.0</ele><time>2026-04-03T09:58:32.001Z</time></trkpt><trkpt lat="42.03564198349526" lon="12.951670240435515"><ele>313.0</ele><time>2026-04-03T09:58:33.001Z</time></trkpt><trkpt lat="42.03540466964619" lon="12.951272741490184"><ele>312.0</ele><time>2026-04-03T09:58:34.001Z</time></trkpt><trkpt lat="42.03518787449683" lon="12.950934275360424"><ele>312.0</ele><time>2026-04-03T09:58:35.001Z</time></trkpt><trkpt lat="42.0349726885887" lon="12.950623910452098"><ele>312.0</ele><time>2026-04-03T09:58:36.001Z</time></trkpt><trkpt lat="42.03481187104204" lon="12.950325016209932"><ele>313.5</ele><time>2026-04-03T09:58:37.001Z</time></trkpt><trkpt lat="42.03468004775335" lon="12.94995530888717"><ele>315.0</ele><time>2026-04-03T09:58:38.001Z</time></trkpt><trkpt lat="42.0346098216124" lon="12.949560181548737"><ele>315.0</ele><time>2026-04-03T09:58:39.001Z</time></trkpt><trkpt lat="42.03451200114275" lon="12.94911296427754"><ele>315.0</ele><time>2026-04-03T09:58:40.001Z</time></trkpt><trkpt lat="42.03444913136175" lon="12.948662382679327"><ele>316.5</ele><time>2026-04-03T09:58:41.001Z</time></trkpt><trkpt lat="42.03436467230055" lon="12.948220985487652"><ele>318.0</ele><time>2026-04-03T09:58:42.001Z</time></trkpt><trkpt lat="42.03424028535097" lon="12.947781079476451"><ele>314.0</ele><time>2026-04-03T09:58:43.001Z</time></trkpt><trkpt lat="42.03410653487114" lon="12.94741869017921"><ele>310.0</ele><time>2026-04-03T09:58:44.001Z</time></trkpt><trkpt lat="42.03403412373071" lon="12.947060134835429"><ele>310.0</ele><time>2026-04-03T09:58:45.001Z</time></trkpt><trkpt lat="42.03402969910546" lon="12.946715702441036"><ele>310.0</ele><time>2026-04-03T09:58:46.001Z</time></trkpt><trkpt lat="42.03394838487724" lon="12.946408095685381"><ele>311.0</ele><time>2026-04-03T09:58:47.001Z</time></trkpt><trkpt lat="42.033783430801364" lon="12.946127848409091"><ele>312.0</ele><time>2026-04-03T09:58:48.001Z</time></trkpt><trkpt lat="42.03358514374973" lon="12.945941155957028"><ele>313.0</ele><time>2026-04-03T09:58:49Z</time></trkpt><trkpt lat="42.033340873886694" lon="12.945818193109801"><ele>314.0</ele><time>2026-04-03T09:58:50Z</time></trkpt><trkpt lat="42.03305695929148" lon="12.9457607237531"><ele>314.0</ele><time>2026-04-03T09:58:51Z</time></trkpt><trkpt lat="42.032731790054655" lon="12.945731885452673"><ele>314.0</ele><time>2026-04-03T09:58:52Z</time></trkpt><trkpt lat="42.032462707604495" lon="12.945687219153651"><ele>311.5</ele><time>2026-04-03T09:58:53Z</time></trkpt><trkpt lat="42.03222481443938" lon="12.945608160527977"><ele>309.0</ele><time>2026-04-03T09:58:54Z</time></trkpt><trkpt lat="42.032006940625465" lon="12.945443466823038"><ele>309.0</ele><time>2026-04-03T09:58:55Z</time></trkpt><trkpt lat="42.031765639012185" lon="12.945166343757196"><ele>309.0</ele><time>2026-04-03T09:58:56Z</time></trkpt><trkpt lat="42.031531212139825" lon="12.944920926222437"><ele>310.0</ele><time>2026-04-03T09:58:57Z</time></trkpt><trkpt lat="42.031282747246614" lon="12.94470554836307"><ele>311.0</ele><time>2026-04-03T09:58:58Z</time></trkpt><trkpt lat="42.03098034151734" lon="12.944595382962266"><ele>309.5</ele><time>2026-04-03T09:58:59Z</time></trkpt><trkpt lat="42.03062785953389" lon="12.944526224459475"><ele>308.0</ele><time>2026-04-03T09:59:00Z</time></trkpt><trkpt lat="42.03031575875967" lon="12.944431147376735"><ele>308.0</ele><time>2026-04-03T09:59:01Z</time></trkpt><trkpt lat="42.02999559671294" lon="12.944304963495133"><ele>308.0</ele><time>2026-04-03T09:59:02Z</time></trkpt><trkpt lat="42.02966483439301" lon="12.944136951392961"><ele>307.5</ele><time>2026-04-03T09:59:03Z</time></trkpt><trkpt lat="42.02937557417895" lon="12.94393852800195"><ele>307.0</ele><time>2026-04-03T09:59:04Z</time></trkpt><trkpt lat="42.029131309271484" lon="12.94376415248795"><ele>308.0</ele><time>2026-04-03T09:59:05Z</time></trkpt><trkpt lat="42.028918715007315" lon="12.943608485561846"><ele>309.0</ele><time>2026-04-03T09:59:06Z</time></trkpt><trkpt lat="42.02873852276381" lon="12.943403510697195"><ele>307.5</ele><time>2026-04-03T09:59:07Z</time></trkpt><trkpt lat="42.02858557592752" lon="12.943097791196493"><ele>306.0</ele><time>2026-04-03T09:59:08Z</time></trkpt><trkpt lat="42.02848062077041" lon="12.942722663102883"><ele>304.0</ele><time>2026-04-03T09:59:09Z</time></trkpt><trkpt lat="42.02841538059511" lon="12.942283470057237"><ele>302.0</ele><time>2026-04-03T09:59:10Z</time></trkpt><trkpt lat="42.028389998009594" lon="12.941764628381092"><ele>301.5</ele><time>2026-04-03T09:59:11Z</time></trkpt><trkpt lat="42.028375300668145" lon="12.94117123600847"><ele>301.0</ele><time>2026-04-03T09:59:12Z</time></trkpt><trkpt lat="42.02837857607229" lon="12.940632943050625"><ele>301.0</ele><time>2026-04-03T09:59:13Z</time></trkpt><trkpt lat="42.02835662096814" lon="12.940056747392143"><ele>301.0</ele><time>2026-04-03T09:59:14Z</time></trkpt><trkpt lat="42.028315853512204" lon="12.939570457633046"><ele>301.0</ele><time>2026-04-03T09:59:15Z</time></trkpt><trkpt lat="42.02825945813993" lon="12.939114768185778"><ele>301.0</ele><time>2026-04-03T09:59:16Z</time></trkpt><trkpt lat="42.028179888378816" lon="12.938655617020673"><ele>302.0</ele><time>2026-04-03T09:59:17Z</time></trkpt><trkpt lat="42.02806621006432" lon="12.93821251457523"><ele>303.0</ele><time>2026-04-03T09:59:18Z</time></trkpt><trkpt lat="42.027922829069254" lon="12.937732678695268"><ele>303.5</ele><time>2026-04-03T09:59:19Z</time></trkpt><trkpt lat="42.02774825890424" lon="12.937268260877591"><ele>304.0</ele><time>2026-04-03T09:59:20Z</time></trkpt><trkpt lat="42.02753994468538" lon="12.936800878429334"><ele>304.0</ele><time>2026-04-03T09:59:21Z</time></trkpt><trkpt lat="42.02729926727503" lon="12.936353350399639"><ele>304.0</ele><time>2026-04-03T09:59:22Z</time></trkpt><trkpt lat="42.02702649451423" lon="12.935887340326984"><ele>304.5</ele><time>2026-04-03T09:59:23Z</time></trkpt><trkpt lat="42.02676268005742" lon="12.935419734148384"><ele>305.0</ele><time>2026-04-03T09:59:24Z</time></trkpt><trkpt lat="42.02648205319418" lon="12.934927071590453"><ele>306.0</ele><time>2026-04-03T09:59:25Z</time></trkpt><trkpt lat="42.02619825530711" lon="12.934418288644837"><ele>310.0</ele><time>2026-04-03T09:59:26Z</time></trkpt><trkpt lat="42.02589631568443" lon="12.933881894779688"><ele>300.0</ele><time>2026-04-03T09:59:27Z</time></trkpt><trkpt lat="42.025616309033936" lon="12.933394664068581"><ele>303.0</ele><time>2026-04-03T09:59:28Z</time></trkpt><trkpt lat="42.02534323772231" lon="12.932913715590006"><ele>305.5</ele><time>2026-04-03T09:59:29Z</time></trkpt><trkpt lat="42.025087918720374" lon="12.932473519097263"><ele>308.0</ele><time>2026-04-03T09:59:30Z</time></trkpt><trkpt lat="42.024833563422" lon="12.932027398514034"><ele>305.0</ele><time>2026-04-03T09:59:31Z</time></trkpt><trkpt lat="42.02460965684452" lon="12.931640444485613"><ele>302.0</ele><time>2026-04-03T09:59:32Z</time></trkpt><trkpt lat="42.02439020093337" lon="12.931283347842323"><ele>302.0</ele><time>2026-04-03T09:59:33Z</time></trkpt><trkpt lat="42.02415345725661" lon="12.930922077548175"><ele>302.0</ele><time>2026-04-03T09:59:34Z</time></trkpt><trkpt lat="42.02385166885408" lon="12.930547547896383"><ele>300.5</ele><time>2026-04-03T09:59:35Z</time></trkpt><trkpt lat="42.02352210794377" lon="12.930156947515702"><ele>299.0</ele><time>2026-04-03T09:59:36Z</time></trkpt><trkpt lat="42.02320057429864" lon="12.929799735207324"><ele>297.5</ele><time>2026-04-03T09:59:37Z</time></trkpt><trkpt lat="42.022900898856975" lon="12.929492340464932"><ele>296.0</ele><time>2026-04-03T09:59:38Z</time></trkpt><trkpt lat="42.02262020996971" lon="12.929237685268898"><ele>297.0</ele><time>2026-04-03T09:59:39Z</time></trkpt><trkpt lat="42.02235306221283" lon="12.92900445888584"><ele>298.0</ele><time>2026-04-03T09:59:40Z</time></trkpt><trkpt lat="42.02209564005675" lon="12.928811947019204"><ele>298.0</ele><time>2026-04-03T09:59:41Z</time></trkpt><trkpt lat="42.021855020279496" lon="12.928645113719332"><ele>298.0</ele><time>2026-04-03T09:59:42Z</time></trkpt><trkpt lat="42.021634250024526" lon="12.928490032181648"><ele>300.0</ele><time>2026-04-03T09:59:43Z</time></trkpt><trkpt lat="42.02141543507722" lon="12.928326537028786"><ele>302.0</ele><time>2026-04-03T09:59:44Z</time></trkpt><trkpt lat="42.02118961538005" lon="12.928156362939582"><ele>302.0</ele><time>2026-04-03T09:59:45Z</time></trkpt><trkpt lat="42.020960566695024" lon="12.927985448466929"><ele>302.0</ele><time>2026-04-03T09:59:46Z</time></trkpt><trkpt lat="42.02073374555738" lon="12.927805470916061"><ele>300.5</ele><time>2026-04-03T09:59:47Z</time></trkpt><trkpt lat="42.020520722951304" lon="12.927627121669627"><ele>299.0</ele><time>2026-04-03T09:59:48Z</time></trkpt><trkpt lat="42.02031152080466" lon="12.92745335357934"><ele>299.0</ele><time>2026-04-03T09:59:49Z</time></trkpt><trkpt lat="42.02010479070784" lon="12.927281523685544"><ele>299.0</ele><time>2026-04-03T09:59:50Z</time></trkpt><trkpt lat="42.0199041885594" lon="12.927114160776357"><ele>296.5</ele><time>2026-04-03T09:59:51Z</time></trkpt><trkpt lat="42.01970722202401" lon="12.92695101433403"><ele>294.0</ele><time>2026-04-03T09:59:52Z</time></trkpt><trkpt lat="42.01950808392675" lon="12.92679463300635"><ele>295.0</ele><time>2026-04-03T09:59:53Z</time></trkpt><trkpt lat="42.01931258709148" lon="12.926644766548902"><ele>296.0</ele><time>2026-04-03T09:59:54Z</time></trkpt><trkpt lat="42.01912291695777" lon="12.926465793951431"><ele>296.0</ele><time>2026-04-03T09:59:55Z</time></trkpt><trkpt lat="42.01892450553468" lon="12.926324145393849"><ele>296.0</ele><time>2026-04-03T09:59:56Z</time></trkpt><trkpt lat="42.018744186846575" lon="12.926158882832187"><ele>296.0</ele><time>2026-04-03T09:59:57Z</time></trkpt><trkpt lat="42.01857548844157" lon="12.92598481400594"><ele>297.0</ele><time>2026-04-03T09:59:58Z</time></trkpt><trkpt lat="42.018424582329494" lon="12.92579339354077"><ele>298.0</ele><time>2026-04-03T09:59:59Z</time></trkpt><trkpt lat="42.01828161799699" lon="12.925597113607314"><ele>299.0</ele><time>2026-04-03T10:00:00Z</time></trkpt><trkpt lat="42.01813863934377" lon="12.92540958404374"><ele>299.0</ele><time>2026-04-03T10:00:01Z</time></trkpt><trkpt lat="42.01801173170479" lon="12.925227250501166"><ele>299.0</ele><time>2026-04-03T10:00:02Z</time></trkpt><trkpt lat="42.01790769459941" lon="12.925036254629351"><ele>299.0</ele><time>2026-04-03T10:00:03Z</time></trkpt><trkpt lat="42.01782406839488" lon="12.92481347161537"><ele>299.0</ele><time>2026-04-03T10:00:04Z</time></trkpt><trkpt lat="42.01776030465595" lon="12.924591522999407"><ele>299.0</ele><time>2026-04-03T10:00:05Z</time></trkpt><trkpt lat="42.01770328132355" lon="12.924348909084028"><ele>299.0</ele><time>2026-04-03T10:00:06Z</time></trkpt><trkpt lat="42.01764365989679" lon="12.924105414069755"><ele>299.0</ele><time>2026-04-03T10:00:07Z</time></trkpt><trkpt lat="42.01757649196426" lon="12.923863923047369"><ele>299.0</ele><time>2026-04-03T10:00:08Z</time></trkpt><trkpt lat="42.01751153750982" lon="12.923620915907566"><ele>299.0</ele><time>2026-04-03T10:00:09.001Z</time></trkpt><trkpt lat="42.01744690809216" lon="12.923379343967035"><ele>299.6666666666667</ele><time>2026-04-03T10:00:10.001Z</time></trkpt><trkpt lat="42.01737864038323" lon="12.9231273641848"><ele>300.3333333333333</ele><time>2026-04-03T10:00:11.001Z</time></trkpt><trkpt lat="42.017316790084394" lon="12.922871207755888"><ele>301.0</ele><time>2026-04-03T10:00:12.001Z</time></trkpt><trkpt lat="42.01725533641999" lon="12.922611903503878"><ele>301.66666666666663</ele><time>2026-04-03T10:00:13.001Z</time></trkpt><trkpt lat="42.01718230224318" lon="12.922333930931332"><ele>302.3333333333333</ele><time>2026-04-03T10:00:14.001Z</time></trkpt><trkpt lat="42.01710756078378" lon="12.92205809589878"><ele>303.0</ele><time>2026-04-03T10:00:15.001Z</time></trkpt><trkpt lat="42.017036111306155" lon="12.921763879309449"><ele>304.5</ele><time>2026-04-03T10:00:16.001Z</time></trkpt><trkpt lat="42.01696439329517" lon="12.921469379176628"><ele>306.0</ele><time>2026-04-03T10:00:17.001Z</time></trkpt><trkpt lat="42.01688716330844" lon="12.921170328002825"><ele>307.0</ele><time>2026-04-03T10:00:18.001Z</time></trkpt><trkpt lat="42.016803388278646" lon="12.920874867477275"><ele>308.0</ele><time>2026-04-03T10:00:19.001Z</time></trkpt><trkpt lat="42.01671786791255" lon="12.920578525287391"><ele>305.5</ele><time>2026-04-03T10:00:20.001Z</time></trkpt><trkpt lat="42.016638852176456" lon="12.92027499647724"><ele>303.0</ele><time>2026-04-03T10:00:21.001Z</time></trkpt><trkpt lat="42.01656258335602" lon="12.91996602270019"><ele>303.0</ele><time>2026-04-03T10:00:22.001Z</time></trkpt><trkpt lat="42.016487261747564" lon="12.919666709498918"><ele>303.0</ele><time>2026-04-03T10:00:23.001Z</time></trkpt><trkpt lat="42.01641051354951" lon="12.919371698748742"><ele>305.0</ele><time>2026-04-03T10:00:24.001Z</time></trkpt><trkpt lat="42.01633221658823" lon="12.919079201282335"><ele>307.0</ele><time>2026-04-03T10:00:25.001Z</time></trkpt><trkpt lat="42.0162546030727" lon="12.918798225636076"><ele>307.0</ele><time>2026-04-03T10:00:26.001Z</time></trkpt><trkpt lat="42.0161810052123" lon="12.91851462041419"><ele>307.0</ele><time>2026-04-03T10:00:27.001Z</time></trkpt><trkpt lat="42.01611599157325" lon="12.918264638617563"><ele>307.0</ele><time>2026-04-03T10:00:28.001Z</time></trkpt><trkpt lat="42.01605458658766" lon="12.918035884219115"><ele>308.66666666666663</ele><time>2026-04-03T10:00:29.001Z</time></trkpt><trkpt lat="42.015999842405456" lon="12.917821394118276"><ele>310.3333333333333</ele><time>2026-04-03T10:00:30.001Z</time></trkpt><trkpt lat="42.01594638701647" lon="12.917604064219633"><ele>312.0</ele><time>2026-04-03T10:00:31.001Z</time></trkpt><trkpt lat="42.01588335418563" lon="12.917361100082037"><ele>310.3333333333333</ele><time>2026-04-03T10:00:32.001Z</time></trkpt><trkpt lat="42.01581876774328" lon="12.917105934262334"><ele>308.66666666666663</ele><time>2026-04-03T10:00:33.001Z</time></trkpt><trkpt lat="42.01575106605484" lon="12.916832001576424"><ele>307.0</ele><time>2026-04-03T10:00:34.001Z</time></trkpt><trkpt lat="42.01567995568264" lon="12.916553437865634"><ele>307.0</ele><time>2026-04-03T10:00:35.001Z</time></trkpt><trkpt lat="42.01560250492496" lon="12.916268834569161"><ele>307.0</ele><time>2026-04-03T10:00:36.001Z</time></trkpt><trkpt lat="42.01552792675763" lon="12.915982591476759"><ele>309.5</ele><time>2026-04-03T10:00:37.001Z</time></trkpt><trkpt lat="42.015450531521566" lon="12.91567136399355"><ele>312.0</ele><time>2026-04-03T10:00:38.001Z</time></trkpt><trkpt lat="42.01536510858201" lon="12.915358274204026"><ele>317.5</ele><time>2026-04-03T10:00:39.001Z</time></trkpt><trkpt lat="42.01527821059702" lon="12.91504417477013"><ele>323.0</ele><time>2026-04-03T10:00:40.001Z</time></trkpt><trkpt lat="42.01522486793211" lon="12.914718515204646"><ele>323.0</ele><time>2026-04-03T10:00:41.001Z</time></trkpt><trkpt lat="42.015161125629035" lon="12.914401117208309"><ele>323.0</ele><time>2026-04-03T10:00:42.001Z</time></trkpt><trkpt lat="42.015162754742875" lon="12.914066859480066"><ele>325.5</ele><time>2026-04-03T10:00:43.001Z</time></trkpt><trkpt lat="42.01517835100927" lon="12.91374399066113"><ele>328.0</ele><time>2026-04-03T10:00:44.001Z</time></trkpt><trkpt lat="42.01522609126218" lon="12.913412283724375"><ele>330.0</ele><time>2026-04-03T10:00:45.001Z</time></trkpt><trkpt lat="42.01528444594004" lon="12.913074346199387"><ele>332.0</ele><time>2026-04-03T10:00:46.001Z</time></trkpt><trkpt lat="42.01535838087908" lon="12.912758077599914"><ele>334.0</ele><time>2026-04-03T10:00:47.001Z</time></trkpt><trkpt lat="42.0154269391468" lon="12.912458925982412"><ele>336.0</ele><time>2026-04-03T10:00:48.001Z</time></trkpt><trkpt lat="42.015499734516254" lon="12.912170167986654"><ele>336.0</ele><time>2026-04-03T10:00:49.001Z</time></trkpt><trkpt lat="42.01557347227553" lon="12.911877519173997"><ele>336.0</ele><time>2026-04-03T10:00:50.001Z</time></trkpt><trkpt lat="42.01564651954702" lon="12.911583625847955"><ele>336.5</ele><time>2026-04-03T10:00:51.001Z</time></trkpt><trkpt lat="42.0157172966259" lon="12.911288444915659"><ele>337.0</ele><time>2026-04-03T10:00:52.001Z</time></trkpt><trkpt lat="42.01579058998983" lon="12.910991087760612"><ele>337.5</ele><time>2026-04-03T10:00:53.001Z</time></trkpt><trkpt lat="42.01586807392694" lon="12.910682754668285"><ele>338.0</ele><time>2026-04-03T10:00:54.001Z</time></trkpt><trkpt lat="42.015939803560094" lon="12.91038997938046"><ele>338.0</ele><time>2026-04-03T10:00:55Z</time></trkpt><trkpt lat="42.01600554549063" lon="12.910125693489363"><ele>338.0</ele><time>2026-04-03T10:00:56Z</time></trkpt><trkpt lat="42.016077547969516" lon="12.909879008886428"><ele>338.0</ele><time>2026-04-03T10:00:57Z</time></trkpt><trkpt lat="42.01616519927858" lon="12.909632104758037"><ele>338.0</ele><time>2026-04-03T10:00:58Z</time></trkpt><trkpt lat="42.01626659325005" lon="12.909374293454713"><ele>338.0</ele><time>2026-04-03T10:00:59Z</time></trkpt><trkpt lat="42.016359654656476" lon="12.90914096024453"><ele>338.0</ele><time>2026-04-03T10:01:00Z</time></trkpt><trkpt lat="42.016441529016554" lon="12.908934276950752"><ele>337.4</ele><time>2026-04-03T10:01:01Z</time></trkpt><trkpt lat="42.01650927301454" lon="12.908770865617079"><ele>336.79999999999995</ele><time>2026-04-03T10:01:02Z</time></trkpt><trkpt lat="42.016564218942605" lon="12.908651070697417"><ele>336.2</ele><time>2026-04-03T10:01:03Z</time></trkpt><trkpt lat="42.01660990780076" lon="12.908544159336378"><ele>335.6</ele><time>2026-04-03T10:01:07Z</time></trkpt><trkpt lat="42.01666840829729" lon="12.90847066380047"><ele>335.0</ele><time>2026-04-03T10:01:09Z</time></trkpt><trkpt lat="42.01674498189402" lon="12.908385420811886"><ele>335.0</ele><time>2026-04-03T10:01:12Z</time></trkpt><trkpt lat="42.01683670094942" lon="12.908303500101217"><ele>335.0</ele><time>2026-04-03T10:01:14Z</time></trkpt><trkpt lat="42.01691249878665" lon="12.90824452882524"><ele>335.0</ele><time>2026-04-03T10:01:15Z</time></trkpt><trkpt lat="42.017014017730666" lon="12.908171441958086"><ele>335.0</ele><time>2026-04-03T10:01:16Z</time></trkpt><trkpt lat="42.01717253108108" lon="12.908092694170888"><ele>335.0</ele><time>2026-04-03T10:01:17Z</time></trkpt><trkpt lat="42.017361867132045" lon="12.907994694472826"><ele>335.0</ele><time>2026-04-03T10:01:18Z</time></trkpt><trkpt lat="42.01755041045542" lon="12.90787132030372"><ele>335.0</ele><time>2026-04-03T10:01:19Z</time></trkpt><trkpt lat="42.01768537490038" lon="12.907755193962082"><ele>336.33333333333337</ele><time>2026-04-03T10:01:20Z</time></trkpt><trkpt lat="42.01778761089248" lon="12.907617502975723"><ele>337.6666666666667</ele><time>2026-04-03T10:01:21Z</time></trkpt><trkpt lat="42.01787403894862" lon="12.907448813167534"><ele>339.0</ele><time>2026-04-03T10:01:22Z</time></trkpt><trkpt lat="42.017966574328845" lon="12.907233706738962"><ele>339.0</ele><time>2026-04-03T10:01:23Z</time></trkpt><trkpt lat="42.018075447456084" lon="12.90698968010235"><ele>339.0</ele><time>2026-04-03T10:01:24Z</time></trkpt><trkpt lat="42.01819889160281" lon="12.906736658893744"><ele>339.0</ele><time>2026-04-03T10:01:25Z</time></trkpt><trkpt lat="42.01831748587478" lon="12.906505984610705"><ele>339.5</ele><time>2026-04-03T10:01:26Z</time></trkpt><trkpt lat="42.01840682982554" lon="12.906335811065619"><ele>340.0</ele><time>2026-04-03T10:01:27Z</time></trkpt><trkpt lat="42.01847385812959" lon="12.906207928090616"><ele>340.5</ele><time>2026-04-03T10:01:28Z</time></trkpt><trkpt lat="42.018533518902885" lon="12.906096404857024"><ele>341.0</ele><time>2026-04-03T10:01:29Z</time></trkpt><trkpt lat="42.018586556214075" lon="12.905993711043367"><ele>339.83333333333337</ele><time>2026-04-03T10:01:30Z</time></trkpt><trkpt lat="42.018633581131816" lon="12.905897587497819"><ele>338.6666666666667</ele><time>2026-04-03T10:01:31Z</time></trkpt><trkpt lat="42.0186734589652" lon="12.905811207610288"><ele>337.5</ele><time>2026-04-03T10:01:32Z</time></trkpt><trkpt lat="42.01871346379524" lon="12.90572832036755"><ele>336.3333333333333</ele><time>2026-04-03T10:01:33Z</time></trkpt><trkpt lat="42.018749955823154" lon="12.90565814544595"><ele>335.16666666666663</ele><time>2026-04-03T10:01:34Z</time></trkpt><trkpt lat="42.01883112766743" lon="12.90553043187855"><ele>334.0</ele><time>2026-04-03T10:01:36Z</time></trkpt><trkpt lat="42.018889803234536" lon="12.90541375859485"><ele>334.0</ele><time>2026-04-03T10:01:38Z</time></trkpt><trkpt lat="42.018969841556604" lon="12.905368632548251"><ele>334.0</ele><time>2026-04-03T10:02:48.001Z</time></trkpt><trkpt lat="42.0190741419277" lon="12.905461964400532"><ele>334.0</ele><time>2026-04-03T10:02:49.001Z</time></trkpt><trkpt lat="42.01919786358082" lon="12.905537454963426"><ele>334.0</ele><time>2026-04-03T10:02:50.001Z</time></trkpt><trkpt lat="42.01935886758622" lon="12.905566840120468"><ele>336.66666666666663</ele><time>2026-04-03T10:02:51.001Z</time></trkpt><trkpt lat="42.019509492416425" lon="12.905533696984754"><ele>339.3333333333333</ele><time>2026-04-03T10:02:52.001Z</time></trkpt><trkpt lat="42.01965240439124" lon="12.90545001669219"><ele>342.0</ele><time>2026-04-03T10:02:53.001Z</time></trkpt><trkpt lat="42.01978413836649" lon="12.905315243756252"><ele>342.0</ele><time>2026-04-03T10:02:54.001Z</time></trkpt><trkpt lat="42.01990908658245" lon="12.905130890852993"><ele>342.0</ele><time>2026-04-03T10:02:55.001Z</time></trkpt><trkpt lat="42.02005139310409" lon="12.904934563824327"><ele>342.0</ele><time>2026-04-03T10:02:56.001Z</time></trkpt><trkpt lat="42.02021910111151" lon="12.904712583352465"><ele>344.5</ele><time>2026-04-03T10:02:57.001Z</time></trkpt><trkpt lat="42.02040343013672" lon="12.904472765650812"><ele>347.0</ele><time>2026-04-03T10:02:58.001Z</time></trkpt><trkpt lat="42.020600824836286" lon="12.90421014557425"><ele>348.5</ele><time>2026-04-03T10:02:59.001Z</time></trkpt><trkpt lat="42.02084187837356" lon="12.903894786209932"><ele>350.0</ele><time>2026-04-03T10:03:00.001Z</time></trkpt><trkpt lat="42.021070375082246" lon="12.903590927552141"><ele>351.0</ele><time>2026-04-03T10:03:01Z</time></trkpt><trkpt lat="42.02128327017464" lon="12.903307657114835"><ele>352.0</ele><time>2026-04-03T10:03:02Z</time></trkpt><trkpt lat="42.02146582536061" lon="12.903085210181455"><ele>354.5</ele><time>2026-04-03T10:03:03Z</time></trkpt><trkpt lat="42.02164950917161" lon="12.902919380751838"><ele>357.0</ele><time>2026-04-03T10:03:04Z</time></trkpt><trkpt lat="42.021870817843556" lon="12.90276575332148"><ele>357.0</ele><time>2026-04-03T10:03:05Z</time></trkpt><trkpt lat="42.022135834206665" lon="12.902674252577826"><ele>357.0</ele><time>2026-04-03T10:03:06Z</time></trkpt><trkpt lat="42.02244746692157" lon="12.902641363366019"><ele>352.5</ele><time>2026-04-03T10:03:07Z</time></trkpt><trkpt lat="42.02282199194124" lon="12.902648803113035"><ele>348.0</ele><time>2026-04-03T10:03:08Z</time></trkpt><trkpt lat="42.023225585805726" lon="12.902647339011821"><ele>344.5</ele><time>2026-04-03T10:03:09Z</time></trkpt><trkpt lat="42.02356667734164" lon="12.902654396585142"><ele>341.0</ele><time>2026-04-03T10:03:10Z</time></trkpt><trkpt lat="42.023823498302654" lon="12.902692763224128"><ele>341.0</ele><time>2026-04-03T10:03:11Z</time></trkpt><trkpt lat="42.024060943683665" lon="12.902824343936627"><ele>341.0</ele><time>2026-04-03T10:03:12Z</time></trkpt><trkpt lat="42.02434238898207" lon="12.90298587231691"><ele>340.5</ele><time>2026-04-03T10:03:13Z</time></trkpt><trkpt lat="42.02459482118409" lon="12.903184742126706"><ele>340.0</ele><time>2026-04-03T10:03:14Z</time></trkpt><trkpt lat="42.024921916723464" lon="12.903413287425485"><ele>338.0</ele><time>2026-04-03T10:03:15Z</time></trkpt><trkpt lat="42.025200146267515" lon="12.903616869231946"><ele>336.0</ele><time>2026-04-03T10:03:16Z</time></trkpt><trkpt lat="42.02545896818329" lon="12.903795391434873"><ele>336.0</ele><time>2026-04-03T10:03:17Z</time></trkpt><trkpt lat="42.025712607792656" lon="12.90396010404084"><ele>336.0</ele><time>2026-04-03T10:03:18Z</time></trkpt><trkpt lat="42.02595295376447" lon="12.904089684553135"><ele>337.5</ele><time>2026-04-03T10:03:19Z</time></trkpt><trkpt lat="42.02624096960679" lon="12.904169879445545"><ele>339.0</ele><time>2026-04-03T10:03:20Z</time></trkpt><trkpt lat="42.0265224962416" lon="12.90417353894244"><ele>339.0</ele><time>2026-04-03T10:03:21Z</time></trkpt><trkpt lat="42.026789082441404" lon="12.904134488625708"><ele>339.0</ele><time>2026-04-03T10:03:22Z</time></trkpt><trkpt lat="42.027088916488296" lon="12.904041382641804"><ele>339.0</ele><time>2026-04-03T10:03:23Z</time></trkpt><trkpt lat="42.02744048020867" lon="12.903915483670916"><ele>339.0</ele><time>2026-04-03T10:03:24Z</time></trkpt><trkpt lat="42.02779689204701" lon="12.903808446115486"><ele>335.0</ele><time>2026-04-03T10:03:25Z</time></trkpt><trkpt lat="42.02824654346376" lon="12.903717479758992"><ele>332.0</ele><time>2026-04-03T10:03:26Z</time></trkpt><trkpt lat="42.028761340987565" lon="12.903643721494756"><ele>332.0</ele><time>2026-04-03T10:03:27Z</time></trkpt><trkpt lat="42.02915020208487" lon="12.90358199175788"><ele>332.0</ele><time>2026-04-03T10:03:28Z</time></trkpt><trkpt lat="42.02955378797262" lon="12.903549362440348"><ele>332.5</ele><time>2026-04-03T10:03:29Z</time></trkpt><trkpt lat="42.02998470108663" lon="12.903495439600063"><ele>333.0</ele><time>2026-04-03T10:03:30Z</time></trkpt><trkpt lat="42.030387517972144" lon="12.90345396057692"><ele>333.0</ele><time>2026-04-03T10:03:31Z</time></trkpt><trkpt lat="42.03074625258468" lon="12.903432034648535"><ele>333.0</ele><time>2026-04-03T10:03:32Z</time></trkpt><trkpt lat="42.031122135634156" lon="12.903432322464681"><ele>332.5</ele><time>2026-04-03T10:03:33Z</time></trkpt><trkpt lat="42.031505718151344" lon="12.903600583667359"><ele>332.0</ele><time>2026-04-03T10:03:34Z</time></trkpt><trkpt lat="42.0318748217885" lon="12.903685770667037"><ele>334.0</ele><time>2026-04-03T10:03:35Z</time></trkpt><trkpt lat="42.03224897986265" lon="12.903789159715622"><ele>336.0</ele><time>2026-04-03T10:03:36Z</time></trkpt><trkpt lat="42.03255742418414" lon="12.903860754684162"><ele>338.0</ele><time>2026-04-03T10:03:37Z</time></trkpt><trkpt lat="42.03279556016859" lon="12.903893757505235"><ele>340.0</ele><time>2026-04-03T10:03:38Z</time></trkpt><trkpt lat="42.03310718865459" lon="12.903970535281712"><ele>341.5</ele><time>2026-04-03T10:03:39Z</time></trkpt><trkpt lat="42.03344640963984" lon="12.903978258463454"><ele>343.0</ele><time>2026-04-03T10:03:40Z</time></trkpt><trkpt lat="42.03376548713875" lon="12.903988087257076"><ele>343.0</ele><time>2026-04-03T10:03:41Z</time></trkpt><trkpt lat="42.03410024137609" lon="12.903908720529087"><ele>343.0</ele><time>2026-04-03T10:03:42Z</time></trkpt><trkpt lat="42.0344562543335" lon="12.903763022054015"><ele>343.0</ele><time>2026-04-03T10:03:43Z</time></trkpt><trkpt lat="42.03479752470444" lon="12.903593896983061"><ele>343.0</ele><time>2026-04-03T10:03:44Z</time></trkpt><trkpt lat="42.035104769685454" lon="12.903475265608046"><ele>346.0</ele><time>2026-04-03T10:03:45Z</time></trkpt><trkpt lat="42.03543423311948" lon="12.903407029273623"><ele>349.0</ele><time>2026-04-03T10:03:46Z</time></trkpt><trkpt lat="42.03577952185701" lon="12.90338150044893"><ele>349.5</ele><time>2026-04-03T10:03:47Z</time></trkpt><trkpt lat="42.03608070313531" lon="12.903367167848593"><ele>350.0</ele><time>2026-04-03T10:03:48Z</time></trkpt><trkpt lat="42.03639457056508" lon="12.903362337993176"><ele>347.0</ele><time>2026-04-03T10:03:49Z</time></trkpt><trkpt lat="42.036673696471254" lon="12.90344680330124"><ele>344.0</ele><time>2026-04-03T10:03:50Z</time></trkpt><trkpt lat="42.03696612814409" lon="12.903610371306126"><ele>344.0</ele><time>2026-04-03T10:03:51Z</time></trkpt><trkpt lat="42.0372369019965" lon="12.903698167176605"><ele>344.0</ele><time>2026-04-03T10:03:52Z</time></trkpt><trkpt lat="42.0375266614317" lon="12.903729890886922"><ele>345.5</ele><time>2026-04-03T10:03:53Z</time></trkpt><trkpt lat="42.037830247410184" lon="12.903679870299769"><ele>347.0</ele><time>2026-04-03T10:03:54Z</time></trkpt><trkpt lat="42.038124604834735" lon="12.903560544442291"><ele>352.5</ele><time>2026-04-03T10:03:55Z</time></trkpt><trkpt lat="42.0384300807437" lon="12.903363462049576"><ele>358.0</ele><time>2026-04-03T10:03:56Z</time></trkpt><trkpt lat="42.038730666680905" lon="12.903201734257392"><ele>358.0</ele><time>2026-04-03T10:03:57Z</time></trkpt><trkpt lat="42.03903178758283" lon="12.903130463602798"><ele>358.0</ele><time>2026-04-03T10:03:58Z</time></trkpt><trkpt lat="42.03931832000633" lon="12.903152323685935"><ele>358.0</ele><time>2026-04-03T10:03:59Z</time></trkpt><trkpt lat="42.03960901167892" lon="12.903244067753302"><ele>358.0</ele><time>2026-04-03T10:04:00Z</time></trkpt><trkpt lat="42.03984338207509" lon="12.903360372484718"><ele>359.66666666666663</ele><time>2026-04-03T10:04:01Z</time></trkpt><trkpt lat="42.040010938214536" lon="12.903451539861814"><ele>361.3333333333333</ele><time>2026-04-03T10:04:02Z</time></trkpt><trkpt lat="42.04014320224719" lon="12.903511866573572"><ele>363.0</ele><time>2026-04-03T10:04:03Z</time></trkpt><trkpt lat="42.04036792569825" lon="12.903553821896415"><ele>363.0</ele><time>2026-04-03T10:04:04Z</time></trkpt><trkpt lat="42.04066295522237" lon="12.903587667765645"><ele>363.0</ele><time>2026-04-03T10:04:05Z</time></trkpt><trkpt lat="42.04101842605871" lon="12.903581249844116"><ele>368.5</ele><time>2026-04-03T10:04:06Z</time></trkpt><trkpt lat="42.041427178929375" lon="12.90360819260799"><ele>374.0</ele><time>2026-04-03T10:04:07Z</time></trkpt><trkpt lat="42.04194405170042" lon="12.90369133654868"><ele>374.0</ele><time>2026-04-03T10:04:08Z</time></trkpt><trkpt lat="42.042396423559325" lon="12.903765159411103"><ele>375.0</ele><time>2026-04-03T10:04:09Z</time></trkpt><trkpt lat="42.04285792243312" lon="12.903844124119592"><ele>375.0</ele><time>2026-04-03T10:04:10Z</time></trkpt><trkpt lat="42.043211285531356" lon="12.903890238641363"><ele>375.0</ele><time>2026-04-03T10:04:11Z</time></trkpt><trkpt lat="42.04357253589948" lon="12.903921721196989"><ele>375.5</ele><time>2026-04-03T10:04:12Z</time></trkpt><trkpt lat="42.04385246707824" lon="12.903959085311634"><ele>376.0</ele><time>2026-04-03T10:04:13Z</time></trkpt><trkpt lat="42.04407415696312" lon="12.904034891511007"><ele>378.5</ele><time>2026-04-03T10:04:14Z</time></trkpt><trkpt lat="42.04431396886384" lon="12.90422123541866"><ele>381.0</ele><time>2026-04-03T10:04:15Z</time></trkpt><trkpt lat="42.044639448289544" lon="12.90452500484997"><ele>379.5</ele><time>2026-04-03T10:04:16Z</time></trkpt><trkpt lat="42.04493851760979" lon="12.904793467026874"><ele>378.0</ele><time>2026-04-03T10:04:17Z</time></trkpt><trkpt lat="42.04521334896088" lon="12.905041594336282"><ele>371.0</ele><time>2026-04-03T10:04:18Z</time></trkpt><trkpt lat="42.04544172261354" lon="12.905182536784778"><ele>364.0</ele><time>2026-04-03T10:04:19Z</time></trkpt><trkpt lat="42.04571770804174" lon="12.905227971235883"><ele>365.5</ele><time>2026-04-03T10:04:20Z</time></trkpt><trkpt lat="42.04598630081913" lon="12.905165493438297"><ele>367.0</ele><time>2026-04-03T10:04:21Z</time></trkpt><trkpt lat="42.04628525495371" lon="12.905128119201294"><ele>369.0</ele><time>2026-04-03T10:04:22Z</time></trkpt><trkpt lat="42.04667237782168" lon="12.905117556024011"><ele>371.0</ele><time>2026-04-03T10:04:23Z</time></trkpt><trkpt lat="42.04706654015203" lon="12.905239754299041"><ele>370.5</ele><time>2026-04-03T10:04:24Z</time></trkpt><trkpt lat="42.04746287024938" lon="12.905296520409516"><ele>370.0</ele><time>2026-04-03T10:04:25Z</time></trkpt><trkpt lat="42.0479432061469" lon="12.90537385182908"><ele>370.0</ele><time>2026-04-03T10:04:26Z</time></trkpt><trkpt lat="42.048395095751246" lon="12.905460384119618"><ele>370.0</ele><time>2026-04-03T10:04:27Z</time></trkpt><trkpt lat="42.04877574078661" lon="12.905572924983923"><ele>370.0</ele><time>2026-04-03T10:04:28Z</time></trkpt><trkpt lat="42.049167927355114" lon="12.905730451496508"><ele>367.5</ele><time>2026-04-03T10:04:29Z</time></trkpt><trkpt lat="42.049544516118836" lon="12.90587902052652"><ele>365.0</ele><time>2026-04-03T10:04:30Z</time></trkpt><trkpt lat="42.04989590810494" lon="12.90597807903598"><ele>367.0</ele><time>2026-04-03T10:04:31Z</time></trkpt><trkpt lat="42.05026942738101" lon="12.906047974187253"><ele>369.0</ele><time>2026-04-03T10:04:32Z</time></trkpt><trkpt lat="42.050593553872694" lon="12.906143546218292"><ele>369.5</ele><time>2026-04-03T10:04:33Z</time></trkpt><trkpt lat="42.050803859684414" lon="12.906273797435238"><ele>370.0</ele><time>2026-04-03T10:04:34Z</time></trkpt><trkpt lat="42.051026041255916" lon="12.906444192282093"><ele>370.0</ele><time>2026-04-03T10:04:35.001Z</time></trkpt><trkpt lat="42.05130600113747" lon="12.906550457013173"><ele>370.0</ele><time>2026-04-03T10:04:36.001Z</time></trkpt><trkpt lat="42.05157291771603" lon="12.906632544845433"><ele>372.5</ele><time>2026-04-03T10:04:37.001Z</time></trkpt><trkpt lat="42.0518238397812" lon="12.906595927945547"><ele>375.0</ele><time>2026-04-03T10:04:38.001Z</time></trkpt><trkpt lat="42.05212235375024" lon="12.90650050934927"><ele>375.0</ele><time>2026-04-03T10:04:39.001Z</time></trkpt><trkpt lat="42.052396373122775" lon="12.906453182638495"><ele>375.0</ele><time>2026-04-03T10:04:40.001Z</time></trkpt><trkpt lat="42.052582959835135" lon="12.906600587764942"><ele>375.0</ele><time>2026-04-03T10:04:41.001Z</time></trkpt><trkpt lat="42.052861127619984" lon="12.906639170689141"><ele>375.0</ele><time>2026-04-03T10:04:42.001Z</time></trkpt><trkpt lat="42.05313721561249" lon="12.906655769592566"><ele>378.0</ele><time>2026-04-03T10:04:43.001Z</time></trkpt><trkpt lat="42.05338877518362" lon="12.906595036805744"><ele>381.0</ele><time>2026-04-03T10:04:44.001Z</time></trkpt><trkpt lat="42.053699343211115" lon="12.90646129589454"><ele>372.0</ele><time>2026-04-03T10:04:45.001Z</time></trkpt><trkpt lat="42.054153406839276" lon="12.906258930705873"><ele>372.0</ele><time>2026-04-03T10:04:46.001Z</time></trkpt><trkpt lat="42.05451506276337" lon="12.9060966865276"><ele>372.0</ele><time>2026-04-03T10:04:47.001Z</time></trkpt><trkpt lat="42.054846206221214" lon="12.905994297185195"><ele>372.5</ele><time>2026-04-03T10:04:48.001Z</time></trkpt><trkpt lat="42.05511519371681" lon="12.905985646603845"><ele>373.0</ele><time>2026-04-03T10:04:49.001Z</time></trkpt><trkpt lat="42.055461830802784" lon="12.90599037209436"><ele>377.0</ele><time>2026-04-03T10:04:50.001Z</time></trkpt><trkpt lat="42.05593546614623" lon="12.90601877397913"><ele>377.0</ele><time>2026-04-03T10:04:51.001Z</time></trkpt><trkpt lat="42.05632995482158" lon="12.906065803342294"><ele>377.0</ele><time>2026-04-03T10:04:52.001Z</time></trkpt><trkpt lat="42.0566879069983" lon="12.906096395568046"><ele>377.0</ele><time>2026-04-03T10:04:53.001Z</time></trkpt><trkpt lat="42.057094015366225" lon="12.906108367265453"><ele>377.0</ele><time>2026-04-03T10:04:54.001Z</time></trkpt><trkpt lat="42.05756868890855" lon="12.906143312647895"><ele>377.0</ele><time>2026-04-03T10:04:55.001Z</time></trkpt><trkpt lat="42.057963169334016" lon="12.906182759350658"><ele>377.0</ele><time>2026-04-03T10:04:56.001Z</time></trkpt><trkpt lat="42.05825437457752" lon="12.906209824090489"><ele>379.0</ele><time>2026-04-03T10:04:57.001Z</time></trkpt><trkpt lat="42.058496958837075" lon="12.906221284072128"><ele>381.0</ele><time>2026-04-03T10:04:58.001Z</time></trkpt><trkpt lat="42.058775285861934" lon="12.906199658698943"><ele>380.0</ele><time>2026-04-03T10:04:59.001Z</time></trkpt><trkpt lat="42.0591917020401" lon="12.906105948241171"><ele>379.0</ele><time>2026-04-03T10:05:00.001Z</time></trkpt><trkpt lat="42.05964052532449" lon="12.906003973263557"><ele>379.5</ele><time>2026-04-03T10:05:01.001Z</time></trkpt><trkpt lat="42.06005021033695" lon="12.905965514970228"><ele>380.0</ele><time>2026-04-03T10:05:02.001Z</time></trkpt><trkpt lat="42.0603760325807" lon="12.905937657197065"><ele>383.0</ele><time>2026-04-03T10:05:03.001Z</time></trkpt><trkpt lat="42.06065292878214" lon="12.90590312342867"><ele>386.0</ele><time>2026-04-03T10:05:04.001Z</time></trkpt><trkpt lat="42.060883343130676" lon="12.905821485575531"><ele>387.5</ele><time>2026-04-03T10:05:05.001Z</time></trkpt><trkpt lat="42.061105682565916" lon="12.905647708619219"><ele>389.0</ele><time>2026-04-03T10:05:06.001Z</time></trkpt><trkpt lat="42.06132296224547" lon="12.90537660137671"><ele>389.0</ele><time>2026-04-03T10:05:07Z</time></trkpt><trkpt lat="42.06153556049748" lon="12.905116576037253"><ele>389.0</ele><time>2026-04-03T10:05:08Z</time></trkpt><trkpt lat="42.061734443650415" lon="12.90498865284576"><ele>389.5</ele><time>2026-04-03T10:05:09Z</time></trkpt><trkpt lat="42.06197385341918" lon="12.90493133938257"><ele>390.0</ele><time>2026-04-03T10:05:10Z</time></trkpt><trkpt lat="42.0622953730888" lon="12.904903747826358"><ele>389.5</ele><time>2026-04-03T10:05:11Z</time></trkpt><trkpt lat="42.06262116194883" lon="12.904868316217403"><ele>389.0</ele><time>2026-04-03T10:05:12Z</time></trkpt><trkpt lat="42.062890860092566" lon="12.904903284983128"><ele>389.0</ele><time>2026-04-03T10:05:13Z</time></trkpt><trkpt lat="42.063087222956426" lon="12.905029119169257"><ele>389.0</ele><time>2026-04-03T10:05:14Z</time></trkpt><trkpt lat="42.06325791402274" lon="12.905193441097747"><ele>389.0</ele><time>2026-04-03T10:05:15Z</time></trkpt><trkpt lat="42.06342714100984" lon="12.905339223477899"><ele>388.3333333333333</ele><time>2026-04-03T10:05:16Z</time></trkpt><trkpt lat="42.06358499520681" lon="12.90538047389347"><ele>387.66666666666663</ele><time>2026-04-03T10:05:17Z</time></trkpt><trkpt lat="42.06380472094206" lon="12.905279915529102"><ele>387.0</ele><time>2026-04-03T10:05:18Z</time></trkpt><trkpt lat="42.0640214271264" lon="12.905168610146859"><ele>391.0</ele><time>2026-04-03T10:05:19Z</time></trkpt><trkpt lat="42.06439201989714" lon="12.90491348703988"><ele>395.0</ele><time>2026-04-03T10:05:20Z</time></trkpt><trkpt lat="42.064782421855206" lon="12.904654551454266"><ele>391.0</ele><time>2026-04-03T10:05:21Z</time></trkpt><trkpt lat="42.065238173284385" lon="12.904363569747128"><ele>396.0</ele><time>2026-04-03T10:05:22Z</time></trkpt><trkpt lat="42.06560224170886" lon="12.90413953773232"><ele>401.0</ele><time>2026-04-03T10:05:23Z</time></trkpt><trkpt lat="42.06589037791593" lon="12.903948732353816"><ele>401.0</ele><time>2026-04-03T10:05:24Z</time></trkpt><trkpt lat="42.06613328772323" lon="12.903803483537997"><ele>401.0</ele><time>2026-04-03T10:05:25Z</time></trkpt><trkpt lat="42.0663043261797" lon="12.903706724208028"><ele>401.0</ele><time>2026-04-03T10:05:26Z</time></trkpt><trkpt lat="42.06650794451501" lon="12.903540524492374"><ele>401.0</ele><time>2026-04-03T10:05:27Z</time></trkpt><trkpt lat="42.066656602153195" lon="12.90333959403311"><ele>401.0</ele><time>2026-04-03T10:05:28Z</time></trkpt><trkpt lat="42.06678088606371" lon="12.903084923457927"><ele>405.0</ele><time>2026-04-03T10:05:29Z</time></trkpt><trkpt lat="42.0668719463696" lon="12.902786316451628"><ele>409.0</ele><time>2026-04-03T10:05:30Z</time></trkpt><trkpt lat="42.0669840945114" lon="12.902481549849488"><ele>414.0</ele><time>2026-04-03T10:05:31Z</time></trkpt><trkpt lat="42.067098458015316" lon="12.90219338490463"><ele>419.0</ele><time>2026-04-03T10:05:32Z</time></trkpt><trkpt lat="42.067293781526146" lon="12.901919498357644"><ele>410.5</ele><time>2026-04-03T10:05:33Z</time></trkpt><trkpt lat="42.067521209565435" lon="12.90165332510561"><ele>402.0</ele><time>2026-04-03T10:05:34Z</time></trkpt><trkpt lat="42.06774596135182" lon="12.90141995138731"><ele>402.0</ele><time>2026-04-03T10:05:35Z</time></trkpt><trkpt lat="42.06796012831694" lon="12.901160516170492"><ele>402.0</ele><time>2026-04-03T10:05:36Z</time></trkpt><trkpt lat="42.068237295126714" lon="12.901025575731035"><ele>402.66666666666663</ele><time>2026-04-03T10:05:37Z</time></trkpt><trkpt lat="42.06832819888611" lon="12.900841576520635"><ele>403.3333333333333</ele><time>2026-04-03T10:05:38Z</time></trkpt><trkpt lat="42.06839436527387" lon="12.90054429503239"><ele>404.0</ele><time>2026-04-03T10:05:39Z</time></trkpt><trkpt lat="42.068437831039624" lon="12.900200413762168"><ele>408.5</ele><time>2026-04-03T10:05:40Z</time></trkpt><trkpt lat="42.06855556264712" lon="12.899704647889353"><ele>413.0</ele><time>2026-04-03T10:05:41Z</time></trkpt><trkpt lat="42.068682388658964" lon="12.899255089640109"><ele>417.0</ele><time>2026-04-03T10:05:42Z</time></trkpt><trkpt lat="42.06878316092773" lon="12.898895308384265"><ele>421.0</ele><time>2026-04-03T10:05:43Z</time></trkpt><trkpt lat="42.06887498976686" lon="12.898550845280987"><ele>422.0</ele><time>2026-04-03T10:05:44Z</time></trkpt><trkpt lat="42.06893680379118" lon="12.898140549796747"><ele>423.0</ele><time>2026-04-03T10:05:45Z</time></trkpt><trkpt lat="42.068989432319064" lon="12.897830454495557"><ele>424.66666666666663</ele><time>2026-04-03T10:05:46Z</time></trkpt><trkpt lat="42.069039071835675" lon="12.89752805968746"><ele>426.3333333333333</ele><time>2026-04-03T10:05:47Z</time></trkpt><trkpt lat="42.06908909729324" lon="12.897286418031596"><ele>428.0</ele><time>2026-04-03T10:05:48Z</time></trkpt><trkpt lat="42.069193481014935" lon="12.897041605400311"><ele>426.0</ele><time>2026-04-03T10:05:49Z</time></trkpt><trkpt lat="42.06932904856758" lon="12.896894700299455"><ele>424.0</ele><time>2026-04-03T10:05:50Z</time></trkpt><trkpt lat="42.06952071146625" lon="12.896804659661765"><ele>422.0</ele><time>2026-04-03T10:05:51Z</time></trkpt><trkpt lat="42.06972476980105" lon="12.896748325005907"><ele>421.0</ele><time>2026-04-03T10:05:52Z</time></trkpt><trkpt lat="42.069999715311155" lon="12.89666855529534"><ele>420.0</ele><time>2026-04-03T10:05:53Z</time></trkpt><trkpt lat="42.07028759413603" lon="12.896561654185556"><ele>420.0</ele><time>2026-04-03T10:05:54Z</time></trkpt><trkpt lat="42.070497679510645" lon="12.896406733871725"><ele>420.0</ele><time>2026-04-03T10:05:55Z</time></trkpt><trkpt lat="42.07074136368559" lon="12.896196369780707"><ele>419.5</ele><time>2026-04-03T10:05:56Z</time></trkpt><trkpt lat="42.07099798269471" lon="12.895921656117132"><ele>419.0</ele><time>2026-04-03T10:05:57Z</time></trkpt><trkpt lat="42.071266676314735" lon="12.895581709390912"><ele>423.5</ele><time>2026-04-03T10:05:58Z</time></trkpt><trkpt lat="42.07149597914002" lon="12.895291369758553"><ele>428.0</ele><time>2026-04-03T10:05:59Z</time></trkpt><trkpt lat="42.07170436031697" lon="12.895060300189119"><ele>431.5</ele><time>2026-04-03T10:06:00Z</time></trkpt><trkpt lat="42.07191057792278" lon="12.894879740442791"><ele>435.0</ele><time>2026-04-03T10:06:01Z</time></trkpt><trkpt lat="42.07213524021196" lon="12.894750105605391"><ele>435.0</ele><time>2026-04-03T10:06:02Z</time></trkpt><trkpt lat="42.07239775525503" lon="12.894625215774242"><ele>435.0</ele><time>2026-04-03T10:06:03Z</time></trkpt><trkpt lat="42.07271011210565" lon="12.894473840408375"><ele>435.0</ele><time>2026-04-03T10:06:04Z</time></trkpt><trkpt lat="42.073023159347095" lon="12.894326933202775"><ele>435.0</ele><time>2026-04-03T10:06:05Z</time></trkpt><trkpt lat="42.07332726081211" lon="12.894227288333832"><ele>435.0</ele><time>2026-04-03T10:06:06Z</time></trkpt><trkpt lat="42.073684032091656" lon="12.894146766938004"><ele>435.0</ele><time>2026-04-03T10:06:07Z</time></trkpt><trkpt lat="42.07405474792855" lon="12.89406224717595"><ele>436.0</ele><time>2026-04-03T10:06:08Z</time></trkpt><trkpt lat="42.074389089334815" lon="12.893983213784063"><ele>437.0</ele><time>2026-04-03T10:06:09Z</time></trkpt><trkpt lat="42.074672047705235" lon="12.893900839868222"><ele>438.0</ele><time>2026-04-03T10:06:10Z</time></trkpt><trkpt lat="42.07493835923545" lon="12.893802216794738"><ele>439.0</ele><time>2026-04-03T10:06:11Z</time></trkpt><trkpt lat="42.075178810656006" lon="12.893715943877147"><ele>439.0</ele><time>2026-04-03T10:06:12Z</time></trkpt><trkpt lat="42.075384253859326" lon="12.893630567688964"><ele>439.0</ele><time>2026-04-03T10:06:13Z</time></trkpt><trkpt lat="42.075524558230335" lon="12.893572735971116"><ele>439.0</ele><time>2026-04-03T10:06:14Z</time></trkpt><trkpt lat="42.07562656768088" lon="12.89357365744672"><ele>439.0</ele><time>2026-04-03T10:06:15Z</time></trkpt><trkpt lat="42.07570017254785" lon="12.893653610588283"><ele>439.0</ele><time>2026-04-03T10:06:16Z</time></trkpt><trkpt lat="42.075733013463456" lon="12.893817671255706"><ele>439.0</ele><time>2026-04-03T10:06:17Z</time></trkpt><trkpt lat="42.07575601431207" lon="12.894086827592465"><ele>439.0</ele><time>2026-04-03T10:06:18Z</time></trkpt><trkpt lat="42.0757624833197" lon="12.894392158307571"><ele>439.0</ele><time>2026-04-03T10:06:19Z</time></trkpt><trkpt lat="42.075691123330074" lon="12.894672012603834"><ele>439.0</ele><time>2026-04-03T10:06:20Z</time></trkpt><trkpt lat="42.075545812139886" lon="12.894913157950223"><ele>450.0</ele><time>2026-04-03T10:06:21Z</time></trkpt><trkpt lat="42.07539324677856" lon="12.89514445299817"><ele>461.0</ele><time>2026-04-03T10:06:22Z</time></trkpt><trkpt lat="42.075062660379245" lon="12.895249779470332"><ele>452.5</ele><time>2026-04-03T10:06:23Z</time></trkpt><trkpt lat="42.074819380515095" lon="12.895469376342144"><ele>444.0</ele><time>2026-04-03T10:06:24Z</time></trkpt><trkpt lat="42.07461215948454" lon="12.895663262907272"><ele>444.0</ele><time>2026-04-03T10:06:25Z</time></trkpt><trkpt lat="42.0744199268298" lon="12.89583862718799"><ele>444.0</ele><time>2026-04-03T10:06:26Z</time></trkpt><trkpt lat="42.07417887927191" lon="12.89605225479212"><ele>442.5</ele><time>2026-04-03T10:06:27Z</time></trkpt><trkpt lat="42.07397989391607" lon="12.896247845045316"><ele>441.0</ele><time>2026-04-03T10:06:28Z</time></trkpt><trkpt lat="42.07379574143032" lon="12.8964093742087"><ele>441.0</ele><time>2026-04-03T10:06:29Z</time></trkpt><trkpt lat="42.07367109746997" lon="12.896576006847662"><ele>441.0</ele><time>2026-04-03T10:06:30Z</time></trkpt><trkpt lat="42.073559894262125" lon="12.896844246477874"><ele>441.0</ele><time>2026-04-03T10:06:31Z</time></trkpt><trkpt lat="42.07352284706349" lon="12.89715196501435"><ele>445.5</ele><time>2026-04-03T10:06:32Z</time></trkpt><trkpt lat="42.07352983900924" lon="12.897524813113861"><ele>450.0</ele><time>2026-04-03T10:06:33Z</time></trkpt><trkpt lat="42.07352779233939" lon="12.897908515812533"><ele>453.33333333333337</ele><time>2026-04-03T10:06:34Z</time></trkpt><trkpt lat="42.07352121121082" lon="12.898206767260318"><ele>456.6666666666667</ele><time>2026-04-03T10:06:35Z</time></trkpt><trkpt lat="42.07350486717027" lon="12.898399431125274"><ele>460.0</ele><time>2026-04-03T10:06:36Z</time></trkpt><trkpt lat="42.07346500800114" lon="12.898587064607232"><ele>461.33333333333337</ele><time>2026-04-03T10:06:37Z</time></trkpt><trkpt lat="42.073440868558656" lon="12.898810454400603"><ele>462.66666666666663</ele><time>2026-04-03T10:06:38Z</time></trkpt><trkpt lat="42.07339849604131" lon="12.89907285404192"><ele>464.0</ele><time>2026-04-03T10:06:39Z</time></trkpt><trkpt lat="42.07339900800519" lon="12.899310711813156"><ele>464.66666666666663</ele><time>2026-04-03T10:06:40Z</time></trkpt><trkpt lat="42.07344990140889" lon="12.899492632397365"><ele>465.33333333333337</ele><time>2026-04-03T10:06:41Z</time></trkpt><trkpt lat="42.073546458351935" lon="12.899624284337987"><ele>466.0</ele><time>2026-04-03T10:06:42Z</time></trkpt><trkpt lat="42.0736853078556" lon="12.899799468241387"><ele>466.0</ele><time>2026-04-03T10:06:43Z</time></trkpt><trkpt lat="42.07384246998717" lon="12.899960420605272"><ele>466.0</ele><time>2026-04-03T10:06:44Z</time></trkpt><trkpt lat="42.07397146716848" lon="12.90010319896396"><ele>466.0</ele><time>2026-04-03T10:06:45Z</time></trkpt><trkpt lat="42.074048780167296" lon="12.900101869900068"><ele>466.0</ele><time>2026-04-03T10:06:46Z</time></trkpt><trkpt lat="42.07420590001974" lon="12.900112562985194"><ele>469.25</ele><time>2026-04-03T10:06:47Z</time></trkpt><trkpt lat="42.074376094213356" lon="12.900131309342608"><ele>472.5</ele><time>2026-04-03T10:06:48Z</time></trkpt><trkpt lat="42.07448239485701" lon="12.900292712088838"><ele>475.75</ele><time>2026-04-03T10:06:49Z</time></trkpt><trkpt lat="42.074512012492605" lon="12.900447248219242"><ele>479.0</ele><time>2026-04-03T10:06:50Z</time></trkpt><trkpt lat="42.07450221014563" lon="12.900609042372562"><ele>478.99999999999994</ele><time>2026-04-03T10:06:51.001Z</time></trkpt><trkpt lat="42.07448565939986" lon="12.90074825251548"><ele>479.0</ele><time>2026-04-03T10:06:52.001Z</time></trkpt><trkpt lat="42.07443963316586" lon="12.900812673338638"><ele>479.0</ele><time>2026-04-03T10:06:53.001Z</time></trkpt><trkpt lat="42.074374733334786" lon="12.900899048361431"><ele>479.0</ele><time>2026-04-03T10:06:56.001Z</time></trkpt><trkpt lat="42.07431807245594" lon="12.90093840667162"><ele>478.99999999999994</ele><time>2026-04-03T10:06:57.001Z</time></trkpt><trkpt lat="42.07425573803188" lon="12.900978775960162"><ele>479.0</ele><time>2026-04-03T10:06:58.001Z</time></trkpt><trkpt lat="42.07416986363942" lon="12.901025948503701"><ele>479.49999999999994</ele><time>2026-04-03T10:07:00.001Z</time></trkpt><trkpt lat="42.07410052947863" lon="12.901078652936812"><ele>480.0</ele><time>2026-04-03T10:07:02.001Z</time></trkpt><trkpt lat="42.074051145691925" lon="12.901175698293828"><ele>480.5</ele><time>2026-04-03T10:07:04.001Z</time></trkpt><trkpt lat="42.07403703901689" lon="12.901279536975373"><ele>481.0</ele><time>2026-04-03T10:07:06.001Z</time></trkpt><trkpt lat="42.07407448985851" lon="12.901388499775477"><ele>481.49999999999994</ele><time>2026-04-03T10:07:08.001Z</time></trkpt><trkpt lat="42.07413233754764" lon="12.901493097119937"><ele>482.0</ele><time>2026-04-03T10:07:10.001Z</time></trkpt><trkpt lat="42.074183558015996" lon="12.901559262699784"><ele>482.0</ele><time>2026-04-03T10:07:11.001Z</time></trkpt><trkpt lat="42.074228308328706" lon="12.901622226455574"><ele>482.00000000000006</ele><time>2026-04-03T10:07:12Z</time></trkpt><trkpt lat="42.074293250984155" lon="12.901704714114478"><ele>482.00000000000006</ele><time>2026-04-03T10:07:13Z</time></trkpt><trkpt lat="42.07436478323408" lon="12.901800004072758"><ele>482.0</ele><time>2026-04-03T10:07:14Z</time></trkpt><trkpt lat="42.07445340454503" lon="12.90187428308369"><ele>482.0</ele><time>2026-04-03T10:07:15Z</time></trkpt><trkpt lat="42.074529726740174" lon="12.901983316448055"><ele>479.5</ele><time>2026-04-03T10:07:16Z</time></trkpt><trkpt lat="42.07463568240148" lon="12.902062071920854"><ele>477.0</ele><time>2026-04-03T10:07:17Z</time></trkpt><trkpt lat="42.07475218198874" lon="12.902129630425481"><ele>474.5</ele><time>2026-04-03T10:07:18Z</time></trkpt><trkpt lat="42.074883598414374" lon="12.90216417488544"><ele>472.0</ele><time>2026-04-03T10:07:19Z</time></trkpt><trkpt lat="42.075014699709556" lon="12.902134405007837"><ele>472.0</ele><time>2026-04-03T10:07:20Z</time></trkpt><trkpt lat="42.07516198320588" lon="12.90203548230524"><ele>472.0</ele><time>2026-04-03T10:07:21Z</time></trkpt><trkpt lat="42.0753297798805" lon="12.901924066971814"><ele>472.0</ele><time>2026-04-03T10:07:22Z</time></trkpt><trkpt lat="42.07553546495813" lon="12.901892218565214"><ele>471.5</ele><time>2026-04-03T10:07:23Z</time></trkpt><trkpt lat="42.0758145450978" lon="12.901930173044933"><ele>471.0</ele><time>2026-04-03T10:07:24Z</time></trkpt><trkpt lat="42.07611696976753" lon="12.901983179403791"><ele>471.0</ele><time>2026-04-03T10:07:25Z</time></trkpt><trkpt lat="42.076355238728866" lon="12.90201901028983"><ele>471.0</ele><time>2026-04-03T10:07:26Z</time></trkpt><trkpt lat="42.07654736897249" lon="12.90198786945474"><ele>471.0</ele><time>2026-04-03T10:07:27Z</time></trkpt><trkpt lat="42.076681800380406" lon="12.901895310457958"><ele>477.66666666666663</ele><time>2026-04-03T10:07:28Z</time></trkpt><trkpt lat="42.07676468212881" lon="12.901734233732155"><ele>484.3333333333333</ele><time>2026-04-03T10:07:29Z</time></trkpt><trkpt lat="42.07678731697251" lon="12.901517703345558"><ele>491.0</ele><time>2026-04-03T10:07:30Z</time></trkpt><trkpt lat="42.07673880478441" lon="12.901212793252794"><ele>495.3333333333333</ele><time>2026-04-03T10:07:31Z</time></trkpt><trkpt lat="42.07672871399217" lon="12.900895204533898"><ele>499.66666666666663</ele><time>2026-04-03T10:07:32Z</time></trkpt><trkpt lat="42.07676980271056" lon="12.900666005260838"><ele>504.0</ele><time>2026-04-03T10:07:33Z</time></trkpt><trkpt lat="42.076842249057364" lon="12.900452761403143"><ele>504.0</ele><time>2026-04-03T10:07:34Z</time></trkpt><trkpt lat="42.07695859341813" lon="12.900276486805643"><ele>504.0</ele><time>2026-04-03T10:07:35Z</time></trkpt><trkpt lat="42.077105608104254" lon="12.900162309706209"><ele>504.0</ele><time>2026-04-03T10:07:36Z</time></trkpt><trkpt lat="42.07726625887992" lon="12.90013429200744"><ele>504.0</ele><time>2026-04-03T10:07:37Z</time></trkpt><trkpt lat="42.077431576250106" lon="12.900247909673183"><ele>504.0</ele><time>2026-04-03T10:07:38Z</time></trkpt><trkpt lat="42.077585159188445" lon="12.900421459725663"><ele>504.0</ele><time>2026-04-03T10:07:39Z</time></trkpt><trkpt lat="42.0777117009499" lon="12.900662705532929"><ele>500.33333333333337</ele><time>2026-04-03T10:07:40Z</time></trkpt><trkpt lat="42.0778272906761" lon="12.900873043340962"><ele>496.6666666666667</ele><time>2026-04-03T10:07:41Z</time></trkpt><trkpt lat="42.077966373262356" lon="12.900986388173662"><ele>493.0</ele><time>2026-04-03T10:07:42Z</time></trkpt><trkpt lat="42.078150675777316" lon="12.901003612088536"><ele>497.0</ele><time>2026-04-03T10:07:43Z</time></trkpt><trkpt lat="42.07838089578793" lon="12.900940601672255"><ele>501.0</ele><time>2026-04-03T10:07:44Z</time></trkpt><trkpt lat="42.0786709729409" lon="12.900838958835545"><ele>501.0</ele><time>2026-04-03T10:07:45Z</time></trkpt><trkpt lat="42.07895445341253" lon="12.900840271481396"><ele>501.0</ele><time>2026-04-03T10:07:46Z</time></trkpt><trkpt lat="42.07919469104363" lon="12.900835043809321"><ele>500.66666666666663</ele><time>2026-04-03T10:07:47Z</time></trkpt><trkpt lat="42.0794211268205" lon="12.900782521954396"><ele>500.3333333333333</ele><time>2026-04-03T10:07:48Z</time></trkpt><trkpt lat="42.07961528629197" lon="12.90078507261294"><ele>500.0</ele><time>2026-04-03T10:07:49Z</time></trkpt><trkpt lat="42.07974642760982" lon="12.90088211225752"><ele>497.0</ele><time>2026-04-03T10:07:50Z</time></trkpt><trkpt lat="42.07983207866537" lon="12.90103041982914"><ele>494.0</ele><time>2026-04-03T10:07:51Z</time></trkpt><trkpt lat="42.08000491603228" lon="12.901268019966507"><ele>491.0</ele><time>2026-04-03T10:07:52Z</time></trkpt><trkpt lat="42.08022213622369" lon="12.901577192068995"><ele>482.5</ele><time>2026-04-03T10:07:53Z</time></trkpt><trkpt lat="42.08046372917182" lon="12.901854685757167"><ele>474.0</ele><time>2026-04-03T10:07:54Z</time></trkpt><trkpt lat="42.08064953302183" lon="12.90206234436265"><ele>476.5</ele><time>2026-04-03T10:07:55Z</time></trkpt><trkpt lat="42.080778323776286" lon="12.902208617299124"><ele>479.0</ele><time>2026-04-03T10:07:56Z</time></trkpt><trkpt lat="42.080874185666204" lon="12.902286665740176"><ele>481.5</ele><time>2026-04-03T10:07:57Z</time></trkpt><trkpt lat="42.08097731641925" lon="12.902286459864142"><ele>484.0</ele><time>2026-04-03T10:07:58Z</time></trkpt><trkpt lat="42.081086633355156" lon="12.902170388259494"><ele>484.0</ele><time>2026-04-03T10:07:59Z</time></trkpt><trkpt lat="42.081174243182964" lon="12.901947212171095"><ele>484.0</ele><time>2026-04-03T10:08:00Z</time></trkpt><trkpt lat="42.0812376557256" lon="12.90165541311816"><ele>484.0</ele><time>2026-04-03T10:08:01Z</time></trkpt><trkpt lat="42.08134641614988" lon="12.901481434354379"><ele>491.0</ele><time>2026-04-03T10:08:02Z</time></trkpt><trkpt lat="42.08148581257434" lon="12.901405728915991"><ele>498.0</ele><time>2026-04-03T10:08:03Z</time></trkpt><trkpt lat="42.08163351541553" lon="12.901433483501018"><ele>505.0</ele><time>2026-04-03T10:08:04Z</time></trkpt><trkpt lat="42.081826319022454" lon="12.901503404382066"><ele>505.0</ele><time>2026-04-03T10:08:05Z</time></trkpt><trkpt lat="42.08199024658574" lon="12.901553269038478"><ele>505.0</ele><time>2026-04-03T10:08:06Z</time></trkpt><trkpt lat="42.082137560482536" lon="12.901501061774185"><ele>505.0</ele><time>2026-04-03T10:08:07Z</time></trkpt><trkpt lat="42.08238885162843" lon="12.901368026376419"><ele>504.0</ele><time>2026-04-03T10:08:08Z</time></trkpt><trkpt lat="42.082618381533585" lon="12.901239037151159"><ele>503.0</ele><time>2026-04-03T10:08:09Z</time></trkpt><trkpt lat="42.0829293303465" lon="12.90112555100922"><ele>503.0</ele><time>2026-04-03T10:08:10Z</time></trkpt><trkpt lat="42.083019266558075" lon="12.900960800721425"><ele>503.0</ele><time>2026-04-03T10:08:11Z</time></trkpt><trkpt lat="42.08309963937438" lon="12.90080817507487"><ele>503.0</ele><time>2026-04-03T10:08:12Z</time></trkpt><trkpt lat="42.083208131160326" lon="12.90061840655513"><ele>506.0</ele><time>2026-04-03T10:08:13Z</time></trkpt><trkpt lat="42.083397102553064" lon="12.900548963525408"><ele>509.0</ele><time>2026-04-03T10:08:14Z</time></trkpt><trkpt lat="42.08366934531578" lon="12.900429465712383"><ele>509.0</ele><time>2026-04-03T10:08:15Z</time></trkpt><trkpt lat="42.08397744000567" lon="12.900432317070806"><ele>509.0</ele><time>2026-04-03T10:08:16Z</time></trkpt><trkpt lat="42.08427660276213" lon="12.900487560472703"><ele>507.5</ele><time>2026-04-03T10:08:17Z</time></trkpt><trkpt lat="42.08448990617484" lon="12.900627473006624"><ele>506.0</ele><time>2026-04-03T10:08:18Z</time></trkpt><trkpt lat="42.0846971713818" lon="12.90078427083329"><ele>506.0</ele><time>2026-04-03T10:08:19Z</time></trkpt><trkpt lat="42.08482710596691" lon="12.900850238671676"><ele>506.0</ele><time>2026-04-03T10:08:20Z</time></trkpt><trkpt lat="42.08499211117724" lon="12.900753103593223"><ele>506.0</ele><time>2026-04-03T10:08:21Z</time></trkpt><trkpt lat="42.085138525437706" lon="12.90060386483935"><ele>506.66666666666663</ele><time>2026-04-03T10:08:22Z</time></trkpt><trkpt lat="42.085269296578716" lon="12.900368008074542"><ele>507.33333333333337</ele><time>2026-04-03T10:08:23Z</time></trkpt><trkpt lat="42.085354278780436" lon="12.900143881083379"><ele>508.0</ele><time>2026-04-03T10:08:24Z</time></trkpt><trkpt lat="42.08549114985279" lon="12.900096264730227"><ele>508.0</ele><time>2026-04-03T10:08:25Z</time></trkpt><trkpt lat="42.08563711231449" lon="12.900183515973248"><ele>508.0</ele><time>2026-04-03T10:08:26Z</time></trkpt><trkpt lat="42.085866324213065" lon="12.900245604640782"><ele>508.0</ele><time>2026-04-03T10:08:27Z</time></trkpt><trkpt lat="42.0862276014731" lon="12.900303306702035"><ele>506.33333333333337</ele><time>2026-04-03T10:08:28Z</time></trkpt><trkpt lat="42.08645009327347" lon="12.90037717391678"><ele>504.66666666666663</ele><time>2026-04-03T10:08:29Z</time></trkpt><trkpt lat="42.086552584420524" lon="12.9004959007752"><ele>503.0</ele><time>2026-04-03T10:08:30Z</time></trkpt><trkpt lat="42.08658379476109" lon="12.900647844303005"><ele>503.0</ele><time>2026-04-03T10:08:31Z</time></trkpt><trkpt lat="42.086534119290604" lon="12.900796263743297"><ele>503.0</ele><time>2026-04-03T10:08:32Z</time></trkpt><trkpt lat="42.086532885573185" lon="12.901081135578616"><ele>503.0</ele><time>2026-04-03T10:08:33Z</time></trkpt><trkpt lat="42.086563427549734" lon="12.901351668277814"><ele>504.3333333333333</ele><time>2026-04-03T10:08:34Z</time></trkpt><trkpt lat="42.08665734624316" lon="12.901647516466646"><ele>505.66666666666663</ele><time>2026-04-03T10:08:35Z</time></trkpt><trkpt lat="42.086806362525465" lon="12.90184447912199"><ele>507.0</ele><time>2026-04-03T10:08:36Z</time></trkpt><trkpt lat="42.08703741438439" lon="12.902045550204774"><ele>507.0</ele><time>2026-04-03T10:08:37Z</time></trkpt><trkpt lat="42.08725398154427" lon="12.902276225347855"><ele>507.0</ele><time>2026-04-03T10:08:38Z</time></trkpt><trkpt lat="42.087492997400254" lon="12.902456633474287"><ele>512.5</ele><time>2026-04-03T10:08:39Z</time></trkpt><trkpt lat="42.08778250866095" lon="12.902586539830095"><ele>518.0</ele><time>2026-04-03T10:08:40Z</time></trkpt><trkpt lat="42.088015772095346" lon="12.902805640312433"><ele>518.0</ele><time>2026-04-03T10:08:41Z</time></trkpt><trkpt lat="42.08823284656842" lon="12.903049351178957"><ele>518.0</ele><time>2026-04-03T10:08:42Z</time></trkpt><trkpt lat="42.08842477902906" lon="12.903256855913426"><ele>517.3333333333333</ele><time>2026-04-03T10:08:43Z</time></trkpt><trkpt lat="42.08853167909187" lon="12.903302621329878"><ele>516.6666666666666</ele><time>2026-04-03T10:08:44Z</time></trkpt><trkpt lat="42.08872024683253" lon="12.903244590456092"><ele>516.0</ele><time>2026-04-03T10:08:45Z</time></trkpt><trkpt lat="42.0889180740287" lon="12.903131359707722"><ele>517.5</ele><time>2026-04-03T10:08:46Z</time></trkpt><trkpt lat="42.089140997682655" lon="12.903004722162759"><ele>519.0</ele><time>2026-04-03T10:08:47Z</time></trkpt><trkpt lat="42.08942041094389" lon="12.902944140513606"><ele>519.0</ele><time>2026-04-03T10:08:48Z</time></trkpt><trkpt lat="42.08974128856387" lon="12.902989280462357"><ele>519.0</ele><time>2026-04-03T10:08:49Z</time></trkpt><trkpt lat="42.09006134952049" lon="12.903057366410085"><ele>518.0</ele><time>2026-04-03T10:08:50Z</time></trkpt><trkpt lat="42.090484231783115" lon="12.903139305492726"><ele>517.0</ele><time>2026-04-03T10:08:51Z</time></trkpt><trkpt lat="42.09081677914985" lon="12.903191494172408"><ele>522.0</ele><time>2026-04-03T10:08:52Z</time></trkpt><trkpt lat="42.091133493564115" lon="12.903254467358613"><ele>527.0</ele><time>2026-04-03T10:08:53Z</time></trkpt><trkpt lat="42.09138725242943" lon="12.90338969149509"><ele>522.0</ele><time>2026-04-03T10:08:54Z</time></trkpt><trkpt lat="42.09164493357435" lon="12.903558966436654"><ele>517.0</ele><time>2026-04-03T10:08:55Z</time></trkpt><trkpt lat="42.09192610215322" lon="12.903779626505601"><ele>517.0</ele><time>2026-04-03T10:08:56Z</time></trkpt><trkpt lat="42.09215941486722" lon="12.90405034593727"><ele>517.0</ele><time>2026-04-03T10:08:57Z</time></trkpt><trkpt lat="42.09236061065295" lon="12.904355803590198"><ele>521.0</ele><time>2026-04-03T10:08:58Z</time></trkpt><trkpt lat="42.09257482373778" lon="12.904629948779904"><ele>525.0</ele><time>2026-04-03T10:08:59Z</time></trkpt><trkpt lat="42.09274172974825" lon="12.90482996945545"><ele>525.0</ele><time>2026-04-03T10:09:00Z</time></trkpt><trkpt lat="42.09299626826202" lon="12.905025128300833"><ele>525.0</ele><time>2026-04-03T10:09:01Z</time></trkpt><trkpt lat="42.09330676491217" lon="12.90515392854251"><ele>525.0</ele><time>2026-04-03T10:09:02Z</time></trkpt><trkpt lat="42.09371147832319" lon="12.905346574952821"><ele>525.0</ele><time>2026-04-03T10:09:03Z</time></trkpt><trkpt lat="42.09409166465711" lon="12.90555881429787"><ele>527.5</ele><time>2026-04-03T10:09:04.001Z</time></trkpt><trkpt lat="42.09440478666871" lon="12.905733773910113"><ele>530.0</ele><time>2026-04-03T10:09:05.001Z</time></trkpt><trkpt lat="42.094663052830356" lon="12.905873510286684"><ele>527.5</ele><time>2026-04-03T10:09:06.001Z</time></trkpt><trkpt lat="42.094899552211594" lon="12.905997085157754"><ele>525.0</ele><time>2026-04-03T10:09:07.001Z</time></trkpt><trkpt lat="42.095088562964456" lon="12.906080543298383"><ele>525.0</ele><time>2026-04-03T10:09:08.001Z</time></trkpt><trkpt lat="42.09528866220993" lon="12.906193429380473"><ele>525.0</ele><time>2026-04-03T10:09:09.001Z</time></trkpt><trkpt lat="42.09541219298254" lon="12.906331338438788"><ele>525.0</ele><time>2026-04-03T10:09:10.001Z</time></trkpt><trkpt lat="42.095502479680896" lon="12.906560935789642"><ele>531.0</ele><time>2026-04-03T10:09:11.001Z</time></trkpt><trkpt lat="42.09557127944616" lon="12.906924112896117"><ele>537.0</ele><time>2026-04-03T10:09:12.001Z</time></trkpt><trkpt lat="42.09567534047426" lon="12.907344041681387"><ele>543.0</ele><time>2026-04-03T10:09:13.001Z</time></trkpt><trkpt lat="42.095774922015416" lon="12.907714198399141"><ele>549.0</ele><time>2026-04-03T10:09:14.001Z</time></trkpt><trkpt lat="42.09585991500236" lon="12.90803993092237"><ele>549.0</ele><time>2026-04-03T10:09:15.001Z</time></trkpt><trkpt lat="42.095904206119414" lon="12.9082399087514"><ele>549.0</ele><time>2026-04-03T10:09:16.001Z</time></trkpt><trkpt lat="42.09592705163055" lon="12.908489732992107"><ele>549.0</ele><time>2026-04-03T10:09:17.001Z</time></trkpt><trkpt lat="42.09588051728327" lon="12.908700086541218"><ele>549.5</ele><time>2026-04-03T10:09:18Z</time></trkpt><trkpt lat="42.095793207679655" lon="12.908961503322388"><ele>550.0</ele><time>2026-04-03T10:09:19Z</time></trkpt><trkpt lat="42.09567636796509" lon="12.909268287196927"><ele>563.0</ele><time>2026-04-03T10:09:20Z</time></trkpt><trkpt lat="42.095529036085516" lon="12.909624534581772"><ele>576.0</ele><time>2026-04-03T10:09:21Z</time></trkpt><trkpt lat="42.09541107548201" lon="12.909897533863084"><ele>577.25</ele><time>2026-04-03T10:09:22Z</time></trkpt><trkpt lat="42.09535079678829" lon="12.910079665484188"><ele>578.5</ele><time>2026-04-03T10:09:23Z</time></trkpt><trkpt lat="42.095354157602806" lon="12.910225722450374"><ele>579.75</ele><time>2026-04-03T10:09:24Z</time></trkpt><trkpt lat="42.09539217861762" lon="12.910389346427118"><ele>581.0</ele><time>2026-04-03T10:09:25Z</time></trkpt><trkpt lat="42.09547755147202" lon="12.910644438901636"><ele>583.5</ele><time>2026-04-03T10:09:26Z</time></trkpt><trkpt lat="42.09561554512289" lon="12.910934469042862"><ele>586.0</ele><time>2026-04-03T10:09:27Z</time></trkpt><trkpt lat="42.09574595843812" lon="12.911232216934518"><ele>579.6666666666667</ele><time>2026-04-03T10:09:28Z</time></trkpt><trkpt lat="42.0958477272468" lon="12.911503826742162"><ele>573.3333333333334</ele><time>2026-04-03T10:09:29Z</time></trkpt><trkpt lat="42.095893442361415" lon="12.911668231680041"><ele>567.0</ele><time>2026-04-03T10:09:30Z</time></trkpt><trkpt lat="42.09589972446491" lon="12.911887416589652"><ele>567.0</ele><time>2026-04-03T10:09:31Z</time></trkpt><trkpt lat="42.09588322994384" lon="12.912116494562587"><ele>567.0</ele><time>2026-04-03T10:09:32Z</time></trkpt><trkpt lat="42.09587630333935" lon="12.91235664797609"><ele>567.0</ele><time>2026-04-03T10:09:33Z</time></trkpt><trkpt lat="42.09587881201123" lon="12.91258446601892"><ele>572.0</ele><time>2026-04-03T10:09:34Z</time></trkpt><trkpt lat="42.09591196774078" lon="12.912820104247734"><ele>577.0</ele><time>2026-04-03T10:09:35Z</time></trkpt><trkpt lat="42.095997301489064" lon="12.913032323055107"><ele>582.0</ele><time>2026-04-03T10:09:36Z</time></trkpt><trkpt lat="42.09612676720006" lon="12.913216357455312"><ele>582.0</ele><time>2026-04-03T10:09:37Z</time></trkpt><trkpt lat="42.096240667185704" lon="12.91338138256897"><ele>582.0</ele><time>2026-04-03T10:09:38Z</time></trkpt><trkpt lat="42.096303026117944" lon="12.913611759943757"><ele>582.0</ele><time>2026-04-03T10:09:39Z</time></trkpt><trkpt lat="42.09630700881706" lon="12.913898202813781"><ele>582.5</ele><time>2026-04-03T10:09:40Z</time></trkpt><trkpt lat="42.09627062739559" lon="12.91419737025764"><ele>583.0</ele><time>2026-04-03T10:09:41Z</time></trkpt><trkpt lat="42.096182160915006" lon="12.914502347366431"><ele>583.0</ele><time>2026-04-03T10:09:42Z</time></trkpt><trkpt lat="42.09605310164545" lon="12.914871862873872"><ele>583.0</ele><time>2026-04-03T10:09:43Z</time></trkpt><trkpt lat="42.095941569277336" lon="12.91519920818775"><ele>579.6666666666667</ele><time>2026-04-03T10:09:44Z</time></trkpt><trkpt lat="42.09587484578299" lon="12.915483671091764"><ele>576.3333333333334</ele><time>2026-04-03T10:09:45Z</time></trkpt><trkpt lat="42.0958118338954" lon="12.915750517584483"><ele>573.0</ele><time>2026-04-03T10:09:46Z</time></trkpt><trkpt lat="42.09570034283994" lon="12.91601638215043"><ele>587.0</ele><time>2026-04-03T10:09:47Z</time></trkpt><trkpt lat="42.09555547775107" lon="12.916321092757778"><ele>601.0</ele><time>2026-04-03T10:09:48Z</time></trkpt><trkpt lat="42.09542493618367" lon="12.916603243108403"><ele>596.6666666666667</ele><time>2026-04-03T10:09:49Z</time></trkpt><trkpt lat="42.09529174136235" lon="12.916839493760493"><ele>592.3333333333334</ele><time>2026-04-03T10:09:50Z</time></trkpt><trkpt lat="42.095153992086246" lon="12.91704662229441"><ele>588.0</ele><time>2026-04-03T10:09:51Z</time></trkpt><trkpt lat="42.09505131993736" lon="12.917204310716073"><ele>588.0</ele><time>2026-04-03T10:09:52Z</time></trkpt><trkpt lat="42.09499601639324" lon="12.917326377643555"><ele>588.0</ele><time>2026-04-03T10:09:53Z</time></trkpt><trkpt lat="42.095006348399465" lon="12.917458738609994"><ele>588.0</ele><time>2026-04-03T10:09:54Z</time></trkpt><trkpt lat="42.09508680665333" lon="12.917577167975832"><ele>588.0</ele><time>2026-04-03T10:09:55Z</time></trkpt><trkpt lat="42.09524090774882" lon="12.917708418066262"><ele>591.0</ele><time>2026-04-03T10:09:56Z</time></trkpt><trkpt lat="42.095413080723375" lon="12.917755340334985"><ele>594.0</ele><time>2026-04-03T10:09:57Z</time></trkpt><trkpt lat="42.09559610195353" lon="12.917698358569488"><ele>597.0</ele><time>2026-04-03T10:09:58Z</time></trkpt><trkpt lat="42.09576329428211" lon="12.917596163253451"><ele>598.3333333333334</ele><time>2026-04-03T10:09:59Z</time></trkpt><trkpt lat="42.095902443026475" lon="12.917581709254248"><ele>599.6666666666667</ele><time>2026-04-03T10:10:00Z</time></trkpt><trkpt lat="42.09604010084037" lon="12.91769093100146"><ele>601.0</ele><time>2026-04-03T10:10:01Z</time></trkpt><trkpt lat="42.09615782596183" lon="12.917857344480161"><ele>601.0</ele><time>2026-04-03T10:10:02Z</time></trkpt><trkpt lat="42.09627137035933" lon="12.918136971554553"><ele>601.0</ele><time>2026-04-03T10:10:03Z</time></trkpt><trkpt lat="42.09637905275023" lon="12.918280384334675"><ele>601.0</ele><time>2026-04-03T10:10:04Z</time></trkpt><trkpt lat="42.09654577785952" lon="12.918299864437158"><ele>597.0</ele><time>2026-04-03T10:10:05Z</time></trkpt><trkpt lat="42.09668536690851" lon="12.91839182845244"><ele>593.0</ele><time>2026-04-03T10:10:06Z</time></trkpt><trkpt lat="42.09688538335978" lon="12.917955364607106"><ele>593.0</ele><time>2026-04-03T10:10:07Z</time></trkpt><trkpt lat="42.09706698374848" lon="12.918051438431453"><ele>593.0</ele><time>2026-04-03T10:10:08Z</time></trkpt><trkpt lat="42.09721018880526" lon="12.91814080262586"><ele>593.0</ele><time>2026-04-03T10:10:09Z</time></trkpt><trkpt lat="42.097350856519824" lon="12.918114710497614"><ele>589.75</ele><time>2026-04-03T10:10:10Z</time></trkpt><trkpt lat="42.09742613258144" lon="12.917980391905342"><ele>586.5</ele><time>2026-04-03T10:10:11Z</time></trkpt><trkpt lat="42.097470769996946" lon="12.917809936413473"><ele>583.25</ele><time>2026-04-03T10:10:12Z</time></trkpt><trkpt lat="42.0974350637842" lon="12.91765155580851"><ele>580.0</ele><time>2026-04-03T10:10:13Z</time></trkpt><trkpt lat="42.097389024225244" lon="12.917426464066361"><ele>580.0</ele><time>2026-04-03T10:10:14Z</time></trkpt><trkpt lat="42.097399032968404" lon="12.917039730472952"><ele>580.0</ele><time>2026-04-03T10:10:15Z</time></trkpt><trkpt lat="42.097447489211106" lon="12.916773373954786"><ele>585.0</ele><time>2026-04-03T10:10:16Z</time></trkpt><trkpt lat="42.09756142408166" lon="12.916533933525233"><ele>590.0</ele><time>2026-04-03T10:10:17Z</time></trkpt><trkpt lat="42.09760799924142" lon="12.916280344442344"><ele>595.0</ele><time>2026-04-03T10:10:18Z</time></trkpt><trkpt lat="42.09755510340776" lon="12.916096337624161"><ele>594.3333333333334</ele><time>2026-04-03T10:10:19Z</time></trkpt><trkpt lat="42.09747222930932" lon="12.915850640670403"><ele>593.6666666666666</ele><time>2026-04-03T10:10:20Z</time></trkpt><trkpt lat="42.09748566397269" lon="12.915633808079535"><ele>593.0</ele><time>2026-04-03T10:10:21Z</time></trkpt><trkpt lat="42.09757979532038" lon="12.915468195451245"><ele>593.0</ele><time>2026-04-03T10:10:22Z</time></trkpt><trkpt lat="42.09771160170829" lon="12.915414123908475"><ele>593.0</ele><time>2026-04-03T10:10:23Z</time></trkpt><trkpt lat="42.097865266209865" lon="12.915423194325323"><ele>593.0</ele><time>2026-04-03T10:10:24Z</time></trkpt><trkpt lat="42.09805226987047" lon="12.915484611820338"><ele>598.0</ele><time>2026-04-03T10:10:25Z</time></trkpt><trkpt lat="42.09831491791078" lon="12.915556588755537"><ele>603.0</ele><time>2026-04-03T10:10:26Z</time></trkpt><trkpt lat="42.098415661139924" lon="12.915688921927451"><ele>608.0</ele><time>2026-04-03T10:10:27Z</time></trkpt><trkpt lat="42.09856494506048" lon="12.91583025550346"><ele>608.0</ele><time>2026-04-03T10:10:28Z</time></trkpt><trkpt lat="42.098751903099576" lon="12.91590225995046"><ele>608.0</ele><time>2026-04-03T10:10:29Z</time></trkpt><trkpt lat="42.09902421645298" lon="12.915966529674874"><ele>615.6666666666666</ele><time>2026-04-03T10:10:30Z</time></trkpt><trkpt lat="42.099224253396976" lon="12.916026264026653"><ele>623.3333333333334</ele><time>2026-04-03T10:10:31Z</time></trkpt><trkpt lat="42.09939263193578" lon="12.916180560907867"><ele>631.0</ele><time>2026-04-03T10:10:32Z</time></trkpt><trkpt lat="42.09954561592881" lon="12.916321738128104"><ele>631.0</ele><time>2026-04-03T10:10:33Z</time></trkpt><trkpt lat="42.09963693179728" lon="12.916439648817054"><ele>631.0</ele><time>2026-04-03T10:10:34Z</time></trkpt><trkpt lat="42.0997123123215" lon="12.916408836735014"><ele>631.0</ele><time>2026-04-03T10:10:35Z</time></trkpt><trkpt lat="42.09981504829059" lon="12.916294702561283"><ele>631.0</ele><time>2026-04-03T10:10:36Z</time></trkpt><trkpt lat="42.0998398048597" lon="12.916112350670208"><ele>631.0</ele><time>2026-04-03T10:10:37Z</time></trkpt><trkpt lat="42.09980008330654" lon="12.915922704224707"><ele>631.0</ele><time>2026-04-03T10:10:38Z</time></trkpt><trkpt lat="42.09964734144717" lon="12.915542466703371"><ele>621.5</ele><time>2026-04-03T10:10:39Z</time></trkpt><trkpt lat="42.09947046899842" lon="12.915185712946974"><ele>612.0</ele><time>2026-04-03T10:10:40Z</time></trkpt><trkpt lat="42.09933590551169" lon="12.914910799671192"><ele>612.3333333333334</ele><time>2026-04-03T10:10:41Z</time></trkpt><trkpt lat="42.099321426641886" lon="12.914634655545587"><ele>612.6666666666667</ele><time>2026-04-03T10:10:42Z</time></trkpt><trkpt lat="42.09937452542187" lon="12.914423360548458"><ele>613.0</ele><time>2026-04-03T10:10:43Z</time></trkpt><trkpt lat="42.09943503876604" lon="12.914133679555876"><ele>613.0</ele><time>2026-04-03T10:10:44Z</time></trkpt><trkpt lat="42.099412871249015" lon="12.913856528062787"><ele>613.0</ele><time>2026-04-03T10:10:45Z</time></trkpt><trkpt lat="42.09936749111257" lon="12.913615329752455"><ele>613.0</ele><time>2026-04-03T10:10:46Z</time></trkpt><trkpt lat="42.09943294321156" lon="12.913454140407712"><ele>612.6666666666667</ele><time>2026-04-03T10:10:47Z</time></trkpt><trkpt lat="42.0995779209739" lon="12.913300736787518"><ele>612.3333333333334</ele><time>2026-04-03T10:10:48Z</time></trkpt><trkpt lat="42.09976158570875" lon="12.913159858668033"><ele>612.0</ele><time>2026-04-03T10:10:49Z</time></trkpt><trkpt lat="42.10002511773598" lon="12.912990638861627"><ele>622.0</ele><time>2026-04-03T10:10:50Z</time></trkpt><trkpt lat="42.10031082201587" lon="12.912855359557213"><ele>632.0</ele><time>2026-04-03T10:10:51Z</time></trkpt><trkpt lat="42.10054250312353" lon="12.912788066082129"><ele>638.5</ele><time>2026-04-03T10:10:52Z</time></trkpt><trkpt lat="42.100787465676994" lon="12.912808282047203"><ele>645.0</ele><time>2026-04-03T10:10:53Z</time></trkpt><trkpt lat="42.10105865452177" lon="12.912817043176355"><ele>645.0</ele><time>2026-04-03T10:10:54Z</time></trkpt><trkpt lat="42.10135182968277" lon="12.912851008521274"><ele>645.0</ele><time>2026-04-03T10:10:55Z</time></trkpt><trkpt lat="42.10157294337577" lon="12.912969896664507"><ele>645.0</ele><time>2026-04-03T10:10:56Z</time></trkpt><trkpt lat="42.10184531766167" lon="12.913115372657094"><ele>645.0</ele><time>2026-04-03T10:10:57Z</time></trkpt><trkpt lat="42.102170624841975" lon="12.9132738901409"><ele>645.0</ele><time>2026-04-03T10:10:58Z</time></trkpt><trkpt lat="42.10241098245282" lon="12.91332120194077"><ele>645.0</ele><time>2026-04-03T10:10:59Z</time></trkpt><trkpt lat="42.10263184722619" lon="12.913420418544446"><ele>651.0</ele><time>2026-04-03T10:11:00Z</time></trkpt><trkpt lat="42.102783243527774" lon="12.913551931854668"><ele>657.0</ele><time>2026-04-03T10:11:01Z</time></trkpt><trkpt lat="42.10289547187539" lon="12.913721883805898"><ele>663.0</ele><time>2026-04-03T10:11:02Z</time></trkpt><trkpt lat="42.10298117002527" lon="12.91390347756619"><ele>663.0</ele><time>2026-04-03T10:11:03Z</time></trkpt><trkpt lat="42.10309905452313" lon="12.914046750969758"><ele>663.0</ele><time>2026-04-03T10:11:04Z</time></trkpt><trkpt lat="42.103211854682826" lon="12.914075462532876"><ele>663.0</ele><time>2026-04-03T10:11:05Z</time></trkpt><trkpt lat="42.1033835148513" lon="12.914071446036136"><ele>663.0</ele><time>2026-04-03T10:11:06Z</time></trkpt><trkpt lat="42.10355782820302" lon="12.914065771516757"><ele>662.25</ele><time>2026-04-03T10:11:07Z</time></trkpt><trkpt lat="42.10365154309392" lon="12.913941288004397"><ele>661.5</ele><time>2026-04-03T10:11:08Z</time></trkpt><trkpt lat="42.1036407516225" lon="12.9138260156873"><ele>660.75</ele><time>2026-04-03T10:11:09Z</time></trkpt><trkpt lat="42.10362949800246" lon="12.913665008837757"><ele>660.0</ele><time>2026-04-03T10:11:10Z</time></trkpt><trkpt lat="42.10356084594651" lon="12.91353633920663"><ele>660.0</ele><time>2026-04-03T10:11:11Z</time></trkpt><trkpt lat="42.10329514466423" lon="12.913429019627113"><ele>660.0</ele><time>2026-04-03T10:11:12Z</time></trkpt><trkpt lat="42.10321647103647" lon="12.913267294211796"><ele>660.0</ele><time>2026-04-03T10:11:13Z</time></trkpt><trkpt lat="42.10318385471437" lon="12.913048615494427"><ele>650.5</ele><time>2026-04-03T10:11:14.001Z</time></trkpt><trkpt lat="42.10306855565592" lon="12.912744459202294"><ele>641.0</ele><time>2026-04-03T10:11:15.001Z</time></trkpt><trkpt lat="42.1028971158246" lon="12.912435564048383"><ele>640.6666666666666</ele><time>2026-04-03T10:11:16.001Z</time></trkpt><trkpt lat="42.102804522606824" lon="12.912189952838768"><ele>640.3333333333334</ele><time>2026-04-03T10:11:17.001Z</time></trkpt><trkpt lat="42.1027272304461" lon="12.911932762619447"><ele>640.0</ele><time>2026-04-03T10:11:18.001Z</time></trkpt><trkpt lat="42.102712449536625" lon="12.911821987063803"><ele>642.5</ele><time>2026-04-03T10:11:19.001Z</time></trkpt><trkpt lat="42.10272416446622" lon="12.911656756129949"><ele>645.0</ele><time>2026-04-03T10:11:20.001Z</time></trkpt><trkpt lat="42.10281327639399" lon="12.911498442578486"><ele>647.5</ele><time>2026-04-03T10:11:21.001Z</time></trkpt><trkpt lat="42.10289642683283" lon="12.911330294635494"><ele>650.0</ele><time>2026-04-03T10:11:22.001Z</time></trkpt><trkpt lat="42.10291776447946" lon="12.911195402129037"><ele>650.0</ele><time>2026-04-03T10:11:23.001Z</time></trkpt><trkpt lat="42.102872789732764" lon="12.911038908741459"><ele>650.0</ele><time>2026-04-03T10:11:24Z</time></trkpt><trkpt lat="42.102791180107346" lon="12.910947306430833"><ele>650.0</ele><time>2026-04-03T10:11:25Z</time></trkpt><trkpt lat="42.10265491450335" lon="12.910910490632657"><ele>650.0</ele><time>2026-04-03T10:11:26Z</time></trkpt><trkpt lat="42.10247843087286" lon="12.910829505781209"><ele>651.0</ele><time>2026-04-03T10:11:27Z</time></trkpt><trkpt lat="42.102213174211045" lon="12.910732387300397"><ele>652.0</ele><time>2026-04-03T10:11:28Z</time></trkpt><trkpt lat="42.10203286080235" lon="12.910658002566302"><ele>652.0</ele><time>2026-04-03T10:11:29Z</time></trkpt><trkpt lat="42.101917848240205" lon="12.91056417610451"><ele>652.0</ele><time>2026-04-03T10:11:30Z</time></trkpt><trkpt lat="42.101782758546875" lon="12.910384794073524"><ele>652.0</ele><time>2026-04-03T10:11:31Z</time></trkpt><trkpt lat="42.101556058454484" lon="12.910095778732218"><ele>654.0</ele><time>2026-04-03T10:11:32Z</time></trkpt><trkpt lat="42.10126161283101" lon="12.909716840282522"><ele>656.0</ele><time>2026-04-03T10:11:33Z</time></trkpt><trkpt lat="42.10103950404038" lon="12.909447440396045"><ele>661.5</ele><time>2026-04-03T10:11:34Z</time></trkpt><trkpt lat="42.10086350396042" lon="12.90923177147056"><ele>667.0</ele><time>2026-04-03T10:11:35Z</time></trkpt><trkpt lat="42.1006760067023" lon="12.909091152298421"><ele>667.0</ele><time>2026-04-03T10:11:36Z</time></trkpt><trkpt lat="42.100436329189094" lon="12.909044997993364"><ele>667.0</ele><time>2026-04-03T10:11:37Z</time></trkpt><trkpt lat="42.10017838383113" lon="12.908972355677456"><ele>667.0</ele><time>2026-04-03T10:11:38Z</time></trkpt><trkpt lat="42.099963344581234" lon="12.90884665435968"><ele>667.0</ele><time>2026-04-03T10:11:39Z</time></trkpt><trkpt lat="42.09982062926446" lon="12.908724550178839"><ele>667.0</ele><time>2026-04-03T10:11:40Z</time></trkpt><trkpt lat="42.09970152158984" lon="12.90860497164787"><ele>666.2</ele><time>2026-04-03T10:11:41Z</time></trkpt><trkpt lat="42.09958102686489" lon="12.90846220460579"><ele>665.4000000000001</ele><time>2026-04-03T10:11:43Z</time></trkpt><trkpt lat="42.09952726923245" lon="12.908392497788927"><ele>664.5999999999999</ele><time>2026-04-03T10:11:44Z</time></trkpt><trkpt lat="42.099484615244684" lon="12.908306359646948"><ele>663.8</ele><time>2026-04-03T10:11:45Z</time></trkpt><trkpt lat="42.09943999432635" lon="12.908201724758122"><ele>663.0</ele><time>2026-04-03T10:11:46Z</time></trkpt><trkpt lat="42.09940928045596" lon="12.908098674057706"><ele>663.0</ele><time>2026-04-03T10:11:47Z</time></trkpt><trkpt lat="42.099394406989106" lon="12.9080058564595"><ele>663.0</ele><time>2026-04-03T10:11:48Z</time></trkpt><trkpt lat="42.09942925501124" lon="12.907834236951164"><ele>663.0</ele><time>2026-04-03T10:11:50Z</time></trkpt><trkpt lat="42.09947779747319" lon="12.90772767966151"><ele>663.0</ele><time>2026-04-03T10:11:51Z</time></trkpt><trkpt lat="42.09953565749024" lon="12.907659499773361"><ele>663.0</ele><time>2026-04-03T10:11:52Z</time></trkpt><trkpt lat="42.09959676294051" lon="12.907623481988866"><ele>663.0</ele><time>2026-04-03T10:11:53Z</time></trkpt><trkpt lat="42.09966992551598" lon="12.907578234364703"><ele>662.5999999999999</ele><time>2026-04-03T10:11:54Z</time></trkpt><trkpt lat="42.09975848815908" lon="12.907536303846912"><ele>662.1999999999999</ele><time>2026-04-03T10:11:55Z</time></trkpt><trkpt lat="42.09985743010694" lon="12.907506035029437"><ele>661.8</ele><time>2026-04-03T10:11:56Z</time></trkpt><trkpt lat="42.09995074738541" lon="12.90749697467305"><ele>661.4</ele><time>2026-04-03T10:11:57Z</time></trkpt><trkpt lat="42.10003753878314" lon="12.907494932403727"><ele>661.0</ele><time>2026-04-03T10:11:58Z</time></trkpt><trkpt lat="42.100204179562" lon="12.907490792641601"><ele>671.0</ele><time>2026-04-03T10:11:59Z</time></trkpt><trkpt lat="42.10050787324262" lon="12.90748122790079"><ele>681.0</ele><time>2026-04-03T10:12:00Z</time></trkpt><trkpt lat="42.10080543076182" lon="12.907480805934131"><ele>684.6666666666666</ele><time>2026-04-03T10:12:01Z</time></trkpt><trkpt lat="42.10102494493855" lon="12.907494462208474"><ele>688.3333333333333</ele><time>2026-04-03T10:12:02Z</time></trkpt><trkpt lat="42.10122132176543" lon="12.907469542226956"><ele>692.0</ele><time>2026-04-03T10:12:03Z</time></trkpt><trkpt lat="42.101417830654235" lon="12.907353244579257"><ele>702.0</ele><time>2026-04-03T10:12:04Z</time></trkpt><trkpt lat="42.10163765110314" lon="12.907141630861286"><ele>712.0</ele><time>2026-04-03T10:12:05Z</time></trkpt><trkpt lat="42.10189478191293" lon="12.907059900029026"><ele>712.0</ele><time>2026-04-03T10:12:06Z</time></trkpt><trkpt lat="42.10221967229398" lon="12.906921479195924"><ele>712.0</ele><time>2026-04-03T10:12:07Z</time></trkpt><trkpt lat="42.102525885580775" lon="12.906832808113077"><ele>719.6666666666667</ele><time>2026-04-03T10:12:08Z</time></trkpt><trkpt lat="42.10275243876545" lon="12.9067844330272"><ele>727.3333333333334</ele><time>2026-04-03T10:12:09Z</time></trkpt><trkpt lat="42.10296918060715" lon="12.906787430223861"><ele>735.0</ele><time>2026-04-03T10:12:10Z</time></trkpt><trkpt lat="42.10315285800934" lon="12.906802923540706"><ele>739.0</ele><time>2026-04-03T10:12:11Z</time></trkpt><trkpt lat="42.103301831138864" lon="12.906769311326718"><ele>743.0</ele><time>2026-04-03T10:12:12Z</time></trkpt><trkpt lat="42.10343826932105" lon="12.90661403913474"><ele>747.0</ele><time>2026-04-03T10:12:13Z</time></trkpt><trkpt lat="42.10356840415972" lon="12.90633894497249"><ele>735.0</ele><time>2026-04-03T10:12:14Z</time></trkpt><trkpt lat="42.10368288883962" lon="12.906069136273834"><ele>723.0</ele><time>2026-04-03T10:12:15Z</time></trkpt><trkpt lat="42.10383568528492" lon="12.905923581965894"><ele>711.0</ele><time>2026-04-03T10:12:16Z</time></trkpt><trkpt lat="42.10401203414158" lon="12.905827356709692"><ele>710.0</ele><time>2026-04-03T10:12:17Z</time></trkpt><trkpt lat="42.10425045811383" lon="12.905792978355892"><ele>709.0</ele><time>2026-04-03T10:12:18Z</time></trkpt><trkpt lat="42.104550344362174" lon="12.905778643991443"><ele>709.0</ele><time>2026-04-03T10:12:19Z</time></trkpt><trkpt lat="42.10484779149031" lon="12.905786087902213"><ele>709.0</ele><time>2026-04-03T10:12:20Z</time></trkpt><trkpt lat="42.10515915935478" lon="12.905861225613279"><ele>731.0</ele><time>2026-04-03T10:12:21Z</time></trkpt><trkpt lat="42.10547573077446" lon="12.905946233716262"><ele>753.0</ele><time>2026-04-03T10:12:22Z</time></trkpt><trkpt lat="42.10571857052284" lon="12.906015884312236"><ele>751.3333333333334</ele><time>2026-04-03T10:12:23Z</time></trkpt><trkpt lat="42.10591082140263" lon="12.90602096577752"><ele>749.6666666666667</ele><time>2026-04-03T10:12:24Z</time></trkpt><trkpt lat="42.10611138113879" lon="12.905971811863413"><ele>748.0</ele><time>2026-04-03T10:12:25Z</time></trkpt><trkpt lat="42.10633565534089" lon="12.905848700684604"><ele>736.5</ele><time>2026-04-03T10:12:26Z</time></trkpt><trkpt lat="42.1065809761044" lon="12.905698157684542"><ele>725.0</ele><time>2026-04-03T10:12:27Z</time></trkpt><trkpt lat="42.10681574768124" lon="12.905603014223786"><ele>725.0</ele><time>2026-04-03T10:12:28Z</time></trkpt><trkpt lat="42.10698325150131" lon="12.905580854209477"><ele>725.0</ele><time>2026-04-03T10:12:29Z</time></trkpt><trkpt lat="42.10713060009808" lon="12.905672596929216"><ele>725.0</ele><time>2026-04-03T10:12:30Z</time></trkpt><trkpt lat="42.107316377262535" lon="12.905816494645737"><ele>735.3333333333333</ele><time>2026-04-03T10:12:31Z</time></trkpt><trkpt lat="42.1074914889816" lon="12.905931222461533"><ele>745.6666666666666</ele><time>2026-04-03T10:12:32Z</time></trkpt><trkpt lat="42.10762662534813" lon="12.906013003256106"><ele>756.0</ele><time>2026-04-03T10:12:33Z</time></trkpt><trkpt lat="42.10773829380163" lon="12.905951714593412"><ele>744.6666666666666</ele><time>2026-04-03T10:12:34Z</time></trkpt><trkpt lat="42.10785145389186" lon="12.905789237338288"><ele>733.3333333333333</ele><time>2026-04-03T10:12:35Z</time></trkpt><trkpt lat="42.10800715253285" lon="12.905630990289678"><ele>722.0</ele><time>2026-04-03T10:12:36Z</time></trkpt><trkpt lat="42.10816910702805" lon="12.905625386182374"><ele>724.0</ele><time>2026-04-03T10:12:37Z</time></trkpt><trkpt lat="42.10834744704117" lon="12.905719051444864"><ele>726.0</ele><time>2026-04-03T10:12:38Z</time></trkpt><trkpt lat="42.10856780327818" lon="12.90587919982394"><ele>728.0</ele><time>2026-04-03T10:12:39Z</time></trkpt><trkpt lat="42.10877525303959" lon="12.905978010178263"><ele>735.3333333333333</ele><time>2026-04-03T10:12:40Z</time></trkpt><trkpt lat="42.10899813446454" lon="12.90602726905244"><ele>742.6666666666666</ele><time>2026-04-03T10:12:41Z</time></trkpt><trkpt lat="42.10918101186349" lon="12.906154218288936"><ele>750.0</ele><time>2026-04-03T10:12:42Z</time></trkpt><trkpt lat="42.10932316187308" lon="12.906352321522386"><ele>750.0</ele><time>2026-04-03T10:12:43Z</time></trkpt><trkpt lat="42.10944803786456" lon="12.906615585611323"><ele>750.0</ele><time>2026-04-03T10:12:44Z</time></trkpt><trkpt lat="42.1096128084143" lon="12.906916523166567"><ele>746.5</ele><time>2026-04-03T10:12:45Z</time></trkpt><trkpt lat="42.10980957989811" lon="12.907152761076304"><ele>743.0</ele><time>2026-04-03T10:12:46Z</time></trkpt><trkpt lat="42.110029369304755" lon="12.90738530631346"><ele>752.3333333333333</ele><time>2026-04-03T10:12:47Z</time></trkpt><trkpt lat="42.11015724677552" lon="12.907670971791052"><ele>761.6666666666666</ele><time>2026-04-03T10:12:48Z</time></trkpt><trkpt lat="42.11028429714587" lon="12.907815616410128"><ele>771.0</ele><time>2026-04-03T10:12:49Z</time></trkpt><trkpt lat="42.11044476408834" lon="12.907899285720134"><ele>771.0</ele><time>2026-04-03T10:12:50Z</time></trkpt><trkpt lat="42.11066935138218" lon="12.90800082906513"><ele>771.0</ele><time>2026-04-03T10:12:51Z</time></trkpt><trkpt lat="42.11090978495898" lon="12.908242877583273"><ele>772.5</ele><time>2026-04-03T10:12:52Z</time></trkpt><trkpt lat="42.11121098953566" lon="12.908526963447299"><ele>774.0</ele><time>2026-04-03T10:12:53Z</time></trkpt><trkpt lat="42.11145893338174" lon="12.908797842609882"><ele>767.3333333333334</ele><time>2026-04-03T10:12:54Z</time></trkpt><trkpt lat="42.11164924463198" lon="12.908978205414964"><ele>760.6666666666667</ele><time>2026-04-03T10:12:55Z</time></trkpt><trkpt lat="42.11182212326119" lon="12.909045089984588"><ele>754.0</ele><time>2026-04-03T10:12:56Z</time></trkpt><trkpt lat="42.111953218955684" lon="12.909158143752398"><ele>763.5</ele><time>2026-04-03T10:12:57Z</time></trkpt><trkpt lat="42.11207436550386" lon="12.909387804522806"><ele>773.0</ele><time>2026-04-03T10:12:58Z</time></trkpt><trkpt lat="42.11222970975425" lon="12.909694820090214"><ele>773.0</ele><time>2026-04-03T10:12:59Z</time></trkpt><trkpt lat="42.112277757057505" lon="12.909954216967103"><ele>773.0</ele><time>2026-04-03T10:13:00Z</time></trkpt><trkpt lat="42.11230548738441" lon="12.910173918130058"><ele>773.0</ele><time>2026-04-03T10:13:01Z</time></trkpt><trkpt lat="42.11233887446322" lon="12.910333497179714"><ele>771.0</ele><time>2026-04-03T10:13:02Z</time></trkpt><trkpt lat="42.11243277965431" lon="12.91042193063914"><ele>769.0</ele><time>2026-04-03T10:13:03Z</time></trkpt><trkpt lat="42.11260917939825" lon="12.910387520046106"><ele>767.0</ele><time>2026-04-03T10:13:04Z</time></trkpt><trkpt lat="42.112806800436594" lon="12.910355312557211"><ele>767.0</ele><time>2026-04-03T10:13:05Z</time></trkpt><trkpt lat="42.11293914877234" lon="12.910475192060945"><ele>767.0</ele><time>2026-04-03T10:13:06Z</time></trkpt><trkpt lat="42.1130019784678" lon="12.910640936355517"><ele>767.0</ele><time>2026-04-03T10:13:07Z</time></trkpt><trkpt lat="42.11299717896953" lon="12.910839355355865"><ele>767.0</ele><time>2026-04-03T10:13:08Z</time></trkpt><trkpt lat="42.112908242164146" lon="12.911027542488704"><ele>771.6666666666666</ele><time>2026-04-03T10:13:09Z</time></trkpt><trkpt lat="42.11284653068984" lon="12.911283734637474"><ele>776.3333333333333</ele><time>2026-04-03T10:13:10Z</time></trkpt><trkpt lat="42.11282118272158" lon="12.911517672486138"><ele>781.0</ele><time>2026-04-03T10:13:11Z</time></trkpt><trkpt lat="42.11288345158091" lon="12.911729015456356"><ele>777.6666666666666</ele><time>2026-04-03T10:13:12Z</time></trkpt><trkpt lat="42.11301960513641" lon="12.911906121170286"><ele>774.3333333333333</ele><time>2026-04-03T10:13:13Z</time></trkpt><trkpt lat="42.113196288323" lon="12.912018683013985"><ele>771.0</ele><time>2026-04-03T10:13:14Z</time></trkpt><trkpt lat="42.113352210961786" lon="12.91211430785475"><ele>771.0</ele><time>2026-04-03T10:13:15Z</time></trkpt><trkpt lat="42.11343966681647" lon="12.912288770311806"><ele>771.0</ele><time>2026-04-03T10:13:16Z</time></trkpt><trkpt lat="42.113537196417454" lon="12.912546445502313"><ele>771.0</ele><time>2026-04-03T10:13:17Z</time></trkpt><trkpt lat="42.11358393867189" lon="12.912836561051801"><ele>778.0</ele><time>2026-04-03T10:13:18Z</time></trkpt><trkpt lat="42.11362779028792" lon="12.913161020976315"><ele>785.0</ele><time>2026-04-03T10:13:19Z</time></trkpt><trkpt lat="42.1137384817636" lon="12.913432055976681"><ele>792.5</ele><time>2026-04-03T10:13:20Z</time></trkpt><trkpt lat="42.11381590150434" lon="12.913717775270195"><ele>800.0</ele><time>2026-04-03T10:13:21Z</time></trkpt><trkpt lat="42.11384672474214" lon="12.914021285592378"><ele>803.3333333333334</ele><time>2026-04-03T10:13:22Z</time></trkpt><trkpt lat="42.1138905958938" lon="12.914315381094509"><ele>806.6666666666667</ele><time>2026-04-03T10:13:23Z</time></trkpt><trkpt lat="42.11390031516859" lon="12.914547231578213"><ele>810.0</ele><time>2026-04-03T10:13:24Z</time></trkpt><trkpt lat="42.11392401190685" lon="12.914702957711532"><ele>810.0</ele><time>2026-04-03T10:13:25Z</time></trkpt><trkpt lat="42.11397580963543" lon="12.914785783181166"><ele>810.0</ele><time>2026-04-03T10:13:26.001Z</time></trkpt><trkpt lat="42.11406487252303" lon="12.914821593334805"><ele>810.0</ele><time>2026-04-03T10:13:27.001Z</time></trkpt><trkpt lat="42.1141855771418" lon="12.91478315286833"><ele>810.0</ele><time>2026-04-03T10:13:28.001Z</time></trkpt><trkpt lat="42.11428891625953" lon="12.914659653543533"><ele>810.0</ele><time>2026-04-03T10:13:29.001Z</time></trkpt><trkpt lat="42.114397280895446" lon="12.914436696624604"><ele>789.5</ele><time>2026-04-03T10:13:30Z</time></trkpt><trkpt lat="42.114553366687346" lon="12.91415614477923"><ele>769.0</ele><time>2026-04-03T10:13:31Z</time></trkpt><trkpt lat="42.11470364980564" lon="12.913827989341685"><ele>770.0</ele><time>2026-04-03T10:13:32Z</time></trkpt><trkpt lat="42.11491517977637" lon="12.913417117955605"><ele>771.0</ele><time>2026-04-03T10:13:33Z</time></trkpt><trkpt lat="42.11511094853403" lon="12.913169918236507"><ele>771.0</ele><time>2026-04-03T10:13:34Z</time></trkpt><trkpt lat="42.11548597585068" lon="12.912900985473275"><ele>771.0</ele><time>2026-04-03T10:13:36Z</time></trkpt><trkpt lat="42.11565805574925" lon="12.91290508882384"><ele>777.5</ele><time>2026-04-03T10:13:37Z</time></trkpt><trkpt lat="42.11581383918808" lon="12.91304657904749"><ele>784.0</ele><time>2026-04-03T10:13:38Z</time></trkpt><trkpt lat="42.11605362865182" lon="12.913245275620278"><ele>795.0</ele><time>2026-04-03T10:13:39Z</time></trkpt><trkpt lat="42.11632076435546" lon="12.913422218945987"><ele>806.0</ele><time>2026-04-03T10:13:40Z</time></trkpt><trkpt lat="42.11651523307211" lon="12.91359686536836"><ele>796.0</ele><time>2026-04-03T10:13:41Z</time></trkpt><trkpt lat="42.11667058868398" lon="12.91388495910777"><ele>786.0</ele><time>2026-04-03T10:13:42Z</time></trkpt><trkpt lat="42.11681102311212" lon="12.914191711090748"><ele>793.0</ele><time>2026-04-03T10:13:43Z</time></trkpt><trkpt lat="42.116922715402886" lon="12.914555504140896"><ele>800.0</ele><time>2026-04-03T10:13:44Z</time></trkpt><trkpt lat="42.117073763778706" lon="12.915060945096007"><ele>808.0</ele><time>2026-04-03T10:13:45Z</time></trkpt><trkpt lat="42.11722057166311" lon="12.915525632050368"><ele>816.0</ele><time>2026-04-03T10:13:46Z</time></trkpt><trkpt lat="42.11738062722246" lon="12.915998457660558"><ele>815.0</ele><time>2026-04-03T10:13:47Z</time></trkpt><trkpt lat="42.11751485812499" lon="12.91637895739345"><ele>814.0</ele><time>2026-04-03T10:13:48Z</time></trkpt><trkpt lat="42.117708771192724" lon="12.916798371880102"><ele>814.0</ele><time>2026-04-03T10:13:49Z</time></trkpt><trkpt lat="42.11787399093431" lon="12.917183965283476"><ele>814.0</ele><time>2026-04-03T10:13:50Z</time></trkpt><trkpt lat="42.118025539609505" lon="12.917529225814633"><ele>813.0</ele><time>2026-04-03T10:13:51Z</time></trkpt><trkpt lat="42.118123605974034" lon="12.91774464986243"><ele>812.0</ele><time>2026-04-03T10:13:52Z</time></trkpt><trkpt lat="42.11821886443723" lon="12.91797393257387"><ele>811.0</ele><time>2026-04-03T10:13:53Z</time></trkpt><trkpt lat="42.118296402574416" lon="12.918068287657112"><ele>811.0</ele><time>2026-04-03T10:13:54Z</time></trkpt><trkpt lat="42.11840162115375" lon="12.918082959138875"><ele>811.0</ele><time>2026-04-03T10:13:55Z</time></trkpt><trkpt lat="42.11853431357499" lon="12.918023028680574"><ele>811.0</ele><time>2026-04-03T10:13:56Z</time></trkpt><trkpt lat="42.11869919826894" lon="12.917949600573733"><ele>811.0</ele><time>2026-04-03T10:13:57Z</time></trkpt><trkpt lat="42.11879917328597" lon="12.917870313365395"><ele>811.0</ele><time>2026-04-03T10:13:58Z</time></trkpt><trkpt lat="42.118811730643586" lon="12.917754715203468"><ele>811.0</ele><time>2026-04-03T10:13:59Z</time></trkpt><trkpt lat="42.11883397424625" lon="12.917544554948819"><ele>811.0</ele><time>2026-04-03T10:14:00Z</time></trkpt><trkpt lat="42.11885558303307" lon="12.917220275093511"><ele>806.3333333333333</ele><time>2026-04-03T10:14:01Z</time></trkpt><trkpt lat="42.11886952080768" lon="12.916947195210495"><ele>801.6666666666667</ele><time>2026-04-03T10:14:02Z</time></trkpt><trkpt lat="42.11893348783356" lon="12.916732166335276"><ele>797.0</ele><time>2026-04-03T10:14:03Z</time></trkpt><trkpt lat="42.119023327345985" lon="12.916590401926795"><ele>800.3333333333334</ele><time>2026-04-03T10:14:04Z</time></trkpt><trkpt lat="42.119216818581265" lon="12.916499592422616"><ele>803.6666666666667</ele><time>2026-04-03T10:14:05Z</time></trkpt><trkpt lat="42.119401611178844" lon="12.916508430021931"><ele>807.0</ele><time>2026-04-03T10:14:06Z</time></trkpt><trkpt lat="42.11958914616045" lon="12.916586144007335"><ele>809.0</ele><time>2026-04-03T10:14:07Z</time></trkpt><trkpt lat="42.11991020931254" lon="12.91668983488631"><ele>811.0</ele><time>2026-04-03T10:14:08Z</time></trkpt><trkpt lat="42.120184487948265" lon="12.916759015216345"><ele>814.3333333333333</ele><time>2026-04-03T10:14:09Z</time></trkpt><trkpt lat="42.12040684145962" lon="12.916812294385519"><ele>817.6666666666667</ele><time>2026-04-03T10:14:10Z</time></trkpt><trkpt lat="42.120561585582244" lon="12.916942987291959"><ele>821.0</ele><time>2026-04-03T10:14:11Z</time></trkpt><trkpt lat="42.12074704732241" lon="12.917182369181099"><ele>821.0</ele><time>2026-04-03T10:14:12Z</time></trkpt><trkpt lat="42.12092207233211" lon="12.917369927684879"><ele>821.0</ele><time>2026-04-03T10:14:13Z</time></trkpt><trkpt lat="42.12106917859858" lon="12.91740544554886"><ele>821.0</ele><time>2026-04-03T10:14:14Z</time></trkpt><trkpt lat="42.12122418924522" lon="12.917366365254647"><ele>821.0</ele><time>2026-04-03T10:14:15Z</time></trkpt><trkpt lat="42.1214957766205" lon="12.917293114814779"><ele>821.0</ele><time>2026-04-03T10:14:16Z</time></trkpt><trkpt lat="42.121745948594864" lon="12.917208421843467"><ele>822.0</ele><time>2026-04-03T10:14:17Z</time></trkpt><trkpt lat="42.121944740847745" lon="12.91717229952912"><ele>823.0</ele><time>2026-04-03T10:14:18Z</time></trkpt><trkpt lat="42.12209488676169" lon="12.917194587587653"><ele>824.0</ele><time>2026-04-03T10:14:19Z</time></trkpt><trkpt lat="42.122179696814385" lon="12.917293194623294"><ele>824.0</ele><time>2026-04-03T10:14:20Z</time></trkpt><trkpt lat="42.122276658702496" lon="12.917475702510588"><ele>824.0</ele><time>2026-04-03T10:14:21Z</time></trkpt><trkpt lat="42.122337064641904" lon="12.917639638048948"><ele>824.0</ele><time>2026-04-03T10:14:22Z</time></trkpt><trkpt lat="42.12232161011648" lon="12.917887040117957"><ele>826.5</ele><time>2026-04-03T10:14:23Z</time></trkpt><trkpt lat="42.12219484626696" lon="12.918216528990449"><ele>829.0</ele><time>2026-04-03T10:14:24Z</time></trkpt><trkpt lat="42.12205331753813" lon="12.9185844691369"><ele>829.0</ele><time>2026-04-03T10:14:25Z</time></trkpt><trkpt lat="42.12191071584267" lon="12.918944622856856"><ele>829.0</ele><time>2026-04-03T10:14:26Z</time></trkpt><trkpt lat="42.121740940741965" lon="12.919386119150545"><ele>826.0</ele><time>2026-04-03T10:14:27Z</time></trkpt><trkpt lat="42.12163411060364" lon="12.919661478036552"><ele>823.0</ele><time>2026-04-03T10:14:28Z</time></trkpt><trkpt lat="42.121520062070196" lon="12.919922958363667"><ele>828.5</ele><time>2026-04-03T10:14:29Z</time></trkpt><trkpt lat="42.121414504368744" lon="12.920054433921646"><ele>834.0</ele><time>2026-04-03T10:14:30Z</time></trkpt><trkpt lat="42.12127494474787" lon="12.92014897857037"><ele>839.5</ele><time>2026-04-03T10:14:31Z</time></trkpt><trkpt lat="42.12121825984325" lon="12.92025887554503"><ele>845.0</ele><time>2026-04-03T10:14:32Z</time></trkpt><trkpt lat="42.121209959797945" lon="12.920445600158118"><ele>846.3333333333334</ele><time>2026-04-03T10:14:33Z</time></trkpt><trkpt lat="42.12126506158737" lon="12.920632404692071"><ele>847.6666666666667</ele><time>2026-04-03T10:14:34Z</time></trkpt><trkpt lat="42.121378403709436" lon="12.920810479730784"><ele>849.0</ele><time>2026-04-03T10:14:35Z</time></trkpt><trkpt lat="42.12158432179796" lon="12.92113180763588"><ele>843.6666666666667</ele><time>2026-04-03T10:14:36Z</time></trkpt><trkpt lat="42.12173917590103" lon="12.921368035069644"><ele>838.3333333333334</ele><time>2026-04-03T10:14:37Z</time></trkpt><trkpt lat="42.12183582403987" lon="12.921586029142095"><ele>833.0</ele><time>2026-04-03T10:14:38Z</time></trkpt><trkpt lat="42.1218501972236" lon="12.921781956136593"><ele>833.0</ele><time>2026-04-03T10:14:39Z</time></trkpt><trkpt lat="42.121813076626125" lon="12.922027649254854"><ele>833.0</ele><time>2026-04-03T10:14:40Z</time></trkpt><trkpt lat="42.12173601625052" lon="12.92237330802826"><ele>832.3333333333334</ele><time>2026-04-03T10:14:41Z</time></trkpt><trkpt lat="42.12168887272642" lon="12.92268922889462"><ele>831.6666666666667</ele><time>2026-04-03T10:14:42Z</time></trkpt><trkpt lat="42.121632625747296" lon="12.922944564275578"><ele>831.0</ele><time>2026-04-03T10:14:43Z</time></trkpt><trkpt lat="42.12153989145677" lon="12.923130816250822"><ele>839.6666666666667</ele><time>2026-04-03T10:14:44Z</time></trkpt><trkpt lat="42.12138531469513" lon="12.92332026546616"><ele>848.3333333333334</ele><time>2026-04-03T10:14:45Z</time></trkpt><trkpt lat="42.121286299467556" lon="12.923486338332411"><ele>857.0</ele><time>2026-04-03T10:14:46Z</time></trkpt><trkpt lat="42.12124324079473" lon="12.923681157838981"><ele>858.6666666666667</ele><time>2026-04-03T10:14:47Z</time></trkpt><trkpt lat="42.12128101312601" lon="12.92390682474282"><ele>860.3333333333333</ele><time>2026-04-03T10:14:48Z</time></trkpt><trkpt lat="42.12138038859904" lon="12.92407183561119"><ele>862.0</ele><time>2026-04-03T10:14:49Z</time></trkpt><trkpt lat="42.12154785585611" lon="12.924190536486224"><ele>859.5</ele><time>2026-04-03T10:14:50Z</time></trkpt><trkpt lat="42.12178946678454" lon="12.924291909941491"><ele>857.0</ele><time>2026-04-03T10:14:51Z</time></trkpt><trkpt lat="42.122016631121106" lon="12.924364371288586"><ele>857.0</ele><time>2026-04-03T10:14:52Z</time></trkpt><trkpt lat="42.12217874236561" lon="12.924447776431673"><ele>857.0</ele><time>2026-04-03T10:14:53Z</time></trkpt><trkpt lat="42.12227897130809" lon="12.924584943999555"><ele>857.0</ele><time>2026-04-03T10:14:54Z</time></trkpt><trkpt lat="42.1223093350385" lon="12.924761107049472"><ele>857.0</ele><time>2026-04-03T10:14:55Z</time></trkpt><trkpt lat="42.12227267194442" lon="12.924998233555078"><ele>857.0</ele><time>2026-04-03T10:14:56Z</time></trkpt><trkpt lat="42.1222547736337" lon="12.925219894677094"><ele>857.0</ele><time>2026-04-03T10:14:57Z</time></trkpt><trkpt lat="42.122323568699294" lon="12.925420206771408"><ele>855.3333333333334</ele><time>2026-04-03T10:14:58Z</time></trkpt><trkpt lat="42.12245787946929" lon="12.925551835592824"><ele>853.6666666666667</ele><time>2026-04-03T10:14:59Z</time></trkpt><trkpt lat="42.12255769079976" lon="12.925704838977756"><ele>852.0</ele><time>2026-04-03T10:15:00Z</time></trkpt><trkpt lat="42.12296113545185" lon="12.925589691454162"><ele>852.0</ele><time>2026-04-03T10:15:01Z</time></trkpt><trkpt lat="42.123142318074734" lon="12.925614858545337"><ele>852.0</ele><time>2026-04-03T10:15:02Z</time></trkpt><trkpt lat="42.12330715169818" lon="12.92569329606412"><ele>852.0</ele><time>2026-04-03T10:15:03Z</time></trkpt><trkpt lat="42.12335160932552" lon="12.925822900813712"><ele>850.6666666666667</ele><time>2026-04-03T10:15:04Z</time></trkpt><trkpt lat="42.1233444278072" lon="12.926037849346525"><ele>849.3333333333334</ele><time>2026-04-03T10:15:05Z</time></trkpt><trkpt lat="42.12326432025689" lon="12.926209405595328"><ele>848.0</ele><time>2026-04-03T10:15:06Z</time></trkpt><trkpt lat="42.12314492943308" lon="12.926370490635525"><ele>848.0</ele><time>2026-04-03T10:15:07Z</time></trkpt><trkpt lat="42.12293075174444" lon="12.926629303208935"><ele>848.0</ele><time>2026-04-03T10:15:08Z</time></trkpt><trkpt lat="42.12276850675921" lon="12.926779598589501"><ele>847.5</ele><time>2026-04-03T10:15:09Z</time></trkpt><trkpt lat="42.1226401867845" lon="12.926921248573644"><ele>847.0</ele><time>2026-04-03T10:15:10Z</time></trkpt><trkpt lat="42.1225493628683" lon="12.9270795076083"><ele>846.5</ele><time>2026-04-03T10:15:11Z</time></trkpt><trkpt lat="42.12252670182174" lon="12.927255980724775"><ele>846.0</ele><time>2026-04-03T10:15:12Z</time></trkpt><trkpt lat="42.12256715719774" lon="12.927475809142587"><ele>850.6666666666667</ele><time>2026-04-03T10:15:13Z</time></trkpt><trkpt lat="42.12267984448585" lon="12.927646305612678"><ele>855.3333333333334</ele><time>2026-04-03T10:15:14Z</time></trkpt><trkpt lat="42.12282929757643" lon="12.927762746072023"><ele>860.0</ele><time>2026-04-03T10:15:15Z</time></trkpt><trkpt lat="42.12309451873081" lon="12.92787007946255"><ele>850.5</ele><time>2026-04-03T10:15:16Z</time></trkpt><trkpt lat="42.123413577281035" lon="12.928006291100916"><ele>841.0</ele><time>2026-04-03T10:15:17Z</time></trkpt><trkpt lat="42.12372627308591" lon="12.928153178550145"><ele>836.0</ele><time>2026-04-03T10:15:18Z</time></trkpt><trkpt lat="42.124136766492455" lon="12.928349785966219"><ele>831.0</ele><time>2026-04-03T10:15:19Z</time></trkpt><trkpt lat="42.12455996514559" lon="12.928549477149762"><ele>828.0</ele><time>2026-04-03T10:15:20Z</time></trkpt><trkpt lat="42.12490628510046" lon="12.9286998438631"><ele>825.0</ele><time>2026-04-03T10:15:21Z</time></trkpt><trkpt lat="42.12519655370678" lon="12.92883032519607"><ele>825.0</ele><time>2026-04-03T10:15:22Z</time></trkpt><trkpt lat="42.12547712185176" lon="12.928920311104147"><ele>825.0</ele><time>2026-04-03T10:15:23Z</time></trkpt><trkpt lat="42.125649099534115" lon="12.928919607878894"><ele>827.0</ele><time>2026-04-03T10:15:24Z</time></trkpt><trkpt lat="42.12585579837291" lon="12.928965892163879"><ele>829.0</ele><time>2026-04-03T10:15:25Z</time></trkpt><trkpt lat="42.12596397702349" lon="12.929122482280148"><ele>831.0</ele><time>2026-04-03T10:15:26Z</time></trkpt><trkpt lat="42.12605609102357" lon="12.929379582422651"><ele>826.3333333333333</ele><time>2026-04-03T10:15:27Z</time></trkpt><trkpt lat="42.12613390072414" lon="12.929639755099517"><ele>821.6666666666666</ele><time>2026-04-03T10:15:28Z</time></trkpt><trkpt lat="42.126248770375376" lon="12.929838408493763"><ele>817.0</ele><time>2026-04-03T10:15:29Z</time></trkpt><trkpt lat="42.12642139254514" lon="12.929922640783028"><ele>817.3333333333333</ele><time>2026-04-03T10:15:30Z</time></trkpt><trkpt lat="42.12665220075247" lon="12.929943996002866"><ele>817.6666666666667</ele><time>2026-04-03T10:15:31Z</time></trkpt><trkpt lat="42.126868970040384" lon="12.929970203160822"><ele>818.0</ele><time>2026-04-03T10:15:32Z</time></trkpt><trkpt lat="42.127040053717586" lon="12.930085223774528"><ele>818.0</ele><time>2026-04-03T10:15:33Z</time></trkpt><trkpt lat="42.12713458657204" lon="12.93026598416534"><ele>818.0</ele><time>2026-04-03T10:15:34Z</time></trkpt><trkpt lat="42.12712030200287" lon="12.930473580057859"><ele>818.0</ele><time>2026-04-03T10:15:35Z</time></trkpt><trkpt lat="42.12703137244079" lon="12.930741582263035"><ele>819.5</ele><time>2026-04-03T10:15:36Z</time></trkpt><trkpt lat="42.126900055693525" lon="12.93112659615401"><ele>821.0</ele><time>2026-04-03T10:15:37Z</time></trkpt><trkpt lat="42.126791769305555" lon="12.931502050402074"><ele>822.5</ele><time>2026-04-03T10:15:38Z</time></trkpt><trkpt lat="42.12670236811586" lon="12.93181970960267"><ele>824.0</ele><time>2026-04-03T10:15:39Z</time></trkpt><trkpt lat="42.12666283739998" lon="12.932109642356812"><ele>824.0</ele><time>2026-04-03T10:15:40Z</time></trkpt><trkpt lat="42.126715821137" lon="12.9324184000285"><ele>824.0</ele><time>2026-04-03T10:15:41Z</time></trkpt><trkpt lat="42.1267417063597" lon="12.932758672461592"><ele>822.6666666666667</ele><time>2026-04-03T10:15:42Z</time></trkpt><trkpt lat="42.126628518554476" lon="12.933039189714576"><ele>821.3333333333333</ele><time>2026-04-03T10:15:43Z</time></trkpt><trkpt lat="42.126604697597955" lon="12.933224303660547"><ele>820.0</ele><time>2026-04-03T10:15:44Z</time></trkpt><trkpt lat="42.126705306157135" lon="12.93330784438261"><ele>816.0</ele><time>2026-04-03T10:15:45Z</time></trkpt><trkpt lat="42.12688626095338" lon="12.933400590106357"><ele>812.0</ele><time>2026-04-03T10:15:46Z</time></trkpt><trkpt lat="42.127042658826674" lon="12.933526536779816"><ele>808.0</ele><time>2026-04-03T10:15:47Z</time></trkpt><trkpt lat="42.12713353811444" lon="12.93377874756838"><ele>808.0</ele><time>2026-04-03T10:15:48Z</time></trkpt><trkpt lat="42.127123689720825" lon="12.934083580007576"><ele>808.0</ele><time>2026-04-03T10:15:49Z</time></trkpt><trkpt lat="42.1271167515926" lon="12.934353171392754"><ele>808.0</ele><time>2026-04-03T10:15:50Z</time></trkpt><trkpt lat="42.1271738234605" lon="12.934569978493283"><ele>809.5</ele><time>2026-04-03T10:15:51Z</time></trkpt><trkpt lat="42.12725691378664" lon="12.934707499088049"><ele>811.0</ele><time>2026-04-03T10:15:52Z</time></trkpt><trkpt lat="42.127355777516144" lon="12.934815687978487"><ele>812.5</ele><time>2026-04-03T10:15:53Z</time></trkpt><trkpt lat="42.12745933984231" lon="12.934898518444585"><ele>814.0</ele><time>2026-04-03T10:15:54Z</time></trkpt><trkpt lat="42.12759836720565" lon="12.93490472635052"><ele>814.0</ele><time>2026-04-03T10:15:55Z</time></trkpt><trkpt lat="42.127739321723794" lon="12.934882463572528"><ele>814.0</ele><time>2026-04-03T10:15:56Z</time></trkpt><trkpt lat="42.12788207266868" lon="12.934891292964759"><ele>814.0</ele><time>2026-04-03T10:15:57Z</time></trkpt><trkpt lat="42.12803507842261" lon="12.934895462981986"><ele>814.0</ele><time>2026-04-03T10:15:58Z</time></trkpt><trkpt lat="42.12816796388975" lon="12.934910770046738"><ele>815.25</ele><time>2026-04-03T10:15:59Z</time></trkpt><trkpt lat="42.12830783030413" lon="12.934919111522424"><ele>816.5</ele><time>2026-04-03T10:16:00Z</time></trkpt><trkpt lat="42.1284413005652" lon="12.93493417251489"><ele>817.75</ele><time>2026-04-03T10:16:01Z</time></trkpt><trkpt lat="42.128540462339934" lon="12.934980487832142"><ele>819.0</ele><time>2026-04-03T10:16:02Z</time></trkpt><trkpt lat="42.12863471176432" lon="12.935059382770271"><ele>815.8000000000001</ele><time>2026-04-03T10:16:03Z</time></trkpt><trkpt lat="42.128697203849526" lon="12.93516384665346"><ele>812.6</ele><time>2026-04-03T10:16:04Z</time></trkpt><trkpt lat="42.12873728564033" lon="12.93527688274946"><ele>809.4</ele><time>2026-04-03T10:16:05Z</time></trkpt><trkpt lat="42.12876726915181" lon="12.93537717782964"><ele>806.2</ele><time>2026-04-03T10:16:06Z</time></trkpt><trkpt lat="42.12877872132443" lon="12.935524128840004"><ele>803.0</ele><time>2026-04-03T10:16:07Z</time></trkpt><trkpt lat="42.12879105739318" lon="12.935672078367716"><ele>803.0</ele><time>2026-04-03T10:16:08Z</time></trkpt><trkpt lat="42.1288415203562" lon="12.935818049684801"><ele>803.0</ele><time>2026-04-03T10:16:09Z</time></trkpt><trkpt lat="42.12891619826253" lon="12.935945957347377"><ele>803.0</ele><time>2026-04-03T10:16:10Z</time></trkpt><trkpt lat="42.128976180062466" lon="12.936062560372356"><ele>803.0</ele><time>2026-04-03T10:16:11Z</time></trkpt><trkpt lat="42.12902949022563" lon="12.936164613008994"><ele>803.0</ele><time>2026-04-03T10:16:12Z</time></trkpt><trkpt lat="42.12907292482985" lon="12.936250332923434"><ele>802.8</ele><time>2026-04-03T10:16:13Z</time></trkpt><trkpt lat="42.129115784665075" lon="12.93633293496604"><ele>802.5999999999999</ele><time>2026-04-03T10:16:14Z</time></trkpt><trkpt lat="42.129172847217575" lon="12.936438686404193"><ele>802.4000000000001</ele><time>2026-04-03T10:16:15Z</time></trkpt><trkpt lat="42.12923633981758" lon="12.936542678417496"><ele>802.2</ele><time>2026-04-03T10:16:16Z</time></trkpt><trkpt lat="42.12929947018322" lon="12.936658915109984"><ele>802.0</ele><time>2026-04-03T10:16:17Z</time></trkpt><trkpt lat="42.129368382626645" lon="12.936781202892641"><ele>802.0</ele><time>2026-04-03T10:16:18Z</time></trkpt><trkpt lat="42.1294523711813" lon="12.93689716570078"><ele>802.0</ele><time>2026-04-03T10:16:19Z</time></trkpt><trkpt lat="42.129553820277735" lon="12.936998320587307"><ele>802.0</ele><time>2026-04-03T10:16:20Z</time></trkpt><trkpt lat="42.12966351579536" lon="12.93708387110597"><ele>802.0</ele><time>2026-04-03T10:16:21Z</time></trkpt><trkpt lat="42.12975075891763" lon="12.93715449231909"><ele>802.0</ele><time>2026-04-03T10:16:22Z</time></trkpt><trkpt lat="42.12983467998681" lon="12.93722269105599"><ele>802.0</ele><time>2026-04-03T10:16:23Z</time></trkpt><trkpt lat="42.12993955272443" lon="12.937295191397592"><ele>802.0</ele><time>2026-04-03T10:16:24Z</time></trkpt><trkpt lat="42.130044879836596" lon="12.937367259228413"><ele>802.0</ele><time>2026-04-03T10:16:25Z</time></trkpt><trkpt lat="42.13014431668688" lon="12.937446048891292"><ele>802.0</ele><time>2026-04-03T10:16:26Z</time></trkpt><trkpt lat="42.13024801181778" lon="12.937510092016224"><ele>801.8</ele><time>2026-04-03T10:16:27Z</time></trkpt><trkpt lat="42.130345551195" lon="12.937572500835339"><ele>801.6</ele><time>2026-04-03T10:16:28Z</time></trkpt><trkpt lat="42.13044534511433" lon="12.93762594227642"><ele>801.4</ele><time>2026-04-03T10:16:29Z</time></trkpt><trkpt lat="42.130544373464204" lon="12.937667078688772"><ele>801.1999999999999</ele><time>2026-04-03T10:16:30Z</time></trkpt><trkpt lat="42.130635959447396" lon="12.937705539243273"><ele>801.0</ele><time>2026-04-03T10:16:31Z</time></trkpt><trkpt lat="42.13073724679328" lon="12.937729473799228"><ele>801.0</ele><time>2026-04-03T10:16:32Z</time></trkpt><trkpt lat="42.13082697172488" lon="12.937733874046645"><ele>801.0</ele><time>2026-04-03T10:16:33Z</time></trkpt><trkpt lat="42.13090502245083" lon="12.937728291423674"><ele>801.0</ele><time>2026-04-03T10:16:34Z</time></trkpt><trkpt lat="42.13097408399208" lon="12.937717586386192"><ele>801.0</ele><time>2026-04-03T10:16:35Z</time></trkpt><trkpt lat="42.131039917830776" lon="12.937713182293058"><ele>801.0</ele><time>2026-04-03T10:16:36Z</time></trkpt><trkpt lat="42.131138767621465" lon="12.937692205086362"><ele>801.0</ele><time>2026-04-03T10:16:38Z</time></trkpt><trkpt lat="42.131202756373945" lon="12.937691467485205"><ele>801.0</ele><time>2026-04-03T10:17:50Z</time></trkpt><trkpt lat="42.131138483749574" lon="12.93769547769149"><ele>801.0</ele><time>2026-04-03T10:17:52Z</time></trkpt><trkpt lat="42.13119374390843" lon="12.93751404329277"><ele>819.0</ele><time>2026-04-03T10:17:54Z</time></trkpt></trkseg><trkseg><trkpt lat="42.12924105711436" lon="12.936485187457519"><ele>812.0</ele><time>2026-04-03T10:41:56Z</time></trkpt><trkpt lat="42.12917598718427" lon="12.936380619168006"><ele>812.0</ele><time>2026-04-03T10:41:57Z</time></trkpt><trkpt lat="42.12912106963266" lon="12.93626634402468"><ele>812.0</ele><time>2026-04-03T10:41:58Z</time></trkpt><trkpt lat="42.12905588657672" lon="12.936149701651393"><ele>812.0</ele><time>2026-04-03T10:41:59Z</time></trkpt><trkpt lat="42.12899263181678" lon="12.936028114538852"><ele>812.0</ele><time>2026-04-03T10:42:00Z</time></trkpt><trkpt lat="42.12892932415592" lon="12.935906891978872"><ele>809.75</ele><time>2026-04-03T10:42:01Z</time></trkpt><trkpt lat="42.12886645540065" lon="12.93576236446451"><ele>807.5</ele><time>2026-04-03T10:42:02Z</time></trkpt><trkpt lat="42.1287987815729" lon="12.935582646397577"><ele>805.25</ele><time>2026-04-03T10:42:03Z</time></trkpt><trkpt lat="42.12874896518575" lon="12.935374155188754"><ele>803.0</ele><time>2026-04-03T10:42:04Z</time></trkpt><trkpt lat="42.128716018334295" lon="12.935180883945707"><ele>803.0</ele><time>2026-04-03T10:42:05Z</time></trkpt><trkpt lat="42.12867183536459" lon="12.935056434475804"><ele>803.0</ele><time>2026-04-03T10:42:06Z</time></trkpt><trkpt lat="42.12858409856642" lon="12.934953739067158"><ele>803.0</ele><time>2026-04-03T10:42:07Z</time></trkpt><trkpt lat="42.12844664570506" lon="12.934886495073751"><ele>803.0</ele><time>2026-04-03T10:42:08Z</time></trkpt><trkpt lat="42.12827548709508" lon="12.934871457677765"><ele>808.5</ele><time>2026-04-03T10:42:09Z</time></trkpt><trkpt lat="42.12806375502263" lon="12.934872503551412"><ele>814.0</ele><time>2026-04-03T10:42:10Z</time></trkpt><trkpt lat="42.12782327348875" lon="12.93483763249043"><ele>814.0</ele><time>2026-04-03T10:42:11Z</time></trkpt><trkpt lat="42.12761326467221" lon="12.934829845339689"><ele>814.0</ele><time>2026-04-03T10:42:12Z</time></trkpt><trkpt lat="42.12745790969304" lon="12.934809725239576"><ele>814.0</ele><time>2026-04-03T10:42:13Z</time></trkpt><trkpt lat="42.12734100055492" lon="12.934747410905299"><ele>812.5</ele><time>2026-04-03T10:42:14Z</time></trkpt><trkpt lat="42.12725637725102" lon="12.934642132000329"><ele>811.0</ele><time>2026-04-03T10:42:15Z</time></trkpt><trkpt lat="42.1271717527656" lon="12.93448510045701"><ele>809.5</ele><time>2026-04-03T10:42:16Z</time></trkpt><trkpt lat="42.12711721224571" lon="12.93425202436702"><ele>808.0</ele><time>2026-04-03T10:42:17Z</time></trkpt><trkpt lat="42.12709501574294" lon="12.933981922594258"><ele>808.0</ele><time>2026-04-03T10:42:18Z</time></trkpt><trkpt lat="42.12710423117761" lon="12.933727265992788"><ele>808.0</ele><time>2026-04-03T10:42:19Z</time></trkpt><trkpt lat="42.12708077870114" lon="12.93353884705625"><ele>808.0</ele><time>2026-04-03T10:42:20Z</time></trkpt><trkpt lat="42.12700659781447" lon="12.933421098687475"><ele>808.0</ele><time>2026-04-03T10:42:21Z</time></trkpt><trkpt lat="42.12687771866328" lon="12.933315557305283"><ele>811.0</ele><time>2026-04-03T10:42:22Z</time></trkpt><trkpt lat="42.12673680064132" lon="12.933197622301067"><ele>814.0</ele><time>2026-04-03T10:42:23Z</time></trkpt><trkpt lat="42.12663465346902" lon="12.93308176703682"><ele>817.0</ele><time>2026-04-03T10:42:24Z</time></trkpt><trkpt lat="42.12661321722543" lon="12.932938835052607"><ele>820.0</ele><time>2026-04-03T10:42:25Z</time></trkpt><trkpt lat="42.12665308030046" lon="12.932801093672294"><ele>820.0</ele><time>2026-04-03T10:42:26Z</time></trkpt><trkpt lat="42.126724078627674" lon="12.932608680432022"><ele>820.0</ele><time>2026-04-03T10:42:27Z</time></trkpt><trkpt lat="42.126769383670606" lon="12.93235915185603"><ele>820.0</ele><time>2026-04-03T10:42:28Z</time></trkpt><trkpt lat="42.12676034485037" lon="12.932095732916517"><ele>820.3333333333333</ele><time>2026-04-03T10:42:29Z</time></trkpt><trkpt lat="42.12672410117108" lon="12.931847838900637"><ele>820.6666666666667</ele><time>2026-04-03T10:42:30Z</time></trkpt><trkpt lat="42.12676259129351" lon="12.931627746458236"><ele>821.0</ele><time>2026-04-03T10:42:31Z</time></trkpt><trkpt lat="42.12683022170171" lon="12.931344794249531"><ele>821.0</ele><time>2026-04-03T10:42:32Z</time></trkpt><trkpt lat="42.1269347328736" lon="12.93099407451137"><ele>821.0</ele><time>2026-04-03T10:42:33Z</time></trkpt><trkpt lat="42.127013915256974" lon="12.930720866724142"><ele>820.4</ele><time>2026-04-03T10:42:34Z</time></trkpt><trkpt lat="42.12705800464051" lon="12.930557175326017"><ele>819.8</ele><time>2026-04-03T10:42:35Z</time></trkpt><trkpt lat="42.12708390589637" lon="12.930437955958105"><ele>819.1999999999999</ele><time>2026-04-03T10:42:36Z</time></trkpt><trkpt lat="42.127088925682365" lon="12.930298238927403"><ele>818.5999999999999</ele><time>2026-04-03T10:42:37Z</time></trkpt><trkpt lat="42.12705025741729" lon="12.930164281988807"><ele>818.0</ele><time>2026-04-03T10:42:38Z</time></trkpt><trkpt lat="42.1269768570851" lon="12.930030545260486"><ele>817.6666666666667</ele><time>2026-04-03T10:42:39Z</time></trkpt><trkpt lat="42.12686865555732" lon="12.929939769508412"><ele>817.3333333333333</ele><time>2026-04-03T10:42:40Z</time></trkpt><trkpt lat="42.12673122275281" lon="12.929887614188567"><ele>817.0</ele><time>2026-04-03T10:42:41Z</time></trkpt><trkpt lat="42.12653762137749" lon="12.92983934905324"><ele>817.0</ele><time>2026-04-03T10:42:42Z</time></trkpt><trkpt lat="42.12633881905256" lon="12.929748002353415"><ele>817.0</ele><time>2026-04-03T10:42:43Z</time></trkpt><trkpt lat="42.12621424426144" lon="12.929668448423488"><ele>817.0</ele><time>2026-04-03T10:42:44Z</time></trkpt><trkpt lat="42.12612949665965" lon="12.929562628993429"><ele>817.0</ele><time>2026-04-03T10:42:45Z</time></trkpt><trkpt lat="42.12605658046852" lon="12.92939679256625"><ele>817.0</ele><time>2026-04-03T10:42:46Z</time></trkpt><trkpt lat="42.12595685724058" lon="12.92918724901637"><ele>817.0</ele><time>2026-04-03T10:42:47Z</time></trkpt><trkpt lat="42.125868074210004" lon="12.929007879790232"><ele>819.6666666666666</ele><time>2026-04-03T10:42:48Z</time></trkpt><trkpt lat="42.12575140074016" lon="12.928901061970231"><ele>822.3333333333333</ele><time>2026-04-03T10:42:49Z</time></trkpt><trkpt lat="42.125605796683175" lon="12.928838475479354"><ele>825.0</ele><time>2026-04-03T10:42:50Z</time></trkpt><trkpt lat="42.12541333573044" lon="12.928819649679715"><ele>849.0</ele><time>2026-04-03T10:42:51Z</time></trkpt><trkpt lat="42.121238758183544" lon="12.920259494119458"><ele>849.0</ele><time>2026-04-03T10:43:52Z</time></trkpt><trkpt lat="42.12128586538408" lon="12.920099482370198"><ele>849.0</ele><time>2026-04-03T10:43:53Z</time></trkpt><trkpt lat="42.12138926842883" lon="12.920040528699424"><ele>849.0</ele><time>2026-04-03T10:43:54Z</time></trkpt><trkpt lat="42.121473398721115" lon="12.919928884925904"><ele>849.0</ele><time>2026-04-03T10:43:55Z</time></trkpt><trkpt lat="42.12158626358163" lon="12.919822113678157"><ele>842.3333333333333</ele><time>2026-04-03T10:43:56Z</time></trkpt><trkpt lat="42.121670186599125" lon="12.919607514954022"><ele>835.6666666666666</ele><time>2026-04-03T10:43:57Z</time></trkpt><trkpt lat="42.12177685647238" lon="12.919307629966486"><ele>829.0</ele><time>2026-04-03T10:43:58Z</time></trkpt><trkpt lat="42.121928695146785" lon="12.918888756823229"><ele>829.0</ele><time>2026-04-03T10:43:59Z</time></trkpt><trkpt lat="42.12206489500638" lon="12.918529188815397"><ele>829.0</ele><time>2026-04-03T10:44:00Z</time></trkpt><trkpt lat="42.12217965537421" lon="12.918236276589267"><ele>829.3333333333333</ele><time>2026-04-03T10:44:01Z</time></trkpt><trkpt lat="42.12226171936574" lon="12.917994668393511"><ele>829.6666666666667</ele><time>2026-04-03T10:44:02Z</time></trkpt><trkpt lat="42.122310332677436" lon="12.917759402091368"><ele>830.0</ele><time>2026-04-03T10:44:03Z</time></trkpt><trkpt lat="42.122300377399846" lon="12.917527424446781"><ele>828.5</ele><time>2026-04-03T10:44:04Z</time></trkpt><trkpt lat="42.122238577168545" lon="12.917346947328255"><ele>827.0</ele><time>2026-04-03T10:44:05Z</time></trkpt><trkpt lat="42.12213181678888" lon="12.917231312187527"><ele>825.5</ele><time>2026-04-03T10:44:06Z</time></trkpt><trkpt lat="42.12198957012866" lon="12.917167585348201"><ele>824.0</ele><time>2026-04-03T10:44:07Z</time></trkpt><trkpt lat="42.121821539719605" lon="12.917145543331577"><ele>824.0</ele><time>2026-04-03T10:44:08Z</time></trkpt><trkpt lat="42.12161331243968" lon="12.917209184435977"><ele>824.0</ele><time>2026-04-03T10:44:09Z</time></trkpt><trkpt lat="42.12137230754261" lon="12.91724827893509"><ele>823.0</ele><time>2026-04-03T10:44:10Z</time></trkpt><trkpt lat="42.12114902291219" lon="12.91730971556616"><ele>822.0</ele><time>2026-04-03T10:44:11Z</time></trkpt><trkpt lat="42.120980838579314" lon="12.917328895329142"><ele>821.0</ele><time>2026-04-03T10:44:12Z</time></trkpt><trkpt lat="42.12086519181922" lon="12.91727276425376"><ele>821.0</ele><time>2026-04-03T10:44:13Z</time></trkpt><trkpt lat="42.120770849941415" lon="12.917164433346603"><ele>821.0</ele><time>2026-04-03T10:44:14Z</time></trkpt><trkpt lat="42.120590711753586" lon="12.917008728950513"><ele>821.0</ele><time>2026-04-03T10:44:15Z</time></trkpt><trkpt lat="42.12038338475361" lon="12.916801500264638"><ele>817.6666666666667</ele><time>2026-04-03T10:44:16Z</time></trkpt><trkpt lat="42.12019145920233" lon="12.916684807432912"><ele>814.3333333333333</ele><time>2026-04-03T10:44:17Z</time></trkpt><trkpt lat="42.11996935443337" lon="12.916633767003857"><ele>811.0</ele><time>2026-04-03T10:44:18Z</time></trkpt><trkpt lat="42.119659831667896" lon="12.916591352150162"><ele>809.6666666666666</ele><time>2026-04-03T10:44:19Z</time></trkpt><trkpt lat="42.119392214750185" lon="12.91652693415367"><ele>808.3333333333333</ele><time>2026-04-03T10:44:20Z</time></trkpt><trkpt lat="42.11921685699751" lon="12.916496124024645"><ele>807.0</ele><time>2026-04-03T10:44:21Z</time></trkpt><trkpt lat="42.11907936478265" lon="12.916528865077256"><ele>803.6666666666667</ele><time>2026-04-03T10:44:22Z</time></trkpt><trkpt lat="42.11894952374858" lon="12.916627617074354"><ele>800.3333333333334</ele><time>2026-04-03T10:44:23Z</time></trkpt><trkpt lat="42.11885317482337" lon="12.91681375922194"><ele>797.0</ele><time>2026-04-03T10:44:24Z</time></trkpt><trkpt lat="42.11879809551448" lon="12.917053127662628"><ele>797.0</ele><time>2026-04-03T10:44:25Z</time></trkpt><trkpt lat="42.11878260893614" lon="12.917329387714076"><ele>797.0</ele><time>2026-04-03T10:44:26Z</time></trkpt><trkpt lat="42.11877886320762" lon="12.917606589724091"><ele>797.0</ele><time>2026-04-03T10:44:27Z</time></trkpt><trkpt lat="42.118761136287866" lon="12.917799873188489"><ele>800.5</ele><time>2026-04-03T10:44:28Z</time></trkpt><trkpt lat="42.118706406089395" lon="12.917893014636908"><ele>804.0</ele><time>2026-04-03T10:44:29Z</time></trkpt><trkpt lat="42.11862111645552" lon="12.9179409867829"><ele>807.5</ele><time>2026-04-03T10:44:30Z</time></trkpt><trkpt lat="42.11849362197874" lon="12.917942999087852"><ele>811.0</ele><time>2026-04-03T10:44:31Z</time></trkpt><trkpt lat="42.1183507979001" lon="12.91797340024607"><ele>811.0</ele><time>2026-04-03T10:44:32Z</time></trkpt><trkpt lat="42.11824815880149" lon="12.917928836866777"><ele>811.0</ele><time>2026-04-03T10:44:33Z</time></trkpt><trkpt lat="42.118166085664065" lon="12.91781166547937"><ele>811.0</ele><time>2026-04-03T10:44:34Z</time></trkpt><trkpt lat="42.11809095618593" lon="12.917610784060747"><ele>811.0</ele><time>2026-04-03T10:44:35Z</time></trkpt><trkpt lat="42.11796074364948" lon="12.917308471670182"><ele>812.5</ele><time>2026-04-03T10:44:36Z</time></trkpt><trkpt lat="42.11776847977094" lon="12.916907268115718"><ele>814.0</ele><time>2026-04-03T10:44:37Z</time></trkpt><trkpt lat="42.117580826582724" lon="12.916457830718002"><ele>815.0</ele><time>2026-04-03T10:44:38Z</time></trkpt><trkpt lat="42.11741187968233" lon="12.916012242772492"><ele>816.0</ele><time>2026-04-03T10:44:39Z</time></trkpt><trkpt lat="42.11725392569281" lon="12.91555307006419"><ele>816.0</ele><time>2026-04-03T10:44:40Z</time></trkpt><trkpt lat="42.11708601709937" lon="12.915080199514424"><ele>816.0</ele><time>2026-04-03T10:44:41Z</time></trkpt><trkpt lat="42.116946533212094" lon="12.914630202938215"><ele>808.0</ele><time>2026-04-03T10:44:42Z</time></trkpt><trkpt lat="42.11681979739624" lon="12.914253441938762"><ele>800.0</ele><time>2026-04-03T10:44:43Z</time></trkpt><trkpt lat="42.1166941444045" lon="12.913917369860776"><ele>803.0</ele><time>2026-04-03T10:44:44Z</time></trkpt><trkpt lat="42.11654533444911" lon="12.913637481390294"><ele>806.0</ele><time>2026-04-03T10:44:45Z</time></trkpt><trkpt lat="42.11635799225744" lon="12.913401299833705"><ele>795.0</ele><time>2026-04-03T10:44:46Z</time></trkpt><trkpt lat="42.11613533017084" lon="12.913213300500185"><ele>784.0</ele><time>2026-04-03T10:44:47Z</time></trkpt><trkpt lat="42.11583555979312" lon="12.913058763580826"><ele>779.6666666666666</ele><time>2026-04-03T10:44:48Z</time></trkpt><trkpt lat="42.115594037084605" lon="12.912945781900001"><ele>775.3333333333333</ele><time>2026-04-03T10:44:49Z</time></trkpt><trkpt lat="42.115448897871566" lon="12.912877344545628"><ele>771.0</ele><time>2026-04-03T10:44:50Z</time></trkpt><trkpt lat="42.11531095629151" lon="12.912915300970035"><ele>722.0</ele><time>2026-04-03T10:44:51Z</time></trkpt><trkpt lat="42.10783445605484" lon="12.905643962432217"><ele>722.0</ele><time>2026-04-03T10:45:52Z</time></trkpt><trkpt lat="42.10769798701316" lon="12.905813027768643"><ele>722.0</ele><time>2026-04-03T10:45:53Z</time></trkpt><trkpt lat="42.10758641440014" lon="12.905933071083423"><ele>722.0</ele><time>2026-04-03T10:45:54Z</time></trkpt><trkpt lat="42.107476275657724" lon="12.905931418872896"><ele>722.0</ele><time>2026-04-03T10:45:55Z</time></trkpt><trkpt lat="42.10734899530222" lon="12.90578939358523"><ele>723.0</ele><time>2026-04-03T10:45:56Z</time></trkpt><trkpt lat="42.10714074694187" lon="12.905637408310092"><ele>724.0</ele><time>2026-04-03T10:45:57Z</time></trkpt><trkpt lat="42.106970982675904" lon="12.905543037048012"><ele>725.0</ele><time>2026-04-03T10:45:58Z</time></trkpt><trkpt lat="42.106817119528976" lon="12.905552377984556"><ele>725.0</ele><time>2026-04-03T10:45:59Z</time></trkpt><trkpt lat="42.10661502689143" lon="12.905629734898062"><ele>725.0</ele><time>2026-04-03T10:46:00Z</time></trkpt><trkpt lat="42.10635268439056" lon="12.905762433636669"><ele>720.0</ele><time>2026-04-03T10:46:01Z</time></trkpt><trkpt lat="42.10610943618733" lon="12.905902381389446"><ele>715.0</ele><time>2026-04-03T10:46:02Z</time></trkpt><trkpt lat="42.10589427320804" lon="12.90592754707047"><ele>715.0</ele><time>2026-04-03T10:46:03Z</time></trkpt><trkpt lat="42.10565017907879" lon="12.905934486328247"><ele>715.0</ele><time>2026-04-03T10:46:04Z</time></trkpt><trkpt lat="42.10533044718915" lon="12.905858142010972"><ele>715.0</ele><time>2026-04-03T10:46:05Z</time></trkpt><trkpt lat="42.10500159911393" lon="12.905780631637894"><ele>715.0</ele><time>2026-04-03T10:46:06Z</time></trkpt><trkpt lat="42.10468367982048" lon="12.905703678031202"><ele>712.0</ele><time>2026-04-03T10:46:07Z</time></trkpt><trkpt lat="42.10439269190351" lon="12.905697810097065"><ele>709.0</ele><time>2026-04-03T10:46:08Z</time></trkpt><trkpt lat="42.10413416734842" lon="12.905732228826393"><ele>709.6666666666667</ele><time>2026-04-03T10:46:09Z</time></trkpt><trkpt lat="42.10392225418124" lon="12.90577823077577"><ele>710.3333333333334</ele><time>2026-04-03T10:46:10Z</time></trkpt><trkpt lat="42.10374482523156" lon="12.905879544292176"><ele>711.0</ele><time>2026-04-03T10:46:11Z</time></trkpt><trkpt lat="42.1035928785986" lon="12.90607073046782"><ele>711.0</ele><time>2026-04-03T10:46:12Z</time></trkpt><trkpt lat="42.10346038052223" lon="12.906349567622264"><ele>711.0</ele><time>2026-04-03T10:46:13Z</time></trkpt><trkpt lat="42.10336388773835" lon="12.90659565886818"><ele>705.0</ele><time>2026-04-03T10:46:14Z</time></trkpt><trkpt lat="42.103234865921834" lon="12.90673578742633"><ele>699.0</ele><time>2026-04-03T10:46:15Z</time></trkpt><trkpt lat="42.10310173160235" lon="12.906762758755532"><ele>693.0</ele><time>2026-04-03T10:46:16Z</time></trkpt><trkpt lat="42.10293499728927" lon="12.906759683685737"><ele>702.5</ele><time>2026-04-03T10:46:17Z</time></trkpt><trkpt lat="42.102699862823606" lon="12.906764448780665"><ele>712.0</ele><time>2026-04-03T10:46:18Z</time></trkpt><trkpt lat="42.10232548971617" lon="12.906880774785"><ele>712.0</ele><time>2026-04-03T10:46:19Z</time></trkpt><trkpt lat="42.10201496280597" lon="12.906970279578095"><ele>712.0</ele><time>2026-04-03T10:46:20Z</time></trkpt><trkpt lat="42.101737816229694" lon="12.907069211030546"><ele>705.3333333333334</ele><time>2026-04-03T10:46:21Z</time></trkpt><trkpt lat="42.10153359614591" lon="12.907151702250086"><ele>698.6666666666666</ele><time>2026-04-03T10:46:22Z</time></trkpt><trkpt lat="42.101348527189664" lon="12.907276751305671"><ele>692.0</ele><time>2026-04-03T10:46:23Z</time></trkpt><trkpt lat="42.10119931121588" lon="12.907407682594233"><ele>692.0</ele><time>2026-04-03T10:46:24Z</time></trkpt><trkpt lat="42.10102859434517" lon="12.907432658137628"><ele>692.0</ele><time>2026-04-03T10:46:25Z</time></trkpt><trkpt lat="42.10072375850855" lon="12.90743844422819"><ele>686.5</ele><time>2026-04-03T10:46:26Z</time></trkpt><trkpt lat="42.10035854275768" lon="12.907442225310549"><ele>681.0</ele><time>2026-04-03T10:46:27Z</time></trkpt><trkpt lat="42.10005985223919" lon="12.90744964549867"><ele>675.0</ele><time>2026-04-03T10:46:28Z</time></trkpt><trkpt lat="42.099799920355665" lon="12.907463914788357"><ele>669.0</ele><time>2026-04-03T10:46:29Z</time></trkpt><trkpt lat="42.09968201453595" lon="12.90749585166964"><ele>663.0</ele><time>2026-04-03T10:46:30Z</time></trkpt><trkpt lat="42.09949405822232" lon="12.907630524916813"><ele>663.0</ele><time>2026-04-03T10:46:31Z</time></trkpt><trkpt lat="42.099349462209396" lon="12.907812415450188"><ele>663.0</ele><time>2026-04-03T10:46:32Z</time></trkpt><trkpt lat="42.099320227631154" lon="12.908048782423565"><ele>663.0</ele><time>2026-04-03T10:46:33Z</time></trkpt><trkpt lat="42.09938082997192" lon="12.908228602459147"><ele>658.6666666666666</ele><time>2026-04-03T10:46:34Z</time></trkpt><trkpt lat="42.09950714217775" lon="12.908479420806337"><ele>654.3333333333333</ele><time>2026-04-03T10:46:35Z</time></trkpt><trkpt lat="42.09965086526796" lon="12.90868399029395"><ele>650.0</ele><time>2026-04-03T10:46:36Z</time></trkpt><trkpt lat="42.09986722544963" lon="12.908873967116241"><ele>658.5</ele><time>2026-04-03T10:46:37Z</time></trkpt><trkpt lat="42.100139209661094" lon="12.909061562084437"><ele>667.0</ele><time>2026-04-03T10:46:38Z</time></trkpt><trkpt lat="42.10038205012892" lon="12.909124801621502"><ele>667.0</ele><time>2026-04-03T10:46:39Z</time></trkpt><trkpt lat="42.10064796158734" lon="12.9091506736573"><ele>667.0</ele><time>2026-04-03T10:46:40Z</time></trkpt><trkpt lat="42.10084141985897" lon="12.909281256046718"><ele>661.5</ele><time>2026-04-03T10:46:41Z</time></trkpt><trkpt lat="42.10101129939523" lon="12.909462890452058"><ele>656.0</ele><time>2026-04-03T10:46:42Z</time></trkpt><trkpt lat="42.10124411019736" lon="12.90975628305753"><ele>656.0</ele><time>2026-04-03T10:46:43Z</time></trkpt><trkpt lat="42.10148706276142" lon="12.91006933618672"><ele>656.0</ele><time>2026-04-03T10:46:44Z</time></trkpt><trkpt lat="42.10171581773707" lon="12.910361270623813"><ele>654.0</ele><time>2026-04-03T10:46:45Z</time></trkpt><trkpt lat="42.10188608312038" lon="12.910552584608144"><ele>652.0</ele><time>2026-04-03T10:46:46Z</time></trkpt><trkpt lat="42.102071600891" lon="12.91076763114461"><ele>652.0</ele><time>2026-04-03T10:46:47Z</time></trkpt><trkpt lat="42.102225218628796" lon="12.910818212362347"><ele>652.0</ele><time>2026-04-03T10:46:48Z</time></trkpt><trkpt lat="42.10250447856445" lon="12.91088062402724"><ele>652.0</ele><time>2026-04-03T10:46:49Z</time></trkpt><trkpt lat="42.10271411535847" lon="12.91097402963533"><ele>651.0</ele><time>2026-04-03T10:46:50Z</time></trkpt><trkpt lat="42.10282814804268" lon="12.91103595606462"><ele>650.0</ele><time>2026-04-03T10:46:51Z</time></trkpt><trkpt lat="42.097524091566456" lon="12.915395953340482"><ele>636.25</ele><time>2026-04-03T10:47:52Z</time></trkpt><trkpt lat="42.09747079535649" lon="12.915514967113376"><ele>622.5</ele><time>2026-04-03T10:47:53Z</time></trkpt><trkpt lat="42.097414147405274" lon="12.9156784909146"><ele>608.75</ele><time>2026-04-03T10:47:54Z</time></trkpt><trkpt lat="42.097415273455894" lon="12.915955725252632"><ele>595.0</ele><time>2026-04-03T10:47:55Z</time></trkpt><trkpt lat="42.09749688742949" lon="12.916218678574953"><ele>595.0</ele><time>2026-04-03T10:47:56Z</time></trkpt><trkpt lat="42.0975422313424" lon="12.916469648092063"><ele>595.0</ele><time>2026-04-03T10:47:57Z</time></trkpt><trkpt lat="42.097494925418154" lon="12.916596762073912"><ele>595.0</ele><time>2026-04-03T10:47:58Z</time></trkpt><trkpt lat="42.0974067441658" lon="12.916852457221381"><ele>587.5</ele><time>2026-04-03T10:47:59Z</time></trkpt><trkpt lat="42.097355547061255" lon="12.917151183823156"><ele>580.0</ele><time>2026-04-03T10:48:00Z</time></trkpt><trkpt lat="42.09734807306502" lon="12.917498823190718"><ele>583.25</ele><time>2026-04-03T10:48:01Z</time></trkpt><trkpt lat="42.097356740638105" lon="12.917714121462863"><ele>586.5</ele><time>2026-04-03T10:48:02Z</time></trkpt><trkpt lat="42.097386697685025" lon="12.917914297062955"><ele>589.75</ele><time>2026-04-03T10:48:03Z</time></trkpt><trkpt lat="42.09738374616517" lon="12.918020030922433"><ele>593.0</ele><time>2026-04-03T10:48:04Z</time></trkpt><trkpt lat="42.09730944017191" lon="12.918091546797324"><ele>593.0</ele><time>2026-04-03T10:48:05Z</time></trkpt><trkpt lat="42.09717495665368" lon="12.918108594083684"><ele>593.0</ele><time>2026-04-03T10:48:06Z</time></trkpt><trkpt lat="42.09704736365935" lon="12.918036663596862"><ele>593.0</ele><time>2026-04-03T10:48:07Z</time></trkpt><trkpt lat="42.096902358590086" lon="12.917985691258973"><ele>593.0</ele><time>2026-04-03T10:48:08Z</time></trkpt><trkpt lat="42.09673901233015" lon="12.917959210017743"><ele>593.0</ele><time>2026-04-03T10:48:09Z</time></trkpt><trkpt lat="42.096594548852785" lon="12.91806299003052"><ele>593.0</ele><time>2026-04-03T10:48:10Z</time></trkpt><trkpt lat="42.09646082906307" lon="12.918147319512265"><ele>593.0</ele><time>2026-04-03T10:48:11Z</time></trkpt><trkpt lat="42.096368974360196" lon="12.918104267078212"><ele>593.0</ele><time>2026-04-03T10:48:12Z</time></trkpt><trkpt lat="42.09621827593983" lon="12.918005474515383"><ele>595.6666666666666</ele><time>2026-04-03T10:48:13Z</time></trkpt><trkpt lat="42.09607625539189" lon="12.917798191431093"><ele>598.3333333333334</ele><time>2026-04-03T10:48:14Z</time></trkpt><trkpt lat="42.09594991546104" lon="12.917607247699394"><ele>601.0</ele><time>2026-04-03T10:48:15Z</time></trkpt><trkpt lat="42.095818836550585" lon="12.917496004567491"><ele>599.6666666666667</ele><time>2026-04-03T10:48:16Z</time></trkpt><trkpt lat="42.09569391993645" lon="12.917529265866778"><ele>598.3333333333334</ele><time>2026-04-03T10:48:17Z</time></trkpt><trkpt lat="42.09551092061821" lon="12.917619501989652"><ele>597.0</ele><time>2026-04-03T10:48:18Z</time></trkpt><trkpt lat="42.09534099295231" lon="12.917625756708409"><ele>594.75</ele><time>2026-04-03T10:48:19Z</time></trkpt><trkpt lat="42.09522584992675" lon="12.917566206562835"><ele>592.5</ele><time>2026-04-03T10:48:20Z</time></trkpt><trkpt lat="42.095134310502644" lon="12.917439709780432"><ele>590.25</ele><time>2026-04-03T10:48:21Z</time></trkpt><trkpt lat="42.09506520645815" lon="12.917314839916386"><ele>588.0</ele><time>2026-04-03T10:48:22Z</time></trkpt><trkpt lat="42.09505180514086" lon="12.91718593587435"><ele>588.0</ele><time>2026-04-03T10:48:23Z</time></trkpt><trkpt lat="42.09511332684856" lon="12.917054200032895"><ele>588.0</ele><time>2026-04-03T10:48:24Z</time></trkpt><trkpt lat="42.09525156013546" lon="12.91686786580053"><ele>588.0</ele><time>2026-04-03T10:48:25Z</time></trkpt><trkpt lat="42.09546956477242" lon="12.916464027584535"><ele>594.5</ele><time>2026-04-03T10:48:26Z</time></trkpt><trkpt lat="42.095660778952904" lon="12.916054900451353"><ele>601.0</ele><time>2026-04-03T10:48:27Z</time></trkpt><trkpt lat="42.09579724016881" lon="12.915716251290322"><ele>592.0</ele><time>2026-04-03T10:48:28Z</time></trkpt><trkpt lat="42.09591972920579" lon="12.915394638257961"><ele>583.0</ele><time>2026-04-03T10:48:29Z</time></trkpt><trkpt lat="42.096025884833175" lon="12.914976698145413"><ele>583.0</ele><time>2026-04-03T10:48:30Z</time></trkpt><trkpt lat="42.0961376958838" lon="12.914536384996712"><ele>583.0</ele><time>2026-04-03T10:48:31Z</time></trkpt><trkpt lat="42.09626637672315" lon="12.914196376763856"><ele>582.6666666666667</ele><time>2026-04-03T10:48:32Z</time></trkpt><trkpt lat="42.09633504619177" lon="12.913906093490139"><ele>582.3333333333334</ele><time>2026-04-03T10:48:33Z</time></trkpt><trkpt lat="42.09633140862688" lon="12.913657830044757"><ele>582.0</ele><time>2026-04-03T10:48:34Z</time></trkpt><trkpt lat="42.09631255082145" lon="12.91337364070512"><ele>582.0</ele><time>2026-04-03T10:48:35Z</time></trkpt><trkpt lat="42.09622522665577" lon="12.913155771576667"><ele>582.0</ele><time>2026-04-03T10:48:36Z</time></trkpt><trkpt lat="42.09610845168781" lon="12.913006334381526"><ele>582.0</ele><time>2026-04-03T10:48:37Z</time></trkpt><trkpt lat="42.096012825013155" lon="12.91290941050734"><ele>582.0</ele><time>2026-04-03T10:48:38Z</time></trkpt><trkpt lat="42.09594852006571" lon="12.912733897039402"><ele>582.0</ele><time>2026-04-03T10:48:39Z</time></trkpt><trkpt lat="42.095909931415456" lon="12.91254585719677"><ele>582.0</ele><time>2026-04-03T10:48:40Z</time></trkpt><trkpt lat="42.09587573281019" lon="12.912315115567168"><ele>577.0</ele><time>2026-04-03T10:48:41Z</time></trkpt><trkpt lat="42.09588930351127" lon="12.91203091703405"><ele>572.0</ele><time>2026-04-03T10:48:42Z</time></trkpt><trkpt lat="42.09589543808935" lon="12.911778977670501"><ele>567.0</ele><time>2026-04-03T10:48:43Z</time></trkpt><trkpt lat="42.0958709124886" lon="12.9115517118177"><ele>563.0</ele><time>2026-04-03T10:48:44Z</time></trkpt><trkpt lat="42.09580576675574" lon="12.9112921481122"><ele>559.0</ele><time>2026-04-03T10:48:45Z</time></trkpt><trkpt lat="42.09568802281823" lon="12.910999153236006"><ele>570.0</ele><time>2026-04-03T10:48:46Z</time></trkpt><trkpt lat="42.095537106567306" lon="12.910688582313222"><ele>581.0</ele><time>2026-04-03T10:48:47Z</time></trkpt><trkpt lat="42.09545308021384" lon="12.910414716732758"><ele>581.0</ele><time>2026-04-03T10:48:48Z</time></trkpt><trkpt lat="42.09539340212926" lon="12.910191858424321"><ele>581.0</ele><time>2026-04-03T10:48:49Z</time></trkpt><trkpt lat="42.09540150712318" lon="12.909982142561555"><ele>581.0</ele><time>2026-04-03T10:48:50Z</time></trkpt><trkpt lat="42.09549554480135" lon="12.909722024692657"><ele>506.0</ele><time>2026-04-03T10:48:51Z</time></trkpt><trkpt lat="42.084541594159354" lon="12.900614129428266"><ele>506.0</ele><time>2026-04-03T10:49:52Z</time></trkpt><trkpt lat="42.08428750833503" lon="12.900450914686923"><ele>506.0</ele><time>2026-04-03T10:49:53Z</time></trkpt><trkpt lat="42.08403991734686" lon="12.900351864076859"><ele>507.5</ele><time>2026-04-03T10:49:54Z</time></trkpt><trkpt lat="42.08378515749999" lon="12.900358876074739"><ele>509.0</ele><time>2026-04-03T10:49:55Z</time></trkpt><trkpt lat="42.08353143229225" lon="12.90044289170187"><ele>509.0</ele><time>2026-04-03T10:49:56Z</time></trkpt><trkpt lat="42.083264812488245" lon="12.900568773603581"><ele>509.0</ele><time>2026-04-03T10:49:57Z</time></trkpt><trkpt lat="42.08303970743264" lon="12.900695569811402"><ele>507.0</ele><time>2026-04-03T10:49:58Z</time></trkpt><trkpt lat="42.08292461382711" lon="12.900872600085703"><ele>505.0</ele><time>2026-04-03T10:49:59Z</time></trkpt><trkpt lat="42.08284891946299" lon="12.901075540072972"><ele>503.0</ele><time>2026-04-03T10:50:00Z</time></trkpt><trkpt lat="42.08271065900927" lon="12.901166935318082"><ele>503.0</ele><time>2026-04-03T10:50:01Z</time></trkpt><trkpt lat="42.08244106149901" lon="12.901293535915325"><ele>503.0</ele><time>2026-04-03T10:50:02Z</time></trkpt><trkpt lat="42.082159269042094" lon="12.90142756436334"><ele>503.66666666666663</ele><time>2026-04-03T10:50:03Z</time></trkpt><trkpt lat="42.08192563491265" lon="12.901490959696195"><ele>504.33333333333337</ele><time>2026-04-03T10:50:04Z</time></trkpt><trkpt lat="42.081791627279294" lon="12.901447187109367"><ele>505.0</ele><time>2026-04-03T10:50:05Z</time></trkpt><trkpt lat="42.08159587986605" lon="12.901399076345266"><ele>506.0</ele><time>2026-04-03T10:50:06Z</time></trkpt><trkpt lat="42.08143523654878" lon="12.901372185853452"><ele>507.0</ele><time>2026-04-03T10:50:07Z</time></trkpt><trkpt lat="42.08129377194264" lon="12.901470899180008"><ele>508.0</ele><time>2026-04-03T10:50:08Z</time></trkpt><trkpt lat="42.08118139329724" lon="12.901678791270763"><ele>500.0</ele><time>2026-04-03T10:50:09Z</time></trkpt><trkpt lat="42.081094247917946" lon="12.901975660469814"><ele>492.0</ele><time>2026-04-03T10:50:10Z</time></trkpt><trkpt lat="42.08099789364665" lon="12.902177547920125"><ele>484.0</ele><time>2026-04-03T10:50:11Z</time></trkpt><trkpt lat="42.080910706005035" lon="12.902249907550004"><ele>484.0</ele><time>2026-04-03T10:50:12Z</time></trkpt><trkpt lat="42.0807957986394" lon="12.902241445526318"><ele>484.0</ele><time>2026-04-03T10:50:13Z</time></trkpt><trkpt lat="42.08068063956579" lon="12.902029679060353"><ele>484.0</ele><time>2026-04-03T10:50:14Z</time></trkpt><trkpt lat="42.08047544246403" lon="12.901815512123651"><ele>487.5</ele><time>2026-04-03T10:50:15Z</time></trkpt><trkpt lat="42.080231262915916" lon="12.901536755912254"><ele>491.0</ele><time>2026-04-03T10:50:16Z</time></trkpt><trkpt lat="42.08001909255508" lon="12.901243676004093"><ele>494.0</ele><time>2026-04-03T10:50:17Z</time></trkpt><trkpt lat="42.07985728404245" lon="12.901001190893973"><ele>497.0</ele><time>2026-04-03T10:50:18Z</time></trkpt><trkpt lat="42.079723190506456" lon="12.90081664007725"><ele>500.0</ele><time>2026-04-03T10:50:19Z</time></trkpt><trkpt lat="42.07960924662976" lon="12.900703518472064"><ele>500.0</ele><time>2026-04-03T10:50:20Z</time></trkpt><trkpt lat="42.079423607403584" lon="12.900703346880677"><ele>500.0</ele><time>2026-04-03T10:50:21Z</time></trkpt><trkpt lat="42.07916390757871" lon="12.900775330638938"><ele>500.5</ele><time>2026-04-03T10:50:22Z</time></trkpt><trkpt lat="42.0788624870524" lon="12.900811150182864"><ele>501.0</ele><time>2026-04-03T10:50:23Z</time></trkpt><trkpt lat="42.07853792784161" lon="12.900805722749308"><ele>497.0</ele><time>2026-04-03T10:50:24Z</time></trkpt><trkpt lat="42.078268059405005" lon="12.900868140469813"><ele>493.0</ele><time>2026-04-03T10:50:25Z</time></trkpt><trkpt lat="42.07807948814543" lon="12.900891044179"><ele>493.0</ele><time>2026-04-03T10:50:26Z</time></trkpt><trkpt lat="42.077946296784155" lon="12.900872745767062"><ele>493.0</ele><time>2026-04-03T10:50:27Z</time></trkpt><trkpt lat="42.07781059231209" lon="12.900775289059107"><ele>493.0</ele><time>2026-04-03T10:50:28Z</time></trkpt><trkpt lat="42.07769184550811" lon="12.900583415302682"><ele>493.0</ele><time>2026-04-03T10:50:29Z</time></trkpt><trkpt lat="42.0775581866679" lon="12.900348832159192"><ele>493.0</ele><time>2026-04-03T10:50:30Z</time></trkpt><trkpt lat="42.0774545561867" lon="12.900194975569065"><ele>493.0</ele><time>2026-04-03T10:50:31Z</time></trkpt><trkpt lat="42.07739147348944" lon="12.90005965167427"><ele>496.6666666666667</ele><time>2026-04-03T10:50:32Z</time></trkpt><trkpt lat="42.077208922703925" lon="12.900087580108764"><ele>500.33333333333337</ele><time>2026-04-03T10:50:33Z</time></trkpt><trkpt lat="42.07705574931486" lon="12.900113026958524"><ele>504.0</ele><time>2026-04-03T10:50:34Z</time></trkpt><trkpt lat="42.07692009266729" lon="12.900210274927984"><ele>504.0</ele><time>2026-04-03T10:50:35Z</time></trkpt><trkpt lat="42.07682985897713" lon="12.900362780587045"><ele>504.0</ele><time>2026-04-03T10:50:36Z</time></trkpt><trkpt lat="42.07676832127587" lon="12.90053525281758"><ele>504.0</ele><time>2026-04-03T10:50:37Z</time></trkpt><trkpt lat="42.076724327012336" lon="12.900736247233725"><ele>504.0</ele><time>2026-04-03T10:50:38Z</time></trkpt><trkpt lat="42.076697215174164" lon="12.900965657766069"><ele>499.66666666666663</ele><time>2026-04-03T10:50:39Z</time></trkpt><trkpt lat="42.076687648523446" lon="12.901219765613044"><ele>495.3333333333333</ele><time>2026-04-03T10:50:40Z</time></trkpt><trkpt lat="42.07669963672306" lon="12.901475419032058"><ele>491.0</ele><time>2026-04-03T10:50:41Z</time></trkpt><trkpt lat="42.07671724802786" lon="12.901678871624934"><ele>486.0</ele><time>2026-04-03T10:50:42Z</time></trkpt><trkpt lat="42.07663885265086" lon="12.901817682867245"><ele>481.0</ele><time>2026-04-03T10:50:43Z</time></trkpt><trkpt lat="42.076525514456755" lon="12.901937050266408"><ele>476.0</ele><time>2026-04-03T10:50:44Z</time></trkpt><trkpt lat="42.07635176906993" lon="12.901943004694896"><ele>471.0</ele><time>2026-04-03T10:50:45Z</time></trkpt><trkpt lat="42.07611650931365" lon="12.901934020757063"><ele>471.0</ele><time>2026-04-03T10:50:46Z</time></trkpt><trkpt lat="42.07586525612429" lon="12.901894218642925"><ele>471.0</ele><time>2026-04-03T10:50:47Z</time></trkpt><trkpt lat="42.075638860005945" lon="12.901872145439071"><ele>471.33333333333337</ele><time>2026-04-03T10:50:48Z</time></trkpt><trkpt lat="42.07542870990758" lon="12.901842469421014"><ele>471.6666666666667</ele><time>2026-04-03T10:50:49Z</time></trkpt><trkpt lat="42.07525238743659" lon="12.901859619280357"><ele>472.0</ele><time>2026-04-03T10:50:50Z</time></trkpt><trkpt lat="42.07512060762174" lon="12.901994515570326"><ele>458.0</ele><time>2026-04-03T10:50:51Z</time></trkpt><trkpt lat="42.07579424917415" lon="12.894340345103878"><ele>452.66666666666663</ele><time>2026-04-03T10:51:52Z</time></trkpt><trkpt lat="42.075797357596464" lon="12.894083829508487"><ele>447.33333333333337</ele><time>2026-04-03T10:51:53Z</time></trkpt><trkpt lat="42.075748661873654" lon="12.893865132822459"><ele>442.0</ele><time>2026-04-03T10:51:54Z</time></trkpt><trkpt lat="42.075702440422646" lon="12.893692094636823"><ele>441.25</ele><time>2026-04-03T10:51:55Z</time></trkpt><trkpt lat="42.07564995154427" lon="12.893585920982352"><ele>440.5</ele><time>2026-04-03T10:51:56Z</time></trkpt><trkpt lat="42.075548798652676" lon="12.893519569653328"><ele>439.75</ele><time>2026-04-03T10:51:57Z</time></trkpt><trkpt lat="42.07537461613725" lon="12.89356688386209"><ele>439.0</ele><time>2026-04-03T10:51:58Z</time></trkpt><trkpt lat="42.07513111324462" lon="12.89367379219165"><ele>438.0</ele><time>2026-04-03T10:51:59Z</time></trkpt><trkpt lat="42.07482793266018" lon="12.893807943894812"><ele>437.0</ele><time>2026-04-03T10:52:00Z</time></trkpt><trkpt lat="42.07445708673098" lon="12.893916663265394"><ele>436.0</ele><time>2026-04-03T10:52:01Z</time></trkpt><trkpt lat="42.07408917873448" lon="12.894018449400582"><ele>435.0</ele><time>2026-04-03T10:52:02Z</time></trkpt><trkpt lat="42.073636643019576" lon="12.894132506759052"><ele>435.0</ele><time>2026-04-03T10:52:03Z</time></trkpt><trkpt lat="42.0733022010375" lon="12.894214275416651"><ele>435.0</ele><time>2026-04-03T10:52:04Z</time></trkpt><trkpt lat="42.07296054677209" lon="12.894313900190886"><ele>435.0</ele><time>2026-04-03T10:52:05Z</time></trkpt><trkpt lat="42.07262541810175" lon="12.894480288029298"><ele>435.0</ele><time>2026-04-03T10:52:06Z</time></trkpt><trkpt lat="42.07230337670547" lon="12.894666406649712"><ele>435.0</ele><time>2026-04-03T10:52:07Z</time></trkpt><trkpt lat="42.07204220509721" lon="12.89478603973122"><ele>435.0</ele><time>2026-04-03T10:52:08Z</time></trkpt><trkpt lat="42.07178392578899" lon="12.89495791818501"><ele>431.5</ele><time>2026-04-03T10:52:09Z</time></trkpt><trkpt lat="42.07154729226353" lon="12.895200854666962"><ele>428.0</ele><time>2026-04-03T10:52:10Z</time></trkpt><trkpt lat="42.071291091019475" lon="12.895479876701476"><ele>428.0</ele><time>2026-04-03T10:52:11Z</time></trkpt><trkpt lat="42.070996203543125" lon="12.895816878155234"><ele>428.0</ele><time>2026-04-03T10:52:12Z</time></trkpt><trkpt lat="42.070745559447055" lon="12.89610614952969"><ele>424.0</ele><time>2026-04-03T10:52:13Z</time></trkpt><trkpt lat="42.07051960844092" lon="12.896305330096432"><ele>420.0</ele><time>2026-04-03T10:52:14Z</time></trkpt><trkpt lat="42.0703183236558" lon="12.896451097208516"><ele>420.0</ele><time>2026-04-03T10:52:15Z</time></trkpt><trkpt lat="42.07009192858184" lon="12.896566417947632"><ele>420.0</ele><time>2026-04-03T10:52:16Z</time></trkpt><trkpt lat="42.06983622625741" lon="12.896664865797213"><ele>420.66666666666663</ele><time>2026-04-03T10:52:17Z</time></trkpt><trkpt lat="42.06962746674685" lon="12.896747554084476"><ele>421.3333333333333</ele><time>2026-04-03T10:52:18Z</time></trkpt><trkpt lat="42.06942082283988" lon="12.896811022634273"><ele>422.0</ele><time>2026-04-03T10:52:19Z</time></trkpt><trkpt lat="42.069222021175875" lon="12.896914606387774"><ele>422.3333333333333</ele><time>2026-04-03T10:52:20Z</time></trkpt><trkpt lat="42.069087866935234" lon="12.897121185806133"><ele>422.66666666666663</ele><time>2026-04-03T10:52:21Z</time></trkpt><trkpt lat="42.068991806394784" lon="12.89741166426801"><ele>423.0</ele><time>2026-04-03T10:52:22Z</time></trkpt><trkpt lat="42.06883899633642" lon="12.89768598988202"><ele>423.0</ele><time>2026-04-03T10:52:23Z</time></trkpt><trkpt lat="42.06887065894769" lon="12.89826453886695"><ele>423.0</ele><time>2026-04-03T10:52:24Z</time></trkpt><trkpt lat="42.068771367005716" lon="12.89870587387264"><ele>422.0</ele><time>2026-04-03T10:52:25Z</time></trkpt><trkpt lat="42.06867316908262" lon="12.89909687649192"><ele>421.0</ele><time>2026-04-03T10:52:26Z</time></trkpt><trkpt lat="42.068547625460035" lon="12.89951995422262"><ele>417.0</ele><time>2026-04-03T10:52:27Z</time></trkpt><trkpt lat="42.068418880642106" lon="12.899957567246569"><ele>413.0</ele><time>2026-04-03T10:52:28Z</time></trkpt><trkpt lat="42.0683299059027" lon="12.90034872639994"><ele>410.5</ele><time>2026-04-03T10:52:29Z</time></trkpt><trkpt lat="42.068261293725534" lon="12.900681088632746"><ele>408.0</ele><time>2026-04-03T10:52:30Z</time></trkpt><trkpt lat="42.068194903984434" lon="12.900972552895965"><ele>406.0</ele><time>2026-04-03T10:52:31Z</time></trkpt><trkpt lat="42.06813274252093" lon="12.901143395727287"><ele>404.0</ele><time>2026-04-03T10:52:32Z</time></trkpt><trkpt lat="42.06805465126373" lon="12.90138599170574"><ele>402.0</ele><time>2026-04-03T10:52:33Z</time></trkpt><trkpt lat="42.067684966722524" lon="12.901536044368413"><ele>410.5</ele><time>2026-04-03T10:52:34Z</time></trkpt><trkpt lat="42.06737348928502" lon="12.901791926936854"><ele>419.0</ele><time>2026-04-03T10:52:35Z</time></trkpt><trkpt lat="42.067160291808" lon="12.902045471403165"><ele>419.0</ele><time>2026-04-03T10:52:36Z</time></trkpt><trkpt lat="42.06698031776173" lon="12.902378051682668"><ele>419.0</ele><time>2026-04-03T10:52:37Z</time></trkpt><trkpt lat="42.0668500931612" lon="12.902748868095888"><ele>414.0</ele><time>2026-04-03T10:52:38Z</time></trkpt><trkpt lat="42.06668638371489" lon="12.903179430316529"><ele>409.0</ele><time>2026-04-03T10:52:39Z</time></trkpt><trkpt lat="42.06654322026407" lon="12.903435388463604"><ele>405.0</ele><time>2026-04-03T10:52:40Z</time></trkpt><trkpt lat="42.066363919020795" lon="12.903643843632508"><ele>401.0</ele><time>2026-04-03T10:52:41Z</time></trkpt><trkpt lat="42.06617821830351" lon="12.90379741262138"><ele>401.0</ele><time>2026-04-03T10:52:42Z</time></trkpt><trkpt lat="42.06591774407958" lon="12.903922649297943"><ele>401.0</ele><time>2026-04-03T10:52:43Z</time></trkpt><trkpt lat="42.06552813393827" lon="12.904163307568362"><ele>398.0</ele><time>2026-04-03T10:52:44Z</time></trkpt><trkpt lat="42.06514066870618" lon="12.904392149335516"><ele>395.0</ele><time>2026-04-03T10:52:45Z</time></trkpt><trkpt lat="42.064822351034444" lon="12.904595553150376"><ele>395.0</ele><time>2026-04-03T10:52:46Z</time></trkpt><trkpt lat="42.06449936039821" lon="12.904757257831081"><ele>395.0</ele><time>2026-04-03T10:52:47Z</time></trkpt><trkpt lat="42.0642472604397" lon="12.904915478747649"><ele>391.0</ele><time>2026-04-03T10:52:48Z</time></trkpt><trkpt lat="42.06397657511157" lon="12.905082393352053"><ele>387.0</ele><time>2026-04-03T10:52:49Z</time></trkpt><trkpt lat="42.06375422690947" lon="12.905201755060117"><ele>387.0</ele><time>2026-04-03T10:52:50Z</time></trkpt><trkpt lat="42.063542120289604" lon="12.905276112676761"><ele>387.0</ele><time>2026-04-03T10:52:51Z</time></trkpt><trkpt lat="42.045248696349084" lon="12.904991219717584"><ele>382.5</ele><time>2026-04-03T10:53:52Z</time></trkpt><trkpt lat="42.0450332238073" lon="12.904828926649547"><ele>378.0</ele><time>2026-04-03T10:53:53Z</time></trkpt><trkpt lat="42.04481245329195" lon="12.90464963221914"><ele>379.5</ele><time>2026-04-03T10:53:54Z</time></trkpt><trkpt lat="42.04447770482878" lon="12.904393589174452"><ele>381.0</ele><time>2026-04-03T10:53:55Z</time></trkpt><trkpt lat="42.04421104535374" lon="12.904169814616598"><ele>378.5</ele><time>2026-04-03T10:53:56Z</time></trkpt><trkpt lat="42.04394564815168" lon="12.903977401716263"><ele>376.0</ele><time>2026-04-03T10:53:57Z</time></trkpt><trkpt lat="42.04369400552726" lon="12.903868370268327"><ele>376.0</ele><time>2026-04-03T10:53:58Z</time></trkpt><trkpt lat="42.043408607619604" lon="12.903830557115127"><ele>376.0</ele><time>2026-04-03T10:53:59Z</time></trkpt><trkpt lat="42.04298390679422" lon="12.903792787250346"><ele>375.5</ele><time>2026-04-03T10:54:00Z</time></trkpt><trkpt lat="42.04261850022401" lon="12.903749465207918"><ele>375.0</ele><time>2026-04-03T10:54:01Z</time></trkpt><trkpt lat="42.0422753496347" lon="12.903692914848945"><ele>374.5</ele><time>2026-04-03T10:54:02Z</time></trkpt><trkpt lat="42.04193417571489" lon="12.90365078494198"><ele>374.0</ele><time>2026-04-03T10:54:03Z</time></trkpt><trkpt lat="42.0415916016678" lon="12.90361247899765"><ele>374.0</ele><time>2026-04-03T10:54:04Z</time></trkpt><trkpt lat="42.04126925046166" lon="12.903570187275129"><ele>374.0</ele><time>2026-04-03T10:54:05Z</time></trkpt><trkpt lat="42.041001500015035" lon="12.903532603373716"><ele>368.5</ele><time>2026-04-03T10:54:06Z</time></trkpt><trkpt lat="42.04075307915727" lon="12.903486670202609"><ele>363.0</ele><time>2026-04-03T10:54:07Z</time></trkpt><trkpt lat="42.0405409375716" lon="12.903462038677587"><ele>363.0</ele><time>2026-04-03T10:54:08Z</time></trkpt><trkpt lat="42.040290005267885" lon="12.903524363887945"><ele>363.0</ele><time>2026-04-03T10:54:09Z</time></trkpt><trkpt lat="42.040046555567315" lon="12.90343966206993"><ele>360.5</ele><time>2026-04-03T10:54:10Z</time></trkpt><trkpt lat="42.039762790423815" lon="12.90332962260895"><ele>358.0</ele><time>2026-04-03T10:54:11Z</time></trkpt><trkpt lat="42.03944525899451" lon="12.9032136700959"><ele>358.0</ele><time>2026-04-03T10:54:12Z</time></trkpt><trkpt lat="42.03917733257005" lon="12.903134300783366"><ele>358.0</ele><time>2026-04-03T10:54:13Z</time></trkpt><trkpt lat="42.0388929171535" lon="12.903123673556136"><ele>358.0</ele><time>2026-04-03T10:54:14Z</time></trkpt><trkpt lat="42.03860438725157" lon="12.90319069881081"><ele>358.0</ele><time>2026-04-03T10:54:15Z</time></trkpt><trkpt lat="42.038271412405" lon="12.903357599401742"><ele>352.5</ele><time>2026-04-03T10:54:16Z</time></trkpt><trkpt lat="42.0379697805176" lon="12.903539252016632"><ele>347.0</ele><time>2026-04-03T10:54:17Z</time></trkpt><trkpt lat="42.037715798301186" lon="12.903661683032073"><ele>347.0</ele><time>2026-04-03T10:54:18Z</time></trkpt><trkpt lat="42.037476193563805" lon="12.903693499914159"><ele>347.0</ele><time>2026-04-03T10:54:19Z</time></trkpt><trkpt lat="42.037182141360404" lon="12.903724746033314"><ele>345.5</ele><time>2026-04-03T10:54:20Z</time></trkpt><trkpt lat="42.03689103437444" lon="12.903689835579755"><ele>344.0</ele><time>2026-04-03T10:54:21Z</time></trkpt><trkpt lat="42.03657489782267" lon="12.903534796186571"><ele>347.0</ele><time>2026-04-03T10:54:22Z</time></trkpt><trkpt lat="42.03627188799229" lon="12.903383086184633"><ele>350.0</ele><time>2026-04-03T10:54:23Z</time></trkpt><trkpt lat="42.03600112216661" lon="12.903305921178875"><ele>349.5</ele><time>2026-04-03T10:54:24Z</time></trkpt><trkpt lat="42.03566821491694" lon="12.903278491684588"><ele>349.0</ele><time>2026-04-03T10:54:25Z</time></trkpt><trkpt lat="42.035273712672655" lon="12.903372273596203"><ele>347.5</ele><time>2026-04-03T10:54:26Z</time></trkpt><trkpt lat="42.03490157450889" lon="12.903435674437612"><ele>346.0</ele><time>2026-04-03T10:54:27Z</time></trkpt><trkpt lat="42.03454073224541" lon="12.903548398273989"><ele>346.0</ele><time>2026-04-03T10:54:28Z</time></trkpt><trkpt lat="42.03415553022213" lon="12.90371773591445"><ele>346.0</ele><time>2026-04-03T10:54:29Z</time></trkpt><trkpt lat="42.03383041796926" lon="12.903881264407845"><ele>344.5</ele><time>2026-04-03T10:54:30Z</time></trkpt><trkpt lat="42.03352879305915" lon="12.903935671978068"><ele>343.0</ele><time>2026-04-03T10:54:31Z</time></trkpt><trkpt lat="42.03321511136159" lon="12.903947825701824"><ele>341.5</ele><time>2026-04-03T10:54:32Z</time></trkpt><trkpt lat="42.032847383926914" lon="12.903927488023553"><ele>340.0</ele><time>2026-04-03T10:54:33Z</time></trkpt><trkpt lat="42.0324690127756" lon="12.903862943729264"><ele>336.0</ele><time>2026-04-03T10:54:34Z</time></trkpt><trkpt lat="42.032002563756876" lon="12.9037095583825"><ele>334.0</ele><time>2026-04-03T10:54:35Z</time></trkpt><trkpt lat="42.031606128421984" lon="12.903580314249385"><ele>332.0</ele><time>2026-04-03T10:54:36Z</time></trkpt><trkpt lat="42.03127477592837" lon="12.90351421365823"><ele>332.0</ele><time>2026-04-03T10:54:37Z</time></trkpt><trkpt lat="42.03095695605728" lon="12.903453277868223"><ele>332.0</ele><time>2026-04-03T10:54:38Z</time></trkpt><trkpt lat="42.03062330641892" lon="12.90341129064486"><ele>332.0</ele><time>2026-04-03T10:54:39Z</time></trkpt><trkpt lat="42.03024732477432" lon="12.903406475390481"><ele>332.0</ele><time>2026-04-03T10:54:40Z</time></trkpt><trkpt lat="42.02980807785316" lon="12.903457687909526"><ele>332.0</ele><time>2026-04-03T10:54:41Z</time></trkpt><trkpt lat="42.029313208732304" lon="12.903532570326892"><ele>332.0</ele><time>2026-04-03T10:54:42Z</time></trkpt><trkpt lat="42.02883244889402" lon="12.903603849719039"><ele>332.0</ele><time>2026-04-03T10:54:43Z</time></trkpt><trkpt lat="42.02843404923657" lon="12.903650161334774"><ele>332.0</ele><time>2026-04-03T10:54:44Z</time></trkpt><trkpt lat="42.0281238636532" lon="12.90370103664513"><ele>333.5</ele><time>2026-04-03T10:54:45Z</time></trkpt><trkpt lat="42.02786548970355" lon="12.90374316543812"><ele>335.0</ele><time>2026-04-03T10:54:46Z</time></trkpt><trkpt lat="42.02759119045513" lon="12.90380145911976"><ele>337.0</ele><time>2026-04-03T10:54:47Z</time></trkpt><trkpt lat="42.027255125937" lon="12.903894853300962"><ele>339.0</ele><time>2026-04-03T10:54:48Z</time></trkpt><trkpt lat="42.02690651857376" lon="12.904016295896994"><ele>339.0</ele><time>2026-04-03T10:54:49Z</time></trkpt><trkpt lat="42.02663302391711" lon="12.904068560459676"><ele>339.0</ele><time>2026-04-03T10:54:50Z</time></trkpt><trkpt lat="42.026350523292585" lon="12.904089945441529"><ele>324.0</ele><time>2026-04-03T10:54:51Z</time></trkpt><trkpt lat="42.019073304065856" lon="12.904961637082506"><ele>324.0</ele><time>2026-04-03T10:55:38Z</time></trkpt><trkpt lat="42.01913163919994" lon="12.904841328517922"><ele>324.0</ele><time>2026-04-03T10:55:39Z</time></trkpt><trkpt lat="42.019624885425145" lon="12.90235795361253"><ele>325.3333333333333</ele><time>2026-04-03T10:55:52Z</time></trkpt><trkpt lat="42.01944281939431" lon="12.9022863957485"><ele>326.66666666666663</ele><time>2026-04-03T10:55:53Z</time></trkpt><trkpt lat="42.01921575954526" lon="12.902358472345405"><ele>328.0</ele><time>2026-04-03T10:55:54Z</time></trkpt><trkpt lat="42.01897790875436" lon="12.902488078088696"><ele>328.0</ele><time>2026-04-03T10:55:55Z</time></trkpt><trkpt lat="42.018776264075065" lon="12.902561560788236"><ele>328.0</ele><time>2026-04-03T10:55:56Z</time></trkpt><trkpt lat="42.018607093849084" lon="12.902541656521965"><ele>328.0</ele><time>2026-04-03T10:55:57Z</time></trkpt><trkpt lat="42.01843979921612" lon="12.902531981807188"><ele>319.66666666666663</ele><time>2026-04-03T10:55:58Z</time></trkpt><trkpt lat="42.018293755345915" lon="12.902427051730921"><ele>311.3333333333333</ele><time>2026-04-03T10:55:59Z</time></trkpt><trkpt lat="42.018150570066936" lon="12.902254413627173"><ele>303.0</ele><time>2026-04-03T10:56:00Z</time></trkpt><trkpt lat="42.0180182704482" lon="12.902065357395326"><ele>303.0</ele><time>2026-04-03T10:56:01Z</time></trkpt><trkpt lat="42.01791792143946" lon="12.901873312991786"><ele>303.0</ele><time>2026-04-03T10:56:02Z</time></trkpt><trkpt lat="42.01782092139085" lon="12.90168277897131"><ele>303.0</ele><time>2026-04-03T10:56:03Z</time></trkpt><trkpt lat="42.0177196625266" lon="12.90159638212673"><ele>304.4</ele><time>2026-04-03T10:56:04Z</time></trkpt><trkpt lat="42.017689800226584" lon="12.901487490112656"><ele>305.8</ele><time>2026-04-03T10:56:05Z</time></trkpt><trkpt lat="42.01768776308445" lon="12.901381740333735"><ele>307.2</ele><time>2026-04-03T10:56:06Z</time></trkpt><trkpt lat="42.017749524060186" lon="12.90126967091132"><ele>308.6</ele><time>2026-04-03T10:56:07Z</time></trkpt><trkpt lat="42.01784042018109" lon="12.901202795588638"><ele>310.0</ele><time>2026-04-03T10:56:08Z</time></trkpt><trkpt lat="42.01794161016401" lon="12.90119551657456"><ele>310.0</ele><time>2026-04-03T10:56:09Z</time></trkpt><trkpt lat="42.01807802403377" lon="12.901161220605156"><ele>310.0</ele><time>2026-04-03T10:56:10Z</time></trkpt><trkpt lat="42.01832505104809" lon="12.90114111372432"><ele>310.0</ele><time>2026-04-03T10:56:11Z</time></trkpt><trkpt lat="42.01856312778439" lon="12.901067912834955"><ele>313.0</ele><time>2026-04-03T10:56:12Z</time></trkpt><trkpt lat="42.01872228816042" lon="12.900984282856568"><ele>316.0</ele><time>2026-04-03T10:56:13Z</time></trkpt><trkpt lat="42.01883458908356" lon="12.900811927248464"><ele>319.0</ele><time>2026-04-03T10:56:14Z</time></trkpt><trkpt lat="42.018912202414334" lon="12.900634703718119"><ele>319.0</ele><time>2026-04-03T10:56:15Z</time></trkpt><trkpt lat="42.01904094691054" lon="12.900156032494914"><ele>319.0</ele><time>2026-04-03T10:56:16Z</time></trkpt><trkpt lat="42.01912064421304" lon="12.899892870489122"><ele>318.66666666666663</ele><time>2026-04-03T10:56:17Z</time></trkpt><trkpt lat="42.019244216073886" lon="12.899711441604005"><ele>318.3333333333333</ele><time>2026-04-03T10:56:18Z</time></trkpt><trkpt lat="42.01946232282216" lon="12.89958020143314"><ele>318.0</ele><time>2026-04-03T10:56:19Z</time></trkpt><trkpt lat="42.019727388187746" lon="12.899509484453732"><ele>318.0</ele><time>2026-04-03T10:56:20Z</time></trkpt><trkpt lat="42.019959410657485" lon="12.899430875087234"><ele>318.0</ele><time>2026-04-03T10:56:21Z</time></trkpt><trkpt lat="42.02010509529283" lon="12.899362968127317"><ele>318.0</ele><time>2026-04-03T10:56:22Z</time></trkpt><trkpt lat="42.0201360704156" lon="12.899127498899364"><ele>317.6666666666667</ele><time>2026-04-03T10:56:24Z</time></trkpt><trkpt lat="42.0200645066434" lon="12.8989901048271"><ele>317.33333333333337</ele><time>2026-04-03T10:56:25Z</time></trkpt><trkpt lat="42.019943390787496" lon="12.898903311853866"><ele>317.0</ele><time>2026-04-03T10:56:26Z</time></trkpt><trkpt lat="42.019749976604935" lon="12.898910371039452"><ele>314.0</ele><time>2026-04-03T10:56:27Z</time></trkpt><trkpt lat="42.019495647259504" lon="12.898967886399118"><ele>311.0</ele><time>2026-04-03T10:56:28Z</time></trkpt><trkpt lat="42.019225528718046" lon="12.89900355609899"><ele>311.5</ele><time>2026-04-03T10:56:29Z</time></trkpt><trkpt lat="42.018822280461876" lon="12.89902502925353"><ele>312.0</ele><time>2026-04-03T10:56:30Z</time></trkpt><trkpt lat="42.018354622162605" lon="12.899072296117277"><ele>311.5</ele><time>2026-04-03T10:56:31Z</time></trkpt><trkpt lat="42.01795342768051" lon="12.899113650973193"><ele>311.0</ele><time>2026-04-03T10:56:32Z</time></trkpt><trkpt lat="42.01763371645525" lon="12.899150588695212"><ele>310.0</ele><time>2026-04-03T10:56:33Z</time></trkpt><trkpt lat="42.01732936071507" lon="12.899188527896099"><ele>309.0</ele><time>2026-04-03T10:56:34Z</time></trkpt><trkpt lat="42.01707890200325" lon="12.899218432358971"><ele>309.0</ele><time>2026-04-03T10:56:35Z</time></trkpt><trkpt lat="42.01681869387005" lon="12.899231888743321"><ele>309.0</ele><time>2026-04-03T10:56:36Z</time></trkpt><trkpt lat="42.01664211484758" lon="12.899194850474107"><ele>309.0</ele><time>2026-04-03T10:56:37Z</time></trkpt><trkpt lat="42.016507186202844" lon="12.899068888916455"><ele>301.0</ele><time>2026-04-03T10:56:38Z</time></trkpt><trkpt lat="42.01643459184509" lon="12.898942974586348"><ele>293.0</ele><time>2026-04-03T10:56:39Z</time></trkpt><trkpt lat="42.01637305827792" lon="12.898736909331152"><ele>285.0</ele><time>2026-04-03T10:56:40Z</time></trkpt><trkpt lat="42.0163360039996" lon="12.898472435522976"><ele>288.0</ele><time>2026-04-03T10:56:41Z</time></trkpt><trkpt lat="42.016301557125" lon="12.898114957856446"><ele>291.0</ele><time>2026-04-03T10:56:42Z</time></trkpt><trkpt lat="42.01625272479421" lon="12.897646918328169"><ele>293.0</ele><time>2026-04-03T10:56:43Z</time></trkpt><trkpt lat="42.0162073958104" lon="12.89724308863884"><ele>295.0</ele><time>2026-04-03T10:56:44Z</time></trkpt><trkpt lat="42.016173290793446" lon="12.896887753511168"><ele>295.0</ele><time>2026-04-03T10:56:45Z</time></trkpt><trkpt lat="42.016147398294855" lon="12.896581099342177"><ele>295.0</ele><time>2026-04-03T10:56:46Z</time></trkpt><trkpt lat="42.01613675910821" lon="12.89640601503528"><ele>295.0</ele><time>2026-04-03T10:56:47Z</time></trkpt><trkpt lat="42.01614552912306" lon="12.896180746401464"><ele>295.3333333333333</ele><time>2026-04-03T10:56:48Z</time></trkpt><trkpt lat="42.01614769304261" lon="12.895912557937498"><ele>295.6666666666667</ele><time>2026-04-03T10:56:49Z</time></trkpt><trkpt lat="42.01615184357133" lon="12.895593287137412"><ele>296.0</ele><time>2026-04-03T10:56:50Z</time></trkpt><trkpt lat="42.01610993302754" lon="12.895240197625641"><ele>262.0</ele><time>2026-04-03T10:56:51Z</time></trkpt><trkpt lat="42.00664907017136" lon="12.881025357201434"><ele>262.5</ele><time>2026-04-03T10:57:52Z</time></trkpt><trkpt lat="42.006434848570535" lon="12.880721647106554"><ele>263.0</ele><time>2026-04-03T10:57:53Z</time></trkpt><trkpt lat="42.00628008641066" lon="12.880444878135556"><ele>263.0</ele><time>2026-04-03T10:57:54Z</time></trkpt><trkpt lat="42.00617762317865" lon="12.880135767399953"><ele>263.0</ele><time>2026-04-03T10:57:55Z</time></trkpt><trkpt lat="42.00611515185159" lon="12.879787627795015"><ele>263.5</ele><time>2026-04-03T10:57:56Z</time></trkpt><trkpt lat="42.006060917113686" lon="12.879380905441598"><ele>264.0</ele><time>2026-04-03T10:57:57Z</time></trkpt><trkpt lat="42.005923985921314" lon="12.879033124213176"><ele>263.5</ele><time>2026-04-03T10:57:58Z</time></trkpt><trkpt lat="42.00577232043668" lon="12.878685465817215"><ele>263.0</ele><time>2026-04-03T10:57:59Z</time></trkpt><trkpt lat="42.005616867890055" lon="12.878209694912586"><ele>264.0</ele><time>2026-04-03T10:58:00Z</time></trkpt><trkpt lat="42.00550916498428" lon="12.87784760861151"><ele>265.0</ele><time>2026-04-03T10:58:01Z</time></trkpt><trkpt lat="42.00547057511547" lon="12.877592234857229"><ele>267.0</ele><time>2026-04-03T10:58:02Z</time></trkpt><trkpt lat="42.005436507465724" lon="12.877272653194929"><ele>269.0</ele><time>2026-04-03T10:58:03Z</time></trkpt><trkpt lat="42.00533345195676" lon="12.87710140363165"><ele>271.0</ele><time>2026-04-03T10:58:04Z</time></trkpt><trkpt lat="42.00517635339755" lon="12.877008143641898"><ele>268.5</ele><time>2026-04-03T10:58:05Z</time></trkpt><trkpt lat="42.00495031840181" lon="12.877021306208816"><ele>266.0</ele><time>2026-04-03T10:58:06Z</time></trkpt><trkpt lat="42.004634314072604" lon="12.877074100826468"><ele>266.0</ele><time>2026-04-03T10:58:07Z</time></trkpt><trkpt lat="42.0043659459956" lon="12.877048367395656"><ele>266.0</ele><time>2026-04-03T10:58:08Z</time></trkpt><trkpt lat="42.00407579119101" lon="12.876965954419772"><ele>266.5</ele><time>2026-04-03T10:58:09Z</time></trkpt><trkpt lat="42.00379575724626" lon="12.87673794406111"><ele>267.0</ele><time>2026-04-03T10:58:10Z</time></trkpt><trkpt lat="42.00352888105229" lon="12.876525032075865"><ele>265.0</ele><time>2026-04-03T10:58:11Z</time></trkpt><trkpt lat="42.00332808735102" lon="12.876477610156831"><ele>263.0</ele><time>2026-04-03T10:58:12Z</time></trkpt><trkpt lat="42.003085154348994" lon="12.87650610196252"><ele>261.0</ele><time>2026-04-03T10:58:13Z</time></trkpt><trkpt lat="42.002835650021474" lon="12.876665662518421"><ele>261.0</ele><time>2026-04-03T10:58:14Z</time></trkpt><trkpt lat="42.00253055874263" lon="12.876905925786"><ele>261.0</ele><time>2026-04-03T10:58:15Z</time></trkpt><trkpt lat="42.00225414272961" lon="12.877103873612786"><ele>261.0</ele><time>2026-04-03T10:58:16Z</time></trkpt><trkpt lat="42.001969183955744" lon="12.87718584454667"><ele>261.0</ele><time>2026-04-03T10:58:17Z</time></trkpt><trkpt lat="42.00166119213661" lon="12.877124294419632"><ele>262.0</ele><time>2026-04-03T10:58:18Z</time></trkpt><trkpt lat="42.00131800746607" lon="12.87702291136324"><ele>263.0</ele><time>2026-04-03T10:58:19Z</time></trkpt><trkpt lat="42.00100024427439" lon="12.877046835773369"><ele>263.0</ele><time>2026-04-03T10:58:20Z</time></trkpt><trkpt lat="42.00074486553055" lon="12.877124358626336"><ele>263.0</ele><time>2026-04-03T10:58:21Z</time></trkpt><trkpt lat="42.00044533072691" lon="12.877126080714092"><ele>263.0</ele><time>2026-04-03T10:58:22Z</time></trkpt><trkpt lat="42.00010594813228" lon="12.87710191373793"><ele>263.0</ele><time>2026-04-03T10:58:23Z</time></trkpt><trkpt lat="41.99976103126283" lon="12.877051281477483"><ele>263.0</ele><time>2026-04-03T10:58:24Z</time></trkpt><trkpt lat="41.99937894647296" lon="12.876967249063025"><ele>263.0</ele><time>2026-04-03T10:58:25Z</time></trkpt><trkpt lat="41.999025879269475" lon="12.87685735228503"><ele>268.0</ele><time>2026-04-03T10:58:26Z</time></trkpt><trkpt lat="41.99872779858033" lon="12.876722623907236"><ele>273.0</ele><time>2026-04-03T10:58:27Z</time></trkpt><trkpt lat="41.99844527246621" lon="12.876585799076647"><ele>268.0</ele><time>2026-04-03T10:58:28Z</time></trkpt><trkpt lat="41.99817919331642" lon="12.876456069362447"><ele>263.0</ele><time>2026-04-03T10:58:29Z</time></trkpt><trkpt lat="41.99800135097339" lon="12.876362436690515"><ele>263.0</ele><time>2026-04-03T10:58:30Z</time></trkpt><trkpt lat="41.9977980927485" lon="12.876243148917695"><ele>263.0</ele><time>2026-04-03T10:58:31Z</time></trkpt><trkpt lat="41.99761214274941" lon="12.876106202499377"><ele>263.0</ele><time>2026-04-03T10:58:32Z</time></trkpt><trkpt lat="41.99739585544912" lon="12.875908644197994"><ele>265.0</ele><time>2026-04-03T10:58:33Z</time></trkpt><trkpt lat="41.99707555150951" lon="12.875613337059178"><ele>267.0</ele><time>2026-04-03T10:58:34Z</time></trkpt><trkpt lat="41.996760336227986" lon="12.875284325944541"><ele>269.0</ele><time>2026-04-03T10:58:35Z</time></trkpt><trkpt lat="41.99646526452257" lon="12.874947526552004"><ele>271.0</ele><time>2026-04-03T10:58:36Z</time></trkpt><trkpt lat="41.99617081097445" lon="12.874590819255687"><ele>271.0</ele><time>2026-04-03T10:58:37Z</time></trkpt><trkpt lat="41.99596392730113" lon="12.87429347113678"><ele>271.0</ele><time>2026-04-03T10:58:38Z</time></trkpt><trkpt lat="41.99574425676358" lon="12.873990639867348"><ele>269.5</ele><time>2026-04-03T10:58:39Z</time></trkpt><trkpt lat="41.99556316260054" lon="12.873763344220633"><ele>268.0</ele><time>2026-04-03T10:58:40Z</time></trkpt><trkpt lat="41.995359267518936" lon="12.873632176589396"><ele>268.0</ele><time>2026-04-03T10:58:41Z</time></trkpt><trkpt lat="41.99509387822123" lon="12.873566849735965"><ele>268.0</ele><time>2026-04-03T10:58:42Z</time></trkpt><trkpt lat="41.99487618121835" lon="12.873437777418145"><ele>270.66666666666663</ele><time>2026-04-03T10:58:43Z</time></trkpt><trkpt lat="41.99471410570412" lon="12.873284422469053"><ele>273.3333333333333</ele><time>2026-04-03T10:58:44Z</time></trkpt><trkpt lat="41.99454892797664" lon="12.873042713022775"><ele>276.0</ele><time>2026-04-03T10:58:45Z</time></trkpt><trkpt lat="41.99436776146814" lon="12.872695535664239"><ele>271.5</ele><time>2026-04-03T10:58:46Z</time></trkpt><trkpt lat="41.99422416300806" lon="12.872371876828327"><ele>267.0</ele><time>2026-04-03T10:58:47Z</time></trkpt><trkpt lat="41.99415905388193" lon="12.872091448702143"><ele>267.0</ele><time>2026-04-03T10:58:48Z</time></trkpt><trkpt lat="41.99414585924651" lon="12.871774580803205"><ele>267.0</ele><time>2026-04-03T10:58:49Z</time></trkpt><trkpt lat="41.994194371801996" lon="12.871402637781447"><ele>261.0</ele><time>2026-04-03T10:58:50Z</time></trkpt><trkpt lat="41.99424492266024" lon="12.871004220154076"><ele>255.0</ele><time>2026-04-03T10:58:51Z</time></trkpt><trkpt lat="41.983954585738964" lon="12.853614845164648"><ele>254.66666666666669</ele><time>2026-04-03T10:59:52Z</time></trkpt><trkpt lat="41.98403456125014" lon="12.853360977095685"><ele>254.33333333333334</ele><time>2026-04-03T10:59:53Z</time></trkpt><trkpt lat="41.984201707853835" lon="12.853141520529165"><ele>254.0</ele><time>2026-04-03T10:59:54Z</time></trkpt><trkpt lat="41.98448105734928" lon="12.852840864827739"><ele>256.5</ele><time>2026-04-03T10:59:55Z</time></trkpt><trkpt lat="41.98478239305718" lon="12.852488346791464"><ele>259.0</ele><time>2026-04-03T10:59:56Z</time></trkpt><trkpt lat="41.98507029470575" lon="12.852163431917036"><ele>261.0</ele><time>2026-04-03T10:59:57Z</time></trkpt><trkpt lat="41.98536094128485" lon="12.851877728093664"><ele>263.0</ele><time>2026-04-03T10:59:58Z</time></trkpt><trkpt lat="41.98556836511966" lon="12.851600177638526"><ele>263.0</ele><time>2026-04-03T10:59:59Z</time></trkpt><trkpt lat="41.98576389285118" lon="12.851261091892276"><ele>263.0</ele><time>2026-04-03T11:00:00Z</time></trkpt><trkpt lat="41.985928342794374" lon="12.850909004170582"><ele>263.0</ele><time>2026-04-03T11:00:01Z</time></trkpt><trkpt lat="41.98604721199475" lon="12.850555289122362"><ele>263.0</ele><time>2026-04-03T11:00:02Z</time></trkpt><trkpt lat="41.986094204462056" lon="12.850180833317056"><ele>262.5</ele><time>2026-04-03T11:00:03Z</time></trkpt><trkpt lat="41.986078773278926" lon="12.849757002667928"><ele>262.0</ele><time>2026-04-03T11:00:04Z</time></trkpt><trkpt lat="41.98605423863715" lon="12.849374404179216"><ele>261.66666666666663</ele><time>2026-04-03T11:00:05Z</time></trkpt><trkpt lat="41.98608365593684" lon="12.849097257330483"><ele>261.3333333333333</ele><time>2026-04-03T11:00:06Z</time></trkpt><trkpt lat="41.98617108209726" lon="12.848847465580105"><ele>261.0</ele><time>2026-04-03T11:00:07Z</time></trkpt><trkpt lat="41.986375418899556" lon="12.848563063975817"><ele>260.0</ele><time>2026-04-03T11:00:08Z</time></trkpt><trkpt lat="41.98658440939778" lon="12.84824746941058"><ele>259.0</ele><time>2026-04-03T11:00:09Z</time></trkpt><trkpt lat="41.98672644164252" lon="12.847951455826411"><ele>259.0</ele><time>2026-04-03T11:00:10Z</time></trkpt><trkpt lat="41.986761713107214" lon="12.847643744354038"><ele>259.0</ele><time>2026-04-03T11:00:11Z</time></trkpt><trkpt lat="41.9867356046721" lon="12.847305951475013"><ele>258.5</ele><time>2026-04-03T11:00:12Z</time></trkpt><trkpt lat="41.98663133423097" lon="12.846941346302396"><ele>258.0</ele><time>2026-04-03T11:00:13Z</time></trkpt><trkpt lat="41.98648272981416" lon="12.84660140101022"><ele>257.5</ele><time>2026-04-03T11:00:14Z</time></trkpt><trkpt lat="41.98627476516611" lon="12.846169098569236"><ele>257.0</ele><time>2026-04-03T11:00:15Z</time></trkpt><trkpt lat="41.9860614432329" lon="12.845660806716182"><ele>256.5</ele><time>2026-04-03T11:00:16Z</time></trkpt><trkpt lat="41.98585624902244" lon="12.845283224130844"><ele>256.0</ele><time>2026-04-03T11:00:17Z</time></trkpt><trkpt lat="41.98567528141887" lon="12.844997933229186"><ele>256.0</ele><time>2026-04-03T11:00:18Z</time></trkpt><trkpt lat="41.98541688881768" lon="12.844740712991564"><ele>256.0</ele><time>2026-04-03T11:00:19Z</time></trkpt><trkpt lat="41.985120584079326" lon="12.844474602122535"><ele>256.5</ele><time>2026-04-03T11:00:20Z</time></trkpt><trkpt lat="41.98479268020646" lon="12.844267002385122"><ele>257.0</ele><time>2026-04-03T11:00:21Z</time></trkpt><trkpt lat="41.98445319448456" lon="12.84413742980662"><ele>255.5</ele><time>2026-04-03T11:00:22Z</time></trkpt><trkpt lat="41.984100833359506" lon="12.844053312484348"><ele>254.0</ele><time>2026-04-03T11:00:23Z</time></trkpt><trkpt lat="41.98376321853737" lon="12.844028686280119"><ele>254.0</ele><time>2026-04-03T11:00:24Z</time></trkpt><trkpt lat="41.98340858932924" lon="12.844098605855777"><ele>254.0</ele><time>2026-04-03T11:00:25Z</time></trkpt><trkpt lat="41.98301696067879" lon="12.84415860434959"><ele>254.0</ele><time>2026-04-03T11:00:26Z</time></trkpt><trkpt lat="41.98261296924386" lon="12.844228579428634"><ele>254.0</ele><time>2026-04-03T11:00:27Z</time></trkpt><trkpt lat="41.98229363322601" lon="12.844337827073902"><ele>246.0</ele><time>2026-04-03T11:00:28Z</time></trkpt><trkpt lat="41.98198135885745" lon="12.844380918781297"><ele>238.0</ele><time>2026-04-03T11:00:29Z</time></trkpt><trkpt lat="41.9817422917109" lon="12.844403098682449"><ele>240.0</ele><time>2026-04-03T11:00:30Z</time></trkpt><trkpt lat="41.98151745018046" lon="12.844341084911221"><ele>242.0</ele><time>2026-04-03T11:00:31Z</time></trkpt><trkpt lat="41.98126366082728" lon="12.844101136237894"><ele>244.0</ele><time>2026-04-03T11:00:32Z</time></trkpt><trkpt lat="41.9810040160429" lon="12.843874833845737"><ele>246.0</ele><time>2026-04-03T11:00:33Z</time></trkpt><trkpt lat="41.98081427202055" lon="12.843611936083065"><ele>250.5</ele><time>2026-04-03T11:00:34Z</time></trkpt><trkpt lat="41.98070125746952" lon="12.84335889354749"><ele>255.0</ele><time>2026-04-03T11:00:35Z</time></trkpt><trkpt lat="41.98061227117419" lon="12.843040497775828"><ele>256.5</ele><time>2026-04-03T11:00:36Z</time></trkpt><trkpt lat="41.98050423239737" lon="12.842591495044141"><ele>258.0</ele><time>2026-04-03T11:00:37Z</time></trkpt><trkpt lat="41.9803744255856" lon="12.842183855915188"><ele>260.0</ele><time>2026-04-03T11:00:38Z</time></trkpt><trkpt lat="41.98019766737552" lon="12.841772433583175"><ele>262.0</ele><time>2026-04-03T11:00:39Z</time></trkpt><trkpt lat="41.979968956172314" lon="12.841406727412354"><ele>262.0</ele><time>2026-04-03T11:00:40Z</time></trkpt><trkpt lat="41.97968598898589" lon="12.841052507756448"><ele>262.0</ele><time>2026-04-03T11:00:41Z</time></trkpt><trkpt lat="41.97941190391682" lon="12.840790081966642"><ele>262.0</ele><time>2026-04-03T11:00:42Z</time></trkpt><trkpt lat="41.97919426561204" lon="12.840513810838848"><ele>262.0</ele><time>2026-04-03T11:00:43Z</time></trkpt><trkpt lat="41.9790634984801" lon="12.840286908153793"><ele>258.0</ele><time>2026-04-03T11:00:44Z</time></trkpt><trkpt lat="41.97898148826283" lon="12.839970202286095"><ele>254.0</ele><time>2026-04-03T11:00:45Z</time></trkpt><trkpt lat="41.97896285507274" lon="12.839636557643471"><ele>254.0</ele><time>2026-04-03T11:00:46Z</time></trkpt><trkpt lat="41.97900447505557" lon="12.839321786773825"><ele>254.0</ele><time>2026-04-03T11:00:47Z</time></trkpt><trkpt lat="41.979107914766914" lon="12.839024070679882"><ele>258.5</ele><time>2026-04-03T11:00:48Z</time></trkpt><trkpt lat="41.979263421240454" lon="12.838686961734865"><ele>263.0</ele><time>2026-04-03T11:00:49Z</time></trkpt><trkpt lat="41.97944030334139" lon="12.838396274659683"><ele>263.0</ele><time>2026-04-03T11:00:50Z</time></trkpt><trkpt lat="41.979546780654054" lon="12.838084234461375"><ele>263.0</ele><time>2026-04-03T11:00:51Z</time></trkpt><trkpt lat="41.96644759281484" lon="12.825407908361875"><ele>262.0</ele><time>2026-04-03T11:01:52Z</time></trkpt><trkpt lat="41.96627753039972" lon="12.825325977742278"><ele>261.0</ele><time>2026-04-03T11:01:53Z</time></trkpt><trkpt lat="41.96607702818793" lon="12.825217214217359"><ele>260.0</ele><time>2026-04-03T11:01:54Z</time></trkpt><trkpt lat="41.965870518315754" lon="12.825098000765541"><ele>259.0</ele><time>2026-04-03T11:01:55Z</time></trkpt><trkpt lat="41.965672067908145" lon="12.824972998965343"><ele>258.0</ele><time>2026-04-03T11:01:56Z</time></trkpt><trkpt lat="41.965482231999154" lon="12.824857446835981"><ele>257.0</ele><time>2026-04-03T11:01:57Z</time></trkpt><trkpt lat="41.96529031046505" lon="12.824753593293915"><ele>257.0</ele><time>2026-04-03T11:01:58Z</time></trkpt><trkpt lat="41.96511421944898" lon="12.824659046607666"><ele>257.0</ele><time>2026-04-03T11:01:59Z</time></trkpt><trkpt lat="41.96492034998752" lon="12.824548940900428"><ele>257.0</ele><time>2026-04-03T11:02:00Z</time></trkpt><trkpt lat="41.964704908864405" lon="12.824424391434324"><ele>257.5</ele><time>2026-04-03T11:02:01Z</time></trkpt><trkpt lat="41.96446686661849" lon="12.824284987330326"><ele>258.0</ele><time>2026-04-03T11:02:02Z</time></trkpt><trkpt lat="41.96423629036305" lon="12.82415358855268"><ele>258.5</ele><time>2026-04-03T11:02:03Z</time></trkpt><trkpt lat="41.96399567981883" lon="12.824010661133425"><ele>259.0</ele><time>2026-04-03T11:02:04Z</time></trkpt><trkpt lat="41.963740521023404" lon="12.823841194929571"><ele>259.0</ele><time>2026-04-03T11:02:05Z</time></trkpt><trkpt lat="41.96349985860067" lon="12.823642645489972"><ele>259.0</ele><time>2026-04-03T11:02:06Z</time></trkpt><trkpt lat="41.96327040314486" lon="12.823441558568517"><ele>259.0</ele><time>2026-04-03T11:02:07Z</time></trkpt><trkpt lat="41.963064568495675" lon="12.823266744003183"><ele>259.0</ele><time>2026-04-03T11:02:08Z</time></trkpt><trkpt lat="41.96290481707422" lon="12.823146765955311"><ele>259.0</ele><time>2026-04-03T11:02:09Z</time></trkpt><trkpt lat="41.962743827738805" lon="12.823041193964054"><ele>259.0</ele><time>2026-04-03T11:02:10Z</time></trkpt><trkpt lat="41.962544970693564" lon="12.822884980992711"><ele>259.0</ele><time>2026-04-03T11:02:11Z</time></trkpt><trkpt lat="41.96228657841078" lon="12.822772931545035"><ele>257.5</ele><time>2026-04-03T11:02:12Z</time></trkpt><trkpt lat="41.96202379123146" lon="12.822672733617036"><ele>256.0</ele><time>2026-04-03T11:02:13Z</time></trkpt><trkpt lat="41.96178355913153" lon="12.822569906645978"><ele>258.3333333333333</ele><time>2026-04-03T11:02:14Z</time></trkpt><trkpt lat="41.961593783398925" lon="12.822496546299275"><ele>260.6666666666667</ele><time>2026-04-03T11:02:15Z</time></trkpt><trkpt lat="41.96142043937572" lon="12.822431470428782"><ele>263.0</ele><time>2026-04-03T11:02:16Z</time></trkpt><trkpt lat="41.96124700311239" lon="12.822368470828241"><ele>263.0</ele><time>2026-04-03T11:02:17Z</time></trkpt><trkpt lat="41.96107172005551" lon="12.822306298728662"><ele>263.0</ele><time>2026-04-03T11:02:18Z</time></trkpt><trkpt lat="41.96088710770103" lon="12.822240817568257"><ele>263.0</ele><time>2026-04-03T11:02:19Z</time></trkpt><trkpt lat="41.960692850898596" lon="12.822174423290337"><ele>261.6666666666667</ele><time>2026-04-03T11:02:20Z</time></trkpt><trkpt lat="41.96049116465239" lon="12.822130763708637"><ele>260.3333333333333</ele><time>2026-04-03T11:02:21Z</time></trkpt><trkpt lat="41.96028621296732" lon="12.822047763160374"><ele>259.0</ele><time>2026-04-03T11:02:22Z</time></trkpt><trkpt lat="41.96008753548031" lon="12.82196570602052"><ele>258.3333333333333</ele><time>2026-04-03T11:02:23Z</time></trkpt><trkpt lat="41.9598762807996" lon="12.821881015759732"><ele>257.6666666666667</ele><time>2026-04-03T11:02:24Z</time></trkpt><trkpt lat="41.959671694710075" lon="12.821755802933012"><ele>257.0</ele><time>2026-04-03T11:02:25Z</time></trkpt><trkpt lat="41.95947519555566" lon="12.821648491042344"><ele>258.33333333333337</ele><time>2026-04-03T11:02:26Z</time></trkpt><trkpt lat="41.95930650699852" lon="12.82156542039408"><ele>259.6666666666667</ele><time>2026-04-03T11:02:27Z</time></trkpt><trkpt lat="41.95916412343036" lon="12.821469354818037"><ele>261.0</ele><time>2026-04-03T11:02:28Z</time></trkpt><trkpt lat="41.95903125035181" lon="12.821380218047032"><ele>261.0</ele><time>2026-04-03T11:02:29Z</time></trkpt><trkpt lat="41.95890566564768" lon="12.821293624829265"><ele>261.0</ele><time>2026-04-03T11:02:30Z</time></trkpt><trkpt lat="41.958781255958975" lon="12.821194944644533"><ele>261.0</ele><time>2026-04-03T11:02:31Z</time></trkpt><trkpt lat="41.958617800075125" lon="12.821102988191585"><ele>261.0</ele><time>2026-04-03T11:02:32Z</time></trkpt><trkpt lat="41.95848094095807" lon="12.821012090409422"><ele>261.0</ele><time>2026-04-03T11:02:33Z</time></trkpt><trkpt lat="41.95835994428435" lon="12.820928955435928"><ele>261.0</ele><time>2026-04-03T11:02:34Z</time></trkpt><trkpt lat="41.95825818880265" lon="12.82083517490387"><ele>261.0</ele><time>2026-04-03T11:02:35Z</time></trkpt><trkpt lat="41.95814156009906" lon="12.820751516526473"><ele>261.0</ele><time>2026-04-03T11:02:36Z</time></trkpt><trkpt lat="41.9580288597428" lon="12.820667947884706"><ele>261.0</ele><time>2026-04-03T11:02:37Z</time></trkpt><trkpt lat="41.957908837935186" lon="12.820574380325281"><ele>261.0</ele><time>2026-04-03T11:02:38Z</time></trkpt><trkpt lat="41.957791043336634" lon="12.820472676596658"><ele>261.0</ele><time>2026-04-03T11:02:39Z</time></trkpt><trkpt lat="41.957671625391356" lon="12.820376503298153"><ele>261.0</ele><time>2026-04-03T11:02:40Z</time></trkpt><trkpt lat="41.957554237072685" lon="12.820216389706"><ele>261.0</ele><time>2026-04-03T11:02:41Z</time></trkpt><trkpt lat="41.95743955987217" lon="12.820069283073554"><ele>261.0</ele><time>2026-04-03T11:02:42Z</time></trkpt><trkpt lat="41.957327214257795" lon="12.819910787861058"><ele>260.6666666666667</ele><time>2026-04-03T11:02:43Z</time></trkpt><trkpt lat="41.95722758318698" lon="12.819735429485508"><ele>260.33333333333337</ele><time>2026-04-03T11:02:44Z</time></trkpt><trkpt lat="41.957125903708565" lon="12.81956223231381"><ele>260.0</ele><time>2026-04-03T11:02:45Z</time></trkpt><trkpt lat="41.9570398544364" lon="12.81935695269851"><ele>263.33333333333337</ele><time>2026-04-03T11:02:46Z</time></trkpt><trkpt lat="41.956922383736014" lon="12.819143924356517"><ele>266.6666666666667</ele><time>2026-04-03T11:02:47Z</time></trkpt><trkpt lat="41.95681604367822" lon="12.818942358287488"><ele>270.0</ele><time>2026-04-03T11:02:48Z</time></trkpt><trkpt lat="41.95670469289741" lon="12.818747934165453"><ele>267.3333333333333</ele><time>2026-04-03T11:02:49Z</time></trkpt><trkpt lat="41.95657841385681" lon="12.818558183335385"><ele>264.66666666666663</ele><time>2026-04-03T11:02:50Z</time></trkpt><trkpt lat="41.956448294674075" lon="12.818382793171487"><ele>262.0</ele><time>2026-04-03T11:02:51Z</time></trkpt><trkpt lat="41.96060566227322" lon="12.805862400404218"><ele>254.66666666666666</ele><time>2026-04-03T11:03:52Z</time></trkpt><trkpt lat="41.96080462927484" lon="12.805861646523258"><ele>247.33333333333331</ele><time>2026-04-03T11:03:53Z</time></trkpt><trkpt lat="41.961004073967906" lon="12.805849063883642"><ele>240.0</ele><time>2026-04-03T11:03:54Z</time></trkpt><trkpt lat="41.96117370750559" lon="12.805851470464534"><ele>240.0</ele><time>2026-04-03T11:03:55Z</time></trkpt><trkpt lat="41.96133079414901" lon="12.805841498983737"><ele>240.0</ele><time>2026-04-03T11:03:56Z</time></trkpt><trkpt lat="41.961473526868446" lon="12.805811656836593"><ele>240.0</ele><time>2026-04-03T11:03:57Z</time></trkpt><trkpt lat="41.9616161331923" lon="12.805754932309892"><ele>243.5</ele><time>2026-04-03T11:03:58Z</time></trkpt><trkpt lat="41.9617590708805" lon="12.805676967947976"><ele>247.0</ele><time>2026-04-03T11:03:59Z</time></trkpt><trkpt lat="41.961891991008684" lon="12.805607769988752"><ele>250.5</ele><time>2026-04-03T11:04:00Z</time></trkpt><trkpt lat="41.96201984706756" lon="12.80554623911861"><ele>254.0</ele><time>2026-04-03T11:04:01Z</time></trkpt><trkpt lat="41.962160484933044" lon="12.805469987430618"><ele>254.0</ele><time>2026-04-03T11:04:02Z</time></trkpt><trkpt lat="41.962313922311466" lon="12.805374922821581"><ele>254.0</ele><time>2026-04-03T11:04:03Z</time></trkpt><trkpt lat="41.962502003228416" lon="12.805276458961892"><ele>254.0</ele><time>2026-04-03T11:04:04Z</time></trkpt><trkpt lat="41.96266991137288" lon="12.805216637994635"><ele>251.66666666666669</ele><time>2026-04-03T11:04:05Z</time></trkpt><trkpt lat="41.9628080219007" lon="12.805142617024504"><ele>249.33333333333331</ele><time>2026-04-03T11:04:06Z</time></trkpt><trkpt lat="41.96293538112162" lon="12.80504718361032"><ele>247.0</ele><time>2026-04-03T11:04:07Z</time></trkpt><trkpt lat="41.963086255020556" lon="12.80489106532715"><ele>247.0</ele><time>2026-04-03T11:04:08Z</time></trkpt><trkpt lat="41.963248970571655" lon="12.804745044456732"><ele>247.0</ele><time>2026-04-03T11:04:09Z</time></trkpt><trkpt lat="41.963385160729686" lon="12.804629787252818"><ele>247.0</ele><time>2026-04-03T11:04:10Z</time></trkpt><trkpt lat="41.963479285269024" lon="12.80450337796411"><ele>249.2</ele><time>2026-04-03T11:04:11Z</time></trkpt><trkpt lat="41.96354570065911" lon="12.804360822226666"><ele>251.39999999999998</ele><time>2026-04-03T11:04:12Z</time></trkpt><trkpt lat="41.96360049915011" lon="12.804227461085791"><ele>253.60000000000002</ele><time>2026-04-03T11:04:13Z</time></trkpt><trkpt lat="41.96364452792103" lon="12.804113821555946"><ele>255.8</ele><time>2026-04-03T11:04:14Z</time></trkpt><trkpt lat="41.96369193937101" lon="12.80400915836659"><ele>258.0</ele><time>2026-04-03T11:04:15Z</time></trkpt><trkpt lat="41.96374593659158" lon="12.803909040985435"><ele>258.0</ele><time>2026-04-03T11:04:16Z</time></trkpt><trkpt lat="41.96380833290346" lon="12.803782961587775"><ele>258.0</ele><time>2026-04-03T11:04:17Z</time></trkpt><trkpt lat="41.963865393054256" lon="12.803641376307361"><ele>258.0</ele><time>2026-04-03T11:04:18Z</time></trkpt><trkpt lat="41.96392762124045" lon="12.803522354352816"><ele>258.0</ele><time>2026-04-03T11:04:19Z</time></trkpt><trkpt lat="41.963977481440686" lon="12.803400390664994"><ele>258.0</ele><time>2026-04-03T11:04:20Z</time></trkpt><trkpt lat="41.964043458245065" lon="12.803270127711814"><ele>256.75</ele><time>2026-04-03T11:04:21Z</time></trkpt><trkpt lat="41.96411231589303" lon="12.803149580194273"><ele>255.5</ele><time>2026-04-03T11:04:22Z</time></trkpt><trkpt lat="41.96419199750447" lon="12.803038835461443"><ele>254.25</ele><time>2026-04-03T11:04:23Z</time></trkpt><trkpt lat="41.96427416595058" lon="12.80290051753847"><ele>253.0</ele><time>2026-04-03T11:04:24Z</time></trkpt><trkpt lat="41.964374131619515" lon="12.802791707699845"><ele>253.0</ele><time>2026-04-03T11:04:25Z</time></trkpt><trkpt lat="41.9644529816671" lon="12.802725344301221"><ele>253.0</ele><time>2026-04-03T11:04:26Z</time></trkpt><trkpt lat="41.964511069948855" lon="12.802656843613791"><ele>253.0</ele><time>2026-04-03T11:04:27Z</time></trkpt><trkpt lat="41.96457694402085" lon="12.80257062689192"><ele>253.0</ele><time>2026-04-03T11:04:28Z</time></trkpt><trkpt lat="41.964653318943206" lon="12.80247867032899"><ele>253.0</ele><time>2026-04-03T11:04:29Z</time></trkpt><trkpt lat="41.96472627548845" lon="12.802393614199389"><ele>249.49999999999997</ele><time>2026-04-03T11:04:30Z</time></trkpt><trkpt lat="41.9647953924242" lon="12.802310507342751"><ele>246.0</ele><time>2026-04-03T11:04:31Z</time></trkpt><trkpt lat="41.96486377857605" lon="12.802239338682847"><ele>242.5</ele><time>2026-04-03T11:04:32Z</time></trkpt><trkpt lat="41.96492128418885" lon="12.80216552327076"><ele>239.0</ele><time>2026-04-03T11:04:33Z</time></trkpt><trkpt lat="41.964977230190165" lon="12.80209539256942"><ele>235.49999999999997</ele><time>2026-04-03T11:04:34Z</time></trkpt><trkpt lat="41.965035552791505" lon="12.802046824102693"><ele>232.0</ele><time>2026-04-03T11:04:35Z</time></trkpt><trkpt lat="41.965129954881824" lon="12.801986263985043"><ele>230.8</ele><time>2026-04-03T11:04:37Z</time></trkpt><trkpt lat="41.96523888965043" lon="12.801976285209706"><ele>229.6</ele><time>2026-04-03T11:04:39Z</time></trkpt><trkpt lat="41.96531127261488" lon="12.80187661206158"><ele>228.40000000000003</ele><time>2026-04-03T11:04:41Z</time></trkpt><trkpt lat="41.96534885371357" lon="12.801806895312065"><ele>227.20000000000002</ele><time>2026-04-03T11:04:43Z</time></trkpt><trkpt lat="41.965300825288445" lon="12.801652011027619"><ele>226.0</ele><time>2026-04-03T11:04:44Z</time></trkpt><trkpt lat="41.96531353535931" lon="12.801517916950186"><ele>215.0</ele><time>2026-04-03T11:04:46Z</time></trkpt><trkpt lat="41.9653260383091" lon="12.8013839113973"><ele>215.0</ele><time>2026-04-03T11:04:48Z</time></trkpt></trkseg></trk></gpx>